<?xml version="1.0" encoding="UTF-8" standalone="no" ?>
<gpx xmlns="http://www.topografix.com/GPX/1/1" xmlns:xsi="http://www.w3.org/2001/XMLSchema-instance" xsi:schemaLocation="http://www.topografix.com/GPX/1/1 http://www.topografix.com/GPX/1/1/gpx.xsd" version="1.1" creator="VisuGPX - https://www.visugpx.com">
  <metadata>
    <name>Pic de Bastan</name>
    <desc><![CDATA[Parking du Virage du Garet (route du col du Tourmalet)]]></desc>
  </metadata>
  <trk>
    <name><![CDATA[Pic de Bastan]]></name>
    <extensions>
      <line xmlns="http://www.topografix.com/GPX/gpx_style/0/2">
        <width>4</width>
      </line>
    </extensions>
    <trkseg>
      <trkpt lat="42.91717" lon="0.20915">
        <ele>1432.6</ele>
        <time>2021-07-22T05:30:25.000Z</time>
      </trkpt>
      <trkpt lat="42.91717" lon="0.20915">
        <ele>1432.7</ele>
        <time>2021-07-22T05:30:26.000Z</time>
      </trkpt>
      <trkpt lat="42.91717" lon="0.20915">
        <ele>1434.6</ele>
        <time>2021-07-22T05:30:51.000Z</time>
      </trkpt>
      <trkpt lat="42.91719" lon="0.20914">
        <ele>1433.1</ele>
        <time>2021-07-22T05:31:01.000Z</time>
      </trkpt>
      <trkpt lat="42.91718" lon="0.20914">
        <ele>1431.9</ele>
        <time>2021-07-22T05:31:08.000Z</time>
      </trkpt>
      <trkpt lat="42.91718" lon="0.20914">
        <ele>1431.9</ele>
        <time>2021-07-22T05:31:09.000Z</time>
      </trkpt>
      <trkpt lat="42.91719" lon="0.20914">
        <ele>1434.6</ele>
        <time>2021-07-22T05:31:21.000Z</time>
      </trkpt>
      <trkpt lat="42.91719" lon="0.20914">
        <ele>1434.6</ele>
        <time>2021-07-22T05:31:21.000Z</time>
      </trkpt>
      <trkpt lat="42.91719" lon="0.20914">
        <ele>1434.7</ele>
        <time>2021-07-22T05:31:22.000Z</time>
      </trkpt>
      <trkpt lat="42.91718" lon="0.20914">
        <ele>1434.8</ele>
        <time>2021-07-22T05:31:23.000Z</time>
      </trkpt>
      <trkpt lat="42.91719" lon="0.20914">
        <ele>1433.4</ele>
        <time>2021-07-22T05:31:27.000Z</time>
      </trkpt>
      <trkpt lat="42.91719" lon="0.20914">
        <ele>1433.1</ele>
        <time>2021-07-22T05:31:28.000Z</time>
      </trkpt>
      <trkpt lat="42.91717" lon="0.20908">
        <ele>1432.8</ele>
        <time>2021-07-22T05:31:46.000Z</time>
      </trkpt>
      <trkpt lat="42.91717" lon="0.20908">
        <ele>1433.1</ele>
        <time>2021-07-22T05:31:48.000Z</time>
      </trkpt>
      <trkpt lat="42.91709" lon="0.20914">
        <ele>1433</ele>
        <time>2021-07-22T05:31:59.000Z</time>
      </trkpt>
      <trkpt lat="42.917" lon="0.20921">
        <ele>1432.3</ele>
        <time>2021-07-22T05:32:07.000Z</time>
      </trkpt>
      <trkpt lat="42.91694" lon="0.20929">
        <ele>1431.7</ele>
        <time>2021-07-22T05:32:15.000Z</time>
      </trkpt>
      <trkpt lat="42.9169" lon="0.20941">
        <ele>1430.7</ele>
        <time>2021-07-22T05:32:23.000Z</time>
      </trkpt>
      <trkpt lat="42.91686" lon="0.20952">
        <ele>1430.3</ele>
        <time>2021-07-22T05:32:34.000Z</time>
      </trkpt>
      <trkpt lat="42.91686" lon="0.20953">
        <ele>1430.3</ele>
        <time>2021-07-22T05:32:37.000Z</time>
      </trkpt>
      <trkpt lat="42.91685" lon="0.20953">
        <ele>1430</ele>
        <time>2021-07-22T05:32:39.000Z</time>
      </trkpt>
      <trkpt lat="42.91685" lon="0.20953">
        <ele>1429.9</ele>
        <time>2021-07-22T05:32:40.000Z</time>
      </trkpt>
      <trkpt lat="42.91685" lon="0.20953">
        <ele>1430.6</ele>
        <time>2021-07-22T05:32:43.000Z</time>
      </trkpt>
      <trkpt lat="42.9168" lon="0.20942">
        <ele>1430.6</ele>
        <time>2021-07-22T05:32:55.000Z</time>
      </trkpt>
      <trkpt lat="42.91672" lon="0.20933">
        <ele>1431.1</ele>
        <time>2021-07-22T05:33:04.000Z</time>
      </trkpt>
      <trkpt lat="42.91664" lon="0.20924">
        <ele>1430.9</ele>
        <time>2021-07-22T05:33:12.000Z</time>
      </trkpt>
      <trkpt lat="42.91663" lon="0.2092">
        <ele>1430.4</ele>
        <time>2021-07-22T05:33:16.000Z</time>
      </trkpt>
      <trkpt lat="42.91662" lon="0.20919">
        <ele>1430.2</ele>
        <time>2021-07-22T05:33:18.000Z</time>
      </trkpt>
      <trkpt lat="42.91671" lon="0.20924">
        <ele>1426.2</ele>
        <time>2021-07-22T05:33:38.000Z</time>
      </trkpt>
      <trkpt lat="42.91678" lon="0.20932">
        <ele>1425.7</ele>
        <time>2021-07-22T05:33:42.000Z</time>
      </trkpt>
      <trkpt lat="42.91671" lon="0.20941">
        <ele>1424.1</ele>
        <time>2021-07-22T05:33:50.000Z</time>
      </trkpt>
      <trkpt lat="42.91661" lon="0.20936">
        <ele>1424.8</ele>
        <time>2021-07-22T05:34:05.000Z</time>
      </trkpt>
      <trkpt lat="42.91652" lon="0.20933">
        <ele>1425.7</ele>
        <time>2021-07-22T05:34:10.000Z</time>
      </trkpt>
      <trkpt lat="42.91642" lon="0.20934">
        <ele>1426.3</ele>
        <time>2021-07-22T05:34:16.000Z</time>
      </trkpt>
      <trkpt lat="42.91635" lon="0.20942">
        <ele>1427</ele>
        <time>2021-07-22T05:34:25.000Z</time>
      </trkpt>
      <trkpt lat="42.91637" lon="0.20955">
        <ele>1426.1</ele>
        <time>2021-07-22T05:34:34.000Z</time>
      </trkpt>
      <trkpt lat="42.9164" lon="0.20967">
        <ele>1425.3</ele>
        <time>2021-07-22T05:34:41.000Z</time>
      </trkpt>
      <trkpt lat="42.91637" lon="0.20979">
        <ele>1425.5</ele>
        <time>2021-07-22T05:34:53.000Z</time>
      </trkpt>
      <trkpt lat="42.91633" lon="0.20991">
        <ele>1427.7</ele>
        <time>2021-07-22T05:35:07.000Z</time>
      </trkpt>
      <trkpt lat="42.91632" lon="0.21003">
        <ele>1429.7</ele>
        <time>2021-07-22T05:35:16.000Z</time>
      </trkpt>
      <trkpt lat="42.91625" lon="0.21011">
        <ele>1431</ele>
        <time>2021-07-22T05:35:26.000Z</time>
      </trkpt>
      <trkpt lat="42.91622" lon="0.21012">
        <ele>1430.5</ele>
        <time>2021-07-22T05:35:32.000Z</time>
      </trkpt>
      <trkpt lat="42.91623" lon="0.21012">
        <ele>1430.4</ele>
        <time>2021-07-22T05:35:33.000Z</time>
      </trkpt>
      <trkpt lat="42.91614" lon="0.21019">
        <ele>1430.3</ele>
        <time>2021-07-22T05:35:45.000Z</time>
      </trkpt>
      <trkpt lat="42.91609" lon="0.2103">
        <ele>1430.3</ele>
        <time>2021-07-22T05:35:54.000Z</time>
      </trkpt>
      <trkpt lat="42.91608" lon="0.21043">
        <ele>1431.2</ele>
        <time>2021-07-22T05:36:00.000Z</time>
      </trkpt>
      <trkpt lat="42.91606" lon="0.21056">
        <ele>1433</ele>
        <time>2021-07-22T05:36:09.000Z</time>
      </trkpt>
      <trkpt lat="42.91603" lon="0.21068">
        <ele>1435.1</ele>
        <time>2021-07-22T05:36:19.000Z</time>
      </trkpt>
      <trkpt lat="42.91601" lon="0.21081">
        <ele>1436.8</ele>
        <time>2021-07-22T05:36:29.000Z</time>
      </trkpt>
      <trkpt lat="42.91601" lon="0.21094">
        <ele>1438.2</ele>
        <time>2021-07-22T05:36:38.000Z</time>
      </trkpt>
      <trkpt lat="42.91596" lon="0.21104">
        <ele>1439.7</ele>
        <time>2021-07-22T05:36:46.000Z</time>
      </trkpt>
      <trkpt lat="42.91587" lon="0.2111">
        <ele>1441.5</ele>
        <time>2021-07-22T05:36:54.000Z</time>
      </trkpt>
      <trkpt lat="42.91582" lon="0.21121">
        <ele>1443.9</ele>
        <time>2021-07-22T05:37:08.000Z</time>
      </trkpt>
      <trkpt lat="42.91574" lon="0.21126">
        <ele>1446.2</ele>
        <time>2021-07-22T05:37:16.000Z</time>
      </trkpt>
      <trkpt lat="42.91571" lon="0.21138">
        <ele>1448.7</ele>
        <time>2021-07-22T05:37:29.000Z</time>
      </trkpt>
      <trkpt lat="42.91571" lon="0.21138">
        <ele>1449.5</ele>
        <time>2021-07-22T05:37:32.000Z</time>
      </trkpt>
      <trkpt lat="42.91571" lon="0.21138">
        <ele>1449.7</ele>
        <time>2021-07-22T05:37:33.000Z</time>
      </trkpt>
      <trkpt lat="42.91569" lon="0.2114">
        <ele>1450.9</ele>
        <time>2021-07-22T05:37:39.000Z</time>
      </trkpt>
      <trkpt lat="42.91569" lon="0.2114">
        <ele>1451.1</ele>
        <time>2021-07-22T05:37:40.000Z</time>
      </trkpt>
      <trkpt lat="42.91567" lon="0.21148">
        <ele>1454.5</ele>
        <time>2021-07-22T05:37:58.000Z</time>
      </trkpt>
      <trkpt lat="42.91568" lon="0.21148">
        <ele>1454.6</ele>
        <time>2021-07-22T05:37:59.000Z</time>
      </trkpt>
      <trkpt lat="42.91564" lon="0.2116">
        <ele>1458.1</ele>
        <time>2021-07-22T05:38:16.000Z</time>
      </trkpt>
      <trkpt lat="42.91554" lon="0.21161">
        <ele>1461.4</ele>
        <time>2021-07-22T05:38:32.000Z</time>
      </trkpt>
      <trkpt lat="42.91545" lon="0.21164">
        <ele>1462.8</ele>
        <time>2021-07-22T05:38:41.000Z</time>
      </trkpt>
      <trkpt lat="42.91535" lon="0.21164">
        <ele>1464.1</ele>
        <time>2021-07-22T05:38:50.000Z</time>
      </trkpt>
      <trkpt lat="42.91536" lon="0.21165">
        <ele>1464.5</ele>
        <time>2021-07-22T05:38:52.000Z</time>
      </trkpt>
      <trkpt lat="42.91535" lon="0.21165">
        <ele>1464.7</ele>
        <time>2021-07-22T05:38:53.000Z</time>
      </trkpt>
      <trkpt lat="42.91541" lon="0.21175">
        <ele>1467.3</ele>
        <time>2021-07-22T05:39:07.000Z</time>
      </trkpt>
      <trkpt lat="42.91545" lon="0.21186">
        <ele>1471</ele>
        <time>2021-07-22T05:39:25.000Z</time>
      </trkpt>
      <trkpt lat="42.91537" lon="0.21193">
        <ele>1473.4</ele>
        <time>2021-07-22T05:39:40.000Z</time>
      </trkpt>
      <trkpt lat="42.91545" lon="0.212">
        <ele>1475.7</ele>
        <time>2021-07-22T05:39:55.000Z</time>
      </trkpt>
      <trkpt lat="42.9155" lon="0.21209">
        <ele>1479.4</ele>
        <time>2021-07-22T05:40:15.000Z</time>
      </trkpt>
      <trkpt lat="42.9155" lon="0.2121">
        <ele>1479.7</ele>
        <time>2021-07-22T05:40:16.000Z</time>
      </trkpt>
      <trkpt lat="42.91544" lon="0.21218">
        <ele>1482.4</ele>
        <time>2021-07-22T05:40:30.000Z</time>
      </trkpt>
      <trkpt lat="42.91533" lon="0.21224">
        <ele>1483.6</ele>
        <time>2021-07-22T05:40:37.000Z</time>
      </trkpt>
      <trkpt lat="42.91523" lon="0.21223">
        <ele>1484.7</ele>
        <time>2021-07-22T05:40:45.000Z</time>
      </trkpt>
      <trkpt lat="42.91536" lon="0.21225">
        <ele>1485</ele>
        <time>2021-07-22T05:40:49.000Z</time>
      </trkpt>
      <trkpt lat="42.91535" lon="0.21238">
        <ele>1487.4</ele>
        <time>2021-07-22T05:41:08.000Z</time>
      </trkpt>
      <trkpt lat="42.91538" lon="0.21241">
        <ele>1487.9</ele>
        <time>2021-07-22T05:41:12.000Z</time>
      </trkpt>
      <trkpt lat="42.91538" lon="0.21242">
        <ele>1488.2</ele>
        <time>2021-07-22T05:41:14.000Z</time>
      </trkpt>
      <trkpt lat="42.91543" lon="0.21253">
        <ele>1490.6</ele>
        <time>2021-07-22T05:41:27.000Z</time>
      </trkpt>
      <trkpt lat="42.91545" lon="0.21263">
        <ele>1493.4</ele>
        <time>2021-07-22T05:41:39.000Z</time>
      </trkpt>
      <trkpt lat="42.91545" lon="0.21263">
        <ele>1493.7</ele>
        <time>2021-07-22T05:41:40.000Z</time>
      </trkpt>
      <trkpt lat="42.91548" lon="0.21275">
        <ele>1496.1</ele>
        <time>2021-07-22T05:41:51.000Z</time>
      </trkpt>
      <trkpt lat="42.91553" lon="0.21287">
        <ele>1498.9</ele>
        <time>2021-07-22T05:42:07.000Z</time>
      </trkpt>
      <trkpt lat="42.91558" lon="0.21295">
        <ele>1500.3</ele>
        <time>2021-07-22T05:42:19.000Z</time>
      </trkpt>
      <trkpt lat="42.91558" lon="0.21296">
        <ele>1500.5</ele>
        <time>2021-07-22T05:42:22.000Z</time>
      </trkpt>
      <trkpt lat="42.91558" lon="0.21296">
        <ele>1500.5</ele>
        <time>2021-07-22T05:42:23.000Z</time>
      </trkpt>
      <trkpt lat="42.91558" lon="0.21296">
        <ele>1500.5</ele>
        <time>2021-07-22T05:42:24.000Z</time>
      </trkpt>
      <trkpt lat="42.91558" lon="0.21297">
        <ele>1500.7</ele>
        <time>2021-07-22T05:42:26.000Z</time>
      </trkpt>
      <trkpt lat="42.91559" lon="0.21298">
        <ele>1500.9</ele>
        <time>2021-07-22T05:42:27.000Z</time>
      </trkpt>
      <trkpt lat="42.91566" lon="0.21306">
        <ele>1503.3</ele>
        <time>2021-07-22T05:42:44.000Z</time>
      </trkpt>
      <trkpt lat="42.91569" lon="0.21318">
        <ele>1506.5</ele>
        <time>2021-07-22T05:43:01.000Z</time>
      </trkpt>
      <trkpt lat="42.9157" lon="0.21322">
        <ele>1509.2</ele>
        <time>2021-07-22T05:43:12.000Z</time>
      </trkpt>
      <trkpt lat="42.9157" lon="0.21322">
        <ele>1509.6</ele>
        <time>2021-07-22T05:43:13.000Z</time>
      </trkpt>
      <trkpt lat="42.91569" lon="0.21325">
        <ele>1511</ele>
        <time>2021-07-22T05:43:22.000Z</time>
      </trkpt>
      <trkpt lat="42.9157" lon="0.21325">
        <ele>1511.2</ele>
        <time>2021-07-22T05:43:23.000Z</time>
      </trkpt>
      <trkpt lat="42.91569" lon="0.21338">
        <ele>1517.1</ele>
        <time>2021-07-22T05:43:54.000Z</time>
      </trkpt>
      <trkpt lat="42.91569" lon="0.2134">
        <ele>1518.3</ele>
        <time>2021-07-22T05:44:00.000Z</time>
      </trkpt>
      <trkpt lat="42.91571" lon="0.21344">
        <ele>1518.5</ele>
        <time>2021-07-22T05:44:01.000Z</time>
      </trkpt>
      <trkpt lat="42.91579" lon="0.21354">
        <ele>1521.6</ele>
        <time>2021-07-22T05:44:14.000Z</time>
      </trkpt>
      <trkpt lat="42.91584" lon="0.21365">
        <ele>1523.8</ele>
        <time>2021-07-22T05:44:25.000Z</time>
      </trkpt>
      <trkpt lat="42.9159" lon="0.21375">
        <ele>1527</ele>
        <time>2021-07-22T05:44:40.000Z</time>
      </trkpt>
      <trkpt lat="42.91593" lon="0.2138">
        <ele>1528.9</ele>
        <time>2021-07-22T05:44:51.000Z</time>
      </trkpt>
      <trkpt lat="42.91593" lon="0.2138">
        <ele>1529.1</ele>
        <time>2021-07-22T05:44:52.000Z</time>
      </trkpt>
      <trkpt lat="42.91593" lon="0.21393">
        <ele>1533.1</ele>
        <time>2021-07-22T05:45:11.000Z</time>
      </trkpt>
      <trkpt lat="42.91592" lon="0.21405">
        <ele>1536</ele>
        <time>2021-07-22T05:45:27.000Z</time>
      </trkpt>
      <trkpt lat="42.91586" lon="0.21414">
        <ele>1539</ele>
        <time>2021-07-22T05:45:40.000Z</time>
      </trkpt>
      <trkpt lat="42.9158" lon="0.21424">
        <ele>1541.1</ele>
        <time>2021-07-22T05:45:51.000Z</time>
      </trkpt>
      <trkpt lat="42.91574" lon="0.21433">
        <ele>1543.3</ele>
        <time>2021-07-22T05:46:04.000Z</time>
      </trkpt>
      <trkpt lat="42.9157" lon="0.21444">
        <ele>1545.1</ele>
        <time>2021-07-22T05:46:14.000Z</time>
      </trkpt>
      <trkpt lat="42.91566" lon="0.21456">
        <ele>1546.2</ele>
        <time>2021-07-22T05:46:23.000Z</time>
      </trkpt>
      <trkpt lat="42.9156" lon="0.21465">
        <ele>1545.9</ele>
        <time>2021-07-22T05:46:32.000Z</time>
      </trkpt>
      <trkpt lat="42.91557" lon="0.21478">
        <ele>1547.4</ele>
        <time>2021-07-22T05:46:41.000Z</time>
      </trkpt>
      <trkpt lat="42.91553" lon="0.21491">
        <ele>1548.7</ele>
        <time>2021-07-22T05:46:50.000Z</time>
      </trkpt>
      <trkpt lat="42.9155" lon="0.21503">
        <ele>1549.2</ele>
        <time>2021-07-22T05:47:00.000Z</time>
      </trkpt>
      <trkpt lat="42.91546" lon="0.21515">
        <ele>1550.3</ele>
        <time>2021-07-22T05:47:12.000Z</time>
      </trkpt>
      <trkpt lat="42.91544" lon="0.21528">
        <ele>1551</ele>
        <time>2021-07-22T05:47:23.000Z</time>
      </trkpt>
      <trkpt lat="42.91538" lon="0.21539">
        <ele>1552</ele>
        <time>2021-07-22T05:47:34.000Z</time>
      </trkpt>
      <trkpt lat="42.91534" lon="0.2155">
        <ele>1553</ele>
        <time>2021-07-22T05:47:43.000Z</time>
      </trkpt>
      <trkpt lat="42.91532" lon="0.21564">
        <ele>1553</ele>
        <time>2021-07-22T05:47:51.000Z</time>
      </trkpt>
      <trkpt lat="42.91529" lon="0.21576">
        <ele>1553.3</ele>
        <time>2021-07-22T05:47:58.000Z</time>
      </trkpt>
      <trkpt lat="42.91523" lon="0.21587">
        <ele>1553.6</ele>
        <time>2021-07-22T05:48:06.000Z</time>
      </trkpt>
      <trkpt lat="42.91518" lon="0.21599">
        <ele>1553</ele>
        <time>2021-07-22T05:48:14.000Z</time>
      </trkpt>
      <trkpt lat="42.91514" lon="0.21611">
        <ele>1552.8</ele>
        <time>2021-07-22T05:48:21.000Z</time>
      </trkpt>
      <trkpt lat="42.91506" lon="0.2162">
        <ele>1553.1</ele>
        <time>2021-07-22T05:48:30.000Z</time>
      </trkpt>
      <trkpt lat="42.91499" lon="0.21628">
        <ele>1553.6</ele>
        <time>2021-07-22T05:48:37.000Z</time>
      </trkpt>
      <trkpt lat="42.91492" lon="0.21638">
        <ele>1553.7</ele>
        <time>2021-07-22T05:48:45.000Z</time>
      </trkpt>
      <trkpt lat="42.91487" lon="0.21649">
        <ele>1554.3</ele>
        <time>2021-07-22T05:48:53.000Z</time>
      </trkpt>
      <trkpt lat="42.91482" lon="0.2166">
        <ele>1555.1</ele>
        <time>2021-07-22T05:49:00.000Z</time>
      </trkpt>
      <trkpt lat="42.91477" lon="0.2167">
        <ele>1555.7</ele>
        <time>2021-07-22T05:49:08.000Z</time>
      </trkpt>
      <trkpt lat="42.91468" lon="0.21671">
        <ele>1555.5</ele>
        <time>2021-07-22T05:49:17.000Z</time>
      </trkpt>
      <trkpt lat="42.91468" lon="0.21671">
        <ele>1555.7</ele>
        <time>2021-07-22T05:49:19.000Z</time>
      </trkpt>
      <trkpt lat="42.91468" lon="0.21672">
        <ele>1555.5</ele>
        <time>2021-07-22T05:49:20.000Z</time>
      </trkpt>
      <trkpt lat="42.91458" lon="0.21673">
        <ele>1555.7</ele>
        <time>2021-07-22T05:49:30.000Z</time>
      </trkpt>
      <trkpt lat="42.91449" lon="0.21673">
        <ele>1555.5</ele>
        <time>2021-07-22T05:49:38.000Z</time>
      </trkpt>
      <trkpt lat="42.91439" lon="0.21674">
        <ele>1555.5</ele>
        <time>2021-07-22T05:49:45.000Z</time>
      </trkpt>
      <trkpt lat="42.9143" lon="0.21671">
        <ele>1555.8</ele>
        <time>2021-07-22T05:49:53.000Z</time>
      </trkpt>
      <trkpt lat="42.91421" lon="0.21674">
        <ele>1555.4</ele>
        <time>2021-07-22T05:50:00.000Z</time>
      </trkpt>
      <trkpt lat="42.91411" lon="0.21672">
        <ele>1556.1</ele>
        <time>2021-07-22T05:50:07.000Z</time>
      </trkpt>
      <trkpt lat="42.91401" lon="0.21669">
        <ele>1555.8</ele>
        <time>2021-07-22T05:50:14.000Z</time>
      </trkpt>
      <trkpt lat="42.91392" lon="0.2167">
        <ele>1555.9</ele>
        <time>2021-07-22T05:50:24.000Z</time>
      </trkpt>
      <trkpt lat="42.91383" lon="0.21667">
        <ele>1556.2</ele>
        <time>2021-07-22T05:50:31.000Z</time>
      </trkpt>
      <trkpt lat="42.91375" lon="0.21661">
        <ele>1556.6</ele>
        <time>2021-07-22T05:50:37.000Z</time>
      </trkpt>
      <trkpt lat="42.91366" lon="0.21655">
        <ele>1556.5</ele>
        <time>2021-07-22T05:50:43.000Z</time>
      </trkpt>
      <trkpt lat="42.91357" lon="0.21651">
        <ele>1557.3</ele>
        <time>2021-07-22T05:50:52.000Z</time>
      </trkpt>
      <trkpt lat="42.91349" lon="0.21645">
        <ele>1557.5</ele>
        <time>2021-07-22T05:51:00.000Z</time>
      </trkpt>
      <trkpt lat="42.91341" lon="0.21639">
        <ele>1557.4</ele>
        <time>2021-07-22T05:51:08.000Z</time>
      </trkpt>
      <trkpt lat="42.91334" lon="0.21631">
        <ele>1557.4</ele>
        <time>2021-07-22T05:51:15.000Z</time>
      </trkpt>
      <trkpt lat="42.91325" lon="0.21627">
        <ele>1556.6</ele>
        <time>2021-07-22T05:51:22.000Z</time>
      </trkpt>
      <trkpt lat="42.91316" lon="0.21624">
        <ele>1556.5</ele>
        <time>2021-07-22T05:51:28.000Z</time>
      </trkpt>
      <trkpt lat="42.91307" lon="0.21621">
        <ele>1555.4</ele>
        <time>2021-07-22T05:51:52.000Z</time>
      </trkpt>
      <trkpt lat="42.91298" lon="0.21618">
        <ele>1555.6</ele>
        <time>2021-07-22T05:51:58.000Z</time>
      </trkpt>
      <trkpt lat="42.91288" lon="0.21615">
        <ele>1556</ele>
        <time>2021-07-22T05:52:06.000Z</time>
      </trkpt>
      <trkpt lat="42.9128" lon="0.21609">
        <ele>1555.8</ele>
        <time>2021-07-22T05:52:13.000Z</time>
      </trkpt>
      <trkpt lat="42.91271" lon="0.21603">
        <ele>1555.7</ele>
        <time>2021-07-22T05:52:20.000Z</time>
      </trkpt>
      <trkpt lat="42.91266" lon="0.21599">
        <ele>1555.5</ele>
        <time>2021-07-22T05:52:26.000Z</time>
      </trkpt>
      <trkpt lat="42.91266" lon="0.21599">
        <ele>1555.5</ele>
        <time>2021-07-22T05:52:27.000Z</time>
      </trkpt>
      <trkpt lat="42.91258" lon="0.21595">
        <ele>1554.7</ele>
        <time>2021-07-22T05:52:38.000Z</time>
      </trkpt>
      <trkpt lat="42.9125" lon="0.21589">
        <ele>1554.2</ele>
        <time>2021-07-22T05:52:46.000Z</time>
      </trkpt>
      <trkpt lat="42.9124" lon="0.21586">
        <ele>1553.4</ele>
        <time>2021-07-22T05:53:02.000Z</time>
      </trkpt>
      <trkpt lat="42.91231" lon="0.21581">
        <ele>1553</ele>
        <time>2021-07-22T05:53:07.000Z</time>
      </trkpt>
      <trkpt lat="42.91222" lon="0.21578">
        <ele>1552.6</ele>
        <time>2021-07-22T05:53:14.000Z</time>
      </trkpt>
      <trkpt lat="42.91212" lon="0.21574">
        <ele>1550.9</ele>
        <time>2021-07-22T05:53:22.000Z</time>
      </trkpt>
      <trkpt lat="42.91204" lon="0.21567">
        <ele>1550.8</ele>
        <time>2021-07-22T05:53:27.000Z</time>
      </trkpt>
      <trkpt lat="42.91197" lon="0.2156">
        <ele>1550.9</ele>
        <time>2021-07-22T05:53:39.000Z</time>
      </trkpt>
      <trkpt lat="42.9119" lon="0.21552">
        <ele>1551.1</ele>
        <time>2021-07-22T05:53:45.000Z</time>
      </trkpt>
      <trkpt lat="42.91183" lon="0.21544">
        <ele>1551.6</ele>
        <time>2021-07-22T05:53:51.000Z</time>
      </trkpt>
      <trkpt lat="42.91175" lon="0.21536">
        <ele>1553.2</ele>
        <time>2021-07-22T05:54:02.000Z</time>
      </trkpt>
      <trkpt lat="42.91171" lon="0.21525">
        <ele>1554.9</ele>
        <time>2021-07-22T05:54:12.000Z</time>
      </trkpt>
      <trkpt lat="42.91167" lon="0.21512">
        <ele>1554.9</ele>
        <time>2021-07-22T05:54:22.000Z</time>
      </trkpt>
      <trkpt lat="42.91158" lon="0.21508">
        <ele>1554</ele>
        <time>2021-07-22T05:54:32.000Z</time>
      </trkpt>
      <trkpt lat="42.91149" lon="0.21501">
        <ele>1554.3</ele>
        <time>2021-07-22T05:54:39.000Z</time>
      </trkpt>
      <trkpt lat="42.91142" lon="0.21493">
        <ele>1555.1</ele>
        <time>2021-07-22T05:54:46.000Z</time>
      </trkpt>
      <trkpt lat="42.91136" lon="0.21483">
        <ele>1556.2</ele>
        <time>2021-07-22T05:54:55.000Z</time>
      </trkpt>
      <trkpt lat="42.91129" lon="0.21474">
        <ele>1558.6</ele>
        <time>2021-07-22T05:55:05.000Z</time>
      </trkpt>
      <trkpt lat="42.9112" lon="0.21475">
        <ele>1560</ele>
        <time>2021-07-22T05:55:19.000Z</time>
      </trkpt>
      <trkpt lat="42.91113" lon="0.21482">
        <ele>1559.4</ele>
        <time>2021-07-22T05:55:29.000Z</time>
      </trkpt>
      <trkpt lat="42.91105" lon="0.21491">
        <ele>1559.2</ele>
        <time>2021-07-22T05:55:36.000Z</time>
      </trkpt>
      <trkpt lat="42.91097" lon="0.21497">
        <ele>1559.6</ele>
        <time>2021-07-22T05:55:42.000Z</time>
      </trkpt>
      <trkpt lat="42.91091" lon="0.21507">
        <ele>1558.4</ele>
        <time>2021-07-22T05:55:53.000Z</time>
      </trkpt>
      <trkpt lat="42.91088" lon="0.21519">
        <ele>1555.1</ele>
        <time>2021-07-22T05:56:02.000Z</time>
      </trkpt>
      <trkpt lat="42.91082" lon="0.2153">
        <ele>1553.5</ele>
        <time>2021-07-22T05:56:09.000Z</time>
      </trkpt>
      <trkpt lat="42.91074" lon="0.21538">
        <ele>1552.7</ele>
        <time>2021-07-22T05:56:16.000Z</time>
      </trkpt>
      <trkpt lat="42.91065" lon="0.21539">
        <ele>1552.6</ele>
        <time>2021-07-22T05:56:24.000Z</time>
      </trkpt>
      <trkpt lat="42.91056" lon="0.21536">
        <ele>1553.6</ele>
        <time>2021-07-22T05:56:33.000Z</time>
      </trkpt>
      <trkpt lat="42.91047" lon="0.2153">
        <ele>1555.8</ele>
        <time>2021-07-22T05:56:45.000Z</time>
      </trkpt>
      <trkpt lat="42.91038" lon="0.21525">
        <ele>1557.3</ele>
        <time>2021-07-22T05:56:56.000Z</time>
      </trkpt>
      <trkpt lat="42.91028" lon="0.21523">
        <ele>1557.7</ele>
        <time>2021-07-22T05:57:05.000Z</time>
      </trkpt>
      <trkpt lat="42.91021" lon="0.21513">
        <ele>1559.8</ele>
        <time>2021-07-22T05:57:17.000Z</time>
      </trkpt>
      <trkpt lat="42.91013" lon="0.21507">
        <ele>1561.9</ele>
        <time>2021-07-22T05:57:32.000Z</time>
      </trkpt>
      <trkpt lat="42.91006" lon="0.21499">
        <ele>1563.1</ele>
        <time>2021-07-22T05:57:42.000Z</time>
      </trkpt>
      <trkpt lat="42.90998" lon="0.21491">
        <ele>1563.7</ele>
        <time>2021-07-22T05:57:49.000Z</time>
      </trkpt>
      <trkpt lat="42.90989" lon="0.21486">
        <ele>1564</ele>
        <time>2021-07-22T05:57:58.000Z</time>
      </trkpt>
      <trkpt lat="42.9098" lon="0.2148">
        <ele>1564.3</ele>
        <time>2021-07-22T05:58:07.000Z</time>
      </trkpt>
      <trkpt lat="42.90972" lon="0.21474">
        <ele>1565.1</ele>
        <time>2021-07-22T05:58:14.000Z</time>
      </trkpt>
      <trkpt lat="42.90964" lon="0.21468">
        <ele>1566.9</ele>
        <time>2021-07-22T05:58:26.000Z</time>
      </trkpt>
      <trkpt lat="42.90956" lon="0.2146">
        <ele>1567.7</ele>
        <time>2021-07-22T05:58:35.000Z</time>
      </trkpt>
      <trkpt lat="42.9095" lon="0.21452">
        <ele>1567.9</ele>
        <time>2021-07-22T05:58:42.000Z</time>
      </trkpt>
      <trkpt lat="42.90942" lon="0.21445">
        <ele>1569.5</ele>
        <time>2021-07-22T05:58:50.000Z</time>
      </trkpt>
      <trkpt lat="42.90933" lon="0.21441">
        <ele>1570.9</ele>
        <time>2021-07-22T05:58:59.000Z</time>
      </trkpt>
      <trkpt lat="42.90923" lon="0.21436">
        <ele>1571.9</ele>
        <time>2021-07-22T05:59:08.000Z</time>
      </trkpt>
      <trkpt lat="42.90914" lon="0.21432">
        <ele>1573.1</ele>
        <time>2021-07-22T05:59:19.000Z</time>
      </trkpt>
      <trkpt lat="42.90906" lon="0.21425">
        <ele>1572.3</ele>
        <time>2021-07-22T05:59:27.000Z</time>
      </trkpt>
      <trkpt lat="42.90897" lon="0.21418">
        <ele>1572.5</ele>
        <time>2021-07-22T05:59:38.000Z</time>
      </trkpt>
      <trkpt lat="42.90891" lon="0.21408">
        <ele>1573.2</ele>
        <time>2021-07-22T05:59:49.000Z</time>
      </trkpt>
      <trkpt lat="42.90884" lon="0.21399">
        <ele>1573.8</ele>
        <time>2021-07-22T05:59:57.000Z</time>
      </trkpt>
      <trkpt lat="42.90877" lon="0.2139">
        <ele>1574.9</ele>
        <time>2021-07-22T06:00:06.000Z</time>
      </trkpt>
      <trkpt lat="42.90867" lon="0.21386">
        <ele>1575.8</ele>
        <time>2021-07-22T06:00:16.000Z</time>
      </trkpt>
      <trkpt lat="42.90859" lon="0.21379">
        <ele>1576.8</ele>
        <time>2021-07-22T06:00:27.000Z</time>
      </trkpt>
      <trkpt lat="42.90853" lon="0.21368">
        <ele>1577.6</ele>
        <time>2021-07-22T06:00:36.000Z</time>
      </trkpt>
      <trkpt lat="42.90847" lon="0.21358">
        <ele>1577.7</ele>
        <time>2021-07-22T06:00:43.000Z</time>
      </trkpt>
      <trkpt lat="42.90839" lon="0.2135">
        <ele>1579</ele>
        <time>2021-07-22T06:00:53.000Z</time>
      </trkpt>
      <trkpt lat="42.90833" lon="0.21341">
        <ele>1579.9</ele>
        <time>2021-07-22T06:01:00.000Z</time>
      </trkpt>
      <trkpt lat="42.90826" lon="0.21332">
        <ele>1581</ele>
        <time>2021-07-22T06:01:09.000Z</time>
      </trkpt>
      <trkpt lat="42.90823" lon="0.21329">
        <ele>1581</ele>
        <time>2021-07-22T06:01:16.000Z</time>
      </trkpt>
      <trkpt lat="42.90823" lon="0.21329">
        <ele>1581.9</ele>
        <time>2021-07-22T06:01:19.000Z</time>
      </trkpt>
      <trkpt lat="42.90817" lon="0.21318">
        <ele>1582.4</ele>
        <time>2021-07-22T06:01:26.000Z</time>
      </trkpt>
      <trkpt lat="42.90809" lon="0.2131">
        <ele>1581.9</ele>
        <time>2021-07-22T06:01:32.000Z</time>
      </trkpt>
      <trkpt lat="42.90803" lon="0.21301">
        <ele>1584.1</ele>
        <time>2021-07-22T06:01:43.000Z</time>
      </trkpt>
      <trkpt lat="42.90794" lon="0.21299">
        <ele>1583.7</ele>
        <time>2021-07-22T06:01:56.000Z</time>
      </trkpt>
      <trkpt lat="42.90785" lon="0.21293">
        <ele>1582.5</ele>
        <time>2021-07-22T06:02:04.000Z</time>
      </trkpt>
      <trkpt lat="42.90776" lon="0.21288">
        <ele>1582.7</ele>
        <time>2021-07-22T06:02:14.000Z</time>
      </trkpt>
      <trkpt lat="42.90766" lon="0.21283">
        <ele>1584.7</ele>
        <time>2021-07-22T06:02:24.000Z</time>
      </trkpt>
      <trkpt lat="42.90762" lon="0.21273">
        <ele>1585.8</ele>
        <time>2021-07-22T06:02:36.000Z</time>
      </trkpt>
      <trkpt lat="42.90757" lon="0.21262">
        <ele>1585.8</ele>
        <time>2021-07-22T06:02:44.000Z</time>
      </trkpt>
      <trkpt lat="42.90753" lon="0.21249">
        <ele>1586.5</ele>
        <time>2021-07-22T06:02:52.000Z</time>
      </trkpt>
      <trkpt lat="42.90748" lon="0.21238">
        <ele>1586.9</ele>
        <time>2021-07-22T06:02:58.000Z</time>
      </trkpt>
      <trkpt lat="42.90744" lon="0.21226">
        <ele>1587.3</ele>
        <time>2021-07-22T06:03:05.000Z</time>
      </trkpt>
      <trkpt lat="42.90739" lon="0.21214">
        <ele>1588.2</ele>
        <time>2021-07-22T06:03:13.000Z</time>
      </trkpt>
      <trkpt lat="42.90734" lon="0.21203">
        <ele>1588.9</ele>
        <time>2021-07-22T06:03:22.000Z</time>
      </trkpt>
      <trkpt lat="42.90727" lon="0.21193">
        <ele>1589.9</ele>
        <time>2021-07-22T06:03:32.000Z</time>
      </trkpt>
      <trkpt lat="42.9072" lon="0.21183">
        <ele>1590.4</ele>
        <time>2021-07-22T06:03:41.000Z</time>
      </trkpt>
      <trkpt lat="42.90718" lon="0.21169">
        <ele>1591.5</ele>
        <time>2021-07-22T06:03:52.000Z</time>
      </trkpt>
      <trkpt lat="42.90714" lon="0.21157">
        <ele>1592.2</ele>
        <time>2021-07-22T06:04:01.000Z</time>
      </trkpt>
      <trkpt lat="42.9071" lon="0.21146">
        <ele>1593.5</ele>
        <time>2021-07-22T06:04:13.000Z</time>
      </trkpt>
      <trkpt lat="42.90702" lon="0.21139">
        <ele>1594.7</ele>
        <time>2021-07-22T06:04:23.000Z</time>
      </trkpt>
      <trkpt lat="42.90695" lon="0.21131">
        <ele>1596.4</ele>
        <time>2021-07-22T06:04:32.000Z</time>
      </trkpt>
      <trkpt lat="42.90688" lon="0.21123">
        <ele>1598.7</ele>
        <time>2021-07-22T06:04:44.000Z</time>
      </trkpt>
      <trkpt lat="42.90679" lon="0.21123">
        <ele>1600.7</ele>
        <time>2021-07-22T06:04:56.000Z</time>
      </trkpt>
      <trkpt lat="42.90671" lon="0.21127">
        <ele>1602.2</ele>
        <time>2021-07-22T06:05:05.000Z</time>
      </trkpt>
      <trkpt lat="42.90661" lon="0.21128">
        <ele>1603.7</ele>
        <time>2021-07-22T06:05:15.000Z</time>
      </trkpt>
      <trkpt lat="42.90652" lon="0.21127">
        <ele>1605.1</ele>
        <time>2021-07-22T06:05:25.000Z</time>
      </trkpt>
      <trkpt lat="42.90643" lon="0.21122">
        <ele>1605.8</ele>
        <time>2021-07-22T06:05:34.000Z</time>
      </trkpt>
      <trkpt lat="42.90633" lon="0.21124">
        <ele>1607.8</ele>
        <time>2021-07-22T06:05:44.000Z</time>
      </trkpt>
      <trkpt lat="42.90624" lon="0.21119">
        <ele>1608.6</ele>
        <time>2021-07-22T06:05:53.000Z</time>
      </trkpt>
      <trkpt lat="42.90615" lon="0.21117">
        <ele>1610</ele>
        <time>2021-07-22T06:06:04.000Z</time>
      </trkpt>
      <trkpt lat="42.90607" lon="0.21108">
        <ele>1611.2</ele>
        <time>2021-07-22T06:06:13.000Z</time>
      </trkpt>
      <trkpt lat="42.90598" lon="0.21105">
        <ele>1613.4</ele>
        <time>2021-07-22T06:06:25.000Z</time>
      </trkpt>
      <trkpt lat="42.90589" lon="0.21102">
        <ele>1616.6</ele>
        <time>2021-07-22T06:06:39.000Z</time>
      </trkpt>
      <trkpt lat="42.90582" lon="0.21099">
        <ele>1619</ele>
        <time>2021-07-22T06:06:52.000Z</time>
      </trkpt>
      <trkpt lat="42.90582" lon="0.21099">
        <ele>1619.2</ele>
        <time>2021-07-22T06:06:53.000Z</time>
      </trkpt>
      <trkpt lat="42.90573" lon="0.21093">
        <ele>1620.9</ele>
        <time>2021-07-22T06:07:02.000Z</time>
      </trkpt>
      <trkpt lat="42.90564" lon="0.2109">
        <ele>1622.6</ele>
        <time>2021-07-22T06:07:12.000Z</time>
      </trkpt>
      <trkpt lat="42.90556" lon="0.21082">
        <ele>1623.3</ele>
        <time>2021-07-22T06:07:21.000Z</time>
      </trkpt>
      <trkpt lat="42.90546" lon="0.21085">
        <ele>1625.3</ele>
        <time>2021-07-22T06:07:35.000Z</time>
      </trkpt>
      <trkpt lat="42.90537" lon="0.21087">
        <ele>1627.2</ele>
        <time>2021-07-22T06:07:46.000Z</time>
      </trkpt>
      <trkpt lat="42.90534" lon="0.21086">
        <ele>1628.2</ele>
        <time>2021-07-22T06:07:52.000Z</time>
      </trkpt>
      <trkpt lat="42.90534" lon="0.21086">
        <ele>1628.3</ele>
        <time>2021-07-22T06:07:53.000Z</time>
      </trkpt>
      <trkpt lat="42.90532" lon="0.21082">
        <ele>1629.6</ele>
        <time>2021-07-22T06:07:59.000Z</time>
      </trkpt>
      <trkpt lat="42.90532" lon="0.21082">
        <ele>1630.1</ele>
        <time>2021-07-22T06:08:01.000Z</time>
      </trkpt>
      <trkpt lat="42.90529" lon="0.2107">
        <ele>1631.9</ele>
        <time>2021-07-22T06:08:10.000Z</time>
      </trkpt>
      <trkpt lat="42.90527" lon="0.21057">
        <ele>1633.5</ele>
        <time>2021-07-22T06:08:18.000Z</time>
      </trkpt>
      <trkpt lat="42.90527" lon="0.21045">
        <ele>1635.4</ele>
        <time>2021-07-22T06:08:27.000Z</time>
      </trkpt>
      <trkpt lat="42.90529" lon="0.21032">
        <ele>1637.8</ele>
        <time>2021-07-22T06:08:41.000Z</time>
      </trkpt>
      <trkpt lat="42.90532" lon="0.21019">
        <ele>1640</ele>
        <time>2021-07-22T06:08:53.000Z</time>
      </trkpt>
      <trkpt lat="42.90534" lon="0.21007">
        <ele>1642.9</ele>
        <time>2021-07-22T06:09:07.000Z</time>
      </trkpt>
      <trkpt lat="42.90535" lon="0.20994">
        <ele>1644.7</ele>
        <time>2021-07-22T06:09:17.000Z</time>
      </trkpt>
      <trkpt lat="42.90537" lon="0.20982">
        <ele>1646.4</ele>
        <time>2021-07-22T06:09:28.000Z</time>
      </trkpt>
      <trkpt lat="42.90538" lon="0.20969">
        <ele>1649.4</ele>
        <time>2021-07-22T06:09:43.000Z</time>
      </trkpt>
      <trkpt lat="42.90537" lon="0.20957">
        <ele>1652</ele>
        <time>2021-07-22T06:09:54.000Z</time>
      </trkpt>
      <trkpt lat="42.90542" lon="0.20946">
        <ele>1655</ele>
        <time>2021-07-22T06:10:09.000Z</time>
      </trkpt>
      <trkpt lat="42.90547" lon="0.20935">
        <ele>1657.3</ele>
        <time>2021-07-22T06:10:21.000Z</time>
      </trkpt>
      <trkpt lat="42.90554" lon="0.20925">
        <ele>1659.4</ele>
        <time>2021-07-22T06:10:32.000Z</time>
      </trkpt>
      <trkpt lat="42.90556" lon="0.20913">
        <ele>1662.3</ele>
        <time>2021-07-22T06:10:45.000Z</time>
      </trkpt>
      <trkpt lat="42.90547" lon="0.20909">
        <ele>1670</ele>
        <time>2021-07-22T06:11:18.000Z</time>
      </trkpt>
      <trkpt lat="42.90538" lon="0.20913">
        <ele>1673</ele>
        <time>2021-07-22T06:11:32.000Z</time>
      </trkpt>
      <trkpt lat="42.90528" lon="0.20914">
        <ele>1677.4</ele>
        <time>2021-07-22T06:11:52.000Z</time>
      </trkpt>
      <trkpt lat="42.9052" lon="0.20917">
        <ele>1681</ele>
        <time>2021-07-22T06:12:09.000Z</time>
      </trkpt>
      <trkpt lat="42.90512" lon="0.20924">
        <ele>1685.6</ele>
        <time>2021-07-22T06:12:31.000Z</time>
      </trkpt>
      <trkpt lat="42.90508" lon="0.20929">
        <ele>1687.9</ele>
        <time>2021-07-22T06:12:43.000Z</time>
      </trkpt>
      <trkpt lat="42.90508" lon="0.20929">
        <ele>1688.1</ele>
        <time>2021-07-22T06:12:44.000Z</time>
      </trkpt>
      <trkpt lat="42.90502" lon="0.20939">
        <ele>1692.1</ele>
        <time>2021-07-22T06:13:04.000Z</time>
      </trkpt>
      <trkpt lat="42.90494" lon="0.20947">
        <ele>1694.3</ele>
        <time>2021-07-22T06:13:16.000Z</time>
      </trkpt>
      <trkpt lat="42.90487" lon="0.20956">
        <ele>1696.6</ele>
        <time>2021-07-22T06:13:27.000Z</time>
      </trkpt>
      <trkpt lat="42.90478" lon="0.20958">
        <ele>1701.4</ele>
        <time>2021-07-22T06:13:47.000Z</time>
      </trkpt>
      <trkpt lat="42.90478" lon="0.20956">
        <ele>1702.2</ele>
        <time>2021-07-22T06:13:50.000Z</time>
      </trkpt>
      <trkpt lat="42.90477" lon="0.20956">
        <ele>1702.2</ele>
        <time>2021-07-22T06:13:51.000Z</time>
      </trkpt>
      <trkpt lat="42.90471" lon="0.20952">
        <ele>1705.2</ele>
        <time>2021-07-22T06:14:03.000Z</time>
      </trkpt>
      <trkpt lat="42.90471" lon="0.20952">
        <ele>1705.3</ele>
        <time>2021-07-22T06:14:04.000Z</time>
      </trkpt>
      <trkpt lat="42.90463" lon="0.20945">
        <ele>1710.6</ele>
        <time>2021-07-22T06:14:31.000Z</time>
      </trkpt>
      <trkpt lat="42.90456" lon="0.20953">
        <ele>1712.9</ele>
        <time>2021-07-22T06:14:42.000Z</time>
      </trkpt>
      <trkpt lat="42.90453" lon="0.20965">
        <ele>1716.1</ele>
        <time>2021-07-22T06:14:58.000Z</time>
      </trkpt>
      <trkpt lat="42.90445" lon="0.2096">
        <ele>1720.5</ele>
        <time>2021-07-22T06:15:22.000Z</time>
      </trkpt>
      <trkpt lat="42.90437" lon="0.20951">
        <ele>1720.4</ele>
        <time>2021-07-22T06:15:31.000Z</time>
      </trkpt>
      <trkpt lat="42.90428" lon="0.20946">
        <ele>1721.7</ele>
        <time>2021-07-22T06:15:43.000Z</time>
      </trkpt>
      <trkpt lat="42.9042" lon="0.2094">
        <ele>1722.8</ele>
        <time>2021-07-22T06:15:51.000Z</time>
      </trkpt>
      <trkpt lat="42.90411" lon="0.20943">
        <ele>1725.1</ele>
        <time>2021-07-22T06:16:03.000Z</time>
      </trkpt>
      <trkpt lat="42.90405" lon="0.20933">
        <ele>1726.8</ele>
        <time>2021-07-22T06:16:13.000Z</time>
      </trkpt>
      <trkpt lat="42.90396" lon="0.2093">
        <ele>1728.8</ele>
        <time>2021-07-22T06:16:25.000Z</time>
      </trkpt>
      <trkpt lat="42.90387" lon="0.20927">
        <ele>1731.3</ele>
        <time>2021-07-22T06:16:41.000Z</time>
      </trkpt>
      <trkpt lat="42.90382" lon="0.20916">
        <ele>1734.3</ele>
        <time>2021-07-22T06:16:54.000Z</time>
      </trkpt>
      <trkpt lat="42.90376" lon="0.20907">
        <ele>1736.1</ele>
        <time>2021-07-22T06:17:05.000Z</time>
      </trkpt>
      <trkpt lat="42.90367" lon="0.20903">
        <ele>1737.9</ele>
        <time>2021-07-22T06:17:19.000Z</time>
      </trkpt>
      <trkpt lat="42.90359" lon="0.20896">
        <ele>1740.5</ele>
        <time>2021-07-22T06:17:32.000Z</time>
      </trkpt>
      <trkpt lat="42.90359" lon="0.20896">
        <ele>1741.1</ele>
        <time>2021-07-22T06:17:36.000Z</time>
      </trkpt>
      <trkpt lat="42.90358" lon="0.20896">
        <ele>1741.2</ele>
        <time>2021-07-22T06:17:37.000Z</time>
      </trkpt>
      <trkpt lat="42.9035" lon="0.20891">
        <ele>1743.3</ele>
        <time>2021-07-22T06:17:51.000Z</time>
      </trkpt>
      <trkpt lat="42.90342" lon="0.20884">
        <ele>1745.3</ele>
        <time>2021-07-22T06:18:02.000Z</time>
      </trkpt>
      <trkpt lat="42.90333" lon="0.20879">
        <ele>1747.6</ele>
        <time>2021-07-22T06:18:15.000Z</time>
      </trkpt>
      <trkpt lat="42.90325" lon="0.20873">
        <ele>1750.5</ele>
        <time>2021-07-22T06:18:30.000Z</time>
      </trkpt>
      <trkpt lat="42.90316" lon="0.20871">
        <ele>1751.6</ele>
        <time>2021-07-22T06:18:41.000Z</time>
      </trkpt>
      <trkpt lat="42.90308" lon="0.20864">
        <ele>1750.4</ele>
        <time>2021-07-22T06:18:55.000Z</time>
      </trkpt>
      <trkpt lat="42.903" lon="0.20856">
        <ele>1749.9</ele>
        <time>2021-07-22T06:19:04.000Z</time>
      </trkpt>
      <trkpt lat="42.9029" lon="0.20853">
        <ele>1750.9</ele>
        <time>2021-07-22T06:19:15.000Z</time>
      </trkpt>
      <trkpt lat="42.90282" lon="0.20846">
        <ele>1753.9</ele>
        <time>2021-07-22T06:19:31.000Z</time>
      </trkpt>
      <trkpt lat="42.90282" lon="0.20846">
        <ele>1754.1</ele>
        <time>2021-07-22T06:19:32.000Z</time>
      </trkpt>
      <trkpt lat="42.90282" lon="0.20846">
        <ele>1754.3</ele>
        <time>2021-07-22T06:19:33.000Z</time>
      </trkpt>
      <trkpt lat="42.90273" lon="0.20849">
        <ele>1758</ele>
        <time>2021-07-22T06:19:50.000Z</time>
      </trkpt>
      <trkpt lat="42.90271" lon="0.20836">
        <ele>1760.9</ele>
        <time>2021-07-22T06:20:05.000Z</time>
      </trkpt>
      <trkpt lat="42.9027" lon="0.20836">
        <ele>1761.4</ele>
        <time>2021-07-22T06:20:07.000Z</time>
      </trkpt>
      <trkpt lat="42.9027" lon="0.20836">
        <ele>1761.8</ele>
        <time>2021-07-22T06:20:09.000Z</time>
      </trkpt>
      <trkpt lat="42.9027" lon="0.20837">
        <ele>1762</ele>
        <time>2021-07-22T06:20:10.000Z</time>
      </trkpt>
      <trkpt lat="42.9027" lon="0.20837">
        <ele>1762</ele>
        <time>2021-07-22T06:20:11.000Z</time>
      </trkpt>
      <trkpt lat="42.90263" lon="0.20835">
        <ele>1767.8</ele>
        <time>2021-07-22T06:20:37.000Z</time>
      </trkpt>
      <trkpt lat="42.90263" lon="0.20835">
        <ele>1768.1</ele>
        <time>2021-07-22T06:20:39.000Z</time>
      </trkpt>
      <trkpt lat="42.90253" lon="0.20831">
        <ele>1772.1</ele>
        <time>2021-07-22T06:20:57.000Z</time>
      </trkpt>
      <trkpt lat="42.90251" lon="0.20834">
        <ele>1775.1</ele>
        <time>2021-07-22T06:21:10.000Z</time>
      </trkpt>
      <trkpt lat="42.90251" lon="0.20834">
        <ele>1775.4</ele>
        <time>2021-07-22T06:21:11.000Z</time>
      </trkpt>
      <trkpt lat="42.90241" lon="0.20838">
        <ele>1776.4</ele>
        <time>2021-07-22T06:21:22.000Z</time>
      </trkpt>
      <trkpt lat="42.90232" lon="0.20838">
        <ele>1778.3</ele>
        <time>2021-07-22T06:21:35.000Z</time>
      </trkpt>
      <trkpt lat="42.90223" lon="0.20837">
        <ele>1781.5</ele>
        <time>2021-07-22T06:21:50.000Z</time>
      </trkpt>
      <trkpt lat="42.90214" lon="0.20835">
        <ele>1785.3</ele>
        <time>2021-07-22T06:22:06.000Z</time>
      </trkpt>
      <trkpt lat="42.90211" lon="0.20824">
        <ele>1787.9</ele>
        <time>2021-07-22T06:22:18.000Z</time>
      </trkpt>
      <trkpt lat="42.90209" lon="0.20812">
        <ele>1790.3</ele>
        <time>2021-07-22T06:22:32.000Z</time>
      </trkpt>
      <trkpt lat="42.90204" lon="0.20801">
        <ele>1793</ele>
        <time>2021-07-22T06:22:45.000Z</time>
      </trkpt>
      <trkpt lat="42.90199" lon="0.2079">
        <ele>1796.5</ele>
        <time>2021-07-22T06:23:01.000Z</time>
      </trkpt>
      <trkpt lat="42.9019" lon="0.2079">
        <ele>1799</ele>
        <time>2021-07-22T06:23:14.000Z</time>
      </trkpt>
      <trkpt lat="42.90181" lon="0.20786">
        <ele>1802.3</ele>
        <time>2021-07-22T06:23:31.000Z</time>
      </trkpt>
      <trkpt lat="42.90172" lon="0.20782">
        <ele>1805.2</ele>
        <time>2021-07-22T06:23:44.000Z</time>
      </trkpt>
      <trkpt lat="42.90163" lon="0.20784">
        <ele>1807.9</ele>
        <time>2021-07-22T06:23:59.000Z</time>
      </trkpt>
      <trkpt lat="42.90154" lon="0.20786">
        <ele>1810.7</ele>
        <time>2021-07-22T06:24:14.000Z</time>
      </trkpt>
      <trkpt lat="42.90146" lon="0.2078">
        <ele>1814.3</ele>
        <time>2021-07-22T06:24:32.000Z</time>
      </trkpt>
      <trkpt lat="42.90145" lon="0.20767">
        <ele>1816.1</ele>
        <time>2021-07-22T06:24:42.000Z</time>
      </trkpt>
      <trkpt lat="42.90153" lon="0.20758">
        <ele>1817.1</ele>
        <time>2021-07-22T06:24:57.000Z</time>
      </trkpt>
      <trkpt lat="42.90159" lon="0.2075">
        <ele>1819.1</ele>
        <time>2021-07-22T06:25:12.000Z</time>
      </trkpt>
      <trkpt lat="42.90167" lon="0.20744">
        <ele>1821</ele>
        <time>2021-07-22T06:25:24.000Z</time>
      </trkpt>
      <trkpt lat="42.90174" lon="0.20735">
        <ele>1823.2</ele>
        <time>2021-07-22T06:25:37.000Z</time>
      </trkpt>
      <trkpt lat="42.90174" lon="0.20734">
        <ele>1823.6</ele>
        <time>2021-07-22T06:25:38.000Z</time>
      </trkpt>
      <trkpt lat="42.90167" lon="0.20729">
        <ele>1826.3</ele>
        <time>2021-07-22T06:25:53.000Z</time>
      </trkpt>
      <trkpt lat="42.90167" lon="0.20729">
        <ele>1826.9</ele>
        <time>2021-07-22T06:25:55.000Z</time>
      </trkpt>
      <trkpt lat="42.90161" lon="0.20719">
        <ele>1828.7</ele>
        <time>2021-07-22T06:26:07.000Z</time>
      </trkpt>
      <trkpt lat="42.90153" lon="0.20712">
        <ele>1831.9</ele>
        <time>2021-07-22T06:26:19.000Z</time>
      </trkpt>
      <trkpt lat="42.9015" lon="0.207">
        <ele>1832.8</ele>
        <time>2021-07-22T06:26:29.000Z</time>
      </trkpt>
      <trkpt lat="42.90145" lon="0.20689">
        <ele>1834.9</ele>
        <time>2021-07-22T06:26:41.000Z</time>
      </trkpt>
      <trkpt lat="42.9014" lon="0.20678">
        <ele>1836.7</ele>
        <time>2021-07-22T06:26:51.000Z</time>
      </trkpt>
      <trkpt lat="42.9014" lon="0.20678">
        <ele>1837</ele>
        <time>2021-07-22T06:26:52.000Z</time>
      </trkpt>
      <trkpt lat="42.90138" lon="0.20673">
        <ele>1838.9</ele>
        <time>2021-07-22T06:27:00.000Z</time>
      </trkpt>
      <trkpt lat="42.90137" lon="0.20673">
        <ele>1838.9</ele>
        <time>2021-07-22T06:27:03.000Z</time>
      </trkpt>
      <trkpt lat="42.90134" lon="0.2066">
        <ele>1841</ele>
        <time>2021-07-22T06:27:17.000Z</time>
      </trkpt>
      <trkpt lat="42.90128" lon="0.20649">
        <ele>1842.6</ele>
        <time>2021-07-22T06:27:26.000Z</time>
      </trkpt>
      <trkpt lat="42.90122" lon="0.2064">
        <ele>1844.7</ele>
        <time>2021-07-22T06:27:36.000Z</time>
      </trkpt>
      <trkpt lat="42.90121" lon="0.20633">
        <ele>1846.8</ele>
        <time>2021-07-22T06:27:45.000Z</time>
      </trkpt>
      <trkpt lat="42.90121" lon="0.20633">
        <ele>1846.9</ele>
        <time>2021-07-22T06:27:46.000Z</time>
      </trkpt>
      <trkpt lat="42.90119" lon="0.20621">
        <ele>1848.3</ele>
        <time>2021-07-22T06:27:57.000Z</time>
      </trkpt>
      <trkpt lat="42.90116" lon="0.20608">
        <ele>1850.7</ele>
        <time>2021-07-22T06:28:10.000Z</time>
      </trkpt>
      <trkpt lat="42.9011" lon="0.20598">
        <ele>1852.9</ele>
        <time>2021-07-22T06:28:21.000Z</time>
      </trkpt>
      <trkpt lat="42.90106" lon="0.20587">
        <ele>1855.1</ele>
        <time>2021-07-22T06:28:31.000Z</time>
      </trkpt>
      <trkpt lat="42.901" lon="0.20575">
        <ele>1857.2</ele>
        <time>2021-07-22T06:28:42.000Z</time>
      </trkpt>
      <trkpt lat="42.90097" lon="0.20564">
        <ele>1859.7</ele>
        <time>2021-07-22T06:28:54.000Z</time>
      </trkpt>
      <trkpt lat="42.90097" lon="0.20563">
        <ele>1860</ele>
        <time>2021-07-22T06:28:56.000Z</time>
      </trkpt>
      <trkpt lat="42.90097" lon="0.20563">
        <ele>1860.3</ele>
        <time>2021-07-22T06:28:57.000Z</time>
      </trkpt>
      <trkpt lat="42.90093" lon="0.20552">
        <ele>1863.6</ele>
        <time>2021-07-22T06:29:13.000Z</time>
      </trkpt>
      <trkpt lat="42.9009" lon="0.20541">
        <ele>1866.5</ele>
        <time>2021-07-22T06:29:26.000Z</time>
      </trkpt>
      <trkpt lat="42.9009" lon="0.20541">
        <ele>1866.6</ele>
        <time>2021-07-22T06:29:27.000Z</time>
      </trkpt>
      <trkpt lat="42.90084" lon="0.2053">
        <ele>1869.1</ele>
        <time>2021-07-22T06:29:40.000Z</time>
      </trkpt>
      <trkpt lat="42.90078" lon="0.20521">
        <ele>1871.8</ele>
        <time>2021-07-22T06:29:53.000Z</time>
      </trkpt>
      <trkpt lat="42.90076" lon="0.20515">
        <ele>1873.6</ele>
        <time>2021-07-22T06:30:01.000Z</time>
      </trkpt>
      <trkpt lat="42.90076" lon="0.20515">
        <ele>1873.9</ele>
        <time>2021-07-22T06:30:02.000Z</time>
      </trkpt>
      <trkpt lat="42.90073" lon="0.20512">
        <ele>1875.6</ele>
        <time>2021-07-22T06:30:11.000Z</time>
      </trkpt>
      <trkpt lat="42.90073" lon="0.20512">
        <ele>1875.7</ele>
        <time>2021-07-22T06:30:12.000Z</time>
      </trkpt>
      <trkpt lat="42.90068" lon="0.205">
        <ele>1878.1</ele>
        <time>2021-07-22T06:30:25.000Z</time>
      </trkpt>
      <trkpt lat="42.90062" lon="0.2049">
        <ele>1880.7</ele>
        <time>2021-07-22T06:30:38.000Z</time>
      </trkpt>
      <trkpt lat="42.90056" lon="0.20479">
        <ele>1883.7</ele>
        <time>2021-07-22T06:30:54.000Z</time>
      </trkpt>
      <trkpt lat="42.90048" lon="0.20471">
        <ele>1887.1</ele>
        <time>2021-07-22T06:31:11.000Z</time>
      </trkpt>
      <trkpt lat="42.90042" lon="0.20461">
        <ele>1888.8</ele>
        <time>2021-07-22T06:31:25.000Z</time>
      </trkpt>
      <trkpt lat="42.90035" lon="0.20453">
        <ele>1890.5</ele>
        <time>2021-07-22T06:31:36.000Z</time>
      </trkpt>
      <trkpt lat="42.90029" lon="0.20441">
        <ele>1892.3</ele>
        <time>2021-07-22T06:31:47.000Z</time>
      </trkpt>
      <trkpt lat="42.90027" lon="0.20428">
        <ele>1895.8</ele>
        <time>2021-07-22T06:32:06.000Z</time>
      </trkpt>
      <trkpt lat="42.90017" lon="0.20425">
        <ele>1898.2</ele>
        <time>2021-07-22T06:32:19.000Z</time>
      </trkpt>
      <trkpt lat="42.90007" lon="0.20424">
        <ele>1901.2</ele>
        <time>2021-07-22T06:32:36.000Z</time>
      </trkpt>
      <trkpt lat="42.89998" lon="0.20425">
        <ele>1903.2</ele>
        <time>2021-07-22T06:32:46.000Z</time>
      </trkpt>
      <trkpt lat="42.89988" lon="0.20427">
        <ele>1905.5</ele>
        <time>2021-07-22T06:32:55.000Z</time>
      </trkpt>
      <trkpt lat="42.89983" lon="0.20415">
        <ele>1907.5</ele>
        <time>2021-07-22T06:33:05.000Z</time>
      </trkpt>
      <trkpt lat="42.89978" lon="0.20404">
        <ele>1908.5</ele>
        <time>2021-07-22T06:33:16.000Z</time>
      </trkpt>
      <trkpt lat="42.89977" lon="0.20397">
        <ele>1910.1</ele>
        <time>2021-07-22T06:33:24.000Z</time>
      </trkpt>
      <trkpt lat="42.89976" lon="0.20398">
        <ele>1910.2</ele>
        <time>2021-07-22T06:33:25.000Z</time>
      </trkpt>
      <trkpt lat="42.8997" lon="0.20389">
        <ele>1912.2</ele>
        <time>2021-07-22T06:33:37.000Z</time>
      </trkpt>
      <trkpt lat="42.89963" lon="0.20379">
        <ele>1914.5</ele>
        <time>2021-07-22T06:33:55.000Z</time>
      </trkpt>
      <trkpt lat="42.89963" lon="0.20378">
        <ele>1914.6</ele>
        <time>2021-07-22T06:33:59.000Z</time>
      </trkpt>
      <trkpt lat="42.89963" lon="0.20378">
        <ele>1914.7</ele>
        <time>2021-07-22T06:34:00.000Z</time>
      </trkpt>
      <trkpt lat="42.89959" lon="0.20366">
        <ele>1915.1</ele>
        <time>2021-07-22T06:34:11.000Z</time>
      </trkpt>
      <trkpt lat="42.89957" lon="0.20354">
        <ele>1916.6</ele>
        <time>2021-07-22T06:34:19.000Z</time>
      </trkpt>
      <trkpt lat="42.89953" lon="0.20343">
        <ele>1918.2</ele>
        <time>2021-07-22T06:34:28.000Z</time>
      </trkpt>
      <trkpt lat="42.8995" lon="0.20331">
        <ele>1919.5</ele>
        <time>2021-07-22T06:34:39.000Z</time>
      </trkpt>
      <trkpt lat="42.89947" lon="0.20319">
        <ele>1921.7</ele>
        <time>2021-07-22T06:34:52.000Z</time>
      </trkpt>
      <trkpt lat="42.89944" lon="0.20306">
        <ele>1923.7</ele>
        <time>2021-07-22T06:35:02.000Z</time>
      </trkpt>
      <trkpt lat="42.89941" lon="0.20295">
        <ele>1926.1</ele>
        <time>2021-07-22T06:35:16.000Z</time>
      </trkpt>
      <trkpt lat="42.8994" lon="0.20282">
        <ele>1927.9</ele>
        <time>2021-07-22T06:35:30.000Z</time>
      </trkpt>
      <trkpt lat="42.89935" lon="0.2027">
        <ele>1928.9</ele>
        <time>2021-07-22T06:35:38.000Z</time>
      </trkpt>
      <trkpt lat="42.89929" lon="0.20261">
        <ele>1929.1</ele>
        <time>2021-07-22T06:35:44.000Z</time>
      </trkpt>
      <trkpt lat="42.8992" lon="0.20255">
        <ele>1929.4</ele>
        <time>2021-07-22T06:35:55.000Z</time>
      </trkpt>
      <trkpt lat="42.89911" lon="0.20248">
        <ele>1929.8</ele>
        <time>2021-07-22T06:36:02.000Z</time>
      </trkpt>
      <trkpt lat="42.89904" lon="0.20241">
        <ele>1930.9</ele>
        <time>2021-07-22T06:36:11.000Z</time>
      </trkpt>
      <trkpt lat="42.89897" lon="0.2023">
        <ele>1932.1</ele>
        <time>2021-07-22T06:36:22.000Z</time>
      </trkpt>
      <trkpt lat="42.8989" lon="0.20222">
        <ele>1932</ele>
        <time>2021-07-22T06:36:32.000Z</time>
      </trkpt>
      <trkpt lat="42.89883" lon="0.20213">
        <ele>1932.4</ele>
        <time>2021-07-22T06:36:41.000Z</time>
      </trkpt>
      <trkpt lat="42.89877" lon="0.20203">
        <ele>1933.5</ele>
        <time>2021-07-22T06:36:50.000Z</time>
      </trkpt>
      <trkpt lat="42.89869" lon="0.20195">
        <ele>1934.3</ele>
        <time>2021-07-22T06:37:00.000Z</time>
      </trkpt>
      <trkpt lat="42.89862" lon="0.20186">
        <ele>1934.9</ele>
        <time>2021-07-22T06:37:08.000Z</time>
      </trkpt>
      <trkpt lat="42.89855" lon="0.20177">
        <ele>1935.8</ele>
        <time>2021-07-22T06:37:16.000Z</time>
      </trkpt>
      <trkpt lat="42.89851" lon="0.20165">
        <ele>1935.9</ele>
        <time>2021-07-22T06:37:25.000Z</time>
      </trkpt>
      <trkpt lat="42.89848" lon="0.20152">
        <ele>1937</ele>
        <time>2021-07-22T06:37:35.000Z</time>
      </trkpt>
      <trkpt lat="42.89845" lon="0.2014">
        <ele>1939.4</ele>
        <time>2021-07-22T06:37:47.000Z</time>
      </trkpt>
      <trkpt lat="42.89849" lon="0.20129">
        <ele>1940.9</ele>
        <time>2021-07-22T06:37:57.000Z</time>
      </trkpt>
      <trkpt lat="42.89855" lon="0.2012">
        <ele>1942.4</ele>
        <time>2021-07-22T06:38:06.000Z</time>
      </trkpt>
      <trkpt lat="42.89865" lon="0.20119">
        <ele>1944</ele>
        <time>2021-07-22T06:38:14.000Z</time>
      </trkpt>
      <trkpt lat="42.89868" lon="0.20107">
        <ele>1946.6</ele>
        <time>2021-07-22T06:38:29.000Z</time>
      </trkpt>
      <trkpt lat="42.89871" lon="0.20095">
        <ele>1949.1</ele>
        <time>2021-07-22T06:38:42.000Z</time>
      </trkpt>
      <trkpt lat="42.89869" lon="0.20082">
        <ele>1951.7</ele>
        <time>2021-07-22T06:38:55.000Z</time>
      </trkpt>
      <trkpt lat="42.89875" lon="0.20072">
        <ele>1954.9</ele>
        <time>2021-07-22T06:39:14.000Z</time>
      </trkpt>
      <trkpt lat="42.89877" lon="0.20059">
        <ele>1957</ele>
        <time>2021-07-22T06:39:26.000Z</time>
      </trkpt>
      <trkpt lat="42.89879" lon="0.20047">
        <ele>1959.6</ele>
        <time>2021-07-22T06:39:39.000Z</time>
      </trkpt>
      <trkpt lat="42.89877" lon="0.20035">
        <ele>1963.2</ele>
        <time>2021-07-22T06:39:56.000Z</time>
      </trkpt>
      <trkpt lat="42.89869" lon="0.20041">
        <ele>1965</ele>
        <time>2021-07-22T06:40:08.000Z</time>
      </trkpt>
      <trkpt lat="42.89862" lon="0.20049">
        <ele>1965.7</ele>
        <time>2021-07-22T06:40:24.000Z</time>
      </trkpt>
      <trkpt lat="42.89859" lon="0.20061">
        <ele>1962.2</ele>
        <time>2021-07-22T06:40:38.000Z</time>
      </trkpt>
      <trkpt lat="42.89849" lon="0.20059">
        <ele>1962.2</ele>
        <time>2021-07-22T06:40:47.000Z</time>
      </trkpt>
      <trkpt lat="42.89839" lon="0.20056">
        <ele>1964.1</ele>
        <time>2021-07-22T06:40:57.000Z</time>
      </trkpt>
      <trkpt lat="42.8983" lon="0.20053">
        <ele>1967.3</ele>
        <time>2021-07-22T06:41:11.000Z</time>
      </trkpt>
      <trkpt lat="42.8982" lon="0.20048">
        <ele>1969.9</ele>
        <time>2021-07-22T06:41:23.000Z</time>
      </trkpt>
      <trkpt lat="42.89811" lon="0.20045">
        <ele>1972.3</ele>
        <time>2021-07-22T06:41:35.000Z</time>
      </trkpt>
      <trkpt lat="42.89802" lon="0.20041">
        <ele>1973.9</ele>
        <time>2021-07-22T06:41:46.000Z</time>
      </trkpt>
      <trkpt lat="42.89793" lon="0.20039">
        <ele>1975.1</ele>
        <time>2021-07-22T06:41:55.000Z</time>
      </trkpt>
      <trkpt lat="42.89784" lon="0.20035">
        <ele>1976.5</ele>
        <time>2021-07-22T06:42:04.000Z</time>
      </trkpt>
      <trkpt lat="42.89776" lon="0.2003">
        <ele>1978.2</ele>
        <time>2021-07-22T06:42:12.000Z</time>
      </trkpt>
      <trkpt lat="42.89767" lon="0.20025">
        <ele>1980.2</ele>
        <time>2021-07-22T06:42:22.000Z</time>
      </trkpt>
      <trkpt lat="42.89759" lon="0.20019">
        <ele>1982.4</ele>
        <time>2021-07-22T06:42:33.000Z</time>
      </trkpt>
      <trkpt lat="42.89751" lon="0.20012">
        <ele>1985.8</ele>
        <time>2021-07-22T06:42:49.000Z</time>
      </trkpt>
      <trkpt lat="42.89744" lon="0.20003">
        <ele>1989.5</ele>
        <time>2021-07-22T06:43:08.000Z</time>
      </trkpt>
      <trkpt lat="42.89738" lon="0.20002">
        <ele>1991.1</ele>
        <time>2021-07-22T06:43:23.000Z</time>
      </trkpt>
      <trkpt lat="42.89738" lon="0.20003">
        <ele>1991.6</ele>
        <time>2021-07-22T06:43:26.000Z</time>
      </trkpt>
      <trkpt lat="42.89739" lon="0.20003">
        <ele>1991.7</ele>
        <time>2021-07-22T06:43:29.000Z</time>
      </trkpt>
      <trkpt lat="42.89739" lon="0.20003">
        <ele>1991.9</ele>
        <time>2021-07-22T06:43:32.000Z</time>
      </trkpt>
      <trkpt lat="42.8973" lon="0.20001">
        <ele>1991.9</ele>
        <time>2021-07-22T06:43:41.000Z</time>
      </trkpt>
      <trkpt lat="42.89722" lon="0.20009">
        <ele>1991.5</ele>
        <time>2021-07-22T06:43:49.000Z</time>
      </trkpt>
      <trkpt lat="42.89713" lon="0.20012">
        <ele>1992.5</ele>
        <time>2021-07-22T06:43:58.000Z</time>
      </trkpt>
      <trkpt lat="42.89703" lon="0.20015">
        <ele>1993.1</ele>
        <time>2021-07-22T06:44:07.000Z</time>
      </trkpt>
      <trkpt lat="42.89695" lon="0.20017">
        <ele>1994.7</ele>
        <time>2021-07-22T06:44:17.000Z</time>
      </trkpt>
      <trkpt lat="42.89686" lon="0.20022">
        <ele>1995.8</ele>
        <time>2021-07-22T06:44:28.000Z</time>
      </trkpt>
      <trkpt lat="42.89676" lon="0.20026">
        <ele>1996.2</ele>
        <time>2021-07-22T06:44:37.000Z</time>
      </trkpt>
      <trkpt lat="42.8967" lon="0.20035">
        <ele>1996.4</ele>
        <time>2021-07-22T06:44:44.000Z</time>
      </trkpt>
      <trkpt lat="42.8966" lon="0.20038">
        <ele>1997.1</ele>
        <time>2021-07-22T06:44:52.000Z</time>
      </trkpt>
      <trkpt lat="42.89659" lon="0.20036">
        <ele>1997.8</ele>
        <time>2021-07-22T06:44:57.000Z</time>
      </trkpt>
      <trkpt lat="42.89659" lon="0.20035">
        <ele>1998</ele>
        <time>2021-07-22T06:44:58.000Z</time>
      </trkpt>
      <trkpt lat="42.8966" lon="0.20031">
        <ele>1998.5</ele>
        <time>2021-07-22T06:45:09.000Z</time>
      </trkpt>
      <trkpt lat="42.8966" lon="0.20031">
        <ele>1998.7</ele>
        <time>2021-07-22T06:45:10.000Z</time>
      </trkpt>
      <trkpt lat="42.89661" lon="0.20031">
        <ele>1998.8</ele>
        <time>2021-07-22T06:45:12.000Z</time>
      </trkpt>
      <trkpt lat="42.89661" lon="0.20031">
        <ele>1999</ele>
        <time>2021-07-22T06:45:13.000Z</time>
      </trkpt>
      <trkpt lat="42.89661" lon="0.20031">
        <ele>1999.2</ele>
        <time>2021-07-22T06:45:14.000Z</time>
      </trkpt>
      <trkpt lat="42.8966" lon="0.2003">
        <ele>1999.3</ele>
        <time>2021-07-22T06:45:15.000Z</time>
      </trkpt>
      <trkpt lat="42.89656" lon="0.20018">
        <ele>2001.4</ele>
        <time>2021-07-22T06:45:28.000Z</time>
      </trkpt>
      <trkpt lat="42.8965" lon="0.20008">
        <ele>2003.3</ele>
        <time>2021-07-22T06:45:38.000Z</time>
      </trkpt>
      <trkpt lat="42.8965" lon="0.20009">
        <ele>2003.7</ele>
        <time>2021-07-22T06:45:40.000Z</time>
      </trkpt>
      <trkpt lat="42.8965" lon="0.20008">
        <ele>2003.9</ele>
        <time>2021-07-22T06:45:41.000Z</time>
      </trkpt>
      <trkpt lat="42.89653" lon="0.19995">
        <ele>2006.3</ele>
        <time>2021-07-22T06:45:53.000Z</time>
      </trkpt>
      <trkpt lat="42.89654" lon="0.19989">
        <ele>2007.3</ele>
        <time>2021-07-22T06:46:01.000Z</time>
      </trkpt>
      <trkpt lat="42.89654" lon="0.19989">
        <ele>2007.9</ele>
        <time>2021-07-22T06:46:07.000Z</time>
      </trkpt>
      <trkpt lat="42.89656" lon="0.19989">
        <ele>2008.1</ele>
        <time>2021-07-22T06:46:13.000Z</time>
      </trkpt>
      <trkpt lat="42.89656" lon="0.19989">
        <ele>2008.4</ele>
        <time>2021-07-22T06:46:15.000Z</time>
      </trkpt>
      <trkpt lat="42.89649" lon="0.19981">
        <ele>2007.9</ele>
        <time>2021-07-22T06:46:27.000Z</time>
      </trkpt>
      <trkpt lat="42.89644" lon="0.19971">
        <ele>2007.5</ele>
        <time>2021-07-22T06:46:39.000Z</time>
      </trkpt>
      <trkpt lat="42.89644" lon="0.19968">
        <ele>2008.9</ele>
        <time>2021-07-22T06:46:45.000Z</time>
      </trkpt>
      <trkpt lat="42.89644" lon="0.19967">
        <ele>2008.8</ele>
        <time>2021-07-22T06:46:46.000Z</time>
      </trkpt>
      <trkpt lat="42.89644" lon="0.19967">
        <ele>2006.7</ele>
        <time>2021-07-22T06:47:01.000Z</time>
      </trkpt>
      <trkpt lat="42.89644" lon="0.19967">
        <ele>2006.5</ele>
        <time>2021-07-22T06:47:09.000Z</time>
      </trkpt>
      <trkpt lat="42.89644" lon="0.19967">
        <ele>2006.6</ele>
        <time>2021-07-22T06:47:10.000Z</time>
      </trkpt>
      <trkpt lat="42.89644" lon="0.19967">
        <ele>2006.8</ele>
        <time>2021-07-22T06:47:11.000Z</time>
      </trkpt>
      <trkpt lat="42.89644" lon="0.19967">
        <ele>2006.7</ele>
        <time>2021-07-22T06:47:13.000Z</time>
      </trkpt>
      <trkpt lat="42.89645" lon="0.19967">
        <ele>2006.7</ele>
        <time>2021-07-22T06:47:14.000Z</time>
      </trkpt>
      <trkpt lat="42.89645" lon="0.19967">
        <ele>2006.9</ele>
        <time>2021-07-22T06:47:17.000Z</time>
      </trkpt>
      <trkpt lat="42.89645" lon="0.19966">
        <ele>2006.8</ele>
        <time>2021-07-22T06:47:23.000Z</time>
      </trkpt>
      <trkpt lat="42.89645" lon="0.19966">
        <ele>2006.8</ele>
        <time>2021-07-22T06:47:24.000Z</time>
      </trkpt>
      <trkpt lat="42.89646" lon="0.19966">
        <ele>2006</ele>
        <time>2021-07-22T06:47:37.000Z</time>
      </trkpt>
      <trkpt lat="42.89646" lon="0.19966">
        <ele>2006</ele>
        <time>2021-07-22T06:47:38.000Z</time>
      </trkpt>
      <trkpt lat="42.89646" lon="0.19966">
        <ele>2006</ele>
        <time>2021-07-22T06:47:39.000Z</time>
      </trkpt>
      <trkpt lat="42.89646" lon="0.19966">
        <ele>2006.1</ele>
        <time>2021-07-22T06:47:40.000Z</time>
      </trkpt>
      <trkpt lat="42.89646" lon="0.19966">
        <ele>2005.6</ele>
        <time>2021-07-22T06:47:54.000Z</time>
      </trkpt>
      <trkpt lat="42.89646" lon="0.19965">
        <ele>2005.6</ele>
        <time>2021-07-22T06:47:55.000Z</time>
      </trkpt>
      <trkpt lat="42.89646" lon="0.19965">
        <ele>2005.4</ele>
        <time>2021-07-22T06:48:03.000Z</time>
      </trkpt>
      <trkpt lat="42.89646" lon="0.19965">
        <ele>2005.4</ele>
        <time>2021-07-22T06:48:04.000Z</time>
      </trkpt>
      <trkpt lat="42.89646" lon="0.19965">
        <ele>2005.2</ele>
        <time>2021-07-22T06:48:11.000Z</time>
      </trkpt>
      <trkpt lat="42.89646" lon="0.19965">
        <ele>2005.4</ele>
        <time>2021-07-22T06:48:12.000Z</time>
      </trkpt>
      <trkpt lat="42.89647" lon="0.19965">
        <ele>2005.5</ele>
        <time>2021-07-22T06:48:27.000Z</time>
      </trkpt>
      <trkpt lat="42.89647" lon="0.19965">
        <ele>2005.4</ele>
        <time>2021-07-22T06:48:28.000Z</time>
      </trkpt>
      <trkpt lat="42.89647" lon="0.19964">
        <ele>2005.3</ele>
        <time>2021-07-22T06:48:44.000Z</time>
      </trkpt>
      <trkpt lat="42.89647" lon="0.19964">
        <ele>2005.6</ele>
        <time>2021-07-22T06:48:45.000Z</time>
      </trkpt>
      <trkpt lat="42.89647" lon="0.19964">
        <ele>2005.7</ele>
        <time>2021-07-22T06:48:53.000Z</time>
      </trkpt>
      <trkpt lat="42.89647" lon="0.19964">
        <ele>2005.6</ele>
        <time>2021-07-22T06:48:54.000Z</time>
      </trkpt>
      <trkpt lat="42.89647" lon="0.19964">
        <ele>2005.7</ele>
        <time>2021-07-22T06:49:04.000Z</time>
      </trkpt>
      <trkpt lat="42.89647" lon="0.19964">
        <ele>2005.6</ele>
        <time>2021-07-22T06:49:05.000Z</time>
      </trkpt>
      <trkpt lat="42.89647" lon="0.19964">
        <ele>2005.6</ele>
        <time>2021-07-22T06:49:19.000Z</time>
      </trkpt>
      <trkpt lat="42.89647" lon="0.19964">
        <ele>2005.5</ele>
        <time>2021-07-22T06:49:20.000Z</time>
      </trkpt>
      <trkpt lat="42.89647" lon="0.19963">
        <ele>2005.6</ele>
        <time>2021-07-22T06:49:32.000Z</time>
      </trkpt>
      <trkpt lat="42.89647" lon="0.19963">
        <ele>2005.5</ele>
        <time>2021-07-22T06:49:33.000Z</time>
      </trkpt>
      <trkpt lat="42.89648" lon="0.19963">
        <ele>2005.3</ele>
        <time>2021-07-22T06:49:45.000Z</time>
      </trkpt>
      <trkpt lat="42.89648" lon="0.19963">
        <ele>2005.2</ele>
        <time>2021-07-22T06:49:46.000Z</time>
      </trkpt>
      <trkpt lat="42.89648" lon="0.19962">
        <ele>2005.3</ele>
        <time>2021-07-22T06:49:50.000Z</time>
      </trkpt>
      <trkpt lat="42.89648" lon="0.19962">
        <ele>2005.2</ele>
        <time>2021-07-22T06:49:51.000Z</time>
      </trkpt>
      <trkpt lat="42.89648" lon="0.19962">
        <ele>2005</ele>
        <time>2021-07-22T06:49:53.000Z</time>
      </trkpt>
      <trkpt lat="42.89648" lon="0.19962">
        <ele>2005</ele>
        <time>2021-07-22T06:49:54.000Z</time>
      </trkpt>
      <trkpt lat="42.89648" lon="0.19962">
        <ele>2005.3</ele>
        <time>2021-07-22T06:50:03.000Z</time>
      </trkpt>
      <trkpt lat="42.89649" lon="0.1996">
        <ele>2004.9</ele>
        <time>2021-07-22T06:50:06.000Z</time>
      </trkpt>
      <trkpt lat="42.89649" lon="0.1996">
        <ele>2005.2</ele>
        <time>2021-07-22T06:50:07.000Z</time>
      </trkpt>
      <trkpt lat="42.8965" lon="0.19959">
        <ele>2005.3</ele>
        <time>2021-07-22T06:50:09.000Z</time>
      </trkpt>
      <trkpt lat="42.8965" lon="0.19959">
        <ele>2005</ele>
        <time>2021-07-22T06:50:10.000Z</time>
      </trkpt>
      <trkpt lat="42.8965" lon="0.19958">
        <ele>2005</ele>
        <time>2021-07-22T06:50:12.000Z</time>
      </trkpt>
      <trkpt lat="42.8965" lon="0.19958">
        <ele>2005.2</ele>
        <time>2021-07-22T06:50:14.000Z</time>
      </trkpt>
      <trkpt lat="42.8965" lon="0.19957">
        <ele>2005</ele>
        <time>2021-07-22T06:50:18.000Z</time>
      </trkpt>
      <trkpt lat="42.8965" lon="0.19957">
        <ele>2005</ele>
        <time>2021-07-22T06:50:28.000Z</time>
      </trkpt>
      <trkpt lat="42.8965" lon="0.19957">
        <ele>2005</ele>
        <time>2021-07-22T06:50:29.000Z</time>
      </trkpt>
      <trkpt lat="42.8965" lon="0.19956">
        <ele>2004.8</ele>
        <time>2021-07-22T06:50:37.000Z</time>
      </trkpt>
      <trkpt lat="42.8965" lon="0.19956">
        <ele>2004.8</ele>
        <time>2021-07-22T06:50:38.000Z</time>
      </trkpt>
      <trkpt lat="42.89651" lon="0.19956">
        <ele>2004.8</ele>
        <time>2021-07-22T06:50:41.000Z</time>
      </trkpt>
      <trkpt lat="42.89651" lon="0.19956">
        <ele>2004.7</ele>
        <time>2021-07-22T06:50:42.000Z</time>
      </trkpt>
      <trkpt lat="42.89651" lon="0.19955">
        <ele>2004.7</ele>
        <time>2021-07-22T06:50:46.000Z</time>
      </trkpt>
      <trkpt lat="42.89651" lon="0.19955">
        <ele>2004.7</ele>
        <time>2021-07-22T06:50:47.000Z</time>
      </trkpt>
      <trkpt lat="42.89651" lon="0.19955">
        <ele>2004.8</ele>
        <time>2021-07-22T06:50:50.000Z</time>
      </trkpt>
      <trkpt lat="42.89651" lon="0.19955">
        <ele>2004.6</ele>
        <time>2021-07-22T06:50:52.000Z</time>
      </trkpt>
      <trkpt lat="42.89652" lon="0.19954">
        <ele>2004.6</ele>
        <time>2021-07-22T06:50:56.000Z</time>
      </trkpt>
      <trkpt lat="42.89653" lon="0.19955">
        <ele>2004.8</ele>
        <time>2021-07-22T06:51:04.000Z</time>
      </trkpt>
      <trkpt lat="42.89653" lon="0.19954">
        <ele>2004.8</ele>
        <time>2021-07-22T06:51:05.000Z</time>
      </trkpt>
      <trkpt lat="42.89652" lon="0.19954">
        <ele>2004.9</ele>
        <time>2021-07-22T06:51:08.000Z</time>
      </trkpt>
      <trkpt lat="42.89653" lon="0.19954">
        <ele>2004.5</ele>
        <time>2021-07-22T06:51:18.000Z</time>
      </trkpt>
      <trkpt lat="42.89653" lon="0.19954">
        <ele>2004.7</ele>
        <time>2021-07-22T06:51:19.000Z</time>
      </trkpt>
      <trkpt lat="42.89653" lon="0.19953">
        <ele>2004.8</ele>
        <time>2021-07-22T06:51:20.000Z</time>
      </trkpt>
      <trkpt lat="42.89653" lon="0.19953">
        <ele>2004.7</ele>
        <time>2021-07-22T06:51:21.000Z</time>
      </trkpt>
      <trkpt lat="42.89652" lon="0.19954">
        <ele>2004.5</ele>
        <time>2021-07-22T06:51:23.000Z</time>
      </trkpt>
      <trkpt lat="42.89652" lon="0.19954">
        <ele>2004.5</ele>
        <time>2021-07-22T06:51:24.000Z</time>
      </trkpt>
      <trkpt lat="42.89652" lon="0.19954">
        <ele>2004.8</ele>
        <time>2021-07-22T06:51:26.000Z</time>
      </trkpt>
      <trkpt lat="42.89651" lon="0.19956">
        <ele>2005</ele>
        <time>2021-07-22T06:51:30.000Z</time>
      </trkpt>
      <trkpt lat="42.89651" lon="0.19956">
        <ele>2005.1</ele>
        <time>2021-07-22T06:51:47.000Z</time>
      </trkpt>
      <trkpt lat="42.89651" lon="0.19956">
        <ele>2005.1</ele>
        <time>2021-07-22T06:51:48.000Z</time>
      </trkpt>
      <trkpt lat="42.89651" lon="0.19955">
        <ele>2005.1</ele>
        <time>2021-07-22T06:52:12.000Z</time>
      </trkpt>
      <trkpt lat="42.89651" lon="0.19955">
        <ele>2005.9</ele>
        <time>2021-07-22T06:52:14.000Z</time>
      </trkpt>
      <trkpt lat="42.89651" lon="0.19955">
        <ele>2006.3</ele>
        <time>2021-07-22T06:52:15.000Z</time>
      </trkpt>
      <trkpt lat="42.8965" lon="0.19956">
        <ele>2005.5</ele>
        <time>2021-07-22T06:52:19.000Z</time>
      </trkpt>
      <trkpt lat="42.8965" lon="0.19956">
        <ele>2006.4</ele>
        <time>2021-07-22T06:52:38.000Z</time>
      </trkpt>
      <trkpt lat="42.8965" lon="0.19956">
        <ele>2006.3</ele>
        <time>2021-07-22T06:52:39.000Z</time>
      </trkpt>
      <trkpt lat="42.8965" lon="0.19958">
        <ele>2006.3</ele>
        <time>2021-07-22T06:53:11.000Z</time>
      </trkpt>
      <trkpt lat="42.89648" lon="0.19959">
        <ele>2006.1</ele>
        <time>2021-07-22T06:53:16.000Z</time>
      </trkpt>
      <trkpt lat="42.89649" lon="0.19959">
        <ele>2006.1</ele>
        <time>2021-07-22T06:53:17.000Z</time>
      </trkpt>
      <trkpt lat="42.89649" lon="0.19961">
        <ele>2004.8</ele>
        <time>2021-07-22T06:53:24.000Z</time>
      </trkpt>
      <trkpt lat="42.89648" lon="0.19962">
        <ele>2004.9</ele>
        <time>2021-07-22T06:53:26.000Z</time>
      </trkpt>
      <trkpt lat="42.89648" lon="0.19962">
        <ele>2005</ele>
        <time>2021-07-22T06:53:27.000Z</time>
      </trkpt>
      <trkpt lat="42.89649" lon="0.19962">
        <ele>2004.8</ele>
        <time>2021-07-22T06:53:31.000Z</time>
      </trkpt>
      <trkpt lat="42.89649" lon="0.19962">
        <ele>2005</ele>
        <time>2021-07-22T06:53:33.000Z</time>
      </trkpt>
      <trkpt lat="42.89649" lon="0.19962">
        <ele>2004.8</ele>
        <time>2021-07-22T06:53:59.000Z</time>
      </trkpt>
      <trkpt lat="42.89649" lon="0.19962">
        <ele>2004.8</ele>
        <time>2021-07-22T06:54:00.000Z</time>
      </trkpt>
      <trkpt lat="42.89649" lon="0.19962">
        <ele>2004.8</ele>
        <time>2021-07-22T06:54:33.000Z</time>
      </trkpt>
      <trkpt lat="42.89649" lon="0.19962">
        <ele>2004.5</ele>
        <time>2021-07-22T06:54:34.000Z</time>
      </trkpt>
      <trkpt lat="42.89649" lon="0.19961">
        <ele>2004.4</ele>
        <time>2021-07-22T06:54:47.000Z</time>
      </trkpt>
      <trkpt lat="42.89649" lon="0.19961">
        <ele>2004.5</ele>
        <time>2021-07-22T06:54:50.000Z</time>
      </trkpt>
      <trkpt lat="42.89649" lon="0.19961">
        <ele>2004.2</ele>
        <time>2021-07-22T06:55:08.000Z</time>
      </trkpt>
      <trkpt lat="42.8965" lon="0.19955">
        <ele>2003.6</ele>
        <time>2021-07-22T06:55:23.000Z</time>
      </trkpt>
      <trkpt lat="42.8965" lon="0.19955">
        <ele>2003.5</ele>
        <time>2021-07-22T06:56:27.000Z</time>
      </trkpt>
      <trkpt lat="42.8965" lon="0.19955">
        <ele>2003.4</ele>
        <time>2021-07-22T06:56:28.000Z</time>
      </trkpt>
      <trkpt lat="42.8965" lon="0.19955">
        <ele>2003.4</ele>
        <time>2021-07-22T06:56:37.000Z</time>
      </trkpt>
      <trkpt lat="42.8965" lon="0.19955">
        <ele>2003.3</ele>
        <time>2021-07-22T06:56:39.000Z</time>
      </trkpt>
      <trkpt lat="42.89651" lon="0.19955">
        <ele>2003.6</ele>
        <time>2021-07-22T06:56:51.000Z</time>
      </trkpt>
      <trkpt lat="42.89651" lon="0.19955">
        <ele>2003.6</ele>
        <time>2021-07-22T06:56:53.000Z</time>
      </trkpt>
      <trkpt lat="42.89651" lon="0.19954">
        <ele>2003.5</ele>
        <time>2021-07-22T06:57:08.000Z</time>
      </trkpt>
      <trkpt lat="42.89651" lon="0.19954">
        <ele>2003.6</ele>
        <time>2021-07-22T06:57:09.000Z</time>
      </trkpt>
      <trkpt lat="42.89651" lon="0.19954">
        <ele>2003.6</ele>
        <time>2021-07-22T06:57:19.000Z</time>
      </trkpt>
      <trkpt lat="42.89651" lon="0.19954">
        <ele>2003.6</ele>
        <time>2021-07-22T06:57:20.000Z</time>
      </trkpt>
      <trkpt lat="42.89651" lon="0.19954">
        <ele>2003.3</ele>
        <time>2021-07-22T06:57:28.000Z</time>
      </trkpt>
      <trkpt lat="42.89651" lon="0.19954">
        <ele>2003.3</ele>
        <time>2021-07-22T06:57:29.000Z</time>
      </trkpt>
      <trkpt lat="42.89652" lon="0.19954">
        <ele>2003.8</ele>
        <time>2021-07-22T06:57:44.000Z</time>
      </trkpt>
      <trkpt lat="42.89651" lon="0.19955">
        <ele>2003.6</ele>
        <time>2021-07-22T06:57:46.000Z</time>
      </trkpt>
      <trkpt lat="42.89651" lon="0.19955">
        <ele>2004.5</ele>
        <time>2021-07-22T06:58:03.000Z</time>
      </trkpt>
      <trkpt lat="42.89651" lon="0.19955">
        <ele>2004.6</ele>
        <time>2021-07-22T06:58:04.000Z</time>
      </trkpt>
      <trkpt lat="42.89651" lon="0.19955">
        <ele>2004.4</ele>
        <time>2021-07-22T06:58:26.000Z</time>
      </trkpt>
      <trkpt lat="42.89651" lon="0.19955">
        <ele>2004.4</ele>
        <time>2021-07-22T06:58:27.000Z</time>
      </trkpt>
      <trkpt lat="42.89651" lon="0.19955">
        <ele>2005.2</ele>
        <time>2021-07-22T06:58:41.000Z</time>
      </trkpt>
      <trkpt lat="42.8965" lon="0.19957">
        <ele>2003.8</ele>
        <time>2021-07-22T06:58:48.000Z</time>
      </trkpt>
      <trkpt lat="42.8965" lon="0.19958">
        <ele>2005.5</ele>
        <time>2021-07-22T06:58:50.000Z</time>
      </trkpt>
      <trkpt lat="42.89649" lon="0.19961">
        <ele>2004.6</ele>
        <time>2021-07-22T06:58:56.000Z</time>
      </trkpt>
      <trkpt lat="42.89649" lon="0.19961">
        <ele>2005.1</ele>
        <time>2021-07-22T06:58:58.000Z</time>
      </trkpt>
      <trkpt lat="42.89649" lon="0.19961">
        <ele>2004.8</ele>
        <time>2021-07-22T06:58:59.000Z</time>
      </trkpt>
      <trkpt lat="42.89649" lon="0.19961">
        <ele>2005.4</ele>
        <time>2021-07-22T06:59:00.000Z</time>
      </trkpt>
      <trkpt lat="42.89649" lon="0.19961">
        <ele>2005.4</ele>
        <time>2021-07-22T06:59:01.000Z</time>
      </trkpt>
      <trkpt lat="42.89649" lon="0.19961">
        <ele>2005.3</ele>
        <time>2021-07-22T06:59:02.000Z</time>
      </trkpt>
      <trkpt lat="42.89648" lon="0.19967">
        <ele>2005.2</ele>
        <time>2021-07-22T06:59:14.000Z</time>
      </trkpt>
      <trkpt lat="42.89648" lon="0.19967">
        <ele>2005.5</ele>
        <time>2021-07-22T06:59:15.000Z</time>
      </trkpt>
      <trkpt lat="42.89648" lon="0.19967">
        <ele>2004.2</ele>
        <time>2021-07-22T06:59:17.000Z</time>
      </trkpt>
      <trkpt lat="42.89648" lon="0.19967">
        <ele>2004.8</ele>
        <time>2021-07-22T06:59:20.000Z</time>
      </trkpt>
      <trkpt lat="42.89649" lon="0.19964">
        <ele>2004.7</ele>
        <time>2021-07-22T06:59:27.000Z</time>
      </trkpt>
      <trkpt lat="42.89649" lon="0.19964">
        <ele>2004.4</ele>
        <time>2021-07-22T06:59:28.000Z</time>
      </trkpt>
      <trkpt lat="42.89649" lon="0.19966">
        <ele>2004.3</ele>
        <time>2021-07-22T06:59:34.000Z</time>
      </trkpt>
      <trkpt lat="42.89649" lon="0.19966">
        <ele>2004.5</ele>
        <time>2021-07-22T06:59:52.000Z</time>
      </trkpt>
      <trkpt lat="42.89649" lon="0.19967">
        <ele>2005.4</ele>
        <time>2021-07-22T06:59:57.000Z</time>
      </trkpt>
      <trkpt lat="42.8965" lon="0.19967">
        <ele>2005.5</ele>
        <time>2021-07-22T06:59:58.000Z</time>
      </trkpt>
      <trkpt lat="42.8965" lon="0.19967">
        <ele>2005.6</ele>
        <time>2021-07-22T06:59:59.000Z</time>
      </trkpt>
      <trkpt lat="42.8965" lon="0.19967">
        <ele>2005.7</ele>
        <time>2021-07-22T07:00:00.000Z</time>
      </trkpt>
      <trkpt lat="42.89645" lon="0.19955">
        <ele>2005.3</ele>
        <time>2021-07-22T07:00:14.000Z</time>
      </trkpt>
      <trkpt lat="42.89641" lon="0.19944">
        <ele>2006.1</ele>
        <time>2021-07-22T07:00:21.000Z</time>
      </trkpt>
      <trkpt lat="42.89635" lon="0.19935">
        <ele>2006.2</ele>
        <time>2021-07-22T07:00:30.000Z</time>
      </trkpt>
      <trkpt lat="42.89628" lon="0.19926">
        <ele>2005.8</ele>
        <time>2021-07-22T07:00:42.000Z</time>
      </trkpt>
      <trkpt lat="42.89624" lon="0.19915">
        <ele>2006.1</ele>
        <time>2021-07-22T07:00:52.000Z</time>
      </trkpt>
      <trkpt lat="42.89622" lon="0.19902">
        <ele>2006.6</ele>
        <time>2021-07-22T07:01:01.000Z</time>
      </trkpt>
      <trkpt lat="42.89617" lon="0.19889">
        <ele>2006.7</ele>
        <time>2021-07-22T07:01:11.000Z</time>
      </trkpt>
      <trkpt lat="42.89612" lon="0.19879">
        <ele>2005.8</ele>
        <time>2021-07-22T07:01:24.000Z</time>
      </trkpt>
      <trkpt lat="42.89605" lon="0.19871">
        <ele>2005.4</ele>
        <time>2021-07-22T07:01:38.000Z</time>
      </trkpt>
      <trkpt lat="42.89596" lon="0.19863">
        <ele>2006</ele>
        <time>2021-07-22T07:01:48.000Z</time>
      </trkpt>
      <trkpt lat="42.89588" lon="0.19857">
        <ele>2007</ele>
        <time>2021-07-22T07:01:58.000Z</time>
      </trkpt>
      <trkpt lat="42.89581" lon="0.19855">
        <ele>2006.9</ele>
        <time>2021-07-22T07:02:05.000Z</time>
      </trkpt>
      <trkpt lat="42.89581" lon="0.19855">
        <ele>2006.9</ele>
        <time>2021-07-22T07:02:06.000Z</time>
      </trkpt>
      <trkpt lat="42.89572" lon="0.19856">
        <ele>2006.8</ele>
        <time>2021-07-22T07:02:16.000Z</time>
      </trkpt>
      <trkpt lat="42.89563" lon="0.19851">
        <ele>2006.1</ele>
        <time>2021-07-22T07:02:29.000Z</time>
      </trkpt>
      <trkpt lat="42.8956" lon="0.1985">
        <ele>2006</ele>
        <time>2021-07-22T07:02:32.000Z</time>
      </trkpt>
      <trkpt lat="42.89559" lon="0.19851">
        <ele>2006</ele>
        <time>2021-07-22T07:02:33.000Z</time>
      </trkpt>
      <trkpt lat="42.89551" lon="0.19843">
        <ele>2006.7</ele>
        <time>2021-07-22T07:02:44.000Z</time>
      </trkpt>
      <trkpt lat="42.89542" lon="0.19841">
        <ele>2007</ele>
        <time>2021-07-22T07:02:54.000Z</time>
      </trkpt>
      <trkpt lat="42.89533" lon="0.19835">
        <ele>2005.6</ele>
        <time>2021-07-22T07:03:07.000Z</time>
      </trkpt>
      <trkpt lat="42.89524" lon="0.19834">
        <ele>2005.1</ele>
        <time>2021-07-22T07:03:20.000Z</time>
      </trkpt>
      <trkpt lat="42.89518" lon="0.19824">
        <ele>2007.4</ele>
        <time>2021-07-22T07:03:35.000Z</time>
      </trkpt>
      <trkpt lat="42.89509" lon="0.1982">
        <ele>2007.2</ele>
        <time>2021-07-22T07:03:46.000Z</time>
      </trkpt>
      <trkpt lat="42.89501" lon="0.19816">
        <ele>2006.9</ele>
        <time>2021-07-22T07:03:57.000Z</time>
      </trkpt>
      <trkpt lat="42.89495" lon="0.19806">
        <ele>2007.8</ele>
        <time>2021-07-22T07:04:11.000Z</time>
      </trkpt>
      <trkpt lat="42.89485" lon="0.19804">
        <ele>2006.9</ele>
        <time>2021-07-22T07:04:18.000Z</time>
      </trkpt>
      <trkpt lat="42.8948" lon="0.19794">
        <ele>2006.8</ele>
        <time>2021-07-22T07:04:28.000Z</time>
      </trkpt>
      <trkpt lat="42.89474" lon="0.19785">
        <ele>2007</ele>
        <time>2021-07-22T07:04:38.000Z</time>
      </trkpt>
      <trkpt lat="42.89466" lon="0.19777">
        <ele>2006.2</ele>
        <time>2021-07-22T07:04:47.000Z</time>
      </trkpt>
      <trkpt lat="42.89458" lon="0.19768">
        <ele>2006.4</ele>
        <time>2021-07-22T07:05:00.000Z</time>
      </trkpt>
      <trkpt lat="42.8945" lon="0.19761">
        <ele>2007.4</ele>
        <time>2021-07-22T07:05:11.000Z</time>
      </trkpt>
      <trkpt lat="42.89444" lon="0.1975">
        <ele>2009</ele>
        <time>2021-07-22T07:05:23.000Z</time>
      </trkpt>
      <trkpt lat="42.89439" lon="0.1974">
        <ele>2009.9</ele>
        <time>2021-07-22T07:05:35.000Z</time>
      </trkpt>
      <trkpt lat="42.89436" lon="0.19728">
        <ele>2011.2</ele>
        <time>2021-07-22T07:05:46.000Z</time>
      </trkpt>
      <trkpt lat="42.89427" lon="0.19722">
        <ele>2012</ele>
        <time>2021-07-22T07:05:57.000Z</time>
      </trkpt>
      <trkpt lat="42.89418" lon="0.19719">
        <ele>2012.2</ele>
        <time>2021-07-22T07:06:05.000Z</time>
      </trkpt>
      <trkpt lat="42.89412" lon="0.19709">
        <ele>2014.1</ele>
        <time>2021-07-22T07:06:17.000Z</time>
      </trkpt>
      <trkpt lat="42.89403" lon="0.19703">
        <ele>2016</ele>
        <time>2021-07-22T07:06:31.000Z</time>
      </trkpt>
      <trkpt lat="42.89397" lon="0.19712">
        <ele>2017</ele>
        <time>2021-07-22T07:06:46.000Z</time>
      </trkpt>
      <trkpt lat="42.89389" lon="0.19719">
        <ele>2017.7</ele>
        <time>2021-07-22T07:06:59.000Z</time>
      </trkpt>
      <trkpt lat="42.8938" lon="0.19722">
        <ele>2020.3</ele>
        <time>2021-07-22T07:07:14.000Z</time>
      </trkpt>
      <trkpt lat="42.89371" lon="0.19725">
        <ele>2021</ele>
        <time>2021-07-22T07:07:25.000Z</time>
      </trkpt>
      <trkpt lat="42.89364" lon="0.19732">
        <ele>2020.7</ele>
        <time>2021-07-22T07:07:35.000Z</time>
      </trkpt>
      <trkpt lat="42.89356" lon="0.19739">
        <ele>2020.6</ele>
        <time>2021-07-22T07:07:43.000Z</time>
      </trkpt>
      <trkpt lat="42.89347" lon="0.19739">
        <ele>2020.9</ele>
        <time>2021-07-22T07:07:52.000Z</time>
      </trkpt>
      <trkpt lat="42.89336" lon="0.19737">
        <ele>2021.7</ele>
        <time>2021-07-22T07:08:02.000Z</time>
      </trkpt>
      <trkpt lat="42.89327" lon="0.19735">
        <ele>2023.3</ele>
        <time>2021-07-22T07:08:13.000Z</time>
      </trkpt>
      <trkpt lat="42.8933" lon="0.19749">
        <ele>2024.8</ele>
        <time>2021-07-22T07:08:25.000Z</time>
      </trkpt>
      <trkpt lat="42.89321" lon="0.19745">
        <ele>2028.4</ele>
        <time>2021-07-22T07:08:42.000Z</time>
      </trkpt>
      <trkpt lat="42.89311" lon="0.19742">
        <ele>2030.6</ele>
        <time>2021-07-22T07:08:52.000Z</time>
      </trkpt>
      <trkpt lat="42.89303" lon="0.19736">
        <ele>2032.9</ele>
        <time>2021-07-22T07:09:04.000Z</time>
      </trkpt>
      <trkpt lat="42.89293" lon="0.19736">
        <ele>2036.4</ele>
        <time>2021-07-22T07:09:24.000Z</time>
      </trkpt>
      <trkpt lat="42.89287" lon="0.19745">
        <ele>2039.1</ele>
        <time>2021-07-22T07:09:41.000Z</time>
      </trkpt>
      <trkpt lat="42.8928" lon="0.19754">
        <ele>2038.7</ele>
        <time>2021-07-22T07:09:51.000Z</time>
      </trkpt>
      <trkpt lat="42.89277" lon="0.19766">
        <ele>2038.8</ele>
        <time>2021-07-22T07:10:00.000Z</time>
      </trkpt>
      <trkpt lat="42.89276" lon="0.19771">
        <ele>2038.4</ele>
        <time>2021-07-22T07:10:08.000Z</time>
      </trkpt>
      <trkpt lat="42.89277" lon="0.19771">
        <ele>2038.5</ele>
        <time>2021-07-22T07:10:09.000Z</time>
      </trkpt>
      <trkpt lat="42.89277" lon="0.19771">
        <ele>2038.7</ele>
        <time>2021-07-22T07:10:10.000Z</time>
      </trkpt>
      <trkpt lat="42.89277" lon="0.19771">
        <ele>2039.3</ele>
        <time>2021-07-22T07:10:19.000Z</time>
      </trkpt>
      <trkpt lat="42.89273" lon="0.19779">
        <ele>2039.9</ele>
        <time>2021-07-22T07:10:40.000Z</time>
      </trkpt>
      <trkpt lat="42.89273" lon="0.1978">
        <ele>2040.1</ele>
        <time>2021-07-22T07:10:42.000Z</time>
      </trkpt>
      <trkpt lat="42.89263" lon="0.19786">
        <ele>2040.4</ele>
        <time>2021-07-22T07:10:50.000Z</time>
      </trkpt>
      <trkpt lat="42.89256" lon="0.19793">
        <ele>2041.3</ele>
        <time>2021-07-22T07:10:58.000Z</time>
      </trkpt>
      <trkpt lat="42.89254" lon="0.19795">
        <ele>2040.9</ele>
        <time>2021-07-22T07:11:03.000Z</time>
      </trkpt>
      <trkpt lat="42.89253" lon="0.19796">
        <ele>2041.5</ele>
        <time>2021-07-22T07:11:05.000Z</time>
      </trkpt>
      <trkpt lat="42.89248" lon="0.19807">
        <ele>2041.5</ele>
        <time>2021-07-22T07:11:12.000Z</time>
      </trkpt>
      <trkpt lat="42.89244" lon="0.19818">
        <ele>2041.1</ele>
        <time>2021-07-22T07:11:19.000Z</time>
      </trkpt>
      <trkpt lat="42.89239" lon="0.19829">
        <ele>2041.2</ele>
        <time>2021-07-22T07:11:27.000Z</time>
      </trkpt>
      <trkpt lat="42.89238" lon="0.19842">
        <ele>2043.8</ele>
        <time>2021-07-22T07:11:41.000Z</time>
      </trkpt>
      <trkpt lat="42.89245" lon="0.19851">
        <ele>2044.7</ele>
        <time>2021-07-22T07:11:51.000Z</time>
      </trkpt>
      <trkpt lat="42.8925" lon="0.19862">
        <ele>2045.3</ele>
        <time>2021-07-22T07:12:00.000Z</time>
      </trkpt>
      <trkpt lat="42.89255" lon="0.19872">
        <ele>2046.9</ele>
        <time>2021-07-22T07:12:11.000Z</time>
      </trkpt>
      <trkpt lat="42.89262" lon="0.19881">
        <ele>2048.5</ele>
        <time>2021-07-22T07:12:20.000Z</time>
      </trkpt>
      <trkpt lat="42.89271" lon="0.19889">
        <ele>2049.2</ele>
        <time>2021-07-22T07:12:28.000Z</time>
      </trkpt>
      <trkpt lat="42.89269" lon="0.199">
        <ele>2049.9</ele>
        <time>2021-07-22T07:12:42.000Z</time>
      </trkpt>
      <trkpt lat="42.89269" lon="0.19899">
        <ele>2049.7</ele>
        <time>2021-07-22T07:12:45.000Z</time>
      </trkpt>
      <trkpt lat="42.89274" lon="0.19904">
        <ele>2050.2</ele>
        <time>2021-07-22T07:12:55.000Z</time>
      </trkpt>
      <trkpt lat="42.89274" lon="0.19904">
        <ele>2050.8</ele>
        <time>2021-07-22T07:12:58.000Z</time>
      </trkpt>
      <trkpt lat="42.89281" lon="0.19914">
        <ele>2049.4</ele>
        <time>2021-07-22T07:13:07.000Z</time>
      </trkpt>
      <trkpt lat="42.89284" lon="0.19921">
        <ele>2050.7</ele>
        <time>2021-07-22T07:13:15.000Z</time>
      </trkpt>
      <trkpt lat="42.89284" lon="0.19921">
        <ele>2050.9</ele>
        <time>2021-07-22T07:13:16.000Z</time>
      </trkpt>
      <trkpt lat="42.89284" lon="0.1992">
        <ele>2051.8</ele>
        <time>2021-07-22T07:13:20.000Z</time>
      </trkpt>
      <trkpt lat="42.89284" lon="0.1992">
        <ele>2051.8</ele>
        <time>2021-07-22T07:13:23.000Z</time>
      </trkpt>
      <trkpt lat="42.89288" lon="0.19925">
        <ele>2053.6</ele>
        <time>2021-07-22T07:13:39.000Z</time>
      </trkpt>
      <trkpt lat="42.89288" lon="0.19925">
        <ele>2054.1</ele>
        <time>2021-07-22T07:13:42.000Z</time>
      </trkpt>
      <trkpt lat="42.89283" lon="0.19935">
        <ele>2055.5</ele>
        <time>2021-07-22T07:13:54.000Z</time>
      </trkpt>
      <trkpt lat="42.89274" lon="0.19948">
        <ele>2057.5</ele>
        <time>2021-07-22T07:14:06.000Z</time>
      </trkpt>
      <trkpt lat="42.89283" lon="0.19952">
        <ele>2060.7</ele>
        <time>2021-07-22T07:14:23.000Z</time>
      </trkpt>
      <trkpt lat="42.8929" lon="0.19962">
        <ele>2061.2</ele>
        <time>2021-07-22T07:14:33.000Z</time>
      </trkpt>
      <trkpt lat="42.89295" lon="0.19973">
        <ele>2061.1</ele>
        <time>2021-07-22T07:14:42.000Z</time>
      </trkpt>
      <trkpt lat="42.89302" lon="0.19984">
        <ele>2062.5</ele>
        <time>2021-07-22T07:14:51.000Z</time>
      </trkpt>
      <trkpt lat="42.89298" lon="0.19996">
        <ele>2064.5</ele>
        <time>2021-07-22T07:15:00.000Z</time>
      </trkpt>
      <trkpt lat="42.89289" lon="0.20002">
        <ele>2066.8</ele>
        <time>2021-07-22T07:15:13.000Z</time>
      </trkpt>
      <trkpt lat="42.89285" lon="0.20003">
        <ele>2068.6</ele>
        <time>2021-07-22T07:15:21.000Z</time>
      </trkpt>
      <trkpt lat="42.89285" lon="0.20003">
        <ele>2068.8</ele>
        <time>2021-07-22T07:15:22.000Z</time>
      </trkpt>
      <trkpt lat="42.89286" lon="0.20015">
        <ele>2075.4</ele>
        <time>2021-07-22T07:15:59.000Z</time>
      </trkpt>
      <trkpt lat="42.89285" lon="0.20015">
        <ele>2075.5</ele>
        <time>2021-07-22T07:16:01.000Z</time>
      </trkpt>
      <trkpt lat="42.89285" lon="0.20015">
        <ele>2075.7</ele>
        <time>2021-07-22T07:16:02.000Z</time>
      </trkpt>
      <trkpt lat="42.89286" lon="0.20015">
        <ele>2075.8</ele>
        <time>2021-07-22T07:16:03.000Z</time>
      </trkpt>
      <trkpt lat="42.89286" lon="0.20015">
        <ele>2075.7</ele>
        <time>2021-07-22T07:16:04.000Z</time>
      </trkpt>
      <trkpt lat="42.89286" lon="0.20014">
        <ele>2075.6</ele>
        <time>2021-07-22T07:16:05.000Z</time>
      </trkpt>
      <trkpt lat="42.89286" lon="0.20014">
        <ele>2075.6</ele>
        <time>2021-07-22T07:16:06.000Z</time>
      </trkpt>
      <trkpt lat="42.89285" lon="0.20015">
        <ele>2075.8</ele>
        <time>2021-07-22T07:16:08.000Z</time>
      </trkpt>
      <trkpt lat="42.89279" lon="0.20024">
        <ele>2078.5</ele>
        <time>2021-07-22T07:16:27.000Z</time>
      </trkpt>
      <trkpt lat="42.89277" lon="0.20036">
        <ele>2083.9</ele>
        <time>2021-07-22T07:16:56.000Z</time>
      </trkpt>
      <trkpt lat="42.89277" lon="0.20048">
        <ele>2084.8</ele>
        <time>2021-07-22T07:17:09.000Z</time>
      </trkpt>
      <trkpt lat="42.89272" lon="0.20059">
        <ele>2087.6</ele>
        <time>2021-07-22T07:17:23.000Z</time>
      </trkpt>
      <trkpt lat="42.89266" lon="0.20069">
        <ele>2089.7</ele>
        <time>2021-07-22T07:17:38.000Z</time>
      </trkpt>
      <trkpt lat="42.89259" lon="0.20077">
        <ele>2089.9</ele>
        <time>2021-07-22T07:17:47.000Z</time>
      </trkpt>
      <trkpt lat="42.89252" lon="0.20086">
        <ele>2089.8</ele>
        <time>2021-07-22T07:17:58.000Z</time>
      </trkpt>
      <trkpt lat="42.89248" lon="0.20085">
        <ele>2089.4</ele>
        <time>2021-07-22T07:18:05.000Z</time>
      </trkpt>
      <trkpt lat="42.89247" lon="0.20085">
        <ele>2089.7</ele>
        <time>2021-07-22T07:18:06.000Z</time>
      </trkpt>
      <trkpt lat="42.89237" lon="0.20085">
        <ele>2089.9</ele>
        <time>2021-07-22T07:18:16.000Z</time>
      </trkpt>
      <trkpt lat="42.89228" lon="0.20082">
        <ele>2090.4</ele>
        <time>2021-07-22T07:18:25.000Z</time>
      </trkpt>
      <trkpt lat="42.89219" lon="0.20084">
        <ele>2090.8</ele>
        <time>2021-07-22T07:18:36.000Z</time>
      </trkpt>
      <trkpt lat="42.89211" lon="0.20091">
        <ele>2089.2</ele>
        <time>2021-07-22T07:18:48.000Z</time>
      </trkpt>
      <trkpt lat="42.89207" lon="0.20094">
        <ele>2089.2</ele>
        <time>2021-07-22T07:18:56.000Z</time>
      </trkpt>
      <trkpt lat="42.89206" lon="0.20094">
        <ele>2089.5</ele>
        <time>2021-07-22T07:18:57.000Z</time>
      </trkpt>
      <trkpt lat="42.89197" lon="0.20099">
        <ele>2087.8</ele>
        <time>2021-07-22T07:19:06.000Z</time>
      </trkpt>
      <trkpt lat="42.89187" lon="0.20098">
        <ele>2088.4</ele>
        <time>2021-07-22T07:19:15.000Z</time>
      </trkpt>
      <trkpt lat="42.89178" lon="0.20099">
        <ele>2089.4</ele>
        <time>2021-07-22T07:19:24.000Z</time>
      </trkpt>
      <trkpt lat="42.89169" lon="0.20093">
        <ele>2091</ele>
        <time>2021-07-22T07:19:37.000Z</time>
      </trkpt>
      <trkpt lat="42.8916" lon="0.2009">
        <ele>2094.8</ele>
        <time>2021-07-22T07:19:55.000Z</time>
      </trkpt>
      <trkpt lat="42.89156" lon="0.20082">
        <ele>2097</ele>
        <time>2021-07-22T07:20:06.000Z</time>
      </trkpt>
      <trkpt lat="42.89155" lon="0.20082">
        <ele>2097.3</ele>
        <time>2021-07-22T07:20:07.000Z</time>
      </trkpt>
      <trkpt lat="42.89146" lon="0.2008">
        <ele>2100.2</ele>
        <time>2021-07-22T07:20:20.000Z</time>
      </trkpt>
      <trkpt lat="42.89137" lon="0.20083">
        <ele>2104.4</ele>
        <time>2021-07-22T07:20:36.000Z</time>
      </trkpt>
      <trkpt lat="42.89135" lon="0.20088">
        <ele>2105.9</ele>
        <time>2021-07-22T07:20:47.000Z</time>
      </trkpt>
      <trkpt lat="42.89135" lon="0.20088">
        <ele>2106.6</ele>
        <time>2021-07-22T07:21:09.000Z</time>
      </trkpt>
      <trkpt lat="42.89135" lon="0.20088">
        <ele>2106.5</ele>
        <time>2021-07-22T07:21:10.000Z</time>
      </trkpt>
      <trkpt lat="42.89135" lon="0.20088">
        <ele>2106.6</ele>
        <time>2021-07-22T07:21:11.000Z</time>
      </trkpt>
      <trkpt lat="42.89135" lon="0.20088">
        <ele>2106.7</ele>
        <time>2021-07-22T07:21:12.000Z</time>
      </trkpt>
      <trkpt lat="42.89135" lon="0.20088">
        <ele>2106.8</ele>
        <time>2021-07-22T07:21:13.000Z</time>
      </trkpt>
      <trkpt lat="42.89135" lon="0.20088">
        <ele>2106.9</ele>
        <time>2021-07-22T07:21:14.000Z</time>
      </trkpt>
      <trkpt lat="42.89135" lon="0.20089">
        <ele>2106.8</ele>
        <time>2021-07-22T07:21:26.000Z</time>
      </trkpt>
      <trkpt lat="42.8913" lon="0.20099">
        <ele>2108.6</ele>
        <time>2021-07-22T07:21:41.000Z</time>
      </trkpt>
      <trkpt lat="42.89121" lon="0.20104">
        <ele>2111.4</ele>
        <time>2021-07-22T07:21:54.000Z</time>
      </trkpt>
      <trkpt lat="42.89118" lon="0.20117">
        <ele>2115.4</ele>
        <time>2021-07-22T07:22:11.000Z</time>
      </trkpt>
      <trkpt lat="42.8911" lon="0.20125">
        <ele>2117</ele>
        <time>2021-07-22T07:22:22.000Z</time>
      </trkpt>
      <trkpt lat="42.89103" lon="0.20133">
        <ele>2118.7</ele>
        <time>2021-07-22T07:22:34.000Z</time>
      </trkpt>
      <trkpt lat="42.89097" lon="0.20143">
        <ele>2118.8</ele>
        <time>2021-07-22T07:22:47.000Z</time>
      </trkpt>
      <trkpt lat="42.89093" lon="0.20154">
        <ele>2118.9</ele>
        <time>2021-07-22T07:22:58.000Z</time>
      </trkpt>
      <trkpt lat="42.89083" lon="0.20156">
        <ele>2118.7</ele>
        <time>2021-07-22T07:23:10.000Z</time>
      </trkpt>
      <trkpt lat="42.89076" lon="0.20164">
        <ele>2115.7</ele>
        <time>2021-07-22T07:23:23.000Z</time>
      </trkpt>
      <trkpt lat="42.89073" lon="0.20177">
        <ele>2114.1</ele>
        <time>2021-07-22T07:23:31.000Z</time>
      </trkpt>
      <trkpt lat="42.89069" lon="0.20189">
        <ele>2112.5</ele>
        <time>2021-07-22T07:23:38.000Z</time>
      </trkpt>
      <trkpt lat="42.89062" lon="0.20197">
        <ele>2113.8</ele>
        <time>2021-07-22T07:23:48.000Z</time>
      </trkpt>
      <trkpt lat="42.89054" lon="0.20206">
        <ele>2116.4</ele>
        <time>2021-07-22T07:24:03.000Z</time>
      </trkpt>
      <trkpt lat="42.89049" lon="0.20213">
        <ele>2116.6</ele>
        <time>2021-07-22T07:24:16.000Z</time>
      </trkpt>
      <trkpt lat="42.89048" lon="0.20214">
        <ele>2117.5</ele>
        <time>2021-07-22T07:24:24.000Z</time>
      </trkpt>
      <trkpt lat="42.89044" lon="0.20219">
        <ele>2115.9</ele>
        <time>2021-07-22T07:24:37.000Z</time>
      </trkpt>
      <trkpt lat="42.89044" lon="0.20219">
        <ele>2116</ele>
        <time>2021-07-22T07:24:40.000Z</time>
      </trkpt>
      <trkpt lat="42.89043" lon="0.20233">
        <ele>2115.9</ele>
        <time>2021-07-22T07:24:50.000Z</time>
      </trkpt>
      <trkpt lat="42.89036" lon="0.20242">
        <ele>2114.1</ele>
        <time>2021-07-22T07:25:02.000Z</time>
      </trkpt>
      <trkpt lat="42.8903" lon="0.20252">
        <ele>2112.5</ele>
        <time>2021-07-22T07:25:12.000Z</time>
      </trkpt>
      <trkpt lat="42.89023" lon="0.2026">
        <ele>2110.9</ele>
        <time>2021-07-22T07:25:23.000Z</time>
      </trkpt>
      <trkpt lat="42.89014" lon="0.20265">
        <ele>2108.3</ele>
        <time>2021-07-22T07:25:32.000Z</time>
      </trkpt>
      <trkpt lat="42.89006" lon="0.20273">
        <ele>2106.1</ele>
        <time>2021-07-22T07:25:41.000Z</time>
      </trkpt>
      <trkpt lat="42.89" lon="0.20283">
        <ele>2104.7</ele>
        <time>2021-07-22T07:25:48.000Z</time>
      </trkpt>
      <trkpt lat="42.88995" lon="0.20294">
        <ele>2103.5</ele>
        <time>2021-07-22T07:25:57.000Z</time>
      </trkpt>
      <trkpt lat="42.88989" lon="0.20303">
        <ele>2103.2</ele>
        <time>2021-07-22T07:26:06.000Z</time>
      </trkpt>
      <trkpt lat="42.88982" lon="0.20311">
        <ele>2102.8</ele>
        <time>2021-07-22T07:26:17.000Z</time>
      </trkpt>
      <trkpt lat="42.88979" lon="0.20316">
        <ele>2100.8</ele>
        <time>2021-07-22T07:26:31.000Z</time>
      </trkpt>
      <trkpt lat="42.88979" lon="0.20315">
        <ele>2101.7</ele>
        <time>2021-07-22T07:26:37.000Z</time>
      </trkpt>
      <trkpt lat="42.88978" lon="0.20318">
        <ele>2101.1</ele>
        <time>2021-07-22T07:26:44.000Z</time>
      </trkpt>
      <trkpt lat="42.88978" lon="0.20318">
        <ele>2100.8</ele>
        <time>2021-07-22T07:26:45.000Z</time>
      </trkpt>
      <trkpt lat="42.88973" lon="0.2033">
        <ele>2097.7</ele>
        <time>2021-07-22T07:26:59.000Z</time>
      </trkpt>
      <trkpt lat="42.88966" lon="0.20339">
        <ele>2095.4</ele>
        <time>2021-07-22T07:27:12.000Z</time>
      </trkpt>
      <trkpt lat="42.88963" lon="0.20351">
        <ele>2093.3</ele>
        <time>2021-07-22T07:27:24.000Z</time>
      </trkpt>
      <trkpt lat="42.88956" lon="0.20361">
        <ele>2090.7</ele>
        <time>2021-07-22T07:27:36.000Z</time>
      </trkpt>
      <trkpt lat="42.88951" lon="0.20371">
        <ele>2088.4</ele>
        <time>2021-07-22T07:27:50.000Z</time>
      </trkpt>
      <trkpt lat="42.88944" lon="0.20379">
        <ele>2086</ele>
        <time>2021-07-22T07:28:03.000Z</time>
      </trkpt>
      <trkpt lat="42.88937" lon="0.20388">
        <ele>2084.3</ele>
        <time>2021-07-22T07:28:12.000Z</time>
      </trkpt>
      <trkpt lat="42.88927" lon="0.20389">
        <ele>2079.3</ele>
        <time>2021-07-22T07:28:36.000Z</time>
      </trkpt>
      <trkpt lat="42.88923" lon="0.204">
        <ele>2078.5</ele>
        <time>2021-07-22T07:28:46.000Z</time>
      </trkpt>
      <trkpt lat="42.8892" lon="0.20407">
        <ele>2078.5</ele>
        <time>2021-07-22T07:28:57.000Z</time>
      </trkpt>
      <trkpt lat="42.8892" lon="0.20408">
        <ele>2078.6</ele>
        <time>2021-07-22T07:28:58.000Z</time>
      </trkpt>
      <trkpt lat="42.88915" lon="0.20418">
        <ele>2079.6</ele>
        <time>2021-07-22T07:29:08.000Z</time>
      </trkpt>
      <trkpt lat="42.88907" lon="0.20425">
        <ele>2080.8</ele>
        <time>2021-07-22T07:29:18.000Z</time>
      </trkpt>
      <trkpt lat="42.88904" lon="0.20438">
        <ele>2081.2</ele>
        <time>2021-07-22T07:29:27.000Z</time>
      </trkpt>
      <trkpt lat="42.88904" lon="0.2045">
        <ele>2081</ele>
        <time>2021-07-22T07:29:37.000Z</time>
      </trkpt>
      <trkpt lat="42.88904" lon="0.20462">
        <ele>2081.1</ele>
        <time>2021-07-22T07:29:48.000Z</time>
      </trkpt>
      <trkpt lat="42.88898" lon="0.20472">
        <ele>2081.2</ele>
        <time>2021-07-22T07:30:00.000Z</time>
      </trkpt>
      <trkpt lat="42.88898" lon="0.20472">
        <ele>2081</ele>
        <time>2021-07-22T07:30:02.000Z</time>
      </trkpt>
      <trkpt lat="42.88898" lon="0.20472">
        <ele>2081</ele>
        <time>2021-07-22T07:30:03.000Z</time>
      </trkpt>
      <trkpt lat="42.88896" lon="0.20484">
        <ele>2083</ele>
        <time>2021-07-22T07:30:13.000Z</time>
      </trkpt>
      <trkpt lat="42.88896" lon="0.20484">
        <ele>2083.3</ele>
        <time>2021-07-22T07:30:15.000Z</time>
      </trkpt>
      <trkpt lat="42.88896" lon="0.20485">
        <ele>2084.4</ele>
        <time>2021-07-22T07:30:20.000Z</time>
      </trkpt>
      <trkpt lat="42.88891" lon="0.20496">
        <ele>2086.2</ele>
        <time>2021-07-22T07:30:31.000Z</time>
      </trkpt>
      <trkpt lat="42.88885" lon="0.20506">
        <ele>2087.7</ele>
        <time>2021-07-22T07:30:39.000Z</time>
      </trkpt>
      <trkpt lat="42.88883" lon="0.20511">
        <ele>2088.5</ele>
        <time>2021-07-22T07:30:46.000Z</time>
      </trkpt>
      <trkpt lat="42.88882" lon="0.20511">
        <ele>2088.5</ele>
        <time>2021-07-22T07:30:47.000Z</time>
      </trkpt>
      <trkpt lat="42.88873" lon="0.20512">
        <ele>2089.3</ele>
        <time>2021-07-22T07:30:54.000Z</time>
      </trkpt>
      <trkpt lat="42.88864" lon="0.20511">
        <ele>2090.7</ele>
        <time>2021-07-22T07:31:03.000Z</time>
      </trkpt>
      <trkpt lat="42.88855" lon="0.20511">
        <ele>2091.4</ele>
        <time>2021-07-22T07:31:11.000Z</time>
      </trkpt>
      <trkpt lat="42.88846" lon="0.20515">
        <ele>2092</ele>
        <time>2021-07-22T07:31:19.000Z</time>
      </trkpt>
      <trkpt lat="42.88837" lon="0.20513">
        <ele>2092.6</ele>
        <time>2021-07-22T07:31:31.000Z</time>
      </trkpt>
      <trkpt lat="42.88828" lon="0.20518">
        <ele>2092.9</ele>
        <time>2021-07-22T07:31:45.000Z</time>
      </trkpt>
      <trkpt lat="42.88818" lon="0.20516">
        <ele>2092.5</ele>
        <time>2021-07-22T07:31:58.000Z</time>
      </trkpt>
      <trkpt lat="42.88809" lon="0.20513">
        <ele>2091.6</ele>
        <time>2021-07-22T07:32:05.000Z</time>
      </trkpt>
      <trkpt lat="42.888" lon="0.20517">
        <ele>2092.3</ele>
        <time>2021-07-22T07:32:15.000Z</time>
      </trkpt>
      <trkpt lat="42.8879" lon="0.20516">
        <ele>2093.2</ele>
        <time>2021-07-22T07:32:24.000Z</time>
      </trkpt>
      <trkpt lat="42.88781" lon="0.20514">
        <ele>2093</ele>
        <time>2021-07-22T07:32:33.000Z</time>
      </trkpt>
      <trkpt lat="42.88772" lon="0.20509">
        <ele>2093.4</ele>
        <time>2021-07-22T07:32:41.000Z</time>
      </trkpt>
      <trkpt lat="42.88766" lon="0.20519">
        <ele>2095.2</ele>
        <time>2021-07-22T07:32:50.000Z</time>
      </trkpt>
      <trkpt lat="42.88756" lon="0.20519">
        <ele>2098</ele>
        <time>2021-07-22T07:33:04.000Z</time>
      </trkpt>
      <trkpt lat="42.88749" lon="0.20526">
        <ele>2098.5</ele>
        <time>2021-07-22T07:33:19.000Z</time>
      </trkpt>
      <trkpt lat="42.88739" lon="0.20529">
        <ele>2098.7</ele>
        <time>2021-07-22T07:33:34.000Z</time>
      </trkpt>
      <trkpt lat="42.88734" lon="0.20523">
        <ele>2097.7</ele>
        <time>2021-07-22T07:33:43.000Z</time>
      </trkpt>
      <trkpt lat="42.88734" lon="0.20523">
        <ele>2097.7</ele>
        <time>2021-07-22T07:33:44.000Z</time>
      </trkpt>
      <trkpt lat="42.88734" lon="0.20526">
        <ele>2097.6</ele>
        <time>2021-07-22T07:33:49.000Z</time>
      </trkpt>
      <trkpt lat="42.88734" lon="0.20526">
        <ele>2097.9</ele>
        <time>2021-07-22T07:33:51.000Z</time>
      </trkpt>
      <trkpt lat="42.88734" lon="0.20526">
        <ele>2097.9</ele>
        <time>2021-07-22T07:33:53.000Z</time>
      </trkpt>
      <trkpt lat="42.88734" lon="0.20525">
        <ele>2098.3</ele>
        <time>2021-07-22T07:33:58.000Z</time>
      </trkpt>
      <trkpt lat="42.88724" lon="0.20529">
        <ele>2097.2</ele>
        <time>2021-07-22T07:34:11.000Z</time>
      </trkpt>
      <trkpt lat="42.88715" lon="0.20531">
        <ele>2096</ele>
        <time>2021-07-22T07:34:25.000Z</time>
      </trkpt>
      <trkpt lat="42.88706" lon="0.20533">
        <ele>2093.5</ele>
        <time>2021-07-22T07:34:39.000Z</time>
      </trkpt>
      <trkpt lat="42.88696" lon="0.20533">
        <ele>2092.7</ele>
        <time>2021-07-22T07:34:50.000Z</time>
      </trkpt>
      <trkpt lat="42.88687" lon="0.20533">
        <ele>2092.1</ele>
        <time>2021-07-22T07:35:03.000Z</time>
      </trkpt>
      <trkpt lat="42.88678" lon="0.20537">
        <ele>2092.4</ele>
        <time>2021-07-22T07:35:12.000Z</time>
      </trkpt>
      <trkpt lat="42.88669" lon="0.20542">
        <ele>2091.1</ele>
        <time>2021-07-22T07:35:21.000Z</time>
      </trkpt>
      <trkpt lat="42.88661" lon="0.20549">
        <ele>2090.2</ele>
        <time>2021-07-22T07:35:30.000Z</time>
      </trkpt>
      <trkpt lat="42.88655" lon="0.20557">
        <ele>2092</ele>
        <time>2021-07-22T07:35:42.000Z</time>
      </trkpt>
      <trkpt lat="42.88649" lon="0.20568">
        <ele>2094.2</ele>
        <time>2021-07-22T07:35:55.000Z</time>
      </trkpt>
      <trkpt lat="42.88643" lon="0.20578">
        <ele>2093.7</ele>
        <time>2021-07-22T07:36:05.000Z</time>
      </trkpt>
      <trkpt lat="42.88637" lon="0.20588">
        <ele>2093.9</ele>
        <time>2021-07-22T07:36:13.000Z</time>
      </trkpt>
      <trkpt lat="42.88632" lon="0.20598">
        <ele>2095.2</ele>
        <time>2021-07-22T07:36:23.000Z</time>
      </trkpt>
      <trkpt lat="42.88628" lon="0.2061">
        <ele>2097.2</ele>
        <time>2021-07-22T07:36:34.000Z</time>
      </trkpt>
      <trkpt lat="42.88622" lon="0.2062">
        <ele>2097.9</ele>
        <time>2021-07-22T07:36:45.000Z</time>
      </trkpt>
      <trkpt lat="42.88614" lon="0.20626">
        <ele>2098.4</ele>
        <time>2021-07-22T07:36:58.000Z</time>
      </trkpt>
      <trkpt lat="42.88607" lon="0.20634">
        <ele>2096.7</ele>
        <time>2021-07-22T07:37:11.000Z</time>
      </trkpt>
      <trkpt lat="42.88597" lon="0.20632">
        <ele>2095</ele>
        <time>2021-07-22T07:37:24.000Z</time>
      </trkpt>
      <trkpt lat="42.88588" lon="0.20634">
        <ele>2093.6</ele>
        <time>2021-07-22T07:37:35.000Z</time>
      </trkpt>
      <trkpt lat="42.88579" lon="0.20637">
        <ele>2093.7</ele>
        <time>2021-07-22T07:37:45.000Z</time>
      </trkpt>
      <trkpt lat="42.88574" lon="0.20642">
        <ele>2095</ele>
        <time>2021-07-22T07:37:55.000Z</time>
      </trkpt>
      <trkpt lat="42.88574" lon="0.20642">
        <ele>2095.3</ele>
        <time>2021-07-22T07:37:56.000Z</time>
      </trkpt>
      <trkpt lat="42.88574" lon="0.20642">
        <ele>2095.2</ele>
        <time>2021-07-22T07:37:58.000Z</time>
      </trkpt>
      <trkpt lat="42.88573" lon="0.20643">
        <ele>2095.3</ele>
        <time>2021-07-22T07:38:01.000Z</time>
      </trkpt>
      <trkpt lat="42.88565" lon="0.2065">
        <ele>2096.8</ele>
        <time>2021-07-22T07:38:12.000Z</time>
      </trkpt>
      <trkpt lat="42.88555" lon="0.2065">
        <ele>2097.8</ele>
        <time>2021-07-22T07:38:20.000Z</time>
      </trkpt>
      <trkpt lat="42.88544" lon="0.2065">
        <ele>2098.6</ele>
        <time>2021-07-22T07:38:29.000Z</time>
      </trkpt>
      <trkpt lat="42.88535" lon="0.20648">
        <ele>2097.5</ele>
        <time>2021-07-22T07:38:37.000Z</time>
      </trkpt>
      <trkpt lat="42.88528" lon="0.2064">
        <ele>2099.1</ele>
        <time>2021-07-22T07:38:48.000Z</time>
      </trkpt>
      <trkpt lat="42.88526" lon="0.20627">
        <ele>2100</ele>
        <time>2021-07-22T07:39:03.000Z</time>
      </trkpt>
      <trkpt lat="42.88527" lon="0.20615">
        <ele>2101.3</ele>
        <time>2021-07-22T07:39:18.000Z</time>
      </trkpt>
      <trkpt lat="42.88524" lon="0.20603">
        <ele>2103.1</ele>
        <time>2021-07-22T07:39:29.000Z</time>
      </trkpt>
      <trkpt lat="42.88521" lon="0.20591">
        <ele>2104.4</ele>
        <time>2021-07-22T07:39:38.000Z</time>
      </trkpt>
      <trkpt lat="42.88519" lon="0.20578">
        <ele>2105.5</ele>
        <time>2021-07-22T07:39:47.000Z</time>
      </trkpt>
      <trkpt lat="42.88519" lon="0.20565">
        <ele>2106.4</ele>
        <time>2021-07-22T07:39:58.000Z</time>
      </trkpt>
      <trkpt lat="42.88515" lon="0.20554">
        <ele>2108.4</ele>
        <time>2021-07-22T07:40:11.000Z</time>
      </trkpt>
      <trkpt lat="42.88513" lon="0.20547">
        <ele>2109</ele>
        <time>2021-07-22T07:40:21.000Z</time>
      </trkpt>
      <trkpt lat="42.88513" lon="0.20547">
        <ele>2109.6</ele>
        <time>2021-07-22T07:40:23.000Z</time>
      </trkpt>
      <trkpt lat="42.88513" lon="0.20547">
        <ele>2109.6</ele>
        <time>2021-07-22T07:40:24.000Z</time>
      </trkpt>
      <trkpt lat="42.88512" lon="0.20548">
        <ele>2110</ele>
        <time>2021-07-22T07:40:35.000Z</time>
      </trkpt>
      <trkpt lat="42.88506" lon="0.20551">
        <ele>2109.2</ele>
        <time>2021-07-22T07:40:47.000Z</time>
      </trkpt>
      <trkpt lat="42.88506" lon="0.20551">
        <ele>2109.7</ele>
        <time>2021-07-22T07:40:51.000Z</time>
      </trkpt>
      <trkpt lat="42.88506" lon="0.20551">
        <ele>2109.7</ele>
        <time>2021-07-22T07:40:52.000Z</time>
      </trkpt>
      <trkpt lat="42.88506" lon="0.20551">
        <ele>2109.6</ele>
        <time>2021-07-22T07:40:54.000Z</time>
      </trkpt>
      <trkpt lat="42.88498" lon="0.20543">
        <ele>2109.5</ele>
        <time>2021-07-22T07:41:05.000Z</time>
      </trkpt>
      <trkpt lat="42.8849" lon="0.20535">
        <ele>2110.2</ele>
        <time>2021-07-22T07:41:15.000Z</time>
      </trkpt>
      <trkpt lat="42.88484" lon="0.20525">
        <ele>2110.9</ele>
        <time>2021-07-22T07:41:23.000Z</time>
      </trkpt>
      <trkpt lat="42.88476" lon="0.20519">
        <ele>2113.9</ele>
        <time>2021-07-22T07:41:39.000Z</time>
      </trkpt>
      <trkpt lat="42.88468" lon="0.20515">
        <ele>2118.5</ele>
        <time>2021-07-22T07:41:56.000Z</time>
      </trkpt>
      <trkpt lat="42.88465" lon="0.20503">
        <ele>2122.9</ele>
        <time>2021-07-22T07:42:15.000Z</time>
      </trkpt>
      <trkpt lat="42.88465" lon="0.20503">
        <ele>2123</ele>
        <time>2021-07-22T07:42:16.000Z</time>
      </trkpt>
      <trkpt lat="42.88465" lon="0.20503">
        <ele>2123.7</ele>
        <time>2021-07-22T07:42:18.000Z</time>
      </trkpt>
      <trkpt lat="42.88463" lon="0.20491">
        <ele>2127.5</ele>
        <time>2021-07-22T07:42:35.000Z</time>
      </trkpt>
      <trkpt lat="42.88462" lon="0.20488">
        <ele>2129</ele>
        <time>2021-07-22T07:42:41.000Z</time>
      </trkpt>
      <trkpt lat="42.88462" lon="0.20488">
        <ele>2129</ele>
        <time>2021-07-22T07:42:42.000Z</time>
      </trkpt>
      <trkpt lat="42.88462" lon="0.20488">
        <ele>2129</ele>
        <time>2021-07-22T07:42:43.000Z</time>
      </trkpt>
      <trkpt lat="42.88461" lon="0.20488">
        <ele>2129.4</ele>
        <time>2021-07-22T07:42:45.000Z</time>
      </trkpt>
      <trkpt lat="42.88461" lon="0.20488">
        <ele>2129.5</ele>
        <time>2021-07-22T07:42:46.000Z</time>
      </trkpt>
      <trkpt lat="42.88461" lon="0.20489">
        <ele>2129.7</ele>
        <time>2021-07-22T07:42:52.000Z</time>
      </trkpt>
      <trkpt lat="42.88461" lon="0.20489">
        <ele>2129.5</ele>
        <time>2021-07-22T07:42:53.000Z</time>
      </trkpt>
      <trkpt lat="42.88461" lon="0.20489">
        <ele>2129.8</ele>
        <time>2021-07-22T07:42:58.000Z</time>
      </trkpt>
      <trkpt lat="42.88455" lon="0.20479">
        <ele>2132.3</ele>
        <time>2021-07-22T07:43:14.000Z</time>
      </trkpt>
      <trkpt lat="42.88456" lon="0.2048">
        <ele>2132.9</ele>
        <time>2021-07-22T07:43:16.000Z</time>
      </trkpt>
      <trkpt lat="42.88455" lon="0.2048">
        <ele>2133.2</ele>
        <time>2021-07-22T07:43:17.000Z</time>
      </trkpt>
      <trkpt lat="42.88449" lon="0.2047">
        <ele>2137.1</ele>
        <time>2021-07-22T07:43:35.000Z</time>
      </trkpt>
      <trkpt lat="42.88441" lon="0.20463">
        <ele>2141.1</ele>
        <time>2021-07-22T07:43:53.000Z</time>
      </trkpt>
      <trkpt lat="42.88443" lon="0.20451">
        <ele>2145.1</ele>
        <time>2021-07-22T07:44:11.000Z</time>
      </trkpt>
      <trkpt lat="42.88449" lon="0.20441">
        <ele>2148.9</ele>
        <time>2021-07-22T07:44:27.000Z</time>
      </trkpt>
      <trkpt lat="42.8844" lon="0.20436">
        <ele>2152.3</ele>
        <time>2021-07-22T07:44:44.000Z</time>
      </trkpt>
      <trkpt lat="42.88431" lon="0.20433">
        <ele>2155.7</ele>
        <time>2021-07-22T07:45:01.000Z</time>
      </trkpt>
      <trkpt lat="42.88423" lon="0.20427">
        <ele>2158.7</ele>
        <time>2021-07-22T07:45:16.000Z</time>
      </trkpt>
      <trkpt lat="42.88417" lon="0.20423">
        <ele>2161.9</ele>
        <time>2021-07-22T07:45:29.000Z</time>
      </trkpt>
      <trkpt lat="42.88417" lon="0.20423">
        <ele>2162.6</ele>
        <time>2021-07-22T07:45:30.000Z</time>
      </trkpt>
      <trkpt lat="42.88408" lon="0.20423">
        <ele>2168</ele>
        <time>2021-07-22T07:45:54.000Z</time>
      </trkpt>
      <trkpt lat="42.88403" lon="0.20434">
        <ele>2166.6</ele>
        <time>2021-07-22T07:46:06.000Z</time>
      </trkpt>
      <trkpt lat="42.88399" lon="0.20446">
        <ele>2166</ele>
        <time>2021-07-22T07:46:14.000Z</time>
      </trkpt>
      <trkpt lat="42.88393" lon="0.20455">
        <ele>2167.6</ele>
        <time>2021-07-22T07:46:25.000Z</time>
      </trkpt>
      <trkpt lat="42.88386" lon="0.20464">
        <ele>2168.1</ele>
        <time>2021-07-22T07:46:34.000Z</time>
      </trkpt>
      <trkpt lat="42.88386" lon="0.20477">
        <ele>2167.8</ele>
        <time>2021-07-22T07:46:41.000Z</time>
      </trkpt>
      <trkpt lat="42.88385" lon="0.2049">
        <ele>2168.3</ele>
        <time>2021-07-22T07:46:49.000Z</time>
      </trkpt>
      <trkpt lat="42.8838" lon="0.205">
        <ele>2168.6</ele>
        <time>2021-07-22T07:46:57.000Z</time>
      </trkpt>
      <trkpt lat="42.8837" lon="0.20501">
        <ele>2171.3</ele>
        <time>2021-07-22T07:47:09.000Z</time>
      </trkpt>
      <trkpt lat="42.8837" lon="0.20501">
        <ele>2171.7</ele>
        <time>2021-07-22T07:47:13.000Z</time>
      </trkpt>
      <trkpt lat="42.88369" lon="0.20502">
        <ele>2171.6</ele>
        <time>2021-07-22T07:47:14.000Z</time>
      </trkpt>
      <trkpt lat="42.8836" lon="0.20506">
        <ele>2175.4</ele>
        <time>2021-07-22T07:47:27.000Z</time>
      </trkpt>
      <trkpt lat="42.88351" lon="0.20508">
        <ele>2178.8</ele>
        <time>2021-07-22T07:47:39.000Z</time>
      </trkpt>
      <trkpt lat="42.88349" lon="0.20509">
        <ele>2180.4</ele>
        <time>2021-07-22T07:47:45.000Z</time>
      </trkpt>
      <trkpt lat="42.88348" lon="0.20509">
        <ele>2180.6</ele>
        <time>2021-07-22T07:47:46.000Z</time>
      </trkpt>
      <trkpt lat="42.8834" lon="0.2051">
        <ele>2183.3</ele>
        <time>2021-07-22T07:48:01.000Z</time>
      </trkpt>
      <trkpt lat="42.8834" lon="0.2051">
        <ele>2183.5</ele>
        <time>2021-07-22T07:48:02.000Z</time>
      </trkpt>
      <trkpt lat="42.8834" lon="0.2051">
        <ele>2183.7</ele>
        <time>2021-07-22T07:48:03.000Z</time>
      </trkpt>
      <trkpt lat="42.88339" lon="0.20509">
        <ele>2183.7</ele>
        <time>2021-07-22T07:48:04.000Z</time>
      </trkpt>
      <trkpt lat="42.8833" lon="0.2051">
        <ele>2186.7</ele>
        <time>2021-07-22T07:48:18.000Z</time>
      </trkpt>
      <trkpt lat="42.88321" lon="0.20511">
        <ele>2187.9</ele>
        <time>2021-07-22T07:48:30.000Z</time>
      </trkpt>
      <trkpt lat="42.88321" lon="0.20511">
        <ele>2188.2</ele>
        <time>2021-07-22T07:48:31.000Z</time>
      </trkpt>
      <trkpt lat="42.88311" lon="0.2051">
        <ele>2188.6</ele>
        <time>2021-07-22T07:48:41.000Z</time>
      </trkpt>
      <trkpt lat="42.88302" lon="0.20509">
        <ele>2190</ele>
        <time>2021-07-22T07:48:50.000Z</time>
      </trkpt>
      <trkpt lat="42.88293" lon="0.20512">
        <ele>2190.4</ele>
        <time>2021-07-22T07:48:58.000Z</time>
      </trkpt>
      <trkpt lat="42.88286" lon="0.20515">
        <ele>2191.2</ele>
        <time>2021-07-22T07:49:07.000Z</time>
      </trkpt>
      <trkpt lat="42.88286" lon="0.20516">
        <ele>2191.5</ele>
        <time>2021-07-22T07:49:10.000Z</time>
      </trkpt>
      <trkpt lat="42.88276" lon="0.20515">
        <ele>2192.6</ele>
        <time>2021-07-22T07:49:21.000Z</time>
      </trkpt>
      <trkpt lat="42.8827" lon="0.20506">
        <ele>2194</ele>
        <time>2021-07-22T07:49:31.000Z</time>
      </trkpt>
      <trkpt lat="42.88263" lon="0.20498">
        <ele>2195.6</ele>
        <time>2021-07-22T07:49:40.000Z</time>
      </trkpt>
      <trkpt lat="42.88254" lon="0.20491">
        <ele>2197.3</ele>
        <time>2021-07-22T07:49:49.000Z</time>
      </trkpt>
      <trkpt lat="42.88247" lon="0.20482">
        <ele>2198.9</ele>
        <time>2021-07-22T07:49:59.000Z</time>
      </trkpt>
      <trkpt lat="42.8824" lon="0.20473">
        <ele>2200.5</ele>
        <time>2021-07-22T07:50:10.000Z</time>
      </trkpt>
      <trkpt lat="42.88237" lon="0.20467">
        <ele>2202</ele>
        <time>2021-07-22T07:50:19.000Z</time>
      </trkpt>
      <trkpt lat="42.88237" lon="0.20467">
        <ele>2203</ele>
        <time>2021-07-22T07:50:22.000Z</time>
      </trkpt>
      <trkpt lat="42.88234" lon="0.20458">
        <ele>2205.5</ele>
        <time>2021-07-22T07:50:35.000Z</time>
      </trkpt>
      <trkpt lat="42.88234" lon="0.20458">
        <ele>2205.4</ele>
        <time>2021-07-22T07:50:36.000Z</time>
      </trkpt>
      <trkpt lat="42.8823" lon="0.20446">
        <ele>2207.6</ele>
        <time>2021-07-22T07:50:47.000Z</time>
      </trkpt>
      <trkpt lat="42.88225" lon="0.20439">
        <ele>2209.5</ele>
        <time>2021-07-22T07:50:57.000Z</time>
      </trkpt>
      <trkpt lat="42.88225" lon="0.20439">
        <ele>2209.7</ele>
        <time>2021-07-22T07:50:58.000Z</time>
      </trkpt>
      <trkpt lat="42.88218" lon="0.2043">
        <ele>2211</ele>
        <time>2021-07-22T07:51:09.000Z</time>
      </trkpt>
      <trkpt lat="42.88209" lon="0.20425">
        <ele>2211.7</ele>
        <time>2021-07-22T07:51:20.000Z</time>
      </trkpt>
      <trkpt lat="42.882" lon="0.20427">
        <ele>2210.6</ele>
        <time>2021-07-22T07:51:28.000Z</time>
      </trkpt>
      <trkpt lat="42.88193" lon="0.20434">
        <ele>2210.6</ele>
        <time>2021-07-22T07:51:38.000Z</time>
      </trkpt>
      <trkpt lat="42.88186" lon="0.20443">
        <ele>2210</ele>
        <time>2021-07-22T07:51:49.000Z</time>
      </trkpt>
      <trkpt lat="42.88179" lon="0.20451">
        <ele>2210.1</ele>
        <time>2021-07-22T07:52:03.000Z</time>
      </trkpt>
      <trkpt lat="42.8817" lon="0.20453">
        <ele>2210.8</ele>
        <time>2021-07-22T07:52:15.000Z</time>
      </trkpt>
      <trkpt lat="42.88161" lon="0.20457">
        <ele>2211.2</ele>
        <time>2021-07-22T07:52:28.000Z</time>
      </trkpt>
      <trkpt lat="42.88157" lon="0.20468">
        <ele>2211</ele>
        <time>2021-07-22T07:52:42.000Z</time>
      </trkpt>
      <trkpt lat="42.8815" lon="0.20478">
        <ele>2211.5</ele>
        <time>2021-07-22T07:52:55.000Z</time>
      </trkpt>
      <trkpt lat="42.88148" lon="0.20491">
        <ele>2212.1</ele>
        <time>2021-07-22T07:53:05.000Z</time>
      </trkpt>
      <trkpt lat="42.88146" lon="0.20497">
        <ele>2212.8</ele>
        <time>2021-07-22T07:53:13.000Z</time>
      </trkpt>
      <trkpt lat="42.88146" lon="0.20498">
        <ele>2213.3</ele>
        <time>2021-07-22T07:53:16.000Z</time>
      </trkpt>
      <trkpt lat="42.88141" lon="0.20508">
        <ele>2214</ele>
        <time>2021-07-22T07:53:25.000Z</time>
      </trkpt>
      <trkpt lat="42.88135" lon="0.20519">
        <ele>2215.4</ele>
        <time>2021-07-22T07:53:33.000Z</time>
      </trkpt>
      <trkpt lat="42.88128" lon="0.20528">
        <ele>2217.3</ele>
        <time>2021-07-22T07:53:43.000Z</time>
      </trkpt>
      <trkpt lat="42.88125" lon="0.20538">
        <ele>2217.9</ele>
        <time>2021-07-22T07:53:55.000Z</time>
      </trkpt>
      <trkpt lat="42.88125" lon="0.20539">
        <ele>2218</ele>
        <time>2021-07-22T07:53:56.000Z</time>
      </trkpt>
      <trkpt lat="42.88116" lon="0.20541">
        <ele>2220.5</ele>
        <time>2021-07-22T07:54:09.000Z</time>
      </trkpt>
      <trkpt lat="42.88111" lon="0.20548">
        <ele>2220.7</ele>
        <time>2021-07-22T07:54:19.000Z</time>
      </trkpt>
      <trkpt lat="42.88111" lon="0.20549">
        <ele>2221.7</ele>
        <time>2021-07-22T07:54:23.000Z</time>
      </trkpt>
      <trkpt lat="42.88111" lon="0.20549">
        <ele>2221.7</ele>
        <time>2021-07-22T07:54:26.000Z</time>
      </trkpt>
      <trkpt lat="42.88111" lon="0.20549">
        <ele>2222.1</ele>
        <time>2021-07-22T07:54:28.000Z</time>
      </trkpt>
      <trkpt lat="42.88103" lon="0.20557">
        <ele>2222.6</ele>
        <time>2021-07-22T07:54:43.000Z</time>
      </trkpt>
      <trkpt lat="42.88099" lon="0.2056">
        <ele>2223.3</ele>
        <time>2021-07-22T07:54:51.000Z</time>
      </trkpt>
      <trkpt lat="42.88099" lon="0.2056">
        <ele>2223.8</ele>
        <time>2021-07-22T07:54:54.000Z</time>
      </trkpt>
      <trkpt lat="42.88091" lon="0.20569">
        <ele>2225.2</ele>
        <time>2021-07-22T07:55:06.000Z</time>
      </trkpt>
      <trkpt lat="42.88083" lon="0.20573">
        <ele>2228.1</ele>
        <time>2021-07-22T07:55:17.000Z</time>
      </trkpt>
      <trkpt lat="42.88073" lon="0.20571">
        <ele>2230.7</ele>
        <time>2021-07-22T07:55:30.000Z</time>
      </trkpt>
      <trkpt lat="42.88072" lon="0.20572">
        <ele>2231.7</ele>
        <time>2021-07-22T07:55:35.000Z</time>
      </trkpt>
      <trkpt lat="42.88072" lon="0.20572">
        <ele>2231.8</ele>
        <time>2021-07-22T07:55:36.000Z</time>
      </trkpt>
      <trkpt lat="42.88072" lon="0.20572">
        <ele>2231.7</ele>
        <time>2021-07-22T07:55:38.000Z</time>
      </trkpt>
      <trkpt lat="42.88072" lon="0.20571">
        <ele>2232.3</ele>
        <time>2021-07-22T07:55:42.000Z</time>
      </trkpt>
      <trkpt lat="42.88063" lon="0.20567">
        <ele>2232</ele>
        <time>2021-07-22T07:55:53.000Z</time>
      </trkpt>
      <trkpt lat="42.88056" lon="0.20565">
        <ele>2232.7</ele>
        <time>2021-07-22T07:56:02.000Z</time>
      </trkpt>
      <trkpt lat="42.88056" lon="0.20565">
        <ele>2233</ele>
        <time>2021-07-22T07:56:03.000Z</time>
      </trkpt>
      <trkpt lat="42.88047" lon="0.20564">
        <ele>2234.1</ele>
        <time>2021-07-22T07:56:20.000Z</time>
      </trkpt>
      <trkpt lat="42.88038" lon="0.20568">
        <ele>2234.9</ele>
        <time>2021-07-22T07:56:31.000Z</time>
      </trkpt>
      <trkpt lat="42.8803" lon="0.20573">
        <ele>2235.3</ele>
        <time>2021-07-22T07:56:43.000Z</time>
      </trkpt>
      <trkpt lat="42.88021" lon="0.20577">
        <ele>2236.3</ele>
        <time>2021-07-22T07:56:57.000Z</time>
      </trkpt>
      <trkpt lat="42.88012" lon="0.20572">
        <ele>2237.2</ele>
        <time>2021-07-22T07:57:09.000Z</time>
      </trkpt>
      <trkpt lat="42.88004" lon="0.20566">
        <ele>2238.7</ele>
        <time>2021-07-22T07:57:19.000Z</time>
      </trkpt>
      <trkpt lat="42.87995" lon="0.20567">
        <ele>2241.6</ele>
        <time>2021-07-22T07:57:34.000Z</time>
      </trkpt>
      <trkpt lat="42.87985" lon="0.20567">
        <ele>2242.3</ele>
        <time>2021-07-22T07:57:44.000Z</time>
      </trkpt>
      <trkpt lat="42.87977" lon="0.20562">
        <ele>2243.1</ele>
        <time>2021-07-22T07:57:53.000Z</time>
      </trkpt>
      <trkpt lat="42.8797" lon="0.20552">
        <ele>2243.4</ele>
        <time>2021-07-22T07:58:03.000Z</time>
      </trkpt>
      <trkpt lat="42.87966" lon="0.20541">
        <ele>2242.6</ele>
        <time>2021-07-22T07:58:12.000Z</time>
      </trkpt>
      <trkpt lat="42.8796" lon="0.2053">
        <ele>2242.6</ele>
        <time>2021-07-22T07:58:25.000Z</time>
      </trkpt>
      <trkpt lat="42.87956" lon="0.20519">
        <ele>2243.9</ele>
        <time>2021-07-22T07:58:36.000Z</time>
      </trkpt>
      <trkpt lat="42.87955" lon="0.20505">
        <ele>2245.8</ele>
        <time>2021-07-22T07:58:47.000Z</time>
      </trkpt>
      <trkpt lat="42.87947" lon="0.205">
        <ele>2246.4</ele>
        <time>2021-07-22T07:58:59.000Z</time>
      </trkpt>
      <trkpt lat="42.87943" lon="0.20488">
        <ele>2245.9</ele>
        <time>2021-07-22T07:59:09.000Z</time>
      </trkpt>
      <trkpt lat="42.87943" lon="0.20489">
        <ele>2245.9</ele>
        <time>2021-07-22T07:59:11.000Z</time>
      </trkpt>
      <trkpt lat="42.87943" lon="0.20489">
        <ele>2246.1</ele>
        <time>2021-07-22T07:59:12.000Z</time>
      </trkpt>
      <trkpt lat="42.87941" lon="0.20476">
        <ele>2248.7</ele>
        <time>2021-07-22T07:59:27.000Z</time>
      </trkpt>
      <trkpt lat="42.87937" lon="0.20465">
        <ele>2251.8</ele>
        <time>2021-07-22T07:59:44.000Z</time>
      </trkpt>
      <trkpt lat="42.87934" lon="0.20453">
        <ele>2254.3</ele>
        <time>2021-07-22T07:59:59.000Z</time>
      </trkpt>
      <trkpt lat="42.87935" lon="0.20441">
        <ele>2255.2</ele>
        <time>2021-07-22T08:00:10.000Z</time>
      </trkpt>
      <trkpt lat="42.8793" lon="0.2043">
        <ele>2256.4</ele>
        <time>2021-07-22T08:00:20.000Z</time>
      </trkpt>
      <trkpt lat="42.87924" lon="0.20421">
        <ele>2258.4</ele>
        <time>2021-07-22T08:00:34.000Z</time>
      </trkpt>
      <trkpt lat="42.87915" lon="0.2042">
        <ele>2262.2</ele>
        <time>2021-07-22T08:00:57.000Z</time>
      </trkpt>
      <trkpt lat="42.87913" lon="0.20409">
        <ele>2263.8</ele>
        <time>2021-07-22T08:01:13.000Z</time>
      </trkpt>
      <trkpt lat="42.87913" lon="0.20409">
        <ele>2264.2</ele>
        <time>2021-07-22T08:01:17.000Z</time>
      </trkpt>
      <trkpt lat="42.87913" lon="0.20404">
        <ele>2263.7</ele>
        <time>2021-07-22T08:01:25.000Z</time>
      </trkpt>
      <trkpt lat="42.87913" lon="0.20403">
        <ele>2265.1</ele>
        <time>2021-07-22T08:01:32.000Z</time>
      </trkpt>
      <trkpt lat="42.87905" lon="0.20409">
        <ele>2266.4</ele>
        <time>2021-07-22T08:01:49.000Z</time>
      </trkpt>
      <trkpt lat="42.87899" lon="0.20411">
        <ele>2268.6</ele>
        <time>2021-07-22T08:02:01.000Z</time>
      </trkpt>
      <trkpt lat="42.87899" lon="0.20411">
        <ele>2268.5</ele>
        <time>2021-07-22T08:02:02.000Z</time>
      </trkpt>
      <trkpt lat="42.87894" lon="0.20401">
        <ele>2270.4</ele>
        <time>2021-07-22T08:02:12.000Z</time>
      </trkpt>
      <trkpt lat="42.87884" lon="0.20398">
        <ele>2271.2</ele>
        <time>2021-07-22T08:02:22.000Z</time>
      </trkpt>
      <trkpt lat="42.87874" lon="0.20401">
        <ele>2271.2</ele>
        <time>2021-07-22T08:02:32.000Z</time>
      </trkpt>
      <trkpt lat="42.87865" lon="0.20406">
        <ele>2271.9</ele>
        <time>2021-07-22T08:02:41.000Z</time>
      </trkpt>
      <trkpt lat="42.87858" lon="0.20412">
        <ele>2271.7</ele>
        <time>2021-07-22T08:02:49.000Z</time>
      </trkpt>
      <trkpt lat="42.87851" lon="0.20421">
        <ele>2272.9</ele>
        <time>2021-07-22T08:03:00.000Z</time>
      </trkpt>
      <trkpt lat="42.87844" lon="0.20429">
        <ele>2273.9</ele>
        <time>2021-07-22T08:03:11.000Z</time>
      </trkpt>
      <trkpt lat="42.87837" lon="0.20438">
        <ele>2275.5</ele>
        <time>2021-07-22T08:03:22.000Z</time>
      </trkpt>
      <trkpt lat="42.87829" lon="0.20444">
        <ele>2277.9</ele>
        <time>2021-07-22T08:03:33.000Z</time>
      </trkpt>
      <trkpt lat="42.8782" lon="0.20441">
        <ele>2280.9</ele>
        <time>2021-07-22T08:03:50.000Z</time>
      </trkpt>
      <trkpt lat="42.87813" lon="0.20449">
        <ele>2284</ele>
        <time>2021-07-22T08:04:09.000Z</time>
      </trkpt>
      <trkpt lat="42.87805" lon="0.20455">
        <ele>2287.7</ele>
        <time>2021-07-22T08:04:24.000Z</time>
      </trkpt>
      <trkpt lat="42.87795" lon="0.20456">
        <ele>2288.7</ele>
        <time>2021-07-22T08:04:36.000Z</time>
      </trkpt>
      <trkpt lat="42.87786" lon="0.20458">
        <ele>2288.6</ele>
        <time>2021-07-22T08:04:45.000Z</time>
      </trkpt>
      <trkpt lat="42.87777" lon="0.20463">
        <ele>2288.5</ele>
        <time>2021-07-22T08:04:54.000Z</time>
      </trkpt>
      <trkpt lat="42.8777" lon="0.20473">
        <ele>2289.2</ele>
        <time>2021-07-22T08:05:04.000Z</time>
      </trkpt>
      <trkpt lat="42.87765" lon="0.20477">
        <ele>2290</ele>
        <time>2021-07-22T08:05:14.000Z</time>
      </trkpt>
      <trkpt lat="42.87765" lon="0.20477">
        <ele>2290.7</ele>
        <time>2021-07-22T08:05:17.000Z</time>
      </trkpt>
      <trkpt lat="42.87759" lon="0.20487">
        <ele>2291.4</ele>
        <time>2021-07-22T08:05:28.000Z</time>
      </trkpt>
      <trkpt lat="42.87751" lon="0.20495">
        <ele>2292.7</ele>
        <time>2021-07-22T08:05:38.000Z</time>
      </trkpt>
      <trkpt lat="42.87744" lon="0.20502">
        <ele>2294.9</ele>
        <time>2021-07-22T08:05:48.000Z</time>
      </trkpt>
      <trkpt lat="42.87738" lon="0.20505">
        <ele>2297</ele>
        <time>2021-07-22T08:05:57.000Z</time>
      </trkpt>
      <trkpt lat="42.87737" lon="0.20506">
        <ele>2297.1</ele>
        <time>2021-07-22T08:05:58.000Z</time>
      </trkpt>
      <trkpt lat="42.87729" lon="0.20511">
        <ele>2299</ele>
        <time>2021-07-22T08:06:08.000Z</time>
      </trkpt>
      <trkpt lat="42.87721" lon="0.20518">
        <ele>2300.6</ele>
        <time>2021-07-22T08:06:20.000Z</time>
      </trkpt>
      <trkpt lat="42.87714" lon="0.20527">
        <ele>2302.3</ele>
        <time>2021-07-22T08:06:33.000Z</time>
      </trkpt>
      <trkpt lat="42.87712" lon="0.2054">
        <ele>2305.1</ele>
        <time>2021-07-22T08:06:46.000Z</time>
      </trkpt>
      <trkpt lat="42.87704" lon="0.20544">
        <ele>2307.5</ele>
        <time>2021-07-22T08:06:59.000Z</time>
      </trkpt>
      <trkpt lat="42.87705" lon="0.20545">
        <ele>2308</ele>
        <time>2021-07-22T08:07:00.000Z</time>
      </trkpt>
      <trkpt lat="42.87697" lon="0.20552">
        <ele>2310.8</ele>
        <time>2021-07-22T08:07:12.000Z</time>
      </trkpt>
      <trkpt lat="42.87689" lon="0.20558">
        <ele>2314.4</ele>
        <time>2021-07-22T08:07:30.000Z</time>
      </trkpt>
      <trkpt lat="42.87688" lon="0.20557">
        <ele>2315.2</ele>
        <time>2021-07-22T08:07:34.000Z</time>
      </trkpt>
      <trkpt lat="42.87688" lon="0.20557">
        <ele>2315.3</ele>
        <time>2021-07-22T08:07:35.000Z</time>
      </trkpt>
      <trkpt lat="42.87681" lon="0.20566">
        <ele>2317.6</ele>
        <time>2021-07-22T08:07:56.000Z</time>
      </trkpt>
      <trkpt lat="42.87678" lon="0.20567">
        <ele>2318.2</ele>
        <time>2021-07-22T08:08:05.000Z</time>
      </trkpt>
      <trkpt lat="42.87678" lon="0.20567">
        <ele>2318.6</ele>
        <time>2021-07-22T08:08:07.000Z</time>
      </trkpt>
      <trkpt lat="42.87678" lon="0.20567">
        <ele>2318.7</ele>
        <time>2021-07-22T08:08:08.000Z</time>
      </trkpt>
      <trkpt lat="42.87679" lon="0.20567">
        <ele>2318.6</ele>
        <time>2021-07-22T08:08:09.000Z</time>
      </trkpt>
      <trkpt lat="42.87679" lon="0.20567">
        <ele>2318.5</ele>
        <time>2021-07-22T08:08:10.000Z</time>
      </trkpt>
      <trkpt lat="42.87678" lon="0.20567">
        <ele>2319</ele>
        <time>2021-07-22T08:08:13.000Z</time>
      </trkpt>
      <trkpt lat="42.87669" lon="0.20572">
        <ele>2319.3</ele>
        <time>2021-07-22T08:08:27.000Z</time>
      </trkpt>
      <trkpt lat="42.87662" lon="0.20579">
        <ele>2320.8</ele>
        <time>2021-07-22T08:08:44.000Z</time>
      </trkpt>
      <trkpt lat="42.87654" lon="0.20585">
        <ele>2322.2</ele>
        <time>2021-07-22T08:08:55.000Z</time>
      </trkpt>
      <trkpt lat="42.87645" lon="0.20589">
        <ele>2323.3</ele>
        <time>2021-07-22T08:09:05.000Z</time>
      </trkpt>
      <trkpt lat="42.87636" lon="0.20589">
        <ele>2324.3</ele>
        <time>2021-07-22T08:09:14.000Z</time>
      </trkpt>
      <trkpt lat="42.87627" lon="0.20589">
        <ele>2325.3</ele>
        <time>2021-07-22T08:09:28.000Z</time>
      </trkpt>
      <trkpt lat="42.87618" lon="0.2059">
        <ele>2326.3</ele>
        <time>2021-07-22T08:09:40.000Z</time>
      </trkpt>
      <trkpt lat="42.87608" lon="0.20589">
        <ele>2328</ele>
        <time>2021-07-22T08:09:52.000Z</time>
      </trkpt>
      <trkpt lat="42.87604" lon="0.20581">
        <ele>2330.7</ele>
        <time>2021-07-22T08:10:08.000Z</time>
      </trkpt>
      <trkpt lat="42.87604" lon="0.2058">
        <ele>2331.3</ele>
        <time>2021-07-22T08:10:12.000Z</time>
      </trkpt>
      <trkpt lat="42.87597" lon="0.20572">
        <ele>2332</ele>
        <time>2021-07-22T08:10:24.000Z</time>
      </trkpt>
      <trkpt lat="42.87597" lon="0.20571">
        <ele>2332.2</ele>
        <time>2021-07-22T08:10:27.000Z</time>
      </trkpt>
      <trkpt lat="42.87596" lon="0.20571">
        <ele>2333.1</ele>
        <time>2021-07-22T08:10:31.000Z</time>
      </trkpt>
      <trkpt lat="42.8759" lon="0.2056">
        <ele>2334.3</ele>
        <time>2021-07-22T08:10:42.000Z</time>
      </trkpt>
      <trkpt lat="42.87583" lon="0.20552">
        <ele>2335.7</ele>
        <time>2021-07-22T08:10:52.000Z</time>
      </trkpt>
      <trkpt lat="42.87575" lon="0.20545">
        <ele>2336.3</ele>
        <time>2021-07-22T08:11:01.000Z</time>
      </trkpt>
      <trkpt lat="42.87574" lon="0.20544">
        <ele>2336.5</ele>
        <time>2021-07-22T08:11:05.000Z</time>
      </trkpt>
      <trkpt lat="42.87574" lon="0.20544">
        <ele>2336.2</ele>
        <time>2021-07-22T08:11:12.000Z</time>
      </trkpt>
      <trkpt lat="42.87573" lon="0.20544">
        <ele>2336.3</ele>
        <time>2021-07-22T08:11:14.000Z</time>
      </trkpt>
      <trkpt lat="42.87573" lon="0.20544">
        <ele>2336</ele>
        <time>2021-07-22T08:11:25.000Z</time>
      </trkpt>
      <trkpt lat="42.87573" lon="0.20544">
        <ele>2336</ele>
        <time>2021-07-22T08:11:26.000Z</time>
      </trkpt>
      <trkpt lat="42.87573" lon="0.20544">
        <ele>2335.5</ele>
        <time>2021-07-22T08:11:47.000Z</time>
      </trkpt>
      <trkpt lat="42.87573" lon="0.20544">
        <ele>2335.4</ele>
        <time>2021-07-22T08:11:49.000Z</time>
      </trkpt>
      <trkpt lat="42.87573" lon="0.20544">
        <ele>2335.4</ele>
        <time>2021-07-22T08:12:26.000Z</time>
      </trkpt>
      <trkpt lat="42.87572" lon="0.20544">
        <ele>2334.8</ele>
        <time>2021-07-22T08:12:29.000Z</time>
      </trkpt>
      <trkpt lat="42.87572" lon="0.20544">
        <ele>2334.8</ele>
        <time>2021-07-22T08:12:31.000Z</time>
      </trkpt>
      <trkpt lat="42.87563" lon="0.20538">
        <ele>2334.9</ele>
        <time>2021-07-22T08:12:40.000Z</time>
      </trkpt>
      <trkpt lat="42.87553" lon="0.20537">
        <ele>2335.2</ele>
        <time>2021-07-22T08:12:48.000Z</time>
      </trkpt>
      <trkpt lat="42.87543" lon="0.20541">
        <ele>2334.9</ele>
        <time>2021-07-22T08:12:55.000Z</time>
      </trkpt>
      <trkpt lat="42.87535" lon="0.20546">
        <ele>2335.3</ele>
        <time>2021-07-22T08:13:03.000Z</time>
      </trkpt>
      <trkpt lat="42.87527" lon="0.20553">
        <ele>2335.1</ele>
        <time>2021-07-22T08:13:12.000Z</time>
      </trkpt>
      <trkpt lat="42.87517" lon="0.20554">
        <ele>2335.5</ele>
        <time>2021-07-22T08:13:21.000Z</time>
      </trkpt>
      <trkpt lat="42.87509" lon="0.20559">
        <ele>2335.3</ele>
        <time>2021-07-22T08:13:31.000Z</time>
      </trkpt>
      <trkpt lat="42.87499" lon="0.20557">
        <ele>2335.2</ele>
        <time>2021-07-22T08:13:41.000Z</time>
      </trkpt>
      <trkpt lat="42.8749" lon="0.20555">
        <ele>2335.9</ele>
        <time>2021-07-22T08:13:50.000Z</time>
      </trkpt>
      <trkpt lat="42.8748" lon="0.2055">
        <ele>2336.9</ele>
        <time>2021-07-22T08:14:00.000Z</time>
      </trkpt>
      <trkpt lat="42.87472" lon="0.20545">
        <ele>2337.6</ele>
        <time>2021-07-22T08:14:09.000Z</time>
      </trkpt>
      <trkpt lat="42.87464" lon="0.20538">
        <ele>2338.1</ele>
        <time>2021-07-22T08:14:17.000Z</time>
      </trkpt>
      <trkpt lat="42.87456" lon="0.20532">
        <ele>2339.2</ele>
        <time>2021-07-22T08:14:26.000Z</time>
      </trkpt>
      <trkpt lat="42.87448" lon="0.20527">
        <ele>2339.6</ele>
        <time>2021-07-22T08:14:39.000Z</time>
      </trkpt>
      <trkpt lat="42.87445" lon="0.20515">
        <ele>2341.1</ele>
        <time>2021-07-22T08:14:53.000Z</time>
      </trkpt>
      <trkpt lat="42.87437" lon="0.20508">
        <ele>2345.5</ele>
        <time>2021-07-22T08:15:24.000Z</time>
      </trkpt>
      <trkpt lat="42.87427" lon="0.2051">
        <ele>2346.9</ele>
        <time>2021-07-22T08:15:35.000Z</time>
      </trkpt>
      <trkpt lat="42.87422" lon="0.20521">
        <ele>2348</ele>
        <time>2021-07-22T08:15:46.000Z</time>
      </trkpt>
      <trkpt lat="42.87415" lon="0.20529">
        <ele>2351.1</ele>
        <time>2021-07-22T08:16:05.000Z</time>
      </trkpt>
      <trkpt lat="42.87415" lon="0.2053">
        <ele>2350.9</ele>
        <time>2021-07-22T08:16:09.000Z</time>
      </trkpt>
      <trkpt lat="42.87415" lon="0.20531">
        <ele>2352.2</ele>
        <time>2021-07-22T08:16:13.000Z</time>
      </trkpt>
      <trkpt lat="42.87408" lon="0.20539">
        <ele>2355.4</ele>
        <time>2021-07-22T08:16:36.000Z</time>
      </trkpt>
      <trkpt lat="42.87401" lon="0.20547">
        <ele>2360.3</ele>
        <time>2021-07-22T08:17:03.000Z</time>
      </trkpt>
      <trkpt lat="42.87392" lon="0.20553">
        <ele>2364</ele>
        <time>2021-07-22T08:17:19.000Z</time>
      </trkpt>
      <trkpt lat="42.87383" lon="0.20557">
        <ele>2364.4</ele>
        <time>2021-07-22T08:17:30.000Z</time>
      </trkpt>
      <trkpt lat="42.87374" lon="0.20557">
        <ele>2365.2</ele>
        <time>2021-07-22T08:17:39.000Z</time>
      </trkpt>
      <trkpt lat="42.87365" lon="0.20561">
        <ele>2365.6</ele>
        <time>2021-07-22T08:17:49.000Z</time>
      </trkpt>
      <trkpt lat="42.8736" lon="0.2055">
        <ele>2367</ele>
        <time>2021-07-22T08:18:00.000Z</time>
      </trkpt>
      <trkpt lat="42.87354" lon="0.20541">
        <ele>2367.9</ele>
        <time>2021-07-22T08:18:10.000Z</time>
      </trkpt>
      <trkpt lat="42.87345" lon="0.20536">
        <ele>2368.4</ele>
        <time>2021-07-22T08:18:19.000Z</time>
      </trkpt>
      <trkpt lat="42.87335" lon="0.20535">
        <ele>2369.4</ele>
        <time>2021-07-22T08:18:30.000Z</time>
      </trkpt>
      <trkpt lat="42.87327" lon="0.20542">
        <ele>2370.7</ele>
        <time>2021-07-22T08:18:39.000Z</time>
      </trkpt>
      <trkpt lat="42.87317" lon="0.20541">
        <ele>2374.5</ele>
        <time>2021-07-22T08:18:55.000Z</time>
      </trkpt>
      <trkpt lat="42.8731" lon="0.20533">
        <ele>2377.4</ele>
        <time>2021-07-22T08:19:12.000Z</time>
      </trkpt>
      <trkpt lat="42.87308" lon="0.2052">
        <ele>2379.3</ele>
        <time>2021-07-22T08:19:25.000Z</time>
      </trkpt>
      <trkpt lat="42.87302" lon="0.2051">
        <ele>2381</ele>
        <time>2021-07-22T08:19:39.000Z</time>
      </trkpt>
      <trkpt lat="42.873" lon="0.20498">
        <ele>2382.7</ele>
        <time>2021-07-22T08:19:51.000Z</time>
      </trkpt>
      <trkpt lat="42.87291" lon="0.205">
        <ele>2386.5</ele>
        <time>2021-07-22T08:20:14.000Z</time>
      </trkpt>
      <trkpt lat="42.87285" lon="0.2051">
        <ele>2389.1</ele>
        <time>2021-07-22T08:20:30.000Z</time>
      </trkpt>
      <trkpt lat="42.87289" lon="0.20522">
        <ele>2391.5</ele>
        <time>2021-07-22T08:20:44.000Z</time>
      </trkpt>
      <trkpt lat="42.87283" lon="0.20532">
        <ele>2394.4</ele>
        <time>2021-07-22T08:21:08.000Z</time>
      </trkpt>
      <trkpt lat="42.87275" lon="0.20539">
        <ele>2398.4</ele>
        <time>2021-07-22T08:21:23.000Z</time>
      </trkpt>
      <trkpt lat="42.87269" lon="0.2055">
        <ele>2399.8</ele>
        <time>2021-07-22T08:21:37.000Z</time>
      </trkpt>
      <trkpt lat="42.87269" lon="0.20551">
        <ele>2399.2</ele>
        <time>2021-07-22T08:21:41.000Z</time>
      </trkpt>
      <trkpt lat="42.87269" lon="0.20551">
        <ele>2399.9</ele>
        <time>2021-07-22T08:21:48.000Z</time>
      </trkpt>
      <trkpt lat="42.87269" lon="0.20551">
        <ele>2399.8</ele>
        <time>2021-07-22T08:21:49.000Z</time>
      </trkpt>
      <trkpt lat="42.87269" lon="0.20552">
        <ele>2399.9</ele>
        <time>2021-07-22T08:21:50.000Z</time>
      </trkpt>
      <trkpt lat="42.87269" lon="0.20552">
        <ele>2400</ele>
        <time>2021-07-22T08:21:51.000Z</time>
      </trkpt>
      <trkpt lat="42.87269" lon="0.20552">
        <ele>2400.2</ele>
        <time>2021-07-22T08:21:52.000Z</time>
      </trkpt>
      <trkpt lat="42.87269" lon="0.20552">
        <ele>2400.4</ele>
        <time>2021-07-22T08:21:53.000Z</time>
      </trkpt>
      <trkpt lat="42.87269" lon="0.20551">
        <ele>2400.5</ele>
        <time>2021-07-22T08:21:54.000Z</time>
      </trkpt>
      <trkpt lat="42.87266" lon="0.20551">
        <ele>2399</ele>
        <time>2021-07-22T08:22:05.000Z</time>
      </trkpt>
      <trkpt lat="42.87266" lon="0.20551">
        <ele>2399.7</ele>
        <time>2021-07-22T08:22:07.000Z</time>
      </trkpt>
      <trkpt lat="42.87259" lon="0.20542">
        <ele>2399.2</ele>
        <time>2021-07-22T08:22:16.000Z</time>
      </trkpt>
      <trkpt lat="42.87251" lon="0.20535">
        <ele>2399.9</ele>
        <time>2021-07-22T08:22:24.000Z</time>
      </trkpt>
      <trkpt lat="42.87241" lon="0.20533">
        <ele>2399.9</ele>
        <time>2021-07-22T08:22:33.000Z</time>
      </trkpt>
      <trkpt lat="42.87233" lon="0.20528">
        <ele>2400.6</ele>
        <time>2021-07-22T08:22:41.000Z</time>
      </trkpt>
      <trkpt lat="42.87225" lon="0.20522">
        <ele>2400.8</ele>
        <time>2021-07-22T08:22:50.000Z</time>
      </trkpt>
      <trkpt lat="42.87214" lon="0.20523">
        <ele>2400.6</ele>
        <time>2021-07-22T08:22:58.000Z</time>
      </trkpt>
      <trkpt lat="42.87205" lon="0.20525">
        <ele>2400.9</ele>
        <time>2021-07-22T08:23:05.000Z</time>
      </trkpt>
      <trkpt lat="42.87197" lon="0.20532">
        <ele>2400.5</ele>
        <time>2021-07-22T08:23:12.000Z</time>
      </trkpt>
      <trkpt lat="42.87187" lon="0.20537">
        <ele>2400.7</ele>
        <time>2021-07-22T08:23:21.000Z</time>
      </trkpt>
      <trkpt lat="42.87178" lon="0.2054">
        <ele>2401.3</ele>
        <time>2021-07-22T08:23:30.000Z</time>
      </trkpt>
      <trkpt lat="42.87169" lon="0.20537">
        <ele>2402.7</ele>
        <time>2021-07-22T08:23:40.000Z</time>
      </trkpt>
      <trkpt lat="42.87161" lon="0.2053">
        <ele>2403.8</ele>
        <time>2021-07-22T08:23:49.000Z</time>
      </trkpt>
      <trkpt lat="42.87152" lon="0.20528">
        <ele>2404</ele>
        <time>2021-07-22T08:23:59.000Z</time>
      </trkpt>
      <trkpt lat="42.87143" lon="0.20535">
        <ele>2401.9</ele>
        <time>2021-07-22T08:24:08.000Z</time>
      </trkpt>
      <trkpt lat="42.87135" lon="0.2054">
        <ele>2401.2</ele>
        <time>2021-07-22T08:24:15.000Z</time>
      </trkpt>
      <trkpt lat="42.87125" lon="0.2054">
        <ele>2400.7</ele>
        <time>2021-07-22T08:24:23.000Z</time>
      </trkpt>
      <trkpt lat="42.87115" lon="0.2054">
        <ele>2400.6</ele>
        <time>2021-07-22T08:24:32.000Z</time>
      </trkpt>
      <trkpt lat="42.87106" lon="0.2054">
        <ele>2400.3</ele>
        <time>2021-07-22T08:24:41.000Z</time>
      </trkpt>
      <trkpt lat="42.87097" lon="0.20542">
        <ele>2401.6</ele>
        <time>2021-07-22T08:24:51.000Z</time>
      </trkpt>
      <trkpt lat="42.87087" lon="0.20543">
        <ele>2402.4</ele>
        <time>2021-07-22T08:25:01.000Z</time>
      </trkpt>
      <trkpt lat="42.87081" lon="0.20553">
        <ele>2402.9</ele>
        <time>2021-07-22T08:25:10.000Z</time>
      </trkpt>
      <trkpt lat="42.87074" lon="0.20561">
        <ele>2402.1</ele>
        <time>2021-07-22T08:25:18.000Z</time>
      </trkpt>
      <trkpt lat="42.87067" lon="0.20568">
        <ele>2402.3</ele>
        <time>2021-07-22T08:25:26.000Z</time>
      </trkpt>
      <trkpt lat="42.87061" lon="0.20578">
        <ele>2401.9</ele>
        <time>2021-07-22T08:25:33.000Z</time>
      </trkpt>
      <trkpt lat="42.87051" lon="0.20581">
        <ele>2401.5</ele>
        <time>2021-07-22T08:25:41.000Z</time>
      </trkpt>
      <trkpt lat="42.87041" lon="0.20584">
        <ele>2402.1</ele>
        <time>2021-07-22T08:25:48.000Z</time>
      </trkpt>
      <trkpt lat="42.87036" lon="0.20594">
        <ele>2401.7</ele>
        <time>2021-07-22T08:25:56.000Z</time>
      </trkpt>
      <trkpt lat="42.87033" lon="0.20606">
        <ele>2401.6</ele>
        <time>2021-07-22T08:26:05.000Z</time>
      </trkpt>
      <trkpt lat="42.8703" lon="0.20619">
        <ele>2401.1</ele>
        <time>2021-07-22T08:26:14.000Z</time>
      </trkpt>
      <trkpt lat="42.87022" lon="0.20626">
        <ele>2402.8</ele>
        <time>2021-07-22T08:26:23.000Z</time>
      </trkpt>
      <trkpt lat="42.87012" lon="0.20624">
        <ele>2403.5</ele>
        <time>2021-07-22T08:26:29.000Z</time>
      </trkpt>
      <trkpt lat="42.87004" lon="0.20631">
        <ele>2402.9</ele>
        <time>2021-07-22T08:26:36.000Z</time>
      </trkpt>
      <trkpt lat="42.86997" lon="0.2064">
        <ele>2401.9</ele>
        <time>2021-07-22T08:26:45.000Z</time>
      </trkpt>
      <trkpt lat="42.86991" lon="0.20651">
        <ele>2401.6</ele>
        <time>2021-07-22T08:26:53.000Z</time>
      </trkpt>
      <trkpt lat="42.86982" lon="0.20657">
        <ele>2402.6</ele>
        <time>2021-07-22T08:27:00.000Z</time>
      </trkpt>
      <trkpt lat="42.86981" lon="0.20669">
        <ele>2403.7</ele>
        <time>2021-07-22T08:27:09.000Z</time>
      </trkpt>
      <trkpt lat="42.86978" lon="0.20682">
        <ele>2404.3</ele>
        <time>2021-07-22T08:27:18.000Z</time>
      </trkpt>
      <trkpt lat="42.86975" lon="0.20693">
        <ele>2405.3</ele>
        <time>2021-07-22T08:27:26.000Z</time>
      </trkpt>
      <trkpt lat="42.86969" lon="0.20703">
        <ele>2405.7</ele>
        <time>2021-07-22T08:27:34.000Z</time>
      </trkpt>
      <trkpt lat="42.8696" lon="0.20708">
        <ele>2406.3</ele>
        <time>2021-07-22T08:27:42.000Z</time>
      </trkpt>
      <trkpt lat="42.86951" lon="0.20711">
        <ele>2406.6</ele>
        <time>2021-07-22T08:27:52.000Z</time>
      </trkpt>
      <trkpt lat="42.86943" lon="0.20705">
        <ele>2407.6</ele>
        <time>2021-07-22T08:28:01.000Z</time>
      </trkpt>
      <trkpt lat="42.86936" lon="0.20694">
        <ele>2410.2</ele>
        <time>2021-07-22T08:28:17.000Z</time>
      </trkpt>
      <trkpt lat="42.86929" lon="0.20687">
        <ele>2411.6</ele>
        <time>2021-07-22T08:28:23.000Z</time>
      </trkpt>
      <trkpt lat="42.8692" lon="0.20682">
        <ele>2414.4</ele>
        <time>2021-07-22T08:28:38.000Z</time>
      </trkpt>
      <trkpt lat="42.86911" lon="0.20681">
        <ele>2417.4</ele>
        <time>2021-07-22T08:28:50.000Z</time>
      </trkpt>
      <trkpt lat="42.86906" lon="0.20682">
        <ele>2419.6</ele>
        <time>2021-07-22T08:29:03.000Z</time>
      </trkpt>
      <trkpt lat="42.86906" lon="0.20682">
        <ele>2419.9</ele>
        <time>2021-07-22T08:29:04.000Z</time>
      </trkpt>
      <trkpt lat="42.86897" lon="0.20679">
        <ele>2422.5</ele>
        <time>2021-07-22T08:29:19.000Z</time>
      </trkpt>
      <trkpt lat="42.86892" lon="0.20671">
        <ele>2424.6</ele>
        <time>2021-07-22T08:29:31.000Z</time>
      </trkpt>
      <trkpt lat="42.86892" lon="0.20671">
        <ele>2424.7</ele>
        <time>2021-07-22T08:29:33.000Z</time>
      </trkpt>
      <trkpt lat="42.86885" lon="0.20679">
        <ele>2427.3</ele>
        <time>2021-07-22T08:29:52.000Z</time>
      </trkpt>
      <trkpt lat="42.86881" lon="0.2069">
        <ele>2430.2</ele>
        <time>2021-07-22T08:30:06.000Z</time>
      </trkpt>
      <trkpt lat="42.86875" lon="0.207">
        <ele>2432.9</ele>
        <time>2021-07-22T08:30:21.000Z</time>
      </trkpt>
      <trkpt lat="42.86867" lon="0.20706">
        <ele>2436.5</ele>
        <time>2021-07-22T08:30:36.000Z</time>
      </trkpt>
      <trkpt lat="42.86858" lon="0.20708">
        <ele>2442</ele>
        <time>2021-07-22T08:31:06.000Z</time>
      </trkpt>
      <trkpt lat="42.8685" lon="0.20712">
        <ele>2445.4</ele>
        <time>2021-07-22T08:31:27.000Z</time>
      </trkpt>
      <trkpt lat="42.86842" lon="0.20717">
        <ele>2448.8</ele>
        <time>2021-07-22T08:31:42.000Z</time>
      </trkpt>
      <trkpt lat="42.86832" lon="0.20713">
        <ele>2450.8</ele>
        <time>2021-07-22T08:31:56.000Z</time>
      </trkpt>
      <trkpt lat="42.86824" lon="0.20718">
        <ele>2451.9</ele>
        <time>2021-07-22T08:32:06.000Z</time>
      </trkpt>
      <trkpt lat="42.8682" lon="0.20729">
        <ele>2453.6</ele>
        <time>2021-07-22T08:32:20.000Z</time>
      </trkpt>
      <trkpt lat="42.86813" lon="0.20722">
        <ele>2456.6</ele>
        <time>2021-07-22T08:32:36.000Z</time>
      </trkpt>
      <trkpt lat="42.86803" lon="0.20723">
        <ele>2458.2</ele>
        <time>2021-07-22T08:32:47.000Z</time>
      </trkpt>
      <trkpt lat="42.86795" lon="0.20717">
        <ele>2459.9</ele>
        <time>2021-07-22T08:32:56.000Z</time>
      </trkpt>
      <trkpt lat="42.86787" lon="0.20712">
        <ele>2462.5</ele>
        <time>2021-07-22T08:33:09.000Z</time>
      </trkpt>
      <trkpt lat="42.86783" lon="0.20709">
        <ele>2464.7</ele>
        <time>2021-07-22T08:33:19.000Z</time>
      </trkpt>
      <trkpt lat="42.86782" lon="0.20709">
        <ele>2465.5</ele>
        <time>2021-07-22T08:33:22.000Z</time>
      </trkpt>
      <trkpt lat="42.86773" lon="0.20707">
        <ele>2468.1</ele>
        <time>2021-07-22T08:33:35.000Z</time>
      </trkpt>
      <trkpt lat="42.86766" lon="0.20707">
        <ele>2470.3</ele>
        <time>2021-07-22T08:33:47.000Z</time>
      </trkpt>
      <trkpt lat="42.86767" lon="0.20707">
        <ele>2470.7</ele>
        <time>2021-07-22T08:33:48.000Z</time>
      </trkpt>
      <trkpt lat="42.86757" lon="0.20705">
        <ele>2473</ele>
        <time>2021-07-22T08:33:59.000Z</time>
      </trkpt>
      <trkpt lat="42.86748" lon="0.20702">
        <ele>2475.9</ele>
        <time>2021-07-22T08:34:12.000Z</time>
      </trkpt>
      <trkpt lat="42.8674" lon="0.20695">
        <ele>2480.6</ele>
        <time>2021-07-22T08:34:35.000Z</time>
      </trkpt>
      <trkpt lat="42.86738" lon="0.20695">
        <ele>2482.9</ele>
        <time>2021-07-22T08:34:46.000Z</time>
      </trkpt>
      <trkpt lat="42.86738" lon="0.20695">
        <ele>2483</ele>
        <time>2021-07-22T08:34:47.000Z</time>
      </trkpt>
      <trkpt lat="42.86737" lon="0.20695">
        <ele>2484</ele>
        <time>2021-07-22T08:34:54.000Z</time>
      </trkpt>
      <trkpt lat="42.86737" lon="0.20694">
        <ele>2484.4</ele>
        <time>2021-07-22T08:34:55.000Z</time>
      </trkpt>
      <trkpt lat="42.86735" lon="0.2069">
        <ele>2485.8</ele>
        <time>2021-07-22T08:35:06.000Z</time>
      </trkpt>
      <trkpt lat="42.86735" lon="0.2069">
        <ele>2486.3</ele>
        <time>2021-07-22T08:35:14.000Z</time>
      </trkpt>
      <trkpt lat="42.86725" lon="0.20684">
        <ele>2488.7</ele>
        <time>2021-07-22T08:35:26.000Z</time>
      </trkpt>
      <trkpt lat="42.86725" lon="0.20683">
        <ele>2489.8</ele>
        <time>2021-07-22T08:35:32.000Z</time>
      </trkpt>
      <trkpt lat="42.86725" lon="0.20682">
        <ele>2490.1</ele>
        <time>2021-07-22T08:35:33.000Z</time>
      </trkpt>
      <trkpt lat="42.86724" lon="0.20682">
        <ele>2490.6</ele>
        <time>2021-07-22T08:35:35.000Z</time>
      </trkpt>
      <trkpt lat="42.86724" lon="0.20682">
        <ele>2490.6</ele>
        <time>2021-07-22T08:35:36.000Z</time>
      </trkpt>
      <trkpt lat="42.86724" lon="0.20683">
        <ele>2491.2</ele>
        <time>2021-07-22T08:35:38.000Z</time>
      </trkpt>
      <trkpt lat="42.86724" lon="0.20683">
        <ele>2491.4</ele>
        <time>2021-07-22T08:35:39.000Z</time>
      </trkpt>
      <trkpt lat="42.86725" lon="0.20683">
        <ele>2492.9</ele>
        <time>2021-07-22T08:35:46.000Z</time>
      </trkpt>
      <trkpt lat="42.86725" lon="0.20683">
        <ele>2493.3</ele>
        <time>2021-07-22T08:35:48.000Z</time>
      </trkpt>
      <trkpt lat="42.86725" lon="0.20682">
        <ele>2493.5</ele>
        <time>2021-07-22T08:35:49.000Z</time>
      </trkpt>
      <trkpt lat="42.86725" lon="0.20682">
        <ele>2493.6</ele>
        <time>2021-07-22T08:35:50.000Z</time>
      </trkpt>
      <trkpt lat="42.86723" lon="0.20669">
        <ele>2494.8</ele>
        <time>2021-07-22T08:36:05.000Z</time>
      </trkpt>
      <trkpt lat="42.86724" lon="0.20656">
        <ele>2495.6</ele>
        <time>2021-07-22T08:36:16.000Z</time>
      </trkpt>
      <trkpt lat="42.8672" lon="0.20645">
        <ele>2497</ele>
        <time>2021-07-22T08:36:27.000Z</time>
      </trkpt>
      <trkpt lat="42.86718" lon="0.2064">
        <ele>2497.5</ele>
        <time>2021-07-22T08:36:35.000Z</time>
      </trkpt>
      <trkpt lat="42.86718" lon="0.20639">
        <ele>2497.7</ele>
        <time>2021-07-22T08:36:36.000Z</time>
      </trkpt>
      <trkpt lat="42.86717" lon="0.20637">
        <ele>2497.3</ele>
        <time>2021-07-22T08:36:43.000Z</time>
      </trkpt>
      <trkpt lat="42.86716" lon="0.20637">
        <ele>2498</ele>
        <time>2021-07-22T08:36:59.000Z</time>
      </trkpt>
      <trkpt lat="42.86716" lon="0.20637">
        <ele>2497.9</ele>
        <time>2021-07-22T08:37:00.000Z</time>
      </trkpt>
      <trkpt lat="42.86717" lon="0.20637">
        <ele>2498.6</ele>
        <time>2021-07-22T08:37:02.000Z</time>
      </trkpt>
      <trkpt lat="42.86717" lon="0.20637">
        <ele>2499</ele>
        <time>2021-07-22T08:37:03.000Z</time>
      </trkpt>
      <trkpt lat="42.86717" lon="0.20637">
        <ele>2498.3</ele>
        <time>2021-07-22T08:37:05.000Z</time>
      </trkpt>
      <trkpt lat="42.86717" lon="0.20636">
        <ele>2498.1</ele>
        <time>2021-07-22T08:37:06.000Z</time>
      </trkpt>
      <trkpt lat="42.86716" lon="0.20636">
        <ele>2498.4</ele>
        <time>2021-07-22T08:37:17.000Z</time>
      </trkpt>
      <trkpt lat="42.86716" lon="0.20635">
        <ele>2499</ele>
        <time>2021-07-22T08:37:23.000Z</time>
      </trkpt>
      <trkpt lat="42.86716" lon="0.20635">
        <ele>2499.1</ele>
        <time>2021-07-22T08:37:24.000Z</time>
      </trkpt>
      <trkpt lat="42.86716" lon="0.20635">
        <ele>2499.1</ele>
        <time>2021-07-22T08:37:26.000Z</time>
      </trkpt>
      <trkpt lat="42.86716" lon="0.20634">
        <ele>2499</ele>
        <time>2021-07-22T08:37:27.000Z</time>
      </trkpt>
      <trkpt lat="42.86716" lon="0.20634">
        <ele>2499</ele>
        <time>2021-07-22T08:37:29.000Z</time>
      </trkpt>
      <trkpt lat="42.86716" lon="0.20634">
        <ele>2498.5</ele>
        <time>2021-07-22T08:37:30.000Z</time>
      </trkpt>
      <trkpt lat="42.86715" lon="0.20622">
        <ele>2499.9</ele>
        <time>2021-07-22T08:37:45.000Z</time>
      </trkpt>
      <trkpt lat="42.86717" lon="0.20617">
        <ele>2500.3</ele>
        <time>2021-07-22T08:37:53.000Z</time>
      </trkpt>
      <trkpt lat="42.86717" lon="0.20617">
        <ele>2500.5</ele>
        <time>2021-07-22T08:37:54.000Z</time>
      </trkpt>
      <trkpt lat="42.86717" lon="0.20603">
        <ele>2502.3</ele>
        <time>2021-07-22T08:38:04.000Z</time>
      </trkpt>
      <trkpt lat="42.86716" lon="0.20591">
        <ele>2504</ele>
        <time>2021-07-22T08:38:15.000Z</time>
      </trkpt>
      <trkpt lat="42.86715" lon="0.20578">
        <ele>2508.2</ele>
        <time>2021-07-22T08:38:32.000Z</time>
      </trkpt>
      <trkpt lat="42.86717" lon="0.20572">
        <ele>2509.6</ele>
        <time>2021-07-22T08:38:40.000Z</time>
      </trkpt>
      <trkpt lat="42.86716" lon="0.20571">
        <ele>2509.8</ele>
        <time>2021-07-22T08:38:41.000Z</time>
      </trkpt>
      <trkpt lat="42.86711" lon="0.20562">
        <ele>2512.8</ele>
        <time>2021-07-22T08:38:57.000Z</time>
      </trkpt>
      <trkpt lat="42.86707" lon="0.2055">
        <ele>2512.6</ele>
        <time>2021-07-22T08:39:09.000Z</time>
      </trkpt>
      <trkpt lat="42.86703" lon="0.20537">
        <ele>2512.8</ele>
        <time>2021-07-22T08:39:20.000Z</time>
      </trkpt>
      <trkpt lat="42.86702" lon="0.20525">
        <ele>2514.6</ele>
        <time>2021-07-22T08:39:33.000Z</time>
      </trkpt>
      <trkpt lat="42.86701" lon="0.20516">
        <ele>2517.2</ele>
        <time>2021-07-22T08:39:48.000Z</time>
      </trkpt>
      <trkpt lat="42.86701" lon="0.20516">
        <ele>2517</ele>
        <time>2021-07-22T08:39:50.000Z</time>
      </trkpt>
      <trkpt lat="42.86701" lon="0.20516">
        <ele>2517.4</ele>
        <time>2021-07-22T08:39:51.000Z</time>
      </trkpt>
      <trkpt lat="42.86701" lon="0.20516">
        <ele>2518.3</ele>
        <time>2021-07-22T08:39:53.000Z</time>
      </trkpt>
      <trkpt lat="42.86704" lon="0.20503">
        <ele>2520.1</ele>
        <time>2021-07-22T08:40:10.000Z</time>
      </trkpt>
      <trkpt lat="42.86702" lon="0.20491">
        <ele>2523.2</ele>
        <time>2021-07-22T08:40:24.000Z</time>
      </trkpt>
      <trkpt lat="42.86703" lon="0.20478">
        <ele>2528.4</ele>
        <time>2021-07-22T08:40:48.000Z</time>
      </trkpt>
      <trkpt lat="42.86702" lon="0.20466">
        <ele>2531.9</ele>
        <time>2021-07-22T08:41:08.000Z</time>
      </trkpt>
      <trkpt lat="42.86703" lon="0.20454">
        <ele>2536</ele>
        <time>2021-07-22T08:41:28.000Z</time>
      </trkpt>
      <trkpt lat="42.86702" lon="0.20441">
        <ele>2539.5</ele>
        <time>2021-07-22T08:41:45.000Z</time>
      </trkpt>
      <trkpt lat="42.86701" lon="0.20435">
        <ele>2541</ele>
        <time>2021-07-22T08:41:54.000Z</time>
      </trkpt>
      <trkpt lat="42.86701" lon="0.20434">
        <ele>2541.2</ele>
        <time>2021-07-22T08:41:56.000Z</time>
      </trkpt>
      <trkpt lat="42.86702" lon="0.20421">
        <ele>2544.3</ele>
        <time>2021-07-22T08:42:11.000Z</time>
      </trkpt>
      <trkpt lat="42.86701" lon="0.20408">
        <ele>2546</ele>
        <time>2021-07-22T08:42:24.000Z</time>
      </trkpt>
      <trkpt lat="42.86699" lon="0.20396">
        <ele>2546.9</ele>
        <time>2021-07-22T08:42:38.000Z</time>
      </trkpt>
      <trkpt lat="42.86698" lon="0.20383">
        <ele>2549.7</ele>
        <time>2021-07-22T08:42:53.000Z</time>
      </trkpt>
      <trkpt lat="42.86696" lon="0.20375">
        <ele>2550.4</ele>
        <time>2021-07-22T08:43:01.000Z</time>
      </trkpt>
      <trkpt lat="42.86696" lon="0.20374">
        <ele>2550.4</ele>
        <time>2021-07-22T08:43:02.000Z</time>
      </trkpt>
      <trkpt lat="42.86694" lon="0.20362">
        <ele>2552.6</ele>
        <time>2021-07-22T08:43:14.000Z</time>
      </trkpt>
      <trkpt lat="42.86689" lon="0.20352">
        <ele>2554.3</ele>
        <time>2021-07-22T08:43:26.000Z</time>
      </trkpt>
      <trkpt lat="42.86684" lon="0.20341">
        <ele>2557.4</ele>
        <time>2021-07-22T08:43:43.000Z</time>
      </trkpt>
      <trkpt lat="42.86684" lon="0.20341">
        <ele>2557.9</ele>
        <time>2021-07-22T08:43:45.000Z</time>
      </trkpt>
      <trkpt lat="42.86684" lon="0.20341">
        <ele>2558.2</ele>
        <time>2021-07-22T08:43:46.000Z</time>
      </trkpt>
      <trkpt lat="42.86679" lon="0.2033">
        <ele>2561</ele>
        <time>2021-07-22T08:44:03.000Z</time>
      </trkpt>
      <trkpt lat="42.86679" lon="0.20316">
        <ele>2562.9</ele>
        <time>2021-07-22T08:44:15.000Z</time>
      </trkpt>
      <trkpt lat="42.86681" lon="0.20313">
        <ele>2563.9</ele>
        <time>2021-07-22T08:44:22.000Z</time>
      </trkpt>
      <trkpt lat="42.86681" lon="0.20312">
        <ele>2564.1</ele>
        <time>2021-07-22T08:44:23.000Z</time>
      </trkpt>
      <trkpt lat="42.86681" lon="0.20312">
        <ele>2564.2</ele>
        <time>2021-07-22T08:44:24.000Z</time>
      </trkpt>
      <trkpt lat="42.86682" lon="0.20312">
        <ele>2564.4</ele>
        <time>2021-07-22T08:44:26.000Z</time>
      </trkpt>
      <trkpt lat="42.86687" lon="0.20302">
        <ele>2567.7</ele>
        <time>2021-07-22T08:44:43.000Z</time>
      </trkpt>
      <trkpt lat="42.86687" lon="0.20298">
        <ele>2569.2</ele>
        <time>2021-07-22T08:44:50.000Z</time>
      </trkpt>
      <trkpt lat="42.86688" lon="0.20298">
        <ele>2569.7</ele>
        <time>2021-07-22T08:44:52.000Z</time>
      </trkpt>
      <trkpt lat="42.86693" lon="0.20288">
        <ele>2573.1</ele>
        <time>2021-07-22T08:45:14.000Z</time>
      </trkpt>
      <trkpt lat="42.86693" lon="0.20288">
        <ele>2573.5</ele>
        <time>2021-07-22T08:45:15.000Z</time>
      </trkpt>
      <trkpt lat="42.86693" lon="0.20288">
        <ele>2574.3</ele>
        <time>2021-07-22T08:45:17.000Z</time>
      </trkpt>
      <trkpt lat="42.86696" lon="0.20278">
        <ele>2576.8</ele>
        <time>2021-07-22T08:45:37.000Z</time>
      </trkpt>
      <trkpt lat="42.86696" lon="0.20277">
        <ele>2578.2</ele>
        <time>2021-07-22T08:45:40.000Z</time>
      </trkpt>
      <trkpt lat="42.86696" lon="0.20277">
        <ele>2578.4</ele>
        <time>2021-07-22T08:45:41.000Z</time>
      </trkpt>
      <trkpt lat="42.86696" lon="0.20277">
        <ele>2578.3</ele>
        <time>2021-07-22T08:45:42.000Z</time>
      </trkpt>
      <trkpt lat="42.867" lon="0.20267">
        <ele>2582.6</ele>
        <time>2021-07-22T08:46:06.000Z</time>
      </trkpt>
      <trkpt lat="42.867" lon="0.20267">
        <ele>2582.6</ele>
        <time>2021-07-22T08:46:07.000Z</time>
      </trkpt>
      <trkpt lat="42.86702" lon="0.20261">
        <ele>2585</ele>
        <time>2021-07-22T08:46:19.000Z</time>
      </trkpt>
      <trkpt lat="42.86702" lon="0.2026">
        <ele>2585.8</ele>
        <time>2021-07-22T08:46:20.000Z</time>
      </trkpt>
      <trkpt lat="42.86702" lon="0.20259">
        <ele>2586.2</ele>
        <time>2021-07-22T08:46:23.000Z</time>
      </trkpt>
      <trkpt lat="42.86702" lon="0.20259">
        <ele>2586.6</ele>
        <time>2021-07-22T08:46:26.000Z</time>
      </trkpt>
      <trkpt lat="42.86703" lon="0.20251">
        <ele>2589.6</ele>
        <time>2021-07-22T08:46:41.000Z</time>
      </trkpt>
      <trkpt lat="42.86702" lon="0.2025">
        <ele>2589.7</ele>
        <time>2021-07-22T08:46:42.000Z</time>
      </trkpt>
      <trkpt lat="42.86703" lon="0.20243">
        <ele>2591.7</ele>
        <time>2021-07-22T08:46:59.000Z</time>
      </trkpt>
      <trkpt lat="42.86703" lon="0.20243">
        <ele>2592.6</ele>
        <time>2021-07-22T08:47:00.000Z</time>
      </trkpt>
      <trkpt lat="42.86705" lon="0.20231">
        <ele>2597.7</ele>
        <time>2021-07-22T08:47:28.000Z</time>
      </trkpt>
      <trkpt lat="42.86702" lon="0.20218">
        <ele>2600.9</ele>
        <time>2021-07-22T08:47:50.000Z</time>
      </trkpt>
      <trkpt lat="42.86696" lon="0.20207">
        <ele>2606.3</ele>
        <time>2021-07-22T08:48:16.000Z</time>
      </trkpt>
      <trkpt lat="42.86696" lon="0.20206">
        <ele>2607.6</ele>
        <time>2021-07-22T08:48:20.000Z</time>
      </trkpt>
      <trkpt lat="42.86696" lon="0.20205">
        <ele>2607.7</ele>
        <time>2021-07-22T08:48:21.000Z</time>
      </trkpt>
      <trkpt lat="42.86692" lon="0.20194">
        <ele>2612.4</ele>
        <time>2021-07-22T08:48:48.000Z</time>
      </trkpt>
      <trkpt lat="42.86683" lon="0.20187">
        <ele>2614.9</ele>
        <time>2021-07-22T08:49:01.000Z</time>
      </trkpt>
      <trkpt lat="42.86679" lon="0.20184">
        <ele>2615.9</ele>
        <time>2021-07-22T08:49:10.000Z</time>
      </trkpt>
      <trkpt lat="42.86679" lon="0.20183">
        <ele>2616.4</ele>
        <time>2021-07-22T08:49:12.000Z</time>
      </trkpt>
      <trkpt lat="42.8668" lon="0.20181">
        <ele>2617.2</ele>
        <time>2021-07-22T08:49:20.000Z</time>
      </trkpt>
      <trkpt lat="42.8668" lon="0.2018">
        <ele>2618.1</ele>
        <time>2021-07-22T08:49:22.000Z</time>
      </trkpt>
      <trkpt lat="42.86685" lon="0.20171">
        <ele>2622.5</ele>
        <time>2021-07-22T08:49:50.000Z</time>
      </trkpt>
      <trkpt lat="42.86684" lon="0.20171">
        <ele>2622.2</ele>
        <time>2021-07-22T08:49:51.000Z</time>
      </trkpt>
      <trkpt lat="42.86684" lon="0.20171">
        <ele>2621.7</ele>
        <time>2021-07-22T08:49:53.000Z</time>
      </trkpt>
      <trkpt lat="42.86685" lon="0.20171">
        <ele>2622.4</ele>
        <time>2021-07-22T08:49:55.000Z</time>
      </trkpt>
      <trkpt lat="42.86685" lon="0.20171">
        <ele>2622.7</ele>
        <time>2021-07-22T08:49:56.000Z</time>
      </trkpt>
      <trkpt lat="42.86685" lon="0.20171">
        <ele>2622.9</ele>
        <time>2021-07-22T08:49:57.000Z</time>
      </trkpt>
      <trkpt lat="42.86687" lon="0.20172">
        <ele>2621.8</ele>
        <time>2021-07-22T08:50:04.000Z</time>
      </trkpt>
      <trkpt lat="42.86687" lon="0.20172">
        <ele>2622.1</ele>
        <time>2021-07-22T08:50:05.000Z</time>
      </trkpt>
      <trkpt lat="42.86687" lon="0.20172">
        <ele>2622.4</ele>
        <time>2021-07-22T08:50:06.000Z</time>
      </trkpt>
      <trkpt lat="42.86687" lon="0.20172">
        <ele>2622.6</ele>
        <time>2021-07-22T08:50:08.000Z</time>
      </trkpt>
      <trkpt lat="42.86686" lon="0.20172">
        <ele>2622.3</ele>
        <time>2021-07-22T08:50:12.000Z</time>
      </trkpt>
      <trkpt lat="42.86686" lon="0.20173">
        <ele>2622.6</ele>
        <time>2021-07-22T08:50:33.000Z</time>
      </trkpt>
      <trkpt lat="42.86686" lon="0.20173">
        <ele>2622.9</ele>
        <time>2021-07-22T08:50:34.000Z</time>
      </trkpt>
      <trkpt lat="42.86686" lon="0.20173">
        <ele>2623</ele>
        <time>2021-07-22T08:50:52.000Z</time>
      </trkpt>
      <trkpt lat="42.86686" lon="0.20173">
        <ele>2623</ele>
        <time>2021-07-22T08:50:53.000Z</time>
      </trkpt>
      <trkpt lat="42.86686" lon="0.20173">
        <ele>2623</ele>
        <time>2021-07-22T08:50:57.000Z</time>
      </trkpt>
      <trkpt lat="42.86686" lon="0.20173">
        <ele>2622.5</ele>
        <time>2021-07-22T08:51:00.000Z</time>
      </trkpt>
      <trkpt lat="42.86686" lon="0.20173">
        <ele>2622.3</ele>
        <time>2021-07-22T08:51:04.000Z</time>
      </trkpt>
      <trkpt lat="42.86686" lon="0.20175">
        <ele>2622</ele>
        <time>2021-07-22T08:51:09.000Z</time>
      </trkpt>
      <trkpt lat="42.86686" lon="0.20175">
        <ele>2622.7</ele>
        <time>2021-07-22T08:51:11.000Z</time>
      </trkpt>
      <trkpt lat="42.86686" lon="0.20175">
        <ele>2622.7</ele>
        <time>2021-07-22T08:51:12.000Z</time>
      </trkpt>
      <trkpt lat="42.86685" lon="0.20175">
        <ele>2623.2</ele>
        <time>2021-07-22T08:51:20.000Z</time>
      </trkpt>
      <trkpt lat="42.86676" lon="0.20171">
        <ele>2623.9</ele>
        <time>2021-07-22T08:51:32.000Z</time>
      </trkpt>
      <trkpt lat="42.86667" lon="0.2017">
        <ele>2625.5</ele>
        <time>2021-07-22T08:51:43.000Z</time>
      </trkpt>
      <trkpt lat="42.86664" lon="0.20164">
        <ele>2627.2</ele>
        <time>2021-07-22T08:51:55.000Z</time>
      </trkpt>
      <trkpt lat="42.86664" lon="0.20164">
        <ele>2627.3</ele>
        <time>2021-07-22T08:51:56.000Z</time>
      </trkpt>
      <trkpt lat="42.86658" lon="0.20153">
        <ele>2628.8</ele>
        <time>2021-07-22T08:52:09.000Z</time>
      </trkpt>
      <trkpt lat="42.86652" lon="0.20143">
        <ele>2631.8</ele>
        <time>2021-07-22T08:52:22.000Z</time>
      </trkpt>
      <trkpt lat="42.86651" lon="0.20131">
        <ele>2635.1</ele>
        <time>2021-07-22T08:52:40.000Z</time>
      </trkpt>
      <trkpt lat="42.86649" lon="0.20121">
        <ele>2639.5</ele>
        <time>2021-07-22T08:53:01.000Z</time>
      </trkpt>
      <trkpt lat="42.86649" lon="0.2012">
        <ele>2639.5</ele>
        <time>2021-07-22T08:53:03.000Z</time>
      </trkpt>
      <trkpt lat="42.86644" lon="0.2011">
        <ele>2641.3</ele>
        <time>2021-07-22T08:53:19.000Z</time>
      </trkpt>
      <trkpt lat="42.86644" lon="0.2011">
        <ele>2642.1</ele>
        <time>2021-07-22T08:53:20.000Z</time>
      </trkpt>
      <trkpt lat="42.86643" lon="0.2011">
        <ele>2642.6</ele>
        <time>2021-07-22T08:53:21.000Z</time>
      </trkpt>
      <trkpt lat="42.86644" lon="0.2011">
        <ele>2643.1</ele>
        <time>2021-07-22T08:53:25.000Z</time>
      </trkpt>
      <trkpt lat="42.86643" lon="0.20109">
        <ele>2642.9</ele>
        <time>2021-07-22T08:53:26.000Z</time>
      </trkpt>
      <trkpt lat="42.86643" lon="0.20109">
        <ele>2643.1</ele>
        <time>2021-07-22T08:53:27.000Z</time>
      </trkpt>
      <trkpt lat="42.86643" lon="0.20109">
        <ele>2643.4</ele>
        <time>2021-07-22T08:53:28.000Z</time>
      </trkpt>
      <trkpt lat="42.86637" lon="0.20099">
        <ele>2645.8</ele>
        <time>2021-07-22T08:53:42.000Z</time>
      </trkpt>
      <trkpt lat="42.86631" lon="0.20089">
        <ele>2648.1</ele>
        <time>2021-07-22T08:53:58.000Z</time>
      </trkpt>
      <trkpt lat="42.86629" lon="0.20086">
        <ele>2649.2</ele>
        <time>2021-07-22T08:54:08.000Z</time>
      </trkpt>
      <trkpt lat="42.86629" lon="0.20086">
        <ele>2649</ele>
        <time>2021-07-22T08:54:09.000Z</time>
      </trkpt>
      <trkpt lat="42.86627" lon="0.20084">
        <ele>2649.9</ele>
        <time>2021-07-22T08:54:17.000Z</time>
      </trkpt>
      <trkpt lat="42.86627" lon="0.20083">
        <ele>2650.5</ele>
        <time>2021-07-22T08:54:18.000Z</time>
      </trkpt>
      <trkpt lat="42.86626" lon="0.20083">
        <ele>2650.3</ele>
        <time>2021-07-22T08:54:21.000Z</time>
      </trkpt>
      <trkpt lat="42.86626" lon="0.20083">
        <ele>2650.9</ele>
        <time>2021-07-22T08:54:23.000Z</time>
      </trkpt>
      <trkpt lat="42.86625" lon="0.20082">
        <ele>2651.1</ele>
        <time>2021-07-22T08:54:27.000Z</time>
      </trkpt>
      <trkpt lat="42.86625" lon="0.20082">
        <ele>2651.3</ele>
        <time>2021-07-22T08:54:28.000Z</time>
      </trkpt>
      <trkpt lat="42.86625" lon="0.20081">
        <ele>2652</ele>
        <time>2021-07-22T08:54:32.000Z</time>
      </trkpt>
      <trkpt lat="42.86625" lon="0.20081">
        <ele>2652.4</ele>
        <time>2021-07-22T08:54:33.000Z</time>
      </trkpt>
      <trkpt lat="42.86625" lon="0.20081">
        <ele>2652.7</ele>
        <time>2021-07-22T08:54:34.000Z</time>
      </trkpt>
      <trkpt lat="42.86625" lon="0.20081">
        <ele>2652.7</ele>
        <time>2021-07-22T08:54:35.000Z</time>
      </trkpt>
      <trkpt lat="42.86625" lon="0.20081">
        <ele>2652.7</ele>
        <time>2021-07-22T08:54:36.000Z</time>
      </trkpt>
      <trkpt lat="42.86625" lon="0.20081">
        <ele>2652.8</ele>
        <time>2021-07-22T08:54:37.000Z</time>
      </trkpt>
      <trkpt lat="42.86625" lon="0.20081">
        <ele>2652.7</ele>
        <time>2021-07-22T08:54:39.000Z</time>
      </trkpt>
      <trkpt lat="42.86625" lon="0.20081">
        <ele>2654.5</ele>
        <time>2021-07-22T08:54:50.000Z</time>
      </trkpt>
      <trkpt lat="42.86624" lon="0.2008">
        <ele>2653.7</ele>
        <time>2021-07-22T08:54:54.000Z</time>
      </trkpt>
      <trkpt lat="42.86624" lon="0.2008">
        <ele>2653</ele>
        <time>2021-07-22T08:54:56.000Z</time>
      </trkpt>
      <trkpt lat="42.86623" lon="0.20079">
        <ele>2652.9</ele>
        <time>2021-07-22T08:55:05.000Z</time>
      </trkpt>
      <trkpt lat="42.86623" lon="0.20079">
        <ele>2653.3</ele>
        <time>2021-07-22T08:55:07.000Z</time>
      </trkpt>
      <trkpt lat="42.86619" lon="0.20068">
        <ele>2655.7</ele>
        <time>2021-07-22T08:55:26.000Z</time>
      </trkpt>
      <trkpt lat="42.86618" lon="0.20064">
        <ele>2657.2</ele>
        <time>2021-07-22T08:55:34.000Z</time>
      </trkpt>
      <trkpt lat="42.86618" lon="0.20064">
        <ele>2657.6</ele>
        <time>2021-07-22T08:55:35.000Z</time>
      </trkpt>
      <trkpt lat="42.86618" lon="0.20063">
        <ele>2657.6</ele>
        <time>2021-07-22T08:55:38.000Z</time>
      </trkpt>
      <trkpt lat="42.86618" lon="0.20062">
        <ele>2658.2</ele>
        <time>2021-07-22T08:55:39.000Z</time>
      </trkpt>
      <trkpt lat="42.86618" lon="0.20061">
        <ele>2658.8</ele>
        <time>2021-07-22T08:55:43.000Z</time>
      </trkpt>
      <trkpt lat="42.86618" lon="0.20061">
        <ele>2659.3</ele>
        <time>2021-07-22T08:55:44.000Z</time>
      </trkpt>
      <trkpt lat="42.86618" lon="0.20054">
        <ele>2662</ele>
        <time>2021-07-22T08:55:59.000Z</time>
      </trkpt>
      <trkpt lat="42.86618" lon="0.20054">
        <ele>2662.1</ele>
        <time>2021-07-22T08:56:00.000Z</time>
      </trkpt>
      <trkpt lat="42.86618" lon="0.20054">
        <ele>2662.1</ele>
        <time>2021-07-22T08:56:02.000Z</time>
      </trkpt>
      <trkpt lat="42.86618" lon="0.20054">
        <ele>2662.6</ele>
        <time>2021-07-22T08:56:04.000Z</time>
      </trkpt>
      <trkpt lat="42.8662" lon="0.2005">
        <ele>2664</ele>
        <time>2021-07-22T08:56:17.000Z</time>
      </trkpt>
      <trkpt lat="42.86619" lon="0.2005">
        <ele>2664.5</ele>
        <time>2021-07-22T08:56:19.000Z</time>
      </trkpt>
      <trkpt lat="42.86619" lon="0.2005">
        <ele>2664.8</ele>
        <time>2021-07-22T08:56:21.000Z</time>
      </trkpt>
      <trkpt lat="42.8662" lon="0.20049">
        <ele>2665.6</ele>
        <time>2021-07-22T08:56:24.000Z</time>
      </trkpt>
      <trkpt lat="42.86619" lon="0.20048">
        <ele>2666.2</ele>
        <time>2021-07-22T08:56:30.000Z</time>
      </trkpt>
      <trkpt lat="42.86619" lon="0.20047">
        <ele>2666.5</ele>
        <time>2021-07-22T08:56:31.000Z</time>
      </trkpt>
      <trkpt lat="42.86618" lon="0.20046">
        <ele>2666.7</ele>
        <time>2021-07-22T08:56:35.000Z</time>
      </trkpt>
      <trkpt lat="42.86618" lon="0.20046">
        <ele>2667</ele>
        <time>2021-07-22T08:56:36.000Z</time>
      </trkpt>
      <trkpt lat="42.86618" lon="0.20045">
        <ele>2668.2</ele>
        <time>2021-07-22T08:56:38.000Z</time>
      </trkpt>
      <trkpt lat="42.86618" lon="0.20045">
        <ele>2668.4</ele>
        <time>2021-07-22T08:56:39.000Z</time>
      </trkpt>
      <trkpt lat="42.86618" lon="0.20045">
        <ele>2668</ele>
        <time>2021-07-22T08:56:41.000Z</time>
      </trkpt>
      <trkpt lat="42.86618" lon="0.20045">
        <ele>2668</ele>
        <time>2021-07-22T08:56:43.000Z</time>
      </trkpt>
      <trkpt lat="42.86618" lon="0.20045">
        <ele>2669</ele>
        <time>2021-07-22T08:56:45.000Z</time>
      </trkpt>
      <trkpt lat="42.86618" lon="0.20044">
        <ele>2669</ele>
        <time>2021-07-22T08:56:46.000Z</time>
      </trkpt>
      <trkpt lat="42.86616" lon="0.20042">
        <ele>2669.8</ele>
        <time>2021-07-22T08:56:56.000Z</time>
      </trkpt>
      <trkpt lat="42.86616" lon="0.20042">
        <ele>2670.3</ele>
        <time>2021-07-22T08:56:57.000Z</time>
      </trkpt>
      <trkpt lat="42.86615" lon="0.20039">
        <ele>2672</ele>
        <time>2021-07-22T08:57:06.000Z</time>
      </trkpt>
      <trkpt lat="42.86615" lon="0.20039">
        <ele>2671.9</ele>
        <time>2021-07-22T08:57:07.000Z</time>
      </trkpt>
      <trkpt lat="42.86614" lon="0.20034">
        <ele>2673.6</ele>
        <time>2021-07-22T08:57:18.000Z</time>
      </trkpt>
      <trkpt lat="42.86614" lon="0.20033">
        <ele>2673.4</ele>
        <time>2021-07-22T08:57:19.000Z</time>
      </trkpt>
      <trkpt lat="42.86611" lon="0.20032">
        <ele>2675.8</ele>
        <time>2021-07-22T08:57:32.000Z</time>
      </trkpt>
      <trkpt lat="42.86611" lon="0.20032">
        <ele>2676.2</ele>
        <time>2021-07-22T08:57:34.000Z</time>
      </trkpt>
      <trkpt lat="42.86611" lon="0.20032">
        <ele>2676.5</ele>
        <time>2021-07-22T08:57:35.000Z</time>
      </trkpt>
      <trkpt lat="42.86611" lon="0.20033">
        <ele>2676.6</ele>
        <time>2021-07-22T08:57:36.000Z</time>
      </trkpt>
      <trkpt lat="42.86611" lon="0.20033">
        <ele>2676.8</ele>
        <time>2021-07-22T08:57:38.000Z</time>
      </trkpt>
      <trkpt lat="42.8661" lon="0.20033">
        <ele>2676.9</ele>
        <time>2021-07-22T08:57:39.000Z</time>
      </trkpt>
      <trkpt lat="42.86609" lon="0.20025">
        <ele>2678.3</ele>
        <time>2021-07-22T08:57:52.000Z</time>
      </trkpt>
      <trkpt lat="42.86609" lon="0.20025">
        <ele>2678.8</ele>
        <time>2021-07-22T08:57:53.000Z</time>
      </trkpt>
      <trkpt lat="42.86609" lon="0.20025">
        <ele>2678.7</ele>
        <time>2021-07-22T08:57:54.000Z</time>
      </trkpt>
      <trkpt lat="42.8661" lon="0.20024">
        <ele>2678.4</ele>
        <time>2021-07-22T08:57:59.000Z</time>
      </trkpt>
      <trkpt lat="42.8661" lon="0.20024">
        <ele>2678.5</ele>
        <time>2021-07-22T08:58:00.000Z</time>
      </trkpt>
      <trkpt lat="42.8661" lon="0.20024">
        <ele>2678.1</ele>
        <time>2021-07-22T08:58:02.000Z</time>
      </trkpt>
      <trkpt lat="42.86611" lon="0.20024">
        <ele>2678.2</ele>
        <time>2021-07-22T08:58:05.000Z</time>
      </trkpt>
      <trkpt lat="42.86611" lon="0.20024">
        <ele>2678.4</ele>
        <time>2021-07-22T08:58:11.000Z</time>
      </trkpt>
      <trkpt lat="42.86609" lon="0.20028">
        <ele>2676.6</ele>
        <time>2021-07-22T08:58:23.000Z</time>
      </trkpt>
      <trkpt lat="42.86609" lon="0.20028">
        <ele>2676.2</ele>
        <time>2021-07-22T08:58:24.000Z</time>
      </trkpt>
      <trkpt lat="42.86609" lon="0.20031">
        <ele>2677</ele>
        <time>2021-07-22T08:58:33.000Z</time>
      </trkpt>
      <trkpt lat="42.8661" lon="0.20031">
        <ele>2676.7</ele>
        <time>2021-07-22T08:58:34.000Z</time>
      </trkpt>
      <trkpt lat="42.86609" lon="0.20038">
        <ele>2681.7</ele>
        <time>2021-07-22T08:59:07.000Z</time>
      </trkpt>
      <trkpt lat="42.86608" lon="0.20038">
        <ele>2681.8</ele>
        <time>2021-07-22T08:59:13.000Z</time>
      </trkpt>
      <trkpt lat="42.86607" lon="0.20037">
        <ele>2683.3</ele>
        <time>2021-07-22T08:59:18.000Z</time>
      </trkpt>
      <trkpt lat="42.86607" lon="0.20037">
        <ele>2682.4</ele>
        <time>2021-07-22T08:59:20.000Z</time>
      </trkpt>
      <trkpt lat="42.86607" lon="0.20037">
        <ele>2683.2</ele>
        <time>2021-07-22T08:59:22.000Z</time>
      </trkpt>
      <trkpt lat="42.86607" lon="0.20037">
        <ele>2683.5</ele>
        <time>2021-07-22T08:59:24.000Z</time>
      </trkpt>
      <trkpt lat="42.86607" lon="0.20037">
        <ele>2683</ele>
        <time>2021-07-22T08:59:25.000Z</time>
      </trkpt>
      <trkpt lat="42.86607" lon="0.20037">
        <ele>2684.6</ele>
        <time>2021-07-22T08:59:29.000Z</time>
      </trkpt>
      <trkpt lat="42.86607" lon="0.20037">
        <ele>2684.8</ele>
        <time>2021-07-22T08:59:30.000Z</time>
      </trkpt>
      <trkpt lat="42.86607" lon="0.20036">
        <ele>2684.7</ele>
        <time>2021-07-22T08:59:31.000Z</time>
      </trkpt>
      <trkpt lat="42.86608" lon="0.20036">
        <ele>2685.6</ele>
        <time>2021-07-22T08:59:35.000Z</time>
      </trkpt>
      <trkpt lat="42.86608" lon="0.20036">
        <ele>2685.2</ele>
        <time>2021-07-22T08:59:38.000Z</time>
      </trkpt>
      <trkpt lat="42.86605" lon="0.20044">
        <ele>2689.2</ele>
        <time>2021-07-22T08:59:57.000Z</time>
      </trkpt>
      <trkpt lat="42.86605" lon="0.20044">
        <ele>2689.3</ele>
        <time>2021-07-22T08:59:58.000Z</time>
      </trkpt>
      <trkpt lat="42.86605" lon="0.20044">
        <ele>2689.3</ele>
        <time>2021-07-22T08:59:59.000Z</time>
      </trkpt>
      <trkpt lat="42.86605" lon="0.20045">
        <ele>2689</ele>
        <time>2021-07-22T09:00:01.000Z</time>
      </trkpt>
      <trkpt lat="42.86601" lon="0.20056">
        <ele>2691.7</ele>
        <time>2021-07-22T09:00:20.000Z</time>
      </trkpt>
      <trkpt lat="42.86596" lon="0.20067">
        <ele>2692.8</ele>
        <time>2021-07-22T09:00:40.000Z</time>
      </trkpt>
      <trkpt lat="42.86595" lon="0.2007">
        <ele>2692.8</ele>
        <time>2021-07-22T09:00:46.000Z</time>
      </trkpt>
      <trkpt lat="42.86595" lon="0.20071">
        <ele>2693.2</ele>
        <time>2021-07-22T09:00:51.000Z</time>
      </trkpt>
      <trkpt lat="42.86594" lon="0.20073">
        <ele>2693.3</ele>
        <time>2021-07-22T09:00:58.000Z</time>
      </trkpt>
      <trkpt lat="42.86594" lon="0.20073">
        <ele>2692.6</ele>
        <time>2021-07-22T09:01:41.000Z</time>
      </trkpt>
      <trkpt lat="42.86594" lon="0.20073">
        <ele>2692.7</ele>
        <time>2021-07-22T09:01:42.000Z</time>
      </trkpt>
      <trkpt lat="42.86594" lon="0.20072">
        <ele>2692.8</ele>
        <time>2021-07-22T09:01:50.000Z</time>
      </trkpt>
      <trkpt lat="42.86595" lon="0.20071">
        <ele>2693</ele>
        <time>2021-07-22T09:01:54.000Z</time>
      </trkpt>
      <trkpt lat="42.86595" lon="0.20071">
        <ele>2692.7</ele>
        <time>2021-07-22T09:02:01.000Z</time>
      </trkpt>
      <trkpt lat="42.86594" lon="0.20072">
        <ele>2693.7</ele>
        <time>2021-07-22T09:02:06.000Z</time>
      </trkpt>
      <trkpt lat="42.86594" lon="0.20072">
        <ele>2693.9</ele>
        <time>2021-07-22T09:02:16.000Z</time>
      </trkpt>
      <trkpt lat="42.86594" lon="0.20072">
        <ele>2693.8</ele>
        <time>2021-07-22T09:02:17.000Z</time>
      </trkpt>
      <trkpt lat="42.86594" lon="0.20072">
        <ele>2694.1</ele>
        <time>2021-07-22T09:02:55.000Z</time>
      </trkpt>
      <trkpt lat="42.86595" lon="0.20072">
        <ele>2694.2</ele>
        <time>2021-07-22T09:03:02.000Z</time>
      </trkpt>
      <trkpt lat="42.86595" lon="0.20072">
        <ele>2694.6</ele>
        <time>2021-07-22T09:03:07.000Z</time>
      </trkpt>
      <trkpt lat="42.86595" lon="0.20072">
        <ele>2694.7</ele>
        <time>2021-07-22T09:03:10.000Z</time>
      </trkpt>
      <trkpt lat="42.86595" lon="0.20072">
        <ele>2694.9</ele>
        <time>2021-07-22T09:03:11.000Z</time>
      </trkpt>
      <trkpt lat="42.86595" lon="0.20072">
        <ele>2694.9</ele>
        <time>2021-07-22T09:03:12.000Z</time>
      </trkpt>
      <trkpt lat="42.86596" lon="0.20072">
        <ele>2695.4</ele>
        <time>2021-07-22T09:03:42.000Z</time>
      </trkpt>
      <trkpt lat="42.86596" lon="0.20072">
        <ele>2695.4</ele>
        <time>2021-07-22T09:03:45.000Z</time>
      </trkpt>
      <trkpt lat="42.86596" lon="0.20071">
        <ele>2695.2</ele>
        <time>2021-07-22T09:04:07.000Z</time>
      </trkpt>
      <trkpt lat="42.86596" lon="0.20071">
        <ele>2695.1</ele>
        <time>2021-07-22T09:04:08.000Z</time>
      </trkpt>
      <trkpt lat="42.86596" lon="0.2007">
        <ele>2694.7</ele>
        <time>2021-07-22T09:04:23.000Z</time>
      </trkpt>
      <trkpt lat="42.86596" lon="0.2007">
        <ele>2694.9</ele>
        <time>2021-07-22T09:04:25.000Z</time>
      </trkpt>
      <trkpt lat="42.86596" lon="0.2007">
        <ele>2694.9</ele>
        <time>2021-07-22T09:04:26.000Z</time>
      </trkpt>
      <trkpt lat="42.86596" lon="0.2007">
        <ele>2694.9</ele>
        <time>2021-07-22T09:04:28.000Z</time>
      </trkpt>
      <trkpt lat="42.86596" lon="0.2007">
        <ele>2695.3</ele>
        <time>2021-07-22T09:04:32.000Z</time>
      </trkpt>
      <trkpt lat="42.86596" lon="0.2007">
        <ele>2695.5</ele>
        <time>2021-07-22T09:04:33.000Z</time>
      </trkpt>
      <trkpt lat="42.86596" lon="0.2007">
        <ele>2695.3</ele>
        <time>2021-07-22T09:04:35.000Z</time>
      </trkpt>
      <trkpt lat="42.86596" lon="0.2007">
        <ele>2695.4</ele>
        <time>2021-07-22T09:04:36.000Z</time>
      </trkpt>
      <trkpt lat="42.86595" lon="0.20071">
        <ele>2695.7</ele>
        <time>2021-07-22T09:05:00.000Z</time>
      </trkpt>
      <trkpt lat="42.86595" lon="0.20071">
        <ele>2695.5</ele>
        <time>2021-07-22T09:05:03.000Z</time>
      </trkpt>
      <trkpt lat="42.86595" lon="0.20071">
        <ele>2695.8</ele>
        <time>2021-07-22T09:05:36.000Z</time>
      </trkpt>
      <trkpt lat="42.86595" lon="0.20072">
        <ele>2695.2</ele>
        <time>2021-07-22T09:05:37.000Z</time>
      </trkpt>
      <trkpt lat="42.86595" lon="0.20072">
        <ele>2695.1</ele>
        <time>2021-07-22T09:06:14.000Z</time>
      </trkpt>
      <trkpt lat="42.86595" lon="0.20072">
        <ele>2695</ele>
        <time>2021-07-22T09:06:15.000Z</time>
      </trkpt>
      <trkpt lat="42.86595" lon="0.20072">
        <ele>2694.7</ele>
        <time>2021-07-22T09:06:31.000Z</time>
      </trkpt>
      <trkpt lat="42.86595" lon="0.20072">
        <ele>2694.9</ele>
        <time>2021-07-22T09:06:33.000Z</time>
      </trkpt>
      <trkpt lat="42.86595" lon="0.20071">
        <ele>2695.4</ele>
        <time>2021-07-22T09:07:10.000Z</time>
      </trkpt>
      <trkpt lat="42.86595" lon="0.20071">
        <ele>2695.5</ele>
        <time>2021-07-22T09:07:11.000Z</time>
      </trkpt>
      <trkpt lat="42.86595" lon="0.20071">
        <ele>2696.3</ele>
        <time>2021-07-22T09:07:44.000Z</time>
      </trkpt>
      <trkpt lat="42.86595" lon="0.20072">
        <ele>2696.3</ele>
        <time>2021-07-22T09:07:47.000Z</time>
      </trkpt>
      <trkpt lat="42.86595" lon="0.20071">
        <ele>2697.1</ele>
        <time>2021-07-22T09:08:00.000Z</time>
      </trkpt>
      <trkpt lat="42.86595" lon="0.20071">
        <ele>2697.9</ele>
        <time>2021-07-22T09:08:03.000Z</time>
      </trkpt>
      <trkpt lat="42.86595" lon="0.20071">
        <ele>2698</ele>
        <time>2021-07-22T09:08:04.000Z</time>
      </trkpt>
      <trkpt lat="42.86595" lon="0.20071">
        <ele>2697.8</ele>
        <time>2021-07-22T09:08:05.000Z</time>
      </trkpt>
      <trkpt lat="42.86595" lon="0.20071">
        <ele>2696.3</ele>
        <time>2021-07-22T09:08:10.000Z</time>
      </trkpt>
      <trkpt lat="42.86595" lon="0.20071">
        <ele>2697.3</ele>
        <time>2021-07-22T09:08:13.000Z</time>
      </trkpt>
      <trkpt lat="42.86595" lon="0.20071">
        <ele>2697.1</ele>
        <time>2021-07-22T09:08:14.000Z</time>
      </trkpt>
      <trkpt lat="42.86595" lon="0.20071">
        <ele>2696.8</ele>
        <time>2021-07-22T09:08:15.000Z</time>
      </trkpt>
      <trkpt lat="42.86595" lon="0.20071">
        <ele>2696.6</ele>
        <time>2021-07-22T09:08:16.000Z</time>
      </trkpt>
      <trkpt lat="42.86595" lon="0.20071">
        <ele>2696.9</ele>
        <time>2021-07-22T09:08:17.000Z</time>
      </trkpt>
      <trkpt lat="42.86595" lon="0.2007">
        <ele>2697.4</ele>
        <time>2021-07-22T09:09:02.000Z</time>
      </trkpt>
      <trkpt lat="42.86595" lon="0.2007">
        <ele>2697</ele>
        <time>2021-07-22T09:09:03.000Z</time>
      </trkpt>
      <trkpt lat="42.86595" lon="0.2007">
        <ele>2698</ele>
        <time>2021-07-22T09:09:08.000Z</time>
      </trkpt>
      <trkpt lat="42.86595" lon="0.2007">
        <ele>2698.2</ele>
        <time>2021-07-22T09:09:09.000Z</time>
      </trkpt>
      <trkpt lat="42.86595" lon="0.2007">
        <ele>2698.3</ele>
        <time>2021-07-22T09:09:13.000Z</time>
      </trkpt>
      <trkpt lat="42.86595" lon="0.2007">
        <ele>2698.3</ele>
        <time>2021-07-22T09:09:14.000Z</time>
      </trkpt>
      <trkpt lat="42.86596" lon="0.20071">
        <ele>2697.8</ele>
        <time>2021-07-22T09:09:24.000Z</time>
      </trkpt>
      <trkpt lat="42.86596" lon="0.20071">
        <ele>2698.4</ele>
        <time>2021-07-22T09:09:25.000Z</time>
      </trkpt>
      <trkpt lat="42.86595" lon="0.20071">
        <ele>2697.4</ele>
        <time>2021-07-22T09:09:32.000Z</time>
      </trkpt>
      <trkpt lat="42.86595" lon="0.2007">
        <ele>2696.9</ele>
        <time>2021-07-22T09:09:33.000Z</time>
      </trkpt>
      <trkpt lat="42.86595" lon="0.20071">
        <ele>2699.3</ele>
        <time>2021-07-22T09:09:55.000Z</time>
      </trkpt>
      <trkpt lat="42.86595" lon="0.20071">
        <ele>2699.1</ele>
        <time>2021-07-22T09:09:56.000Z</time>
      </trkpt>
      <trkpt lat="42.86595" lon="0.20071">
        <ele>2698.4</ele>
        <time>2021-07-22T09:09:57.000Z</time>
      </trkpt>
      <trkpt lat="42.86598" lon="0.2007">
        <ele>2698.9</ele>
        <time>2021-07-22T09:10:08.000Z</time>
      </trkpt>
      <trkpt lat="42.86598" lon="0.2007">
        <ele>2699.3</ele>
        <time>2021-07-22T09:10:15.000Z</time>
      </trkpt>
      <trkpt lat="42.86598" lon="0.2007">
        <ele>2699.1</ele>
        <time>2021-07-22T09:10:16.000Z</time>
      </trkpt>
      <trkpt lat="42.86598" lon="0.2007">
        <ele>2700.4</ele>
        <time>2021-07-22T09:10:25.000Z</time>
      </trkpt>
      <trkpt lat="42.86598" lon="0.20072">
        <ele>2700.1</ele>
        <time>2021-07-22T09:10:31.000Z</time>
      </trkpt>
      <trkpt lat="42.86598" lon="0.20072">
        <ele>2698.8</ele>
        <time>2021-07-22T09:10:35.000Z</time>
      </trkpt>
      <trkpt lat="42.86598" lon="0.20072">
        <ele>2698.6</ele>
        <time>2021-07-22T09:10:36.000Z</time>
      </trkpt>
      <trkpt lat="42.86598" lon="0.20072">
        <ele>2698.5</ele>
        <time>2021-07-22T09:10:37.000Z</time>
      </trkpt>
      <trkpt lat="42.86598" lon="0.20072">
        <ele>2698.7</ele>
        <time>2021-07-22T09:10:38.000Z</time>
      </trkpt>
      <trkpt lat="42.86598" lon="0.20072">
        <ele>2698.7</ele>
        <time>2021-07-22T09:10:46.000Z</time>
      </trkpt>
      <trkpt lat="42.86598" lon="0.20072">
        <ele>2698.8</ele>
        <time>2021-07-22T09:10:47.000Z</time>
      </trkpt>
      <trkpt lat="42.86598" lon="0.20071">
        <ele>2699.4</ele>
        <time>2021-07-22T09:12:09.000Z</time>
      </trkpt>
      <trkpt lat="42.86598" lon="0.20071">
        <ele>2699.1</ele>
        <time>2021-07-22T09:12:10.000Z</time>
      </trkpt>
      <trkpt lat="42.86598" lon="0.20071">
        <ele>2698.7</ele>
        <time>2021-07-22T09:12:11.000Z</time>
      </trkpt>
      <trkpt lat="42.86598" lon="0.2007">
        <ele>2699</ele>
        <time>2021-07-22T09:12:15.000Z</time>
      </trkpt>
      <trkpt lat="42.86598" lon="0.20069">
        <ele>2699.3</ele>
        <time>2021-07-22T09:12:17.000Z</time>
      </trkpt>
      <trkpt lat="42.86598" lon="0.20069">
        <ele>2699.4</ele>
        <time>2021-07-22T09:12:19.000Z</time>
      </trkpt>
      <trkpt lat="42.86598" lon="0.20069">
        <ele>2699.7</ele>
        <time>2021-07-22T09:12:28.000Z</time>
      </trkpt>
      <trkpt lat="42.86598" lon="0.20069">
        <ele>2699.6</ele>
        <time>2021-07-22T09:12:29.000Z</time>
      </trkpt>
      <trkpt lat="42.86598" lon="0.20068">
        <ele>2700</ele>
        <time>2021-07-22T09:12:33.000Z</time>
      </trkpt>
      <trkpt lat="42.86598" lon="0.20064">
        <ele>2699.8</ele>
        <time>2021-07-22T09:12:43.000Z</time>
      </trkpt>
      <trkpt lat="42.86598" lon="0.20064">
        <ele>2700</ele>
        <time>2021-07-22T09:12:45.000Z</time>
      </trkpt>
      <trkpt lat="42.86598" lon="0.20064">
        <ele>2700.1</ele>
        <time>2021-07-22T09:12:46.000Z</time>
      </trkpt>
      <trkpt lat="42.86599" lon="0.20064">
        <ele>2700.5</ele>
        <time>2021-07-22T09:12:53.000Z</time>
      </trkpt>
      <trkpt lat="42.86599" lon="0.20064">
        <ele>2700.7</ele>
        <time>2021-07-22T09:12:54.000Z</time>
      </trkpt>
      <trkpt lat="42.86599" lon="0.20064">
        <ele>2701.3</ele>
        <time>2021-07-22T09:12:58.000Z</time>
      </trkpt>
      <trkpt lat="42.86599" lon="0.20057">
        <ele>2701.2</ele>
        <time>2021-07-22T09:13:09.000Z</time>
      </trkpt>
      <trkpt lat="42.86599" lon="0.20056">
        <ele>2701.2</ele>
        <time>2021-07-22T09:13:10.000Z</time>
      </trkpt>
      <trkpt lat="42.86603" lon="0.20045">
        <ele>2700.4</ele>
        <time>2021-07-22T09:13:29.000Z</time>
      </trkpt>
      <trkpt lat="42.86604" lon="0.20044">
        <ele>2700.1</ele>
        <time>2021-07-22T09:13:34.000Z</time>
      </trkpt>
      <trkpt lat="42.86604" lon="0.20043">
        <ele>2699.5</ele>
        <time>2021-07-22T09:13:51.000Z</time>
      </trkpt>
      <trkpt lat="42.86609" lon="0.20034">
        <ele>2697.3</ele>
        <time>2021-07-22T09:14:24.000Z</time>
      </trkpt>
      <trkpt lat="42.86609" lon="0.20034">
        <ele>2697.4</ele>
        <time>2021-07-22T09:14:25.000Z</time>
      </trkpt>
      <trkpt lat="42.8661" lon="0.20031">
        <ele>2695.6</ele>
        <time>2021-07-22T09:14:45.000Z</time>
      </trkpt>
      <trkpt lat="42.8661" lon="0.20031">
        <ele>2695.6</ele>
        <time>2021-07-22T09:14:47.000Z</time>
      </trkpt>
      <trkpt lat="42.8661" lon="0.20031">
        <ele>2695.4</ele>
        <time>2021-07-22T09:14:48.000Z</time>
      </trkpt>
      <trkpt lat="42.8661" lon="0.20031">
        <ele>2695.1</ele>
        <time>2021-07-22T09:14:49.000Z</time>
      </trkpt>
      <trkpt lat="42.8661" lon="0.20032">
        <ele>2695</ele>
        <time>2021-07-22T09:14:52.000Z</time>
      </trkpt>
      <trkpt lat="42.8661" lon="0.20032">
        <ele>2693.5</ele>
        <time>2021-07-22T09:14:57.000Z</time>
      </trkpt>
      <trkpt lat="42.86611" lon="0.20032">
        <ele>2693.7</ele>
        <time>2021-07-22T09:15:07.000Z</time>
      </trkpt>
      <trkpt lat="42.86611" lon="0.20032">
        <ele>2693.2</ele>
        <time>2021-07-22T09:15:08.000Z</time>
      </trkpt>
      <trkpt lat="42.86611" lon="0.20032">
        <ele>2693.1</ele>
        <time>2021-07-22T09:15:10.000Z</time>
      </trkpt>
      <trkpt lat="42.86611" lon="0.20032">
        <ele>2693</ele>
        <time>2021-07-22T09:15:11.000Z</time>
      </trkpt>
      <trkpt lat="42.86611" lon="0.20032">
        <ele>2692.6</ele>
        <time>2021-07-22T09:15:12.000Z</time>
      </trkpt>
      <trkpt lat="42.86611" lon="0.20032">
        <ele>2692.4</ele>
        <time>2021-07-22T09:15:13.000Z</time>
      </trkpt>
      <trkpt lat="42.86611" lon="0.20032">
        <ele>2692.5</ele>
        <time>2021-07-22T09:15:14.000Z</time>
      </trkpt>
      <trkpt lat="42.86611" lon="0.20033">
        <ele>2692.3</ele>
        <time>2021-07-22T09:15:16.000Z</time>
      </trkpt>
      <trkpt lat="42.86611" lon="0.20033">
        <ele>2691.9</ele>
        <time>2021-07-22T09:15:17.000Z</time>
      </trkpt>
      <trkpt lat="42.86611" lon="0.20033">
        <ele>2691.8</ele>
        <time>2021-07-22T09:15:19.000Z</time>
      </trkpt>
      <trkpt lat="42.86612" lon="0.2004">
        <ele>2690.1</ele>
        <time>2021-07-22T09:15:35.000Z</time>
      </trkpt>
      <trkpt lat="42.86612" lon="0.2004">
        <ele>2690.3</ele>
        <time>2021-07-22T09:15:39.000Z</time>
      </trkpt>
      <trkpt lat="42.8662" lon="0.20032">
        <ele>2688.5</ele>
        <time>2021-07-22T09:16:00.000Z</time>
      </trkpt>
      <trkpt lat="42.8662" lon="0.20031">
        <ele>2688.8</ele>
        <time>2021-07-22T09:16:03.000Z</time>
      </trkpt>
      <trkpt lat="42.86619" lon="0.20031">
        <ele>2688.7</ele>
        <time>2021-07-22T09:16:04.000Z</time>
      </trkpt>
      <trkpt lat="42.86618" lon="0.20025">
        <ele>2687.4</ele>
        <time>2021-07-22T09:16:14.000Z</time>
      </trkpt>
      <trkpt lat="42.86618" lon="0.20025">
        <ele>2687.1</ele>
        <time>2021-07-22T09:16:15.000Z</time>
      </trkpt>
      <trkpt lat="42.8662" lon="0.20027">
        <ele>2685.7</ele>
        <time>2021-07-22T09:16:25.000Z</time>
      </trkpt>
      <trkpt lat="42.8662" lon="0.20027">
        <ele>2685.4</ele>
        <time>2021-07-22T09:16:27.000Z</time>
      </trkpt>
      <trkpt lat="42.8662" lon="0.20027">
        <ele>2685.5</ele>
        <time>2021-07-22T09:16:28.000Z</time>
      </trkpt>
      <trkpt lat="42.86621" lon="0.20028">
        <ele>2685.5</ele>
        <time>2021-07-22T09:16:29.000Z</time>
      </trkpt>
      <trkpt lat="42.86623" lon="0.20034">
        <ele>2684.1</ele>
        <time>2021-07-22T09:16:39.000Z</time>
      </trkpt>
      <trkpt lat="42.86623" lon="0.20034">
        <ele>2683.7</ele>
        <time>2021-07-22T09:16:40.000Z</time>
      </trkpt>
      <trkpt lat="42.86627" lon="0.20045">
        <ele>2681.2</ele>
        <time>2021-07-22T09:17:14.000Z</time>
      </trkpt>
      <trkpt lat="42.86627" lon="0.20048">
        <ele>2678.6</ele>
        <time>2021-07-22T09:17:21.000Z</time>
      </trkpt>
      <trkpt lat="42.86627" lon="0.20048">
        <ele>2678.8</ele>
        <time>2021-07-22T09:17:22.000Z</time>
      </trkpt>
      <trkpt lat="42.86627" lon="0.20052">
        <ele>2678</ele>
        <time>2021-07-22T09:17:33.000Z</time>
      </trkpt>
      <trkpt lat="42.86627" lon="0.20052">
        <ele>2677.9</ele>
        <time>2021-07-22T09:17:36.000Z</time>
      </trkpt>
      <trkpt lat="42.86627" lon="0.20052">
        <ele>2677.2</ele>
        <time>2021-07-22T09:17:40.000Z</time>
      </trkpt>
      <trkpt lat="42.86627" lon="0.20052">
        <ele>2677.3</ele>
        <time>2021-07-22T09:17:41.000Z</time>
      </trkpt>
      <trkpt lat="42.86627" lon="0.20052">
        <ele>2677.4</ele>
        <time>2021-07-22T09:17:42.000Z</time>
      </trkpt>
      <trkpt lat="42.86627" lon="0.20051">
        <ele>2677.3</ele>
        <time>2021-07-22T09:17:46.000Z</time>
      </trkpt>
      <trkpt lat="42.86627" lon="0.20051">
        <ele>2677.4</ele>
        <time>2021-07-22T09:17:47.000Z</time>
      </trkpt>
      <trkpt lat="42.86627" lon="0.20051">
        <ele>2677.2</ele>
        <time>2021-07-22T09:17:49.000Z</time>
      </trkpt>
      <trkpt lat="42.86627" lon="0.20051">
        <ele>2677.3</ele>
        <time>2021-07-22T09:17:50.000Z</time>
      </trkpt>
      <trkpt lat="42.86627" lon="0.20051">
        <ele>2677.7</ele>
        <time>2021-07-22T09:17:52.000Z</time>
      </trkpt>
      <trkpt lat="42.86627" lon="0.20051">
        <ele>2677.8</ele>
        <time>2021-07-22T09:17:53.000Z</time>
      </trkpt>
      <trkpt lat="42.86627" lon="0.2005">
        <ele>2677.6</ele>
        <time>2021-07-22T09:17:55.000Z</time>
      </trkpt>
      <trkpt lat="42.86628" lon="0.20049">
        <ele>2677.1</ele>
        <time>2021-07-22T09:18:01.000Z</time>
      </trkpt>
      <trkpt lat="42.86628" lon="0.2005">
        <ele>2677.5</ele>
        <time>2021-07-22T09:18:03.000Z</time>
      </trkpt>
      <trkpt lat="42.86628" lon="0.20051">
        <ele>2675.7</ele>
        <time>2021-07-22T09:18:12.000Z</time>
      </trkpt>
      <trkpt lat="42.86628" lon="0.20051">
        <ele>2675.4</ele>
        <time>2021-07-22T09:18:13.000Z</time>
      </trkpt>
      <trkpt lat="42.86627" lon="0.20052">
        <ele>2674.1</ele>
        <time>2021-07-22T09:18:20.000Z</time>
      </trkpt>
      <trkpt lat="42.86627" lon="0.20053">
        <ele>2674</ele>
        <time>2021-07-22T09:18:21.000Z</time>
      </trkpt>
      <trkpt lat="42.86626" lon="0.20058">
        <ele>2671.5</ele>
        <time>2021-07-22T09:18:34.000Z</time>
      </trkpt>
      <trkpt lat="42.86626" lon="0.20059">
        <ele>2671.3</ele>
        <time>2021-07-22T09:18:35.000Z</time>
      </trkpt>
      <trkpt lat="42.86626" lon="0.2006">
        <ele>2670.3</ele>
        <time>2021-07-22T09:18:40.000Z</time>
      </trkpt>
      <trkpt lat="42.86626" lon="0.20061">
        <ele>2670.2</ele>
        <time>2021-07-22T09:18:41.000Z</time>
      </trkpt>
      <trkpt lat="42.86629" lon="0.20074">
        <ele>2666.7</ele>
        <time>2021-07-22T09:18:56.000Z</time>
      </trkpt>
      <trkpt lat="42.86629" lon="0.20075">
        <ele>2666.1</ele>
        <time>2021-07-22T09:19:00.000Z</time>
      </trkpt>
      <trkpt lat="42.86629" lon="0.20076">
        <ele>2666.2</ele>
        <time>2021-07-22T09:19:01.000Z</time>
      </trkpt>
      <trkpt lat="42.86631" lon="0.20086">
        <ele>2664.3</ele>
        <time>2021-07-22T09:19:15.000Z</time>
      </trkpt>
      <trkpt lat="42.86631" lon="0.20086">
        <ele>2664.2</ele>
        <time>2021-07-22T09:19:16.000Z</time>
      </trkpt>
      <trkpt lat="42.86634" lon="0.20098">
        <ele>2660.6</ele>
        <time>2021-07-22T09:19:32.000Z</time>
      </trkpt>
      <trkpt lat="42.86638" lon="0.20111">
        <ele>2657.9</ele>
        <time>2021-07-22T09:19:48.000Z</time>
      </trkpt>
      <trkpt lat="42.86638" lon="0.20112">
        <ele>2658.1</ele>
        <time>2021-07-22T09:19:51.000Z</time>
      </trkpt>
      <trkpt lat="42.86637" lon="0.20112">
        <ele>2658.3</ele>
        <time>2021-07-22T09:19:53.000Z</time>
      </trkpt>
      <trkpt lat="42.86637" lon="0.20112">
        <ele>2657.8</ele>
        <time>2021-07-22T09:19:54.000Z</time>
      </trkpt>
      <trkpt lat="42.86637" lon="0.20112">
        <ele>2657.1</ele>
        <time>2021-07-22T09:19:56.000Z</time>
      </trkpt>
      <trkpt lat="42.86646" lon="0.20117">
        <ele>2657.9</ele>
        <time>2021-07-22T09:20:14.000Z</time>
      </trkpt>
      <trkpt lat="42.86646" lon="0.2013">
        <ele>2655.2</ele>
        <time>2021-07-22T09:20:28.000Z</time>
      </trkpt>
      <trkpt lat="42.86644" lon="0.20143">
        <ele>2654.1</ele>
        <time>2021-07-22T09:20:36.000Z</time>
      </trkpt>
      <trkpt lat="42.86649" lon="0.20153">
        <ele>2653.2</ele>
        <time>2021-07-22T09:20:53.000Z</time>
      </trkpt>
      <trkpt lat="42.86659" lon="0.20154">
        <ele>2650.2</ele>
        <time>2021-07-22T09:21:11.000Z</time>
      </trkpt>
      <trkpt lat="42.86668" lon="0.20156">
        <ele>2646.8</ele>
        <time>2021-07-22T09:21:25.000Z</time>
      </trkpt>
      <trkpt lat="42.86668" lon="0.20156">
        <ele>2646.9</ele>
        <time>2021-07-22T09:21:26.000Z</time>
      </trkpt>
      <trkpt lat="42.86668" lon="0.20156">
        <ele>2646.7</ele>
        <time>2021-07-22T09:21:27.000Z</time>
      </trkpt>
      <trkpt lat="42.86668" lon="0.20156">
        <ele>2646.3</ele>
        <time>2021-07-22T09:21:29.000Z</time>
      </trkpt>
      <trkpt lat="42.86675" lon="0.20165">
        <ele>2643.3</ele>
        <time>2021-07-22T09:21:44.000Z</time>
      </trkpt>
      <trkpt lat="42.86684" lon="0.20166">
        <ele>2641.3</ele>
        <time>2021-07-22T09:21:54.000Z</time>
      </trkpt>
      <trkpt lat="42.8669" lon="0.20176">
        <ele>2639</ele>
        <time>2021-07-22T09:22:12.000Z</time>
      </trkpt>
      <trkpt lat="42.8669" lon="0.20177">
        <ele>2640</ele>
        <time>2021-07-22T09:22:14.000Z</time>
      </trkpt>
      <trkpt lat="42.86689" lon="0.20177">
        <ele>2640.2</ele>
        <time>2021-07-22T09:22:15.000Z</time>
      </trkpt>
      <trkpt lat="42.86689" lon="0.20177">
        <ele>2640.4</ele>
        <time>2021-07-22T09:22:16.000Z</time>
      </trkpt>
      <trkpt lat="42.8669" lon="0.20178">
        <ele>2640.3</ele>
        <time>2021-07-22T09:22:17.000Z</time>
      </trkpt>
      <trkpt lat="42.8669" lon="0.20178">
        <ele>2639.5</ele>
        <time>2021-07-22T09:22:20.000Z</time>
      </trkpt>
      <trkpt lat="42.8669" lon="0.20179">
        <ele>2639.4</ele>
        <time>2021-07-22T09:22:21.000Z</time>
      </trkpt>
      <trkpt lat="42.86689" lon="0.20179">
        <ele>2639.3</ele>
        <time>2021-07-22T09:22:23.000Z</time>
      </trkpt>
      <trkpt lat="42.8669" lon="0.20179">
        <ele>2639.6</ele>
        <time>2021-07-22T09:22:27.000Z</time>
      </trkpt>
      <trkpt lat="42.8669" lon="0.20179">
        <ele>2639.4</ele>
        <time>2021-07-22T09:22:29.000Z</time>
      </trkpt>
      <trkpt lat="42.8669" lon="0.20179">
        <ele>2639.1</ele>
        <time>2021-07-22T09:22:31.000Z</time>
      </trkpt>
      <trkpt lat="42.86681" lon="0.20184">
        <ele>2636.9</ele>
        <time>2021-07-22T09:22:44.000Z</time>
      </trkpt>
      <trkpt lat="42.86687" lon="0.20195">
        <ele>2633</ele>
        <time>2021-07-22T09:23:03.000Z</time>
      </trkpt>
      <trkpt lat="42.86693" lon="0.20205">
        <ele>2630</ele>
        <time>2021-07-22T09:23:17.000Z</time>
      </trkpt>
      <trkpt lat="42.86696" lon="0.20217">
        <ele>2626.2</ele>
        <time>2021-07-22T09:23:32.000Z</time>
      </trkpt>
      <trkpt lat="42.86699" lon="0.20228">
        <ele>2622.6</ele>
        <time>2021-07-22T09:23:47.000Z</time>
      </trkpt>
      <trkpt lat="42.86699" lon="0.20227">
        <ele>2622.2</ele>
        <time>2021-07-22T09:23:48.000Z</time>
      </trkpt>
      <trkpt lat="42.86699" lon="0.20227">
        <ele>2621.6</ele>
        <time>2021-07-22T09:23:49.000Z</time>
      </trkpt>
      <trkpt lat="42.86699" lon="0.20227">
        <ele>2621</ele>
        <time>2021-07-22T09:23:50.000Z</time>
      </trkpt>
      <trkpt lat="42.86699" lon="0.20227">
        <ele>2620.6</ele>
        <time>2021-07-22T09:23:52.000Z</time>
      </trkpt>
      <trkpt lat="42.86699" lon="0.20227">
        <ele>2620.4</ele>
        <time>2021-07-22T09:23:53.000Z</time>
      </trkpt>
      <trkpt lat="42.86703" lon="0.20238">
        <ele>2616</ele>
        <time>2021-07-22T09:24:11.000Z</time>
      </trkpt>
      <trkpt lat="42.86702" lon="0.2025">
        <ele>2613.8</ele>
        <time>2021-07-22T09:24:22.000Z</time>
      </trkpt>
      <trkpt lat="42.86702" lon="0.2025">
        <ele>2613.5</ele>
        <time>2021-07-22T09:24:29.000Z</time>
      </trkpt>
      <trkpt lat="42.86697" lon="0.20261">
        <ele>2608.7</ele>
        <time>2021-07-22T09:24:46.000Z</time>
      </trkpt>
      <trkpt lat="42.86696" lon="0.20273">
        <ele>2604.2</ele>
        <time>2021-07-22T09:25:02.000Z</time>
      </trkpt>
      <trkpt lat="42.86693" lon="0.20285">
        <ele>2598.5</ele>
        <time>2021-07-22T09:25:26.000Z</time>
      </trkpt>
      <trkpt lat="42.86691" lon="0.20297">
        <ele>2593.1</ele>
        <time>2021-07-22T09:25:49.000Z</time>
      </trkpt>
      <trkpt lat="42.86691" lon="0.20297">
        <ele>2592.7</ele>
        <time>2021-07-22T09:25:50.000Z</time>
      </trkpt>
      <trkpt lat="42.8669" lon="0.203">
        <ele>2590.7</ele>
        <time>2021-07-22T09:25:56.000Z</time>
      </trkpt>
      <trkpt lat="42.8669" lon="0.203">
        <ele>2590.3</ele>
        <time>2021-07-22T09:25:57.000Z</time>
      </trkpt>
      <trkpt lat="42.86684" lon="0.20311">
        <ele>2586.5</ele>
        <time>2021-07-22T09:26:15.000Z</time>
      </trkpt>
      <trkpt lat="42.86681" lon="0.20322">
        <ele>2583.9</ele>
        <time>2021-07-22T09:26:28.000Z</time>
      </trkpt>
      <trkpt lat="42.86682" lon="0.20335">
        <ele>2581.9</ele>
        <time>2021-07-22T09:26:35.000Z</time>
      </trkpt>
      <trkpt lat="42.86688" lon="0.20344">
        <ele>2579.1</ele>
        <time>2021-07-22T09:26:48.000Z</time>
      </trkpt>
      <trkpt lat="42.86691" lon="0.20356">
        <ele>2576.2</ele>
        <time>2021-07-22T09:26:58.000Z</time>
      </trkpt>
      <trkpt lat="42.86695" lon="0.20368">
        <ele>2574.3</ele>
        <time>2021-07-22T09:27:08.000Z</time>
      </trkpt>
      <trkpt lat="42.86697" lon="0.20381">
        <ele>2571.5</ele>
        <time>2021-07-22T09:27:18.000Z</time>
      </trkpt>
      <trkpt lat="42.86698" lon="0.20394">
        <ele>2569.9</ele>
        <time>2021-07-22T09:27:33.000Z</time>
      </trkpt>
      <trkpt lat="42.867" lon="0.20406">
        <ele>2568</ele>
        <time>2021-07-22T09:27:44.000Z</time>
      </trkpt>
      <trkpt lat="42.86701" lon="0.20419">
        <ele>2567.1</ele>
        <time>2021-07-22T09:27:52.000Z</time>
      </trkpt>
      <trkpt lat="42.86702" lon="0.20432">
        <ele>2565.6</ele>
        <time>2021-07-22T09:28:07.000Z</time>
      </trkpt>
      <trkpt lat="42.86701" lon="0.20444">
        <ele>2562.8</ele>
        <time>2021-07-22T09:28:22.000Z</time>
      </trkpt>
      <trkpt lat="42.86702" lon="0.20457">
        <ele>2559.3</ele>
        <time>2021-07-22T09:28:33.000Z</time>
      </trkpt>
      <trkpt lat="42.86703" lon="0.20469">
        <ele>2556.7</ele>
        <time>2021-07-22T09:28:43.000Z</time>
      </trkpt>
      <trkpt lat="42.86703" lon="0.20475">
        <ele>2553.6</ele>
        <time>2021-07-22T09:28:51.000Z</time>
      </trkpt>
      <trkpt lat="42.86703" lon="0.20475">
        <ele>2553.2</ele>
        <time>2021-07-22T09:28:52.000Z</time>
      </trkpt>
      <trkpt lat="42.86702" lon="0.20488">
        <ele>2549.2</ele>
        <time>2021-07-22T09:29:06.000Z</time>
      </trkpt>
      <trkpt lat="42.86704" lon="0.205">
        <ele>2546.6</ele>
        <time>2021-07-22T09:29:15.000Z</time>
      </trkpt>
      <trkpt lat="42.86705" lon="0.20509">
        <ele>2543.9</ele>
        <time>2021-07-22T09:29:25.000Z</time>
      </trkpt>
      <trkpt lat="42.86705" lon="0.20508">
        <ele>2543.4</ele>
        <time>2021-07-22T09:29:27.000Z</time>
      </trkpt>
      <trkpt lat="42.86705" lon="0.20509">
        <ele>2543.1</ele>
        <time>2021-07-22T09:29:28.000Z</time>
      </trkpt>
      <trkpt lat="42.86705" lon="0.20509">
        <ele>2543.1</ele>
        <time>2021-07-22T09:29:29.000Z</time>
      </trkpt>
      <trkpt lat="42.86704" lon="0.20522">
        <ele>2540.8</ele>
        <time>2021-07-22T09:29:43.000Z</time>
      </trkpt>
      <trkpt lat="42.86705" lon="0.20535">
        <ele>2538.2</ele>
        <time>2021-07-22T09:29:52.000Z</time>
      </trkpt>
      <trkpt lat="42.86707" lon="0.20547">
        <ele>2537.9</ele>
        <time>2021-07-22T09:29:58.000Z</time>
      </trkpt>
      <trkpt lat="42.86711" lon="0.20558">
        <ele>2537.7</ele>
        <time>2021-07-22T09:30:11.000Z</time>
      </trkpt>
      <trkpt lat="42.86718" lon="0.20567">
        <ele>2535.5</ele>
        <time>2021-07-22T09:30:26.000Z</time>
      </trkpt>
      <trkpt lat="42.86718" lon="0.20579">
        <ele>2532.3</ele>
        <time>2021-07-22T09:30:38.000Z</time>
      </trkpt>
      <trkpt lat="42.86723" lon="0.20591">
        <ele>2529.7</ele>
        <time>2021-07-22T09:30:47.000Z</time>
      </trkpt>
      <trkpt lat="42.86721" lon="0.20603">
        <ele>2526.6</ele>
        <time>2021-07-22T09:30:56.000Z</time>
      </trkpt>
      <trkpt lat="42.8672" lon="0.20616">
        <ele>2525.1</ele>
        <time>2021-07-22T09:31:11.000Z</time>
      </trkpt>
      <trkpt lat="42.86721" lon="0.20622">
        <ele>2524.1</ele>
        <time>2021-07-22T09:31:23.000Z</time>
      </trkpt>
      <trkpt lat="42.86721" lon="0.20623">
        <ele>2523.8</ele>
        <time>2021-07-22T09:31:31.000Z</time>
      </trkpt>
      <trkpt lat="42.86719" lon="0.2063">
        <ele>2523.3</ele>
        <time>2021-07-22T09:31:43.000Z</time>
      </trkpt>
      <trkpt lat="42.86719" lon="0.2063">
        <ele>2524</ele>
        <time>2021-07-22T09:31:48.000Z</time>
      </trkpt>
      <trkpt lat="42.8672" lon="0.20634">
        <ele>2523</ele>
        <time>2021-07-22T09:31:56.000Z</time>
      </trkpt>
      <trkpt lat="42.8672" lon="0.20634">
        <ele>2523.3</ele>
        <time>2021-07-22T09:31:59.000Z</time>
      </trkpt>
      <trkpt lat="42.8672" lon="0.20635">
        <ele>2523.5</ele>
        <time>2021-07-22T09:32:00.000Z</time>
      </trkpt>
      <trkpt lat="42.8672" lon="0.20635">
        <ele>2523.7</ele>
        <time>2021-07-22T09:32:01.000Z</time>
      </trkpt>
      <trkpt lat="42.86721" lon="0.2064">
        <ele>2522.8</ele>
        <time>2021-07-22T09:32:12.000Z</time>
      </trkpt>
      <trkpt lat="42.86721" lon="0.2064">
        <ele>2522.9</ele>
        <time>2021-07-22T09:32:14.000Z</time>
      </trkpt>
      <trkpt lat="42.86725" lon="0.20651">
        <ele>2519.6</ele>
        <time>2021-07-22T09:32:28.000Z</time>
      </trkpt>
      <trkpt lat="42.86727" lon="0.20664">
        <ele>2520.8</ele>
        <time>2021-07-22T09:32:37.000Z</time>
      </trkpt>
      <trkpt lat="42.86725" lon="0.20675">
        <ele>2519.5</ele>
        <time>2021-07-22T09:32:46.000Z</time>
      </trkpt>
      <trkpt lat="42.86725" lon="0.20675">
        <ele>2519.4</ele>
        <time>2021-07-22T09:32:47.000Z</time>
      </trkpt>
      <trkpt lat="42.86728" lon="0.20682">
        <ele>2516.4</ele>
        <time>2021-07-22T09:33:06.000Z</time>
      </trkpt>
      <trkpt lat="42.86728" lon="0.20683">
        <ele>2516</ele>
        <time>2021-07-22T09:33:08.000Z</time>
      </trkpt>
      <trkpt lat="42.86737" lon="0.20687">
        <ele>2512.8</ele>
        <time>2021-07-22T09:33:29.000Z</time>
      </trkpt>
      <trkpt lat="42.86738" lon="0.20689">
        <ele>2511.6</ele>
        <time>2021-07-22T09:33:34.000Z</time>
      </trkpt>
      <trkpt lat="42.86739" lon="0.20689">
        <ele>2511.2</ele>
        <time>2021-07-22T09:33:35.000Z</time>
      </trkpt>
      <trkpt lat="42.86747" lon="0.20694">
        <ele>2508.1</ele>
        <time>2021-07-22T09:33:50.000Z</time>
      </trkpt>
      <trkpt lat="42.86757" lon="0.20696">
        <ele>2505.1</ele>
        <time>2021-07-22T09:34:04.000Z</time>
      </trkpt>
      <trkpt lat="42.86766" lon="0.20699">
        <ele>2502.7</ele>
        <time>2021-07-22T09:34:14.000Z</time>
      </trkpt>
      <trkpt lat="42.86775" lon="0.20702">
        <ele>2499.1</ele>
        <time>2021-07-22T09:34:25.000Z</time>
      </trkpt>
      <trkpt lat="42.86778" lon="0.20703">
        <ele>2498.4</ele>
        <time>2021-07-22T09:34:31.000Z</time>
      </trkpt>
      <trkpt lat="42.86779" lon="0.20703">
        <ele>2497.9</ele>
        <time>2021-07-22T09:34:32.000Z</time>
      </trkpt>
      <trkpt lat="42.86788" lon="0.20702">
        <ele>2495</ele>
        <time>2021-07-22T09:34:43.000Z</time>
      </trkpt>
      <trkpt lat="42.86797" lon="0.20705">
        <ele>2491.5</ele>
        <time>2021-07-22T09:34:55.000Z</time>
      </trkpt>
      <trkpt lat="42.86805" lon="0.20707">
        <ele>2488</ele>
        <time>2021-07-22T09:35:09.000Z</time>
      </trkpt>
      <trkpt lat="42.86805" lon="0.20707">
        <ele>2487.5</ele>
        <time>2021-07-22T09:35:10.000Z</time>
      </trkpt>
      <trkpt lat="42.86813" lon="0.20715">
        <ele>2485.4</ele>
        <time>2021-07-22T09:35:19.000Z</time>
      </trkpt>
      <trkpt lat="42.86822" lon="0.20716">
        <ele>2484.2</ele>
        <time>2021-07-22T09:35:28.000Z</time>
      </trkpt>
      <trkpt lat="42.86829" lon="0.20725">
        <ele>2481.4</ele>
        <time>2021-07-22T09:35:42.000Z</time>
      </trkpt>
      <trkpt lat="42.86837" lon="0.20719">
        <ele>2479.7</ele>
        <time>2021-07-22T09:35:53.000Z</time>
      </trkpt>
      <trkpt lat="42.86837" lon="0.20719">
        <ele>2479.5</ele>
        <time>2021-07-22T09:35:56.000Z</time>
      </trkpt>
      <trkpt lat="42.86837" lon="0.20719">
        <ele>2479.3</ele>
        <time>2021-07-22T09:35:59.000Z</time>
      </trkpt>
      <trkpt lat="42.86829" lon="0.20719">
        <ele>2478.7</ele>
        <time>2021-07-22T09:36:08.000Z</time>
      </trkpt>
      <trkpt lat="42.86829" lon="0.20719">
        <ele>2478.6</ele>
        <time>2021-07-22T09:36:09.000Z</time>
      </trkpt>
      <trkpt lat="42.86828" lon="0.20719">
        <ele>2478.8</ele>
        <time>2021-07-22T09:36:11.000Z</time>
      </trkpt>
      <trkpt lat="42.86828" lon="0.20719">
        <ele>2478.9</ele>
        <time>2021-07-22T09:36:19.000Z</time>
      </trkpt>
      <trkpt lat="42.86828" lon="0.20719">
        <ele>2479</ele>
        <time>2021-07-22T09:36:20.000Z</time>
      </trkpt>
      <trkpt lat="42.86828" lon="0.20719">
        <ele>2478.9</ele>
        <time>2021-07-22T09:36:30.000Z</time>
      </trkpt>
      <trkpt lat="42.86828" lon="0.20718">
        <ele>2479</ele>
        <time>2021-07-22T09:36:33.000Z</time>
      </trkpt>
      <trkpt lat="42.86827" lon="0.20718">
        <ele>2479.1</ele>
        <time>2021-07-22T09:36:36.000Z</time>
      </trkpt>
      <trkpt lat="42.86826" lon="0.20716">
        <ele>2478.8</ele>
        <time>2021-07-22T09:36:42.000Z</time>
      </trkpt>
      <trkpt lat="42.86826" lon="0.20716">
        <ele>2479</ele>
        <time>2021-07-22T09:36:58.000Z</time>
      </trkpt>
      <trkpt lat="42.86826" lon="0.20716">
        <ele>2479.1</ele>
        <time>2021-07-22T09:36:59.000Z</time>
      </trkpt>
      <trkpt lat="42.86826" lon="0.20716">
        <ele>2479.5</ele>
        <time>2021-07-22T09:37:02.000Z</time>
      </trkpt>
      <trkpt lat="42.86826" lon="0.20716">
        <ele>2479.4</ele>
        <time>2021-07-22T09:37:03.000Z</time>
      </trkpt>
      <trkpt lat="42.86826" lon="0.20716">
        <ele>2479.6</ele>
        <time>2021-07-22T09:37:11.000Z</time>
      </trkpt>
      <trkpt lat="42.86826" lon="0.20716">
        <ele>2479.7</ele>
        <time>2021-07-22T09:37:12.000Z</time>
      </trkpt>
      <trkpt lat="42.86825" lon="0.20716">
        <ele>2479.7</ele>
        <time>2021-07-22T09:37:16.000Z</time>
      </trkpt>
      <trkpt lat="42.86825" lon="0.20716">
        <ele>2479.4</ele>
        <time>2021-07-22T09:37:21.000Z</time>
      </trkpt>
      <trkpt lat="42.86825" lon="0.20717">
        <ele>2479.5</ele>
        <time>2021-07-22T09:37:23.000Z</time>
      </trkpt>
      <trkpt lat="42.86834" lon="0.20714">
        <ele>2477.9</ele>
        <time>2021-07-22T09:37:37.000Z</time>
      </trkpt>
      <trkpt lat="42.86843" lon="0.20714">
        <ele>2477.1</ele>
        <time>2021-07-22T09:37:46.000Z</time>
      </trkpt>
      <trkpt lat="42.86853" lon="0.20716">
        <ele>2475.1</ele>
        <time>2021-07-22T09:37:57.000Z</time>
      </trkpt>
      <trkpt lat="42.8686" lon="0.20708">
        <ele>2472.5</ele>
        <time>2021-07-22T09:38:11.000Z</time>
      </trkpt>
      <trkpt lat="42.86869" lon="0.20713">
        <ele>2467.9</ele>
        <time>2021-07-22T09:38:35.000Z</time>
      </trkpt>
      <trkpt lat="42.86877" lon="0.20708">
        <ele>2463.6</ele>
        <time>2021-07-22T09:38:52.000Z</time>
      </trkpt>
      <trkpt lat="42.86877" lon="0.20707">
        <ele>2463.6</ele>
        <time>2021-07-22T09:38:53.000Z</time>
      </trkpt>
      <trkpt lat="42.86885" lon="0.20702">
        <ele>2460.3</ele>
        <time>2021-07-22T09:39:07.000Z</time>
      </trkpt>
      <trkpt lat="42.86891" lon="0.20691">
        <ele>2457.8</ele>
        <time>2021-07-22T09:39:20.000Z</time>
      </trkpt>
      <trkpt lat="42.86897" lon="0.2068">
        <ele>2454.9</ele>
        <time>2021-07-22T09:39:32.000Z</time>
      </trkpt>
      <trkpt lat="42.86906" lon="0.20677">
        <ele>2449.6</ele>
        <time>2021-07-22T09:39:51.000Z</time>
      </trkpt>
      <trkpt lat="42.8691" lon="0.20677">
        <ele>2448.4</ele>
        <time>2021-07-22T09:39:58.000Z</time>
      </trkpt>
      <trkpt lat="42.8691" lon="0.20678">
        <ele>2448.1</ele>
        <time>2021-07-22T09:39:59.000Z</time>
      </trkpt>
      <trkpt lat="42.8692" lon="0.20679">
        <ele>2444.5</ele>
        <time>2021-07-22T09:40:16.000Z</time>
      </trkpt>
      <trkpt lat="42.86929" lon="0.2068">
        <ele>2441.9</ele>
        <time>2021-07-22T09:40:25.000Z</time>
      </trkpt>
      <trkpt lat="42.86938" lon="0.20683">
        <ele>2439.7</ele>
        <time>2021-07-22T09:40:33.000Z</time>
      </trkpt>
      <trkpt lat="42.86946" lon="0.2069">
        <ele>2436.5</ele>
        <time>2021-07-22T09:40:47.000Z</time>
      </trkpt>
      <trkpt lat="42.86953" lon="0.20699">
        <ele>2434.1</ele>
        <time>2021-07-22T09:40:56.000Z</time>
      </trkpt>
      <trkpt lat="42.8696" lon="0.20706">
        <ele>2432.8</ele>
        <time>2021-07-22T09:41:04.000Z</time>
      </trkpt>
      <trkpt lat="42.8697" lon="0.20706">
        <ele>2433</ele>
        <time>2021-07-22T09:41:18.000Z</time>
      </trkpt>
      <trkpt lat="42.86978" lon="0.20698">
        <ele>2432.9</ele>
        <time>2021-07-22T09:41:29.000Z</time>
      </trkpt>
      <trkpt lat="42.86985" lon="0.2069">
        <ele>2433</ele>
        <time>2021-07-22T09:41:36.000Z</time>
      </trkpt>
      <trkpt lat="42.86989" lon="0.20679">
        <ele>2431.6</ele>
        <time>2021-07-22T09:41:44.000Z</time>
      </trkpt>
      <trkpt lat="42.86992" lon="0.20666">
        <ele>2430</ele>
        <time>2021-07-22T09:41:53.000Z</time>
      </trkpt>
      <trkpt lat="42.87" lon="0.2066">
        <ele>2428.8</ele>
        <time>2021-07-22T09:42:04.000Z</time>
      </trkpt>
      <trkpt lat="42.87008" lon="0.20653">
        <ele>2428.8</ele>
        <time>2021-07-22T09:42:13.000Z</time>
      </trkpt>
      <trkpt lat="42.87011" lon="0.2064">
        <ele>2428.9</ele>
        <time>2021-07-22T09:42:20.000Z</time>
      </trkpt>
      <trkpt lat="42.87016" lon="0.2063">
        <ele>2429.1</ele>
        <time>2021-07-22T09:42:28.000Z</time>
      </trkpt>
      <trkpt lat="42.87021" lon="0.20623">
        <ele>2430.3</ele>
        <time>2021-07-22T09:42:40.000Z</time>
      </trkpt>
      <trkpt lat="42.87021" lon="0.20623">
        <ele>2430.3</ele>
        <time>2021-07-22T09:42:42.000Z</time>
      </trkpt>
      <trkpt lat="42.87021" lon="0.20623">
        <ele>2430.3</ele>
        <time>2021-07-22T09:42:45.000Z</time>
      </trkpt>
      <trkpt lat="42.87021" lon="0.20624">
        <ele>2429.8</ele>
        <time>2021-07-22T09:43:00.000Z</time>
      </trkpt>
      <trkpt lat="42.87021" lon="0.20624">
        <ele>2429.8</ele>
        <time>2021-07-22T09:43:01.000Z</time>
      </trkpt>
      <trkpt lat="42.87022" lon="0.20623">
        <ele>2429.8</ele>
        <time>2021-07-22T09:43:02.000Z</time>
      </trkpt>
      <trkpt lat="42.8703" lon="0.20618">
        <ele>2429.2</ele>
        <time>2021-07-22T09:43:12.000Z</time>
      </trkpt>
      <trkpt lat="42.87035" lon="0.20607">
        <ele>2428.1</ele>
        <time>2021-07-22T09:43:22.000Z</time>
      </trkpt>
      <trkpt lat="42.8703" lon="0.20597">
        <ele>2428.3</ele>
        <time>2021-07-22T09:43:31.000Z</time>
      </trkpt>
      <trkpt lat="42.87036" lon="0.20586">
        <ele>2427.7</ele>
        <time>2021-07-22T09:43:42.000Z</time>
      </trkpt>
      <trkpt lat="42.87038" lon="0.2058">
        <ele>2428.2</ele>
        <time>2021-07-22T09:43:49.000Z</time>
      </trkpt>
      <trkpt lat="42.87038" lon="0.20579">
        <ele>2428.1</ele>
        <time>2021-07-22T09:43:57.000Z</time>
      </trkpt>
      <trkpt lat="42.87035" lon="0.20578">
        <ele>2427.8</ele>
        <time>2021-07-22T09:44:00.000Z</time>
      </trkpt>
      <trkpt lat="42.87035" lon="0.20578">
        <ele>2428.1</ele>
        <time>2021-07-22T09:44:02.000Z</time>
      </trkpt>
      <trkpt lat="42.87035" lon="0.20578">
        <ele>2428.3</ele>
        <time>2021-07-22T09:44:03.000Z</time>
      </trkpt>
      <trkpt lat="42.87035" lon="0.20578">
        <ele>2428.1</ele>
        <time>2021-07-22T09:44:08.000Z</time>
      </trkpt>
      <trkpt lat="42.87035" lon="0.20578">
        <ele>2428.1</ele>
        <time>2021-07-22T09:44:09.000Z</time>
      </trkpt>
      <trkpt lat="42.87035" lon="0.20578">
        <ele>2427.4</ele>
        <time>2021-07-22T09:44:14.000Z</time>
      </trkpt>
      <trkpt lat="42.87044" lon="0.20579">
        <ele>2428.2</ele>
        <time>2021-07-22T09:44:29.000Z</time>
      </trkpt>
      <trkpt lat="42.87052" lon="0.20576">
        <ele>2428.3</ele>
        <time>2021-07-22T09:44:39.000Z</time>
      </trkpt>
      <trkpt lat="42.87052" lon="0.20575">
        <ele>2427.6</ele>
        <time>2021-07-22T09:44:46.000Z</time>
      </trkpt>
      <trkpt lat="42.87061" lon="0.20574">
        <ele>2427.4</ele>
        <time>2021-07-22T09:44:54.000Z</time>
      </trkpt>
      <trkpt lat="42.8707" lon="0.20566">
        <ele>2427.9</ele>
        <time>2021-07-22T09:45:02.000Z</time>
      </trkpt>
      <trkpt lat="42.87078" lon="0.20559">
        <ele>2428.4</ele>
        <time>2021-07-22T09:45:09.000Z</time>
      </trkpt>
      <trkpt lat="42.87086" lon="0.20551">
        <ele>2428.5</ele>
        <time>2021-07-22T09:45:17.000Z</time>
      </trkpt>
      <trkpt lat="42.87093" lon="0.20542">
        <ele>2429.4</ele>
        <time>2021-07-22T09:45:25.000Z</time>
      </trkpt>
      <trkpt lat="42.87095" lon="0.20543">
        <ele>2429.5</ele>
        <time>2021-07-22T09:45:32.000Z</time>
      </trkpt>
      <trkpt lat="42.87096" lon="0.20543">
        <ele>2429.3</ele>
        <time>2021-07-22T09:45:33.000Z</time>
      </trkpt>
      <trkpt lat="42.87105" lon="0.2054">
        <ele>2429.2</ele>
        <time>2021-07-22T09:45:42.000Z</time>
      </trkpt>
      <trkpt lat="42.87115" lon="0.2054">
        <ele>2428</ele>
        <time>2021-07-22T09:45:52.000Z</time>
      </trkpt>
      <trkpt lat="42.87124" lon="0.20539">
        <ele>2428.6</ele>
        <time>2021-07-22T09:45:59.000Z</time>
      </trkpt>
      <trkpt lat="42.87134" lon="0.20541">
        <ele>2428.1</ele>
        <time>2021-07-22T09:46:07.000Z</time>
      </trkpt>
      <trkpt lat="42.87144" lon="0.2054">
        <ele>2428.3</ele>
        <time>2021-07-22T09:46:14.000Z</time>
      </trkpt>
      <trkpt lat="42.87152" lon="0.20534">
        <ele>2428.6</ele>
        <time>2021-07-22T09:46:22.000Z</time>
      </trkpt>
      <trkpt lat="42.8716" lon="0.20526">
        <ele>2429.4</ele>
        <time>2021-07-22T09:46:32.000Z</time>
      </trkpt>
      <trkpt lat="42.87168" lon="0.20532">
        <ele>2430.9</ele>
        <time>2021-07-22T09:46:44.000Z</time>
      </trkpt>
      <trkpt lat="42.87176" lon="0.20538">
        <ele>2429.8</ele>
        <time>2021-07-22T09:46:52.000Z</time>
      </trkpt>
      <trkpt lat="42.87186" lon="0.20542">
        <ele>2428.4</ele>
        <time>2021-07-22T09:47:02.000Z</time>
      </trkpt>
      <trkpt lat="42.87195" lon="0.20538">
        <ele>2427</ele>
        <time>2021-07-22T09:47:09.000Z</time>
      </trkpt>
      <trkpt lat="42.87204" lon="0.20533">
        <ele>2426.8</ele>
        <time>2021-07-22T09:47:17.000Z</time>
      </trkpt>
      <trkpt lat="42.87212" lon="0.20527">
        <ele>2426.5</ele>
        <time>2021-07-22T09:47:24.000Z</time>
      </trkpt>
      <trkpt lat="42.87221" lon="0.20524">
        <ele>2426.9</ele>
        <time>2021-07-22T09:47:32.000Z</time>
      </trkpt>
      <trkpt lat="42.87231" lon="0.20522">
        <ele>2427.4</ele>
        <time>2021-07-22T09:47:40.000Z</time>
      </trkpt>
      <trkpt lat="42.8723" lon="0.20521">
        <ele>2427</ele>
        <time>2021-07-22T09:47:47.000Z</time>
      </trkpt>
      <trkpt lat="42.8723" lon="0.20521">
        <ele>2426.9</ele>
        <time>2021-07-22T09:47:48.000Z</time>
      </trkpt>
      <trkpt lat="42.87239" lon="0.20527">
        <ele>2426.2</ele>
        <time>2021-07-22T09:47:58.000Z</time>
      </trkpt>
      <trkpt lat="42.87248" lon="0.20532">
        <ele>2425.2</ele>
        <time>2021-07-22T09:48:06.000Z</time>
      </trkpt>
      <trkpt lat="42.87257" lon="0.20533">
        <ele>2425</ele>
        <time>2021-07-22T09:48:15.000Z</time>
      </trkpt>
      <trkpt lat="42.87265" lon="0.2054">
        <ele>2424.5</ele>
        <time>2021-07-22T09:48:24.000Z</time>
      </trkpt>
      <trkpt lat="42.87273" lon="0.20548">
        <ele>2424.3</ele>
        <time>2021-07-22T09:48:34.000Z</time>
      </trkpt>
      <trkpt lat="42.87282" lon="0.20547">
        <ele>2425.9</ele>
        <time>2021-07-22T09:48:47.000Z</time>
      </trkpt>
      <trkpt lat="42.87282" lon="0.20547">
        <ele>2425.9</ele>
        <time>2021-07-22T09:48:52.000Z</time>
      </trkpt>
      <trkpt lat="42.87282" lon="0.20547">
        <ele>2426.4</ele>
        <time>2021-07-22T09:48:58.000Z</time>
      </trkpt>
      <trkpt lat="42.87286" lon="0.20536">
        <ele>2423.8</ele>
        <time>2021-07-22T09:49:16.000Z</time>
      </trkpt>
      <trkpt lat="42.87294" lon="0.20533">
        <ele>2420.9</ele>
        <time>2021-07-22T09:49:33.000Z</time>
      </trkpt>
      <trkpt lat="42.87294" lon="0.20533">
        <ele>2420.8</ele>
        <time>2021-07-22T09:49:34.000Z</time>
      </trkpt>
      <trkpt lat="42.87299" lon="0.20536">
        <ele>2418.5</ele>
        <time>2021-07-22T09:49:49.000Z</time>
      </trkpt>
      <trkpt lat="42.87299" lon="0.20536">
        <ele>2418.4</ele>
        <time>2021-07-22T09:49:50.000Z</time>
      </trkpt>
      <trkpt lat="42.87299" lon="0.20536">
        <ele>2418.3</ele>
        <time>2021-07-22T09:49:51.000Z</time>
      </trkpt>
      <trkpt lat="42.87299" lon="0.20535">
        <ele>2418.4</ele>
        <time>2021-07-22T09:49:58.000Z</time>
      </trkpt>
      <trkpt lat="42.87299" lon="0.20535">
        <ele>2418.2</ele>
        <time>2021-07-22T09:50:00.000Z</time>
      </trkpt>
      <trkpt lat="42.87299" lon="0.20535">
        <ele>2418.2</ele>
        <time>2021-07-22T09:50:01.000Z</time>
      </trkpt>
      <trkpt lat="42.87292" lon="0.20527">
        <ele>2417.5</ele>
        <time>2021-07-22T09:50:17.000Z</time>
      </trkpt>
      <trkpt lat="42.87287" lon="0.20516">
        <ele>2416.3</ele>
        <time>2021-07-22T09:50:28.000Z</time>
      </trkpt>
      <trkpt lat="42.87292" lon="0.20505">
        <ele>2413.7</ele>
        <time>2021-07-22T09:50:42.000Z</time>
      </trkpt>
      <trkpt lat="42.873" lon="0.20499">
        <ele>2411.1</ele>
        <time>2021-07-22T09:50:54.000Z</time>
      </trkpt>
      <trkpt lat="42.87308" lon="0.20498">
        <ele>2408.7</ele>
        <time>2021-07-22T09:51:06.000Z</time>
      </trkpt>
      <trkpt lat="42.87308" lon="0.20498">
        <ele>2408.6</ele>
        <time>2021-07-22T09:51:07.000Z</time>
      </trkpt>
      <trkpt lat="42.87313" lon="0.2051">
        <ele>2407</ele>
        <time>2021-07-22T09:51:19.000Z</time>
      </trkpt>
      <trkpt lat="42.87317" lon="0.20522">
        <ele>2405.7</ele>
        <time>2021-07-22T09:51:29.000Z</time>
      </trkpt>
      <trkpt lat="42.87318" lon="0.20534">
        <ele>2402.6</ele>
        <time>2021-07-22T09:51:43.000Z</time>
      </trkpt>
      <trkpt lat="42.87325" lon="0.20544">
        <ele>2400.3</ele>
        <time>2021-07-22T09:51:52.000Z</time>
      </trkpt>
      <trkpt lat="42.87334" lon="0.20547">
        <ele>2397.5</ele>
        <time>2021-07-22T09:52:05.000Z</time>
      </trkpt>
      <trkpt lat="42.87342" lon="0.20538">
        <ele>2396.8</ele>
        <time>2021-07-22T09:52:14.000Z</time>
      </trkpt>
      <trkpt lat="42.87351" lon="0.20534">
        <ele>2394.8</ele>
        <time>2021-07-22T09:52:25.000Z</time>
      </trkpt>
      <trkpt lat="42.87358" lon="0.2054">
        <ele>2393.7</ele>
        <time>2021-07-22T09:52:36.000Z</time>
      </trkpt>
      <trkpt lat="42.87366" lon="0.20549">
        <ele>2393.1</ele>
        <time>2021-07-22T09:52:48.000Z</time>
      </trkpt>
      <trkpt lat="42.8737" lon="0.2056">
        <ele>2392</ele>
        <time>2021-07-22T09:52:59.000Z</time>
      </trkpt>
      <trkpt lat="42.87379" lon="0.20557">
        <ele>2391.1</ele>
        <time>2021-07-22T09:53:08.000Z</time>
      </trkpt>
      <trkpt lat="42.87389" lon="0.20556">
        <ele>2391.3</ele>
        <time>2021-07-22T09:53:17.000Z</time>
      </trkpt>
      <trkpt lat="42.87394" lon="0.20553">
        <ele>2391.5</ele>
        <time>2021-07-22T09:53:24.000Z</time>
      </trkpt>
      <trkpt lat="42.87395" lon="0.20553">
        <ele>2391.3</ele>
        <time>2021-07-22T09:53:32.000Z</time>
      </trkpt>
      <trkpt lat="42.87395" lon="0.20553">
        <ele>2390.6</ele>
        <time>2021-07-22T09:53:35.000Z</time>
      </trkpt>
      <trkpt lat="42.87395" lon="0.20553">
        <ele>2391</ele>
        <time>2021-07-22T09:53:38.000Z</time>
      </trkpt>
      <trkpt lat="42.87395" lon="0.20552">
        <ele>2390.5</ele>
        <time>2021-07-22T09:53:40.000Z</time>
      </trkpt>
      <trkpt lat="42.87395" lon="0.20552">
        <ele>2390.2</ele>
        <time>2021-07-22T09:53:45.000Z</time>
      </trkpt>
      <trkpt lat="42.87403" lon="0.20548">
        <ele>2389</ele>
        <time>2021-07-22T09:54:03.000Z</time>
      </trkpt>
      <trkpt lat="42.8741" lon="0.20545">
        <ele>2387.3</ele>
        <time>2021-07-22T09:54:14.000Z</time>
      </trkpt>
      <trkpt lat="42.8741" lon="0.20546">
        <ele>2387</ele>
        <time>2021-07-22T09:54:15.000Z</time>
      </trkpt>
      <trkpt lat="42.87415" lon="0.20539">
        <ele>2382.5</ele>
        <time>2021-07-22T09:54:39.000Z</time>
      </trkpt>
      <trkpt lat="42.87416" lon="0.20539">
        <ele>2382.2</ele>
        <time>2021-07-22T09:54:40.000Z</time>
      </trkpt>
      <trkpt lat="42.87421" lon="0.20528">
        <ele>2379.1</ele>
        <time>2021-07-22T09:54:56.000Z</time>
      </trkpt>
      <trkpt lat="42.8743" lon="0.20523">
        <ele>2375.6</ele>
        <time>2021-07-22T09:55:08.000Z</time>
      </trkpt>
      <trkpt lat="42.87434" lon="0.20512">
        <ele>2373.8</ele>
        <time>2021-07-22T09:55:19.000Z</time>
      </trkpt>
      <trkpt lat="42.87444" lon="0.20511">
        <ele>2372.1</ele>
        <time>2021-07-22T09:55:31.000Z</time>
      </trkpt>
      <trkpt lat="42.87454" lon="0.2051">
        <ele>2370.6</ele>
        <time>2021-07-22T09:55:40.000Z</time>
      </trkpt>
      <trkpt lat="42.8745" lon="0.20523">
        <ele>2366.3</ele>
        <time>2021-07-22T09:56:02.000Z</time>
      </trkpt>
      <trkpt lat="42.87453" lon="0.20533">
        <ele>2364.6</ele>
        <time>2021-07-22T09:56:18.000Z</time>
      </trkpt>
      <trkpt lat="42.87454" lon="0.20533">
        <ele>2364.3</ele>
        <time>2021-07-22T09:56:19.000Z</time>
      </trkpt>
      <trkpt lat="42.87463" lon="0.20536">
        <ele>2364</ele>
        <time>2021-07-22T09:56:27.000Z</time>
      </trkpt>
      <trkpt lat="42.87471" lon="0.20543">
        <ele>2363</ele>
        <time>2021-07-22T09:56:36.000Z</time>
      </trkpt>
      <trkpt lat="42.87479" lon="0.20549">
        <ele>2362.8</ele>
        <time>2021-07-22T09:56:45.000Z</time>
      </trkpt>
      <trkpt lat="42.87487" lon="0.20555">
        <ele>2362.4</ele>
        <time>2021-07-22T09:56:57.000Z</time>
      </trkpt>
      <trkpt lat="42.87497" lon="0.20557">
        <ele>2362.4</ele>
        <time>2021-07-22T09:57:07.000Z</time>
      </trkpt>
      <trkpt lat="42.87506" lon="0.20558">
        <ele>2361.8</ele>
        <time>2021-07-22T09:57:23.000Z</time>
      </trkpt>
      <trkpt lat="42.87515" lon="0.20555">
        <ele>2361.6</ele>
        <time>2021-07-22T09:57:34.000Z</time>
      </trkpt>
      <trkpt lat="42.87524" lon="0.2055">
        <ele>2361.7</ele>
        <time>2021-07-22T09:57:44.000Z</time>
      </trkpt>
      <trkpt lat="42.87526" lon="0.2055">
        <ele>2361.8</ele>
        <time>2021-07-22T09:57:46.000Z</time>
      </trkpt>
      <trkpt lat="42.87526" lon="0.2055">
        <ele>2362.3</ele>
        <time>2021-07-22T09:57:50.000Z</time>
      </trkpt>
      <trkpt lat="42.87535" lon="0.20547">
        <ele>2361.8</ele>
        <time>2021-07-22T09:58:06.000Z</time>
      </trkpt>
      <trkpt lat="42.8754" lon="0.20544">
        <ele>2362.1</ele>
        <time>2021-07-22T09:58:16.000Z</time>
      </trkpt>
      <trkpt lat="42.8754" lon="0.20544">
        <ele>2361.9</ele>
        <time>2021-07-22T09:58:17.000Z</time>
      </trkpt>
      <trkpt lat="42.87549" lon="0.20539">
        <ele>2361.7</ele>
        <time>2021-07-22T09:58:26.000Z</time>
      </trkpt>
      <trkpt lat="42.87559" lon="0.20539">
        <ele>2361.5</ele>
        <time>2021-07-22T09:58:34.000Z</time>
      </trkpt>
      <trkpt lat="42.87568" lon="0.20543">
        <ele>2361.4</ele>
        <time>2021-07-22T09:58:41.000Z</time>
      </trkpt>
      <trkpt lat="42.87577" lon="0.20548">
        <ele>2361.6</ele>
        <time>2021-07-22T09:58:49.000Z</time>
      </trkpt>
      <trkpt lat="42.87586" lon="0.20553">
        <ele>2361.1</ele>
        <time>2021-07-22T09:58:59.000Z</time>
      </trkpt>
      <trkpt lat="42.87594" lon="0.20559">
        <ele>2360</ele>
        <time>2021-07-22T09:59:08.000Z</time>
      </trkpt>
      <trkpt lat="42.87599" lon="0.2057">
        <ele>2358.1</ele>
        <time>2021-07-22T09:59:18.000Z</time>
      </trkpt>
      <trkpt lat="42.87607" lon="0.20577">
        <ele>2356.5</ele>
        <time>2021-07-22T09:59:30.000Z</time>
      </trkpt>
      <trkpt lat="42.87611" lon="0.20589">
        <ele>2354.2</ele>
        <time>2021-07-22T09:59:41.000Z</time>
      </trkpt>
      <trkpt lat="42.87619" lon="0.20593">
        <ele>2352.1</ele>
        <time>2021-07-22T09:59:54.000Z</time>
      </trkpt>
      <trkpt lat="42.87625" lon="0.20592">
        <ele>2351</ele>
        <time>2021-07-22T10:00:07.000Z</time>
      </trkpt>
      <trkpt lat="42.87625" lon="0.20592">
        <ele>2350.8</ele>
        <time>2021-07-22T10:00:08.000Z</time>
      </trkpt>
      <trkpt lat="42.87634" lon="0.20587">
        <ele>2349.9</ele>
        <time>2021-07-22T10:00:23.000Z</time>
      </trkpt>
      <trkpt lat="42.87643" lon="0.20584">
        <ele>2349.4</ele>
        <time>2021-07-22T10:00:35.000Z</time>
      </trkpt>
      <trkpt lat="42.87651" lon="0.20579">
        <ele>2348.8</ele>
        <time>2021-07-22T10:00:50.000Z</time>
      </trkpt>
      <trkpt lat="42.87657" lon="0.20569">
        <ele>2345.7</ele>
        <time>2021-07-22T10:01:01.000Z</time>
      </trkpt>
      <trkpt lat="42.87666" lon="0.20565">
        <ele>2345.4</ele>
        <time>2021-07-22T10:01:11.000Z</time>
      </trkpt>
      <trkpt lat="42.87675" lon="0.20561">
        <ele>2344.3</ele>
        <time>2021-07-22T10:01:21.000Z</time>
      </trkpt>
      <trkpt lat="42.87676" lon="0.2056">
        <ele>2345.1</ele>
        <time>2021-07-22T10:01:25.000Z</time>
      </trkpt>
      <trkpt lat="42.87677" lon="0.2056">
        <ele>2345.1</ele>
        <time>2021-07-22T10:01:26.000Z</time>
      </trkpt>
      <trkpt lat="42.87684" lon="0.20552">
        <ele>2343.8</ele>
        <time>2021-07-22T10:01:38.000Z</time>
      </trkpt>
      <trkpt lat="42.8769" lon="0.20543">
        <ele>2339.8</ele>
        <time>2021-07-22T10:01:58.000Z</time>
      </trkpt>
      <trkpt lat="42.87697" lon="0.20535">
        <ele>2335.9</ele>
        <time>2021-07-22T10:02:15.000Z</time>
      </trkpt>
      <trkpt lat="42.87706" lon="0.20531">
        <ele>2333.9</ele>
        <time>2021-07-22T10:02:24.000Z</time>
      </trkpt>
      <trkpt lat="42.87711" lon="0.20519">
        <ele>2331.2</ele>
        <time>2021-07-22T10:02:35.000Z</time>
      </trkpt>
      <trkpt lat="42.87719" lon="0.20513">
        <ele>2329.5</ele>
        <time>2021-07-22T10:02:43.000Z</time>
      </trkpt>
      <trkpt lat="42.87727" lon="0.20506">
        <ele>2327.4</ele>
        <time>2021-07-22T10:02:54.000Z</time>
      </trkpt>
      <trkpt lat="42.87736" lon="0.20502">
        <ele>2326.1</ele>
        <time>2021-07-22T10:03:03.000Z</time>
      </trkpt>
      <trkpt lat="42.87745" lon="0.20499">
        <ele>2324.2</ele>
        <time>2021-07-22T10:03:11.000Z</time>
      </trkpt>
      <trkpt lat="42.87753" lon="0.20491">
        <ele>2321.3</ele>
        <time>2021-07-22T10:03:22.000Z</time>
      </trkpt>
      <trkpt lat="42.8776" lon="0.20482">
        <ele>2319.4</ele>
        <time>2021-07-22T10:03:33.000Z</time>
      </trkpt>
      <trkpt lat="42.87765" lon="0.20472">
        <ele>2317.8</ele>
        <time>2021-07-22T10:03:42.000Z</time>
      </trkpt>
      <trkpt lat="42.87773" lon="0.20464">
        <ele>2315.7</ele>
        <time>2021-07-22T10:03:53.000Z</time>
      </trkpt>
      <trkpt lat="42.87781" lon="0.20457">
        <ele>2315.4</ele>
        <time>2021-07-22T10:04:01.000Z</time>
      </trkpt>
      <trkpt lat="42.8779" lon="0.20454">
        <ele>2315.3</ele>
        <time>2021-07-22T10:04:10.000Z</time>
      </trkpt>
      <trkpt lat="42.878" lon="0.20455">
        <ele>2315.3</ele>
        <time>2021-07-22T10:04:19.000Z</time>
      </trkpt>
      <trkpt lat="42.87809" lon="0.20452">
        <ele>2313.5</ele>
        <time>2021-07-22T10:04:30.000Z</time>
      </trkpt>
      <trkpt lat="42.87817" lon="0.20444">
        <ele>2310.1</ele>
        <time>2021-07-22T10:04:44.000Z</time>
      </trkpt>
      <trkpt lat="42.87825" lon="0.20439">
        <ele>2306.7</ele>
        <time>2021-07-22T10:04:57.000Z</time>
      </trkpt>
      <trkpt lat="42.87826" lon="0.20438">
        <ele>2306.2</ele>
        <time>2021-07-22T10:05:00.000Z</time>
      </trkpt>
      <trkpt lat="42.87826" lon="0.20439">
        <ele>2306.3</ele>
        <time>2021-07-22T10:05:01.000Z</time>
      </trkpt>
      <trkpt lat="42.87835" lon="0.20442">
        <ele>2303.2</ele>
        <time>2021-07-22T10:05:19.000Z</time>
      </trkpt>
      <trkpt lat="42.87842" lon="0.20434">
        <ele>2301.2</ele>
        <time>2021-07-22T10:05:29.000Z</time>
      </trkpt>
      <trkpt lat="42.87848" lon="0.20425">
        <ele>2300.4</ele>
        <time>2021-07-22T10:05:38.000Z</time>
      </trkpt>
      <trkpt lat="42.87853" lon="0.20415">
        <ele>2299.1</ele>
        <time>2021-07-22T10:05:51.000Z</time>
      </trkpt>
      <trkpt lat="42.87861" lon="0.20409">
        <ele>2298.4</ele>
        <time>2021-07-22T10:06:01.000Z</time>
      </trkpt>
      <trkpt lat="42.87869" lon="0.20402">
        <ele>2297.6</ele>
        <time>2021-07-22T10:06:09.000Z</time>
      </trkpt>
      <trkpt lat="42.87878" lon="0.204">
        <ele>2297.5</ele>
        <time>2021-07-22T10:06:17.000Z</time>
      </trkpt>
      <trkpt lat="42.87887" lon="0.20398">
        <ele>2296.6</ele>
        <time>2021-07-22T10:06:25.000Z</time>
      </trkpt>
      <trkpt lat="42.87897" lon="0.204">
        <ele>2296.3</ele>
        <time>2021-07-22T10:06:33.000Z</time>
      </trkpt>
      <trkpt lat="42.87903" lon="0.20409">
        <ele>2294.5</ele>
        <time>2021-07-22T10:06:49.000Z</time>
      </trkpt>
      <trkpt lat="42.87903" lon="0.2041">
        <ele>2295.3</ele>
        <time>2021-07-22T10:06:54.000Z</time>
      </trkpt>
      <trkpt lat="42.87911" lon="0.20405">
        <ele>2291.4</ele>
        <time>2021-07-22T10:07:25.000Z</time>
      </trkpt>
      <trkpt lat="42.87916" lon="0.20407">
        <ele>2288.7</ele>
        <time>2021-07-22T10:07:44.000Z</time>
      </trkpt>
      <trkpt lat="42.87916" lon="0.20407">
        <ele>2288.6</ele>
        <time>2021-07-22T10:07:46.000Z</time>
      </trkpt>
      <trkpt lat="42.87919" lon="0.20419">
        <ele>2286.7</ele>
        <time>2021-07-22T10:07:59.000Z</time>
      </trkpt>
      <trkpt lat="42.87928" lon="0.20425">
        <ele>2282.7</ele>
        <time>2021-07-22T10:08:21.000Z</time>
      </trkpt>
      <trkpt lat="42.87933" lon="0.20426">
        <ele>2281.3</ele>
        <time>2021-07-22T10:08:32.000Z</time>
      </trkpt>
      <trkpt lat="42.87933" lon="0.20427">
        <ele>2281.5</ele>
        <time>2021-07-22T10:08:33.000Z</time>
      </trkpt>
      <trkpt lat="42.87934" lon="0.20426">
        <ele>2280.9</ele>
        <time>2021-07-22T10:08:36.000Z</time>
      </trkpt>
      <trkpt lat="42.87934" lon="0.20426">
        <ele>2281</ele>
        <time>2021-07-22T10:08:38.000Z</time>
      </trkpt>
      <trkpt lat="42.87934" lon="0.20426">
        <ele>2281.5</ele>
        <time>2021-07-22T10:08:39.000Z</time>
      </trkpt>
      <trkpt lat="42.87933" lon="0.20426">
        <ele>2281.5</ele>
        <time>2021-07-22T10:08:40.000Z</time>
      </trkpt>
      <trkpt lat="42.87933" lon="0.20426">
        <ele>2281.3</ele>
        <time>2021-07-22T10:08:41.000Z</time>
      </trkpt>
      <trkpt lat="42.87933" lon="0.20426">
        <ele>2280.5</ele>
        <time>2021-07-22T10:08:44.000Z</time>
      </trkpt>
      <trkpt lat="42.87932" lon="0.20425">
        <ele>2280.4</ele>
        <time>2021-07-22T10:08:48.000Z</time>
      </trkpt>
      <trkpt lat="42.87932" lon="0.20424">
        <ele>2280.5</ele>
        <time>2021-07-22T10:08:49.000Z</time>
      </trkpt>
      <trkpt lat="42.87933" lon="0.20424">
        <ele>2278.7</ele>
        <time>2021-07-22T10:08:52.000Z</time>
      </trkpt>
      <trkpt lat="42.87933" lon="0.20424">
        <ele>2276.8</ele>
        <time>2021-07-22T10:10:38.000Z</time>
      </trkpt>
      <trkpt lat="42.87933" lon="0.20424">
        <ele>2276.8</ele>
        <time>2021-07-22T10:10:39.000Z</time>
      </trkpt>
      <trkpt lat="42.87932" lon="0.20424">
        <ele>2275.5</ele>
        <time>2021-07-22T10:11:35.000Z</time>
      </trkpt>
      <trkpt lat="42.87932" lon="0.20424">
        <ele>2275.5</ele>
        <time>2021-07-22T10:11:36.000Z</time>
      </trkpt>
      <trkpt lat="42.87932" lon="0.20424">
        <ele>2275.1</ele>
        <time>2021-07-22T10:11:54.000Z</time>
      </trkpt>
      <trkpt lat="42.87932" lon="0.20424">
        <ele>2275.1</ele>
        <time>2021-07-22T10:11:55.000Z</time>
      </trkpt>
      <trkpt lat="42.87932" lon="0.20424">
        <ele>2274.4</ele>
        <time>2021-07-22T10:13:09.000Z</time>
      </trkpt>
      <trkpt lat="42.87932" lon="0.20424">
        <ele>2274.5</ele>
        <time>2021-07-22T10:13:10.000Z</time>
      </trkpt>
      <trkpt lat="42.87932" lon="0.20424">
        <ele>2272</ele>
        <time>2021-07-22T10:14:37.000Z</time>
      </trkpt>
      <trkpt lat="42.87932" lon="0.20424">
        <ele>2272.1</ele>
        <time>2021-07-22T10:14:38.000Z</time>
      </trkpt>
      <trkpt lat="42.87932" lon="0.20424">
        <ele>2270.2</ele>
        <time>2021-07-22T10:16:11.000Z</time>
      </trkpt>
      <trkpt lat="42.87932" lon="0.20424">
        <ele>2270.1</ele>
        <time>2021-07-22T10:16:12.000Z</time>
      </trkpt>
      <trkpt lat="42.87932" lon="0.20424">
        <ele>2269.3</ele>
        <time>2021-07-22T10:16:53.000Z</time>
      </trkpt>
      <trkpt lat="42.87932" lon="0.20424">
        <ele>2269.4</ele>
        <time>2021-07-22T10:16:54.000Z</time>
      </trkpt>
      <trkpt lat="42.87932" lon="0.20424">
        <ele>2267.5</ele>
        <time>2021-07-22T10:19:21.000Z</time>
      </trkpt>
      <trkpt lat="42.87932" lon="0.20424">
        <ele>2267.6</ele>
        <time>2021-07-22T10:19:22.000Z</time>
      </trkpt>
      <trkpt lat="42.87932" lon="0.20424">
        <ele>2266.8</ele>
        <time>2021-07-22T10:20:27.000Z</time>
      </trkpt>
      <trkpt lat="42.87932" lon="0.20424">
        <ele>2266.8</ele>
        <time>2021-07-22T10:20:28.000Z</time>
      </trkpt>
      <trkpt lat="42.87932" lon="0.20424">
        <ele>2262.5</ele>
        <time>2021-07-22T10:32:30.000Z</time>
      </trkpt>
      <trkpt lat="42.87932" lon="0.20424">
        <ele>2262.4</ele>
        <time>2021-07-22T10:32:31.000Z</time>
      </trkpt>
      <trkpt lat="42.87932" lon="0.20424">
        <ele>2260.2</ele>
        <time>2021-07-22T10:34:33.000Z</time>
      </trkpt>
      <trkpt lat="42.87932" lon="0.20424">
        <ele>2260.1</ele>
        <time>2021-07-22T10:34:34.000Z</time>
      </trkpt>
      <trkpt lat="42.87932" lon="0.20424">
        <ele>2261.9</ele>
        <time>2021-07-22T10:36:12.000Z</time>
      </trkpt>
      <trkpt lat="42.87932" lon="0.20424">
        <ele>2261.8</ele>
        <time>2021-07-22T10:36:13.000Z</time>
      </trkpt>
      <trkpt lat="42.87932" lon="0.20425">
        <ele>2262.6</ele>
        <time>2021-07-22T10:49:39.000Z</time>
      </trkpt>
      <trkpt lat="42.87932" lon="0.20425">
        <ele>2262.7</ele>
        <time>2021-07-22T10:49:40.000Z</time>
      </trkpt>
      <trkpt lat="42.87932" lon="0.20425">
        <ele>2265.8</ele>
        <time>2021-07-22T10:51:04.000Z</time>
      </trkpt>
      <trkpt lat="42.87932" lon="0.20425">
        <ele>2265.5</ele>
        <time>2021-07-22T10:51:09.000Z</time>
      </trkpt>
      <trkpt lat="42.87932" lon="0.20426">
        <ele>2266.7</ele>
        <time>2021-07-22T10:51:12.000Z</time>
      </trkpt>
      <trkpt lat="42.87932" lon="0.20426">
        <ele>2266.3</ele>
        <time>2021-07-22T10:51:13.000Z</time>
      </trkpt>
      <trkpt lat="42.87932" lon="0.20426">
        <ele>2265.2</ele>
        <time>2021-07-22T10:51:16.000Z</time>
      </trkpt>
      <trkpt lat="42.87932" lon="0.20426">
        <ele>2265.1</ele>
        <time>2021-07-22T10:51:19.000Z</time>
      </trkpt>
      <trkpt lat="42.87932" lon="0.20426">
        <ele>2265.4</ele>
        <time>2021-07-22T10:51:27.000Z</time>
      </trkpt>
      <trkpt lat="42.87937" lon="0.20436">
        <ele>2264.9</ele>
        <time>2021-07-22T10:51:41.000Z</time>
      </trkpt>
      <trkpt lat="42.87934" lon="0.20448">
        <ele>2264.9</ele>
        <time>2021-07-22T10:51:50.000Z</time>
      </trkpt>
      <trkpt lat="42.87934" lon="0.20462">
        <ele>2263.8</ele>
        <time>2021-07-22T10:52:01.000Z</time>
      </trkpt>
      <trkpt lat="42.87936" lon="0.20474">
        <ele>2262</ele>
        <time>2021-07-22T10:52:10.000Z</time>
      </trkpt>
      <trkpt lat="42.87938" lon="0.20485">
        <ele>2260</ele>
        <time>2021-07-22T10:52:21.000Z</time>
      </trkpt>
      <trkpt lat="42.87938" lon="0.20485">
        <ele>2259.8</ele>
        <time>2021-07-22T10:52:22.000Z</time>
      </trkpt>
      <trkpt lat="42.87944" lon="0.20495">
        <ele>2256.7</ele>
        <time>2021-07-22T10:52:37.000Z</time>
      </trkpt>
      <trkpt lat="42.87947" lon="0.20507">
        <ele>2255.3</ele>
        <time>2021-07-22T10:52:49.000Z</time>
      </trkpt>
      <trkpt lat="42.87955" lon="0.20513">
        <ele>2255.2</ele>
        <time>2021-07-22T10:53:06.000Z</time>
      </trkpt>
      <trkpt lat="42.87956" lon="0.20526">
        <ele>2253</ele>
        <time>2021-07-22T10:53:17.000Z</time>
      </trkpt>
      <trkpt lat="42.87963" lon="0.20534">
        <ele>2251.6</ele>
        <time>2021-07-22T10:53:25.000Z</time>
      </trkpt>
      <trkpt lat="42.87968" lon="0.20544">
        <ele>2250.4</ele>
        <time>2021-07-22T10:53:33.000Z</time>
      </trkpt>
      <trkpt lat="42.8797" lon="0.20557">
        <ele>2250.4</ele>
        <time>2021-07-22T10:53:42.000Z</time>
      </trkpt>
      <trkpt lat="42.87976" lon="0.20567">
        <ele>2250.5</ele>
        <time>2021-07-22T10:53:51.000Z</time>
      </trkpt>
      <trkpt lat="42.87985" lon="0.20573">
        <ele>2250.8</ele>
        <time>2021-07-22T10:54:01.000Z</time>
      </trkpt>
      <trkpt lat="42.87994" lon="0.2057">
        <ele>2251.2</ele>
        <time>2021-07-22T10:54:13.000Z</time>
      </trkpt>
      <trkpt lat="42.88003" lon="0.20566">
        <ele>2249.8</ele>
        <time>2021-07-22T10:54:26.000Z</time>
      </trkpt>
      <trkpt lat="42.88012" lon="0.20571">
        <ele>2248.7</ele>
        <time>2021-07-22T10:54:34.000Z</time>
      </trkpt>
      <trkpt lat="42.88021" lon="0.20576">
        <ele>2246.2</ele>
        <time>2021-07-22T10:54:49.000Z</time>
      </trkpt>
      <trkpt lat="42.88029" lon="0.20569">
        <ele>2246</ele>
        <time>2021-07-22T10:55:00.000Z</time>
      </trkpt>
      <trkpt lat="42.88038" lon="0.20565">
        <ele>2246.3</ele>
        <time>2021-07-22T10:55:10.000Z</time>
      </trkpt>
      <trkpt lat="42.88048" lon="0.20564">
        <ele>2245.6</ele>
        <time>2021-07-22T10:55:20.000Z</time>
      </trkpt>
      <trkpt lat="42.88057" lon="0.20566">
        <ele>2245.2</ele>
        <time>2021-07-22T10:55:29.000Z</time>
      </trkpt>
      <trkpt lat="42.88066" lon="0.20569">
        <ele>2245.3</ele>
        <time>2021-07-22T10:55:41.000Z</time>
      </trkpt>
      <trkpt lat="42.88075" lon="0.20573">
        <ele>2244.3</ele>
        <time>2021-07-22T10:55:52.000Z</time>
      </trkpt>
      <trkpt lat="42.88085" lon="0.20574">
        <ele>2243.3</ele>
        <time>2021-07-22T10:56:02.000Z</time>
      </trkpt>
      <trkpt lat="42.88093" lon="0.20571">
        <ele>2240.7</ele>
        <time>2021-07-22T10:56:15.000Z</time>
      </trkpt>
      <trkpt lat="42.88098" lon="0.20562">
        <ele>2239.1</ele>
        <time>2021-07-22T10:56:28.000Z</time>
      </trkpt>
      <trkpt lat="42.88098" lon="0.20562">
        <ele>2238.8</ele>
        <time>2021-07-22T10:56:29.000Z</time>
      </trkpt>
      <trkpt lat="42.88098" lon="0.20562">
        <ele>2238.7</ele>
        <time>2021-07-22T10:56:30.000Z</time>
      </trkpt>
      <trkpt lat="42.88099" lon="0.20561">
        <ele>2238.5</ele>
        <time>2021-07-22T10:56:33.000Z</time>
      </trkpt>
      <trkpt lat="42.88101" lon="0.2056">
        <ele>2237.4</ele>
        <time>2021-07-22T10:56:40.000Z</time>
      </trkpt>
      <trkpt lat="42.88102" lon="0.2056">
        <ele>2237.5</ele>
        <time>2021-07-22T10:56:43.000Z</time>
      </trkpt>
      <trkpt lat="42.88102" lon="0.2056">
        <ele>2237.4</ele>
        <time>2021-07-22T10:56:44.000Z</time>
      </trkpt>
      <trkpt lat="42.88102" lon="0.20559">
        <ele>2237.2</ele>
        <time>2021-07-22T10:56:45.000Z</time>
      </trkpt>
      <trkpt lat="42.88107" lon="0.2055">
        <ele>2236.8</ele>
        <time>2021-07-22T10:56:59.000Z</time>
      </trkpt>
      <trkpt lat="42.88107" lon="0.20549">
        <ele>2237</ele>
        <time>2021-07-22T10:57:01.000Z</time>
      </trkpt>
      <trkpt lat="42.88117" lon="0.20546">
        <ele>2236.4</ele>
        <time>2021-07-22T10:57:10.000Z</time>
      </trkpt>
      <trkpt lat="42.88122" lon="0.20535">
        <ele>2235.1</ele>
        <time>2021-07-22T10:57:18.000Z</time>
      </trkpt>
      <trkpt lat="42.88125" lon="0.20524">
        <ele>2234.7</ele>
        <time>2021-07-22T10:57:26.000Z</time>
      </trkpt>
      <trkpt lat="42.88133" lon="0.20515">
        <ele>2233.5</ele>
        <time>2021-07-22T10:57:37.000Z</time>
      </trkpt>
      <trkpt lat="42.88139" lon="0.20505">
        <ele>2232.4</ele>
        <time>2021-07-22T10:57:47.000Z</time>
      </trkpt>
      <trkpt lat="42.88145" lon="0.20495">
        <ele>2232</ele>
        <time>2021-07-22T10:57:57.000Z</time>
      </trkpt>
      <trkpt lat="42.88148" lon="0.20482">
        <ele>2231.1</ele>
        <time>2021-07-22T10:58:10.000Z</time>
      </trkpt>
      <trkpt lat="42.88153" lon="0.20472">
        <ele>2230.3</ele>
        <time>2021-07-22T10:58:20.000Z</time>
      </trkpt>
      <trkpt lat="42.88153" lon="0.20469">
        <ele>2229.8</ele>
        <time>2021-07-22T10:58:28.000Z</time>
      </trkpt>
      <trkpt lat="42.88153" lon="0.20469">
        <ele>2229.9</ele>
        <time>2021-07-22T10:58:35.000Z</time>
      </trkpt>
      <trkpt lat="42.88154" lon="0.20468">
        <ele>2230.5</ele>
        <time>2021-07-22T10:58:40.000Z</time>
      </trkpt>
      <trkpt lat="42.88154" lon="0.20468">
        <ele>2231</ele>
        <time>2021-07-22T10:58:44.000Z</time>
      </trkpt>
      <trkpt lat="42.88154" lon="0.20468">
        <ele>2231.1</ele>
        <time>2021-07-22T10:58:45.000Z</time>
      </trkpt>
      <trkpt lat="42.88154" lon="0.20468">
        <ele>2231.1</ele>
        <time>2021-07-22T10:59:00.000Z</time>
      </trkpt>
      <trkpt lat="42.88154" lon="0.20468">
        <ele>2231.1</ele>
        <time>2021-07-22T10:59:03.000Z</time>
      </trkpt>
      <trkpt lat="42.88154" lon="0.20467">
        <ele>2230</ele>
        <time>2021-07-22T10:59:26.000Z</time>
      </trkpt>
      <trkpt lat="42.88154" lon="0.20467">
        <ele>2230.1</ele>
        <time>2021-07-22T10:59:27.000Z</time>
      </trkpt>
      <trkpt lat="42.88154" lon="0.20467">
        <ele>2230.2</ele>
        <time>2021-07-22T10:59:34.000Z</time>
      </trkpt>
      <trkpt lat="42.88154" lon="0.20467">
        <ele>2230.2</ele>
        <time>2021-07-22T10:59:36.000Z</time>
      </trkpt>
      <trkpt lat="42.88154" lon="0.20467">
        <ele>2230.3</ele>
        <time>2021-07-22T10:59:37.000Z</time>
      </trkpt>
      <trkpt lat="42.88154" lon="0.20467">
        <ele>2230.4</ele>
        <time>2021-07-22T10:59:38.000Z</time>
      </trkpt>
      <trkpt lat="42.88154" lon="0.20467">
        <ele>2230.4</ele>
        <time>2021-07-22T10:59:41.000Z</time>
      </trkpt>
      <trkpt lat="42.88154" lon="0.20467">
        <ele>2230.2</ele>
        <time>2021-07-22T10:59:42.000Z</time>
      </trkpt>
      <trkpt lat="42.88154" lon="0.20466">
        <ele>2230</ele>
        <time>2021-07-22T10:59:43.000Z</time>
      </trkpt>
      <trkpt lat="42.88154" lon="0.20466">
        <ele>2230</ele>
        <time>2021-07-22T10:59:44.000Z</time>
      </trkpt>
      <trkpt lat="42.88153" lon="0.20466">
        <ele>2230.1</ele>
        <time>2021-07-22T10:59:46.000Z</time>
      </trkpt>
      <trkpt lat="42.88161" lon="0.2046">
        <ele>2230.2</ele>
        <time>2021-07-22T11:00:00.000Z</time>
      </trkpt>
      <trkpt lat="42.88165" lon="0.2046">
        <ele>2230.9</ele>
        <time>2021-07-22T11:00:07.000Z</time>
      </trkpt>
      <trkpt lat="42.88165" lon="0.20459">
        <ele>2230.7</ele>
        <time>2021-07-22T11:00:09.000Z</time>
      </trkpt>
      <trkpt lat="42.88174" lon="0.20456">
        <ele>2231</ele>
        <time>2021-07-22T11:00:20.000Z</time>
      </trkpt>
      <trkpt lat="42.88182" lon="0.20448">
        <ele>2231.1</ele>
        <time>2021-07-22T11:00:32.000Z</time>
      </trkpt>
      <trkpt lat="42.88188" lon="0.20439">
        <ele>2231.5</ele>
        <time>2021-07-22T11:00:40.000Z</time>
      </trkpt>
      <trkpt lat="42.88196" lon="0.2043">
        <ele>2231.8</ele>
        <time>2021-07-22T11:00:47.000Z</time>
      </trkpt>
      <trkpt lat="42.88204" lon="0.20424">
        <ele>2232.1</ele>
        <time>2021-07-22T11:00:54.000Z</time>
      </trkpt>
      <trkpt lat="42.88213" lon="0.20428">
        <ele>2232.8</ele>
        <time>2021-07-22T11:01:06.000Z</time>
      </trkpt>
      <trkpt lat="42.8822" lon="0.20435">
        <ele>2232.3</ele>
        <time>2021-07-22T11:01:35.000Z</time>
      </trkpt>
      <trkpt lat="42.88226" lon="0.20446">
        <ele>2230.6</ele>
        <time>2021-07-22T11:01:46.000Z</time>
      </trkpt>
      <trkpt lat="42.8823" lon="0.20456">
        <ele>2229.4</ele>
        <time>2021-07-22T11:01:56.000Z</time>
      </trkpt>
      <trkpt lat="42.88235" lon="0.20467">
        <ele>2227.3</ele>
        <time>2021-07-22T11:02:06.000Z</time>
      </trkpt>
      <trkpt lat="42.88239" lon="0.20478">
        <ele>2224.8</ele>
        <time>2021-07-22T11:02:17.000Z</time>
      </trkpt>
      <trkpt lat="42.88247" lon="0.20486">
        <ele>2223.3</ele>
        <time>2021-07-22T11:02:27.000Z</time>
      </trkpt>
      <trkpt lat="42.88253" lon="0.20495">
        <ele>2222.2</ele>
        <time>2021-07-22T11:02:35.000Z</time>
      </trkpt>
      <trkpt lat="42.88261" lon="0.20501">
        <ele>2221.5</ele>
        <time>2021-07-22T11:02:43.000Z</time>
      </trkpt>
      <trkpt lat="42.88268" lon="0.20511">
        <ele>2220.5</ele>
        <time>2021-07-22T11:02:51.000Z</time>
      </trkpt>
      <trkpt lat="42.88274" lon="0.20521">
        <ele>2219.4</ele>
        <time>2021-07-22T11:02:59.000Z</time>
      </trkpt>
      <trkpt lat="42.88283" lon="0.20523">
        <ele>2218.2</ele>
        <time>2021-07-22T11:03:10.000Z</time>
      </trkpt>
      <trkpt lat="42.88291" lon="0.20516">
        <ele>2217.3</ele>
        <time>2021-07-22T11:03:20.000Z</time>
      </trkpt>
      <trkpt lat="42.88301" lon="0.20515">
        <ele>2216.9</ele>
        <time>2021-07-22T11:03:30.000Z</time>
      </trkpt>
      <trkpt lat="42.88311" lon="0.20514">
        <ele>2216.6</ele>
        <time>2021-07-22T11:03:38.000Z</time>
      </trkpt>
      <trkpt lat="42.8832" lon="0.20514">
        <ele>2215.9</ele>
        <time>2021-07-22T11:03:46.000Z</time>
      </trkpt>
      <trkpt lat="42.88329" lon="0.20513">
        <ele>2214.8</ele>
        <time>2021-07-22T11:03:56.000Z</time>
      </trkpt>
      <trkpt lat="42.88339" lon="0.20513">
        <ele>2211.7</ele>
        <time>2021-07-22T11:04:10.000Z</time>
      </trkpt>
      <trkpt lat="42.88348" lon="0.2051">
        <ele>2209.6</ele>
        <time>2021-07-22T11:04:20.000Z</time>
      </trkpt>
      <trkpt lat="42.88357" lon="0.20507">
        <ele>2206.7</ele>
        <time>2021-07-22T11:04:30.000Z</time>
      </trkpt>
      <trkpt lat="42.88366" lon="0.20504">
        <ele>2203.9</ele>
        <time>2021-07-22T11:04:39.000Z</time>
      </trkpt>
      <trkpt lat="42.88375" lon="0.20499">
        <ele>2202.2</ele>
        <time>2021-07-22T11:04:50.000Z</time>
      </trkpt>
      <trkpt lat="42.88383" lon="0.20491">
        <ele>2200.2</ele>
        <time>2021-07-22T11:04:59.000Z</time>
      </trkpt>
      <trkpt lat="42.88382" lon="0.20483">
        <ele>2199.4</ele>
        <time>2021-07-22T11:05:10.000Z</time>
      </trkpt>
      <trkpt lat="42.88382" lon="0.20483">
        <ele>2199.6</ele>
        <time>2021-07-22T11:05:15.000Z</time>
      </trkpt>
      <trkpt lat="42.88381" lon="0.20469">
        <ele>2199</ele>
        <time>2021-07-22T11:05:26.000Z</time>
      </trkpt>
      <trkpt lat="42.88387" lon="0.20458">
        <ele>2199</ele>
        <time>2021-07-22T11:05:33.000Z</time>
      </trkpt>
      <trkpt lat="42.88392" lon="0.20447">
        <ele>2199.3</ele>
        <time>2021-07-22T11:05:40.000Z</time>
      </trkpt>
      <trkpt lat="42.884" lon="0.20438">
        <ele>2198.5</ele>
        <time>2021-07-22T11:05:49.000Z</time>
      </trkpt>
      <trkpt lat="42.88405" lon="0.20427">
        <ele>2200.1</ele>
        <time>2021-07-22T11:06:06.000Z</time>
      </trkpt>
      <trkpt lat="42.88414" lon="0.20424">
        <ele>2198.5</ele>
        <time>2021-07-22T11:06:17.000Z</time>
      </trkpt>
      <trkpt lat="42.88419" lon="0.20435">
        <ele>2195.4</ele>
        <time>2021-07-22T11:06:29.000Z</time>
      </trkpt>
      <trkpt lat="42.88427" lon="0.20441">
        <ele>2192.2</ele>
        <time>2021-07-22T11:06:39.000Z</time>
      </trkpt>
      <trkpt lat="42.88436" lon="0.20444">
        <ele>2190.2</ele>
        <time>2021-07-22T11:06:49.000Z</time>
      </trkpt>
      <trkpt lat="42.88446" lon="0.20445">
        <ele>2188</ele>
        <time>2021-07-22T11:06:58.000Z</time>
      </trkpt>
      <trkpt lat="42.88443" lon="0.20458">
        <ele>2182.7</ele>
        <time>2021-07-22T11:07:20.000Z</time>
      </trkpt>
      <trkpt lat="42.8844" lon="0.2047">
        <ele>2180.8</ele>
        <time>2021-07-22T11:07:28.000Z</time>
      </trkpt>
      <trkpt lat="42.88448" lon="0.20477">
        <ele>2176.6</ele>
        <time>2021-07-22T11:07:40.000Z</time>
      </trkpt>
      <trkpt lat="42.88455" lon="0.20486">
        <ele>2174.1</ele>
        <time>2021-07-22T11:07:48.000Z</time>
      </trkpt>
      <trkpt lat="42.88462" lon="0.20496">
        <ele>2170.4</ele>
        <time>2021-07-22T11:08:01.000Z</time>
      </trkpt>
      <trkpt lat="42.88464" lon="0.20509">
        <ele>2166.7</ele>
        <time>2021-07-22T11:08:11.000Z</time>
      </trkpt>
      <trkpt lat="42.88467" lon="0.20522">
        <ele>2162.2</ele>
        <time>2021-07-22T11:08:23.000Z</time>
      </trkpt>
      <trkpt lat="42.88475" lon="0.20528">
        <ele>2158</ele>
        <time>2021-07-22T11:08:35.000Z</time>
      </trkpt>
      <trkpt lat="42.88485" lon="0.2053">
        <ele>2152.8</ele>
        <time>2021-07-22T11:08:52.000Z</time>
      </trkpt>
      <trkpt lat="42.88489" lon="0.20541">
        <ele>2151.8</ele>
        <time>2021-07-22T11:09:00.000Z</time>
      </trkpt>
      <trkpt lat="42.88495" lon="0.2055">
        <ele>2150.4</ele>
        <time>2021-07-22T11:09:09.000Z</time>
      </trkpt>
      <trkpt lat="42.88504" lon="0.20554">
        <ele>2150.1</ele>
        <time>2021-07-22T11:09:20.000Z</time>
      </trkpt>
      <trkpt lat="42.88513" lon="0.20554">
        <ele>2151</ele>
        <time>2021-07-22T11:09:30.000Z</time>
      </trkpt>
      <trkpt lat="42.88519" lon="0.20563">
        <ele>2150.8</ele>
        <time>2021-07-22T11:09:40.000Z</time>
      </trkpt>
      <trkpt lat="42.88521" lon="0.20577">
        <ele>2148.7</ele>
        <time>2021-07-22T11:09:52.000Z</time>
      </trkpt>
      <trkpt lat="42.88524" lon="0.2059">
        <ele>2147.8</ele>
        <time>2021-07-22T11:10:01.000Z</time>
      </trkpt>
      <trkpt lat="42.88527" lon="0.20602">
        <ele>2147.9</ele>
        <time>2021-07-22T11:10:09.000Z</time>
      </trkpt>
      <trkpt lat="42.8853" lon="0.20614">
        <ele>2146.8</ele>
        <time>2021-07-22T11:10:18.000Z</time>
      </trkpt>
      <trkpt lat="42.8853" lon="0.20627">
        <ele>2145.1</ele>
        <time>2021-07-22T11:10:27.000Z</time>
      </trkpt>
      <trkpt lat="42.8853" lon="0.20639">
        <ele>2143.8</ele>
        <time>2021-07-22T11:10:44.000Z</time>
      </trkpt>
      <trkpt lat="42.88531" lon="0.20653">
        <ele>2143.5</ele>
        <time>2021-07-22T11:10:56.000Z</time>
      </trkpt>
      <trkpt lat="42.88541" lon="0.20654">
        <ele>2144.2</ele>
        <time>2021-07-22T11:11:08.000Z</time>
      </trkpt>
      <trkpt lat="42.88551" lon="0.20653">
        <ele>2144.1</ele>
        <time>2021-07-22T11:11:18.000Z</time>
      </trkpt>
      <trkpt lat="42.8856" lon="0.20653">
        <ele>2143.6</ele>
        <time>2021-07-22T11:11:32.000Z</time>
      </trkpt>
      <trkpt lat="42.88568" lon="0.20646">
        <ele>2142.1</ele>
        <time>2021-07-22T11:11:48.000Z</time>
      </trkpt>
      <trkpt lat="42.88568" lon="0.20645">
        <ele>2141.8</ele>
        <time>2021-07-22T11:11:51.000Z</time>
      </trkpt>
      <trkpt lat="42.88569" lon="0.20645">
        <ele>2141.7</ele>
        <time>2021-07-22T11:11:53.000Z</time>
      </trkpt>
      <trkpt lat="42.88575" lon="0.20636">
        <ele>2140.9</ele>
        <time>2021-07-22T11:12:00.000Z</time>
      </trkpt>
      <trkpt lat="42.88585" lon="0.20634">
        <ele>2141.2</ele>
        <time>2021-07-22T11:12:12.000Z</time>
      </trkpt>
      <trkpt lat="42.88594" lon="0.20632">
        <ele>2142.1</ele>
        <time>2021-07-22T11:12:22.000Z</time>
      </trkpt>
      <trkpt lat="42.88603" lon="0.20629">
        <ele>2144.4</ele>
        <time>2021-07-22T11:12:37.000Z</time>
      </trkpt>
      <trkpt lat="42.8861" lon="0.20625">
        <ele>2145.7</ele>
        <time>2021-07-22T11:12:47.000Z</time>
      </trkpt>
      <trkpt lat="42.8861" lon="0.20625">
        <ele>2145.8</ele>
        <time>2021-07-22T11:12:48.000Z</time>
      </trkpt>
      <trkpt lat="42.88618" lon="0.20616">
        <ele>2147.5</ele>
        <time>2021-07-22T11:12:59.000Z</time>
      </trkpt>
      <trkpt lat="42.88624" lon="0.20607">
        <ele>2147.6</ele>
        <time>2021-07-22T11:13:07.000Z</time>
      </trkpt>
      <trkpt lat="42.88629" lon="0.20597">
        <ele>2145.1</ele>
        <time>2021-07-22T11:13:21.000Z</time>
      </trkpt>
      <trkpt lat="42.88629" lon="0.20597">
        <ele>2145</ele>
        <time>2021-07-22T11:13:24.000Z</time>
      </trkpt>
      <trkpt lat="42.88629" lon="0.20596">
        <ele>2144.7</ele>
        <time>2021-07-22T11:13:25.000Z</time>
      </trkpt>
      <trkpt lat="42.88635" lon="0.20586">
        <ele>2143.7</ele>
        <time>2021-07-22T11:13:35.000Z</time>
      </trkpt>
      <trkpt lat="42.8864" lon="0.20576">
        <ele>2143.7</ele>
        <time>2021-07-22T11:13:41.000Z</time>
      </trkpt>
      <trkpt lat="42.88647" lon="0.20567">
        <ele>2144.2</ele>
        <time>2021-07-22T11:13:50.000Z</time>
      </trkpt>
      <trkpt lat="42.88651" lon="0.20556">
        <ele>2142.9</ele>
        <time>2021-07-22T11:14:02.000Z</time>
      </trkpt>
      <trkpt lat="42.88651" lon="0.20554">
        <ele>2142.2</ele>
        <time>2021-07-22T11:14:07.000Z</time>
      </trkpt>
      <trkpt lat="42.88652" lon="0.20554">
        <ele>2142.2</ele>
        <time>2021-07-22T11:14:08.000Z</time>
      </trkpt>
      <trkpt lat="42.88657" lon="0.20543">
        <ele>2141.1</ele>
        <time>2021-07-22T11:14:22.000Z</time>
      </trkpt>
      <trkpt lat="42.88666" lon="0.20539">
        <ele>2141.1</ele>
        <time>2021-07-22T11:14:34.000Z</time>
      </trkpt>
      <trkpt lat="42.88676" lon="0.20541">
        <ele>2142.4</ele>
        <time>2021-07-22T11:14:44.000Z</time>
      </trkpt>
      <trkpt lat="42.88684" lon="0.20536">
        <ele>2143.4</ele>
        <time>2021-07-22T11:14:54.000Z</time>
      </trkpt>
      <trkpt lat="42.88694" lon="0.20534">
        <ele>2144.2</ele>
        <time>2021-07-22T11:15:11.000Z</time>
      </trkpt>
      <trkpt lat="42.88703" lon="0.20532">
        <ele>2144.6</ele>
        <time>2021-07-22T11:15:22.000Z</time>
      </trkpt>
      <trkpt lat="42.88712" lon="0.20531">
        <ele>2148.5</ele>
        <time>2021-07-22T11:15:42.000Z</time>
      </trkpt>
      <trkpt lat="42.88721" lon="0.20532">
        <ele>2150.6</ele>
        <time>2021-07-22T11:15:51.000Z</time>
      </trkpt>
      <trkpt lat="42.8873" lon="0.20529">
        <ele>2151.8</ele>
        <time>2021-07-22T11:15:59.000Z</time>
      </trkpt>
      <trkpt lat="42.88739" lon="0.2053">
        <ele>2153.7</ele>
        <time>2021-07-22T11:16:12.000Z</time>
      </trkpt>
      <trkpt lat="42.88744" lon="0.20525">
        <ele>2153.8</ele>
        <time>2021-07-22T11:16:25.000Z</time>
      </trkpt>
      <trkpt lat="42.88744" lon="0.20524">
        <ele>2153.9</ele>
        <time>2021-07-22T11:16:26.000Z</time>
      </trkpt>
      <trkpt lat="42.88749" lon="0.20523">
        <ele>2154.6</ele>
        <time>2021-07-22T11:16:37.000Z</time>
      </trkpt>
      <trkpt lat="42.88749" lon="0.20523">
        <ele>2154.6</ele>
        <time>2021-07-22T11:16:38.000Z</time>
      </trkpt>
      <trkpt lat="42.88758" lon="0.20519">
        <ele>2151.7</ele>
        <time>2021-07-22T11:16:53.000Z</time>
      </trkpt>
      <trkpt lat="42.88768" lon="0.20516">
        <ele>2150</ele>
        <time>2021-07-22T11:17:04.000Z</time>
      </trkpt>
      <trkpt lat="42.88778" lon="0.2052">
        <ele>2149.4</ele>
        <time>2021-07-22T11:17:12.000Z</time>
      </trkpt>
      <trkpt lat="42.88788" lon="0.20521">
        <ele>2149.9</ele>
        <time>2021-07-22T11:17:21.000Z</time>
      </trkpt>
      <trkpt lat="42.88798" lon="0.20519">
        <ele>2149.6</ele>
        <time>2021-07-22T11:17:34.000Z</time>
      </trkpt>
      <trkpt lat="42.88807" lon="0.20517">
        <ele>2149.6</ele>
        <time>2021-07-22T11:17:41.000Z</time>
      </trkpt>
      <trkpt lat="42.88816" lon="0.20517">
        <ele>2150.7</ele>
        <time>2021-07-22T11:17:50.000Z</time>
      </trkpt>
      <trkpt lat="42.88825" lon="0.20512">
        <ele>2151.1</ele>
        <time>2021-07-22T11:17:59.000Z</time>
      </trkpt>
      <trkpt lat="42.88835" lon="0.20514">
        <ele>2151.4</ele>
        <time>2021-07-22T11:18:16.000Z</time>
      </trkpt>
      <trkpt lat="42.88844" lon="0.20509">
        <ele>2151.2</ele>
        <time>2021-07-22T11:18:23.000Z</time>
      </trkpt>
      <trkpt lat="42.88854" lon="0.20512">
        <ele>2150.9</ele>
        <time>2021-07-22T11:18:31.000Z</time>
      </trkpt>
      <trkpt lat="42.88863" lon="0.20515">
        <ele>2150.9</ele>
        <time>2021-07-22T11:18:40.000Z</time>
      </trkpt>
      <trkpt lat="42.88862" lon="0.20515">
        <ele>2151.1</ele>
        <time>2021-07-22T11:19:29.000Z</time>
      </trkpt>
      <trkpt lat="42.88862" lon="0.20514">
        <ele>2151</ele>
        <time>2021-07-22T11:18:43.000Z</time>
      </trkpt>
      <trkpt lat="42.88871" lon="0.20511">
        <ele>2149.7</ele>
        <time>2021-07-22T11:18:54.000Z</time>
      </trkpt>
      <trkpt lat="42.88878" lon="0.205">
        <ele>2149</ele>
        <time>2021-07-22T11:19:01.000Z</time>
      </trkpt>
      <trkpt lat="42.88884" lon="0.20489">
        <ele>2148</ele>
        <time>2021-07-22T11:19:08.000Z</time>
      </trkpt>
      <trkpt lat="42.88889" lon="0.20479">
        <ele>2146.2</ele>
        <time>2021-07-22T11:19:18.000Z</time>
      </trkpt>
      <trkpt lat="42.88889" lon="0.20467">
        <ele>2143.6</ele>
        <time>2021-07-22T11:19:30.000Z</time>
      </trkpt>
      <trkpt lat="42.88894" lon="0.20456">
        <ele>2143.5</ele>
        <time>2021-07-22T11:19:40.000Z</time>
      </trkpt>
      <trkpt lat="42.88897" lon="0.20444">
        <ele>2143.7</ele>
        <time>2021-07-22T11:19:51.000Z</time>
      </trkpt>
      <trkpt lat="42.88897" lon="0.20431">
        <ele>2143.8</ele>
        <time>2021-07-22T11:20:04.000Z</time>
      </trkpt>
      <trkpt lat="42.889" lon="0.20424">
        <ele>2144.2</ele>
        <time>2021-07-22T11:20:12.000Z</time>
      </trkpt>
      <trkpt lat="42.889" lon="0.20424">
        <ele>2144.2</ele>
        <time>2021-07-22T11:20:13.000Z</time>
      </trkpt>
      <trkpt lat="42.889" lon="0.20424">
        <ele>2144.2</ele>
        <time>2021-07-22T11:20:14.000Z</time>
      </trkpt>
      <trkpt lat="42.889" lon="0.20424">
        <ele>2144.1</ele>
        <time>2021-07-22T11:20:15.000Z</time>
      </trkpt>
      <trkpt lat="42.88901" lon="0.20423">
        <ele>2143.9</ele>
        <time>2021-07-22T11:20:18.000Z</time>
      </trkpt>
      <trkpt lat="42.88901" lon="0.20423">
        <ele>2144</ele>
        <time>2021-07-22T11:20:19.000Z</time>
      </trkpt>
      <trkpt lat="42.88908" lon="0.20413">
        <ele>2143.1</ele>
        <time>2021-07-22T11:20:29.000Z</time>
      </trkpt>
      <trkpt lat="42.88913" lon="0.20402">
        <ele>2142.7</ele>
        <time>2021-07-22T11:20:38.000Z</time>
      </trkpt>
      <trkpt lat="42.8892" lon="0.20392">
        <ele>2142.3</ele>
        <time>2021-07-22T11:20:47.000Z</time>
      </trkpt>
      <trkpt lat="42.88926" lon="0.20382">
        <ele>2142.8</ele>
        <time>2021-07-22T11:20:57.000Z</time>
      </trkpt>
      <trkpt lat="42.88935" lon="0.20385">
        <ele>2146.8</ele>
        <time>2021-07-22T11:21:19.000Z</time>
      </trkpt>
      <trkpt lat="42.88941" lon="0.20375">
        <ele>2149.3</ele>
        <time>2021-07-22T11:21:33.000Z</time>
      </trkpt>
      <trkpt lat="42.88949" lon="0.20368">
        <ele>2151.2</ele>
        <time>2021-07-22T11:21:49.000Z</time>
      </trkpt>
      <trkpt lat="42.88956" lon="0.2036">
        <ele>2153.3</ele>
        <time>2021-07-22T11:22:03.000Z</time>
      </trkpt>
      <trkpt lat="42.88963" lon="0.20351">
        <ele>2155.4</ele>
        <time>2021-07-22T11:22:16.000Z</time>
      </trkpt>
      <trkpt lat="42.88968" lon="0.20341">
        <ele>2157.2</ele>
        <time>2021-07-22T11:22:28.000Z</time>
      </trkpt>
      <trkpt lat="42.88974" lon="0.20331">
        <ele>2158.6</ele>
        <time>2021-07-22T11:22:43.000Z</time>
      </trkpt>
      <trkpt lat="42.88976" lon="0.2032">
        <ele>2161.8</ele>
        <time>2021-07-22T11:23:00.000Z</time>
      </trkpt>
      <trkpt lat="42.88977" lon="0.20319">
        <ele>2161.9</ele>
        <time>2021-07-22T11:23:01.000Z</time>
      </trkpt>
      <trkpt lat="42.88979" lon="0.20307">
        <ele>2164.7</ele>
        <time>2021-07-22T11:23:16.000Z</time>
      </trkpt>
      <trkpt lat="42.88986" lon="0.20299">
        <ele>2166.3</ele>
        <time>2021-07-22T11:23:29.000Z</time>
      </trkpt>
      <trkpt lat="42.88992" lon="0.2029">
        <ele>2166.9</ele>
        <time>2021-07-22T11:23:40.000Z</time>
      </trkpt>
      <trkpt lat="42.88997" lon="0.20279">
        <ele>2167.4</ele>
        <time>2021-07-22T11:23:49.000Z</time>
      </trkpt>
      <trkpt lat="42.89003" lon="0.2027">
        <ele>2168.3</ele>
        <time>2021-07-22T11:23:58.000Z</time>
      </trkpt>
      <trkpt lat="42.89011" lon="0.20264">
        <ele>2170.6</ele>
        <time>2021-07-22T11:24:10.000Z</time>
      </trkpt>
      <trkpt lat="42.89019" lon="0.20257">
        <ele>2173</ele>
        <time>2021-07-22T11:24:22.000Z</time>
      </trkpt>
      <trkpt lat="42.89027" lon="0.20249">
        <ele>2174.8</ele>
        <time>2021-07-22T11:24:33.000Z</time>
      </trkpt>
      <trkpt lat="42.89033" lon="0.20239">
        <ele>2176.2</ele>
        <time>2021-07-22T11:24:44.000Z</time>
      </trkpt>
      <trkpt lat="42.8904" lon="0.20231">
        <ele>2178.4</ele>
        <time>2021-07-22T11:24:55.000Z</time>
      </trkpt>
      <trkpt lat="42.89043" lon="0.20219">
        <ele>2180</ele>
        <time>2021-07-22T11:25:06.000Z</time>
      </trkpt>
      <trkpt lat="42.89049" lon="0.20209">
        <ele>2181.8</ele>
        <time>2021-07-22T11:25:23.000Z</time>
      </trkpt>
      <trkpt lat="42.89056" lon="0.20202">
        <ele>2180.7</ele>
        <time>2021-07-22T11:25:34.000Z</time>
      </trkpt>
      <trkpt lat="42.89062" lon="0.20193">
        <ele>2178.9</ele>
        <time>2021-07-22T11:25:44.000Z</time>
      </trkpt>
      <trkpt lat="42.89067" lon="0.20182">
        <ele>2178.4</ele>
        <time>2021-07-22T11:25:52.000Z</time>
      </trkpt>
      <trkpt lat="42.89072" lon="0.2017">
        <ele>2178.9</ele>
        <time>2021-07-22T11:26:02.000Z</time>
      </trkpt>
      <trkpt lat="42.89075" lon="0.20159">
        <ele>2181.3</ele>
        <time>2021-07-22T11:26:17.000Z</time>
      </trkpt>
      <trkpt lat="42.89084" lon="0.20159">
        <ele>2182.6</ele>
        <time>2021-07-22T11:26:30.000Z</time>
      </trkpt>
      <trkpt lat="42.89091" lon="0.20152">
        <ele>2183.5</ele>
        <time>2021-07-22T11:26:45.000Z</time>
      </trkpt>
      <trkpt lat="42.89093" lon="0.20147">
        <ele>2183.4</ele>
        <time>2021-07-22T11:26:52.000Z</time>
      </trkpt>
      <trkpt lat="42.89093" lon="0.20147">
        <ele>2183.5</ele>
        <time>2021-07-22T11:26:53.000Z</time>
      </trkpt>
      <trkpt lat="42.89099" lon="0.20137">
        <ele>2182.9</ele>
        <time>2021-07-22T11:27:01.000Z</time>
      </trkpt>
      <trkpt lat="42.89107" lon="0.20129">
        <ele>2181.7</ele>
        <time>2021-07-22T11:27:14.000Z</time>
      </trkpt>
      <trkpt lat="42.89112" lon="0.20119">
        <ele>2179.9</ele>
        <time>2021-07-22T11:27:26.000Z</time>
      </trkpt>
      <trkpt lat="42.89115" lon="0.20113">
        <ele>2178.3</ele>
        <time>2021-07-22T11:27:34.000Z</time>
      </trkpt>
      <trkpt lat="42.89115" lon="0.20112">
        <ele>2178.4</ele>
        <time>2021-07-22T11:27:35.000Z</time>
      </trkpt>
      <trkpt lat="42.89121" lon="0.20104">
        <ele>2174.5</ele>
        <time>2021-07-22T11:27:56.000Z</time>
      </trkpt>
      <trkpt lat="42.89122" lon="0.20103">
        <ele>2173.7</ele>
        <time>2021-07-22T11:27:58.000Z</time>
      </trkpt>
      <trkpt lat="42.89122" lon="0.20103">
        <ele>2173.6</ele>
        <time>2021-07-22T11:27:59.000Z</time>
      </trkpt>
      <trkpt lat="42.89129" lon="0.20095">
        <ele>2172.7</ele>
        <time>2021-07-22T11:28:07.000Z</time>
      </trkpt>
      <trkpt lat="42.89134" lon="0.20083">
        <ele>2170.9</ele>
        <time>2021-07-22T11:28:18.000Z</time>
      </trkpt>
      <trkpt lat="42.8914" lon="0.20081">
        <ele>2168.3</ele>
        <time>2021-07-22T11:28:33.000Z</time>
      </trkpt>
      <trkpt lat="42.8914" lon="0.20081">
        <ele>2167.9</ele>
        <time>2021-07-22T11:28:34.000Z</time>
      </trkpt>
      <trkpt lat="42.89142" lon="0.20084">
        <ele>2166</ele>
        <time>2021-07-22T11:28:43.000Z</time>
      </trkpt>
      <trkpt lat="42.89142" lon="0.20084">
        <ele>2166.1</ele>
        <time>2021-07-22T11:28:46.000Z</time>
      </trkpt>
      <trkpt lat="42.89142" lon="0.20084">
        <ele>2166.2</ele>
        <time>2021-07-22T11:28:47.000Z</time>
      </trkpt>
      <trkpt lat="42.89143" lon="0.20084">
        <ele>2166.3</ele>
        <time>2021-07-22T11:28:48.000Z</time>
      </trkpt>
      <trkpt lat="42.89144" lon="0.20083">
        <ele>2166.5</ele>
        <time>2021-07-22T11:28:52.000Z</time>
      </trkpt>
      <trkpt lat="42.89145" lon="0.20083">
        <ele>2166.4</ele>
        <time>2021-07-22T11:28:58.000Z</time>
      </trkpt>
      <trkpt lat="42.89147" lon="0.20083">
        <ele>2165.8</ele>
        <time>2021-07-22T11:29:04.000Z</time>
      </trkpt>
      <trkpt lat="42.89148" lon="0.20083">
        <ele>2165.8</ele>
        <time>2021-07-22T11:29:05.000Z</time>
      </trkpt>
      <trkpt lat="42.89156" lon="0.20089">
        <ele>2162.5</ele>
        <time>2021-07-22T11:29:19.000Z</time>
      </trkpt>
      <trkpt lat="42.89165" lon="0.20091">
        <ele>2160.3</ele>
        <time>2021-07-22T11:29:32.000Z</time>
      </trkpt>
      <trkpt lat="42.89173" lon="0.20099">
        <ele>2158.1</ele>
        <time>2021-07-22T11:29:45.000Z</time>
      </trkpt>
      <trkpt lat="42.89183" lon="0.20098">
        <ele>2155.9</ele>
        <time>2021-07-22T11:29:54.000Z</time>
      </trkpt>
      <trkpt lat="42.89184" lon="0.20099">
        <ele>2155.4</ele>
        <time>2021-07-22T11:29:58.000Z</time>
      </trkpt>
      <trkpt lat="42.89184" lon="0.20099">
        <ele>2155.4</ele>
        <time>2021-07-22T11:29:59.000Z</time>
      </trkpt>
      <trkpt lat="42.89194" lon="0.20099">
        <ele>2155.1</ele>
        <time>2021-07-22T11:30:08.000Z</time>
      </trkpt>
      <trkpt lat="42.89202" lon="0.20095">
        <ele>2155.2</ele>
        <time>2021-07-22T11:30:18.000Z</time>
      </trkpt>
      <trkpt lat="42.8921" lon="0.20088">
        <ele>2156.1</ele>
        <time>2021-07-22T11:30:29.000Z</time>
      </trkpt>
      <trkpt lat="42.8922" lon="0.20085">
        <ele>2156.9</ele>
        <time>2021-07-22T11:30:38.000Z</time>
      </trkpt>
      <trkpt lat="42.89229" lon="0.20085">
        <ele>2157.4</ele>
        <time>2021-07-22T11:30:48.000Z</time>
      </trkpt>
      <trkpt lat="42.89239" lon="0.20086">
        <ele>2156.5</ele>
        <time>2021-07-22T11:31:02.000Z</time>
      </trkpt>
      <trkpt lat="42.89248" lon="0.20089">
        <ele>2156.6</ele>
        <time>2021-07-22T11:31:13.000Z</time>
      </trkpt>
      <trkpt lat="42.89248" lon="0.20089">
        <ele>2156.3</ele>
        <time>2021-07-22T11:31:16.000Z</time>
      </trkpt>
      <trkpt lat="42.89249" lon="0.20089">
        <ele>2156.7</ele>
        <time>2021-07-22T11:31:19.000Z</time>
      </trkpt>
      <trkpt lat="42.89249" lon="0.20089">
        <ele>2157</ele>
        <time>2021-07-22T11:31:20.000Z</time>
      </trkpt>
      <trkpt lat="42.89249" lon="0.20088">
        <ele>2157.1</ele>
        <time>2021-07-22T11:31:21.000Z</time>
      </trkpt>
      <trkpt lat="42.89254" lon="0.20077">
        <ele>2156.4</ele>
        <time>2021-07-22T11:31:31.000Z</time>
      </trkpt>
      <trkpt lat="42.89256" lon="0.20075">
        <ele>2156.1</ele>
        <time>2021-07-22T11:31:37.000Z</time>
      </trkpt>
      <trkpt lat="42.89256" lon="0.20075">
        <ele>2156.2</ele>
        <time>2021-07-22T11:31:38.000Z</time>
      </trkpt>
      <trkpt lat="42.89264" lon="0.20069">
        <ele>2154.9</ele>
        <time>2021-07-22T11:31:52.000Z</time>
      </trkpt>
      <trkpt lat="42.8927" lon="0.20059">
        <ele>2153.4</ele>
        <time>2021-07-22T11:32:02.000Z</time>
      </trkpt>
      <trkpt lat="42.89272" lon="0.20047">
        <ele>2151.3</ele>
        <time>2021-07-22T11:32:12.000Z</time>
      </trkpt>
      <trkpt lat="42.89273" lon="0.20034">
        <ele>2149.4</ele>
        <time>2021-07-22T11:32:26.000Z</time>
      </trkpt>
      <trkpt lat="42.89277" lon="0.20023">
        <ele>2145.8</ele>
        <time>2021-07-22T11:32:45.000Z</time>
      </trkpt>
      <trkpt lat="42.89277" lon="0.2001">
        <ele>2141</ele>
        <time>2021-07-22T11:33:08.000Z</time>
      </trkpt>
      <trkpt lat="42.89281" lon="0.19998">
        <ele>2136</ele>
        <time>2021-07-22T11:33:30.000Z</time>
      </trkpt>
      <trkpt lat="42.8929" lon="0.19999">
        <ele>2133.3</ele>
        <time>2021-07-22T11:33:41.000Z</time>
      </trkpt>
      <trkpt lat="42.89298" lon="0.1999">
        <ele>2130.9</ele>
        <time>2021-07-22T11:33:55.000Z</time>
      </trkpt>
      <trkpt lat="42.89296" lon="0.19976">
        <ele>2128.8</ele>
        <time>2021-07-22T11:34:04.000Z</time>
      </trkpt>
      <trkpt lat="42.89292" lon="0.19965">
        <ele>2128</ele>
        <time>2021-07-22T11:34:13.000Z</time>
      </trkpt>
      <trkpt lat="42.89286" lon="0.19956">
        <ele>2127.3</ele>
        <time>2021-07-22T11:34:24.000Z</time>
      </trkpt>
      <trkpt lat="42.89286" lon="0.19956">
        <ele>2128</ele>
        <time>2021-07-22T11:34:29.000Z</time>
      </trkpt>
      <trkpt lat="42.89285" lon="0.19956">
        <ele>2127.9</ele>
        <time>2021-07-22T11:34:32.000Z</time>
      </trkpt>
      <trkpt lat="42.89286" lon="0.19956">
        <ele>2128.6</ele>
        <time>2021-07-22T11:34:53.000Z</time>
      </trkpt>
      <trkpt lat="42.89276" lon="0.19952">
        <ele>2127.6</ele>
        <time>2021-07-22T11:35:06.000Z</time>
      </trkpt>
      <trkpt lat="42.89274" lon="0.1994">
        <ele>2124.9</ele>
        <time>2021-07-22T11:35:23.000Z</time>
      </trkpt>
      <trkpt lat="42.8928" lon="0.1993">
        <ele>2122.1</ele>
        <time>2021-07-22T11:35:37.000Z</time>
      </trkpt>
      <trkpt lat="42.89281" lon="0.19916">
        <ele>2120.1</ele>
        <time>2021-07-22T11:35:50.000Z</time>
      </trkpt>
      <trkpt lat="42.89276" lon="0.19905">
        <ele>2118.1</ele>
        <time>2021-07-22T11:35:58.000Z</time>
      </trkpt>
      <trkpt lat="42.89271" lon="0.19893">
        <ele>2118.3</ele>
        <time>2021-07-22T11:36:06.000Z</time>
      </trkpt>
      <trkpt lat="42.89264" lon="0.19883">
        <ele>2118.6</ele>
        <time>2021-07-22T11:36:15.000Z</time>
      </trkpt>
      <trkpt lat="42.89263" lon="0.19881">
        <ele>2118.1</ele>
        <time>2021-07-22T11:36:21.000Z</time>
      </trkpt>
      <trkpt lat="42.89263" lon="0.19881">
        <ele>2118.6</ele>
        <time>2021-07-22T11:36:26.000Z</time>
      </trkpt>
      <trkpt lat="42.89255" lon="0.19874">
        <ele>2117.8</ele>
        <time>2021-07-22T11:36:36.000Z</time>
      </trkpt>
      <trkpt lat="42.89247" lon="0.19866">
        <ele>2116</ele>
        <time>2021-07-22T11:36:44.000Z</time>
      </trkpt>
      <trkpt lat="42.89243" lon="0.19855">
        <ele>2115.3</ele>
        <time>2021-07-22T11:36:51.000Z</time>
      </trkpt>
      <trkpt lat="42.89237" lon="0.19845">
        <ele>2114.8</ele>
        <time>2021-07-22T11:37:00.000Z</time>
      </trkpt>
      <trkpt lat="42.89232" lon="0.19838">
        <ele>2114.3</ele>
        <time>2021-07-22T11:37:10.000Z</time>
      </trkpt>
      <trkpt lat="42.89232" lon="0.19838">
        <ele>2114</ele>
        <time>2021-07-22T11:37:14.000Z</time>
      </trkpt>
      <trkpt lat="42.89232" lon="0.19838">
        <ele>2113.9</ele>
        <time>2021-07-22T11:37:15.000Z</time>
      </trkpt>
      <trkpt lat="42.89232" lon="0.19837">
        <ele>2113.6</ele>
        <time>2021-07-22T11:37:19.000Z</time>
      </trkpt>
      <trkpt lat="42.89231" lon="0.19836">
        <ele>2113.1</ele>
        <time>2021-07-22T11:37:26.000Z</time>
      </trkpt>
      <trkpt lat="42.8923" lon="0.19836">
        <ele>2113</ele>
        <time>2021-07-22T11:37:27.000Z</time>
      </trkpt>
      <trkpt lat="42.89237" lon="0.19826">
        <ele>2111.3</ele>
        <time>2021-07-22T11:37:36.000Z</time>
      </trkpt>
      <trkpt lat="42.89239" lon="0.19813">
        <ele>2111</ele>
        <time>2021-07-22T11:37:44.000Z</time>
      </trkpt>
      <trkpt lat="42.89243" lon="0.19801">
        <ele>2110.9</ele>
        <time>2021-07-22T11:37:52.000Z</time>
      </trkpt>
      <trkpt lat="42.89251" lon="0.19793">
        <ele>2110</ele>
        <time>2021-07-22T11:38:01.000Z</time>
      </trkpt>
      <trkpt lat="42.89259" lon="0.19787">
        <ele>2109.1</ele>
        <time>2021-07-22T11:38:09.000Z</time>
      </trkpt>
      <trkpt lat="42.89268" lon="0.19782">
        <ele>2108.3</ele>
        <time>2021-07-22T11:38:18.000Z</time>
      </trkpt>
      <trkpt lat="42.89273" lon="0.1977">
        <ele>2107.8</ele>
        <time>2021-07-22T11:38:27.000Z</time>
      </trkpt>
      <trkpt lat="42.89275" lon="0.19757">
        <ele>2107.7</ele>
        <time>2021-07-22T11:38:35.000Z</time>
      </trkpt>
      <trkpt lat="42.89281" lon="0.19747">
        <ele>2107</ele>
        <time>2021-07-22T11:38:45.000Z</time>
      </trkpt>
      <trkpt lat="42.89289" lon="0.19741">
        <ele>2104.7</ele>
        <time>2021-07-22T11:38:58.000Z</time>
      </trkpt>
      <trkpt lat="42.8929" lon="0.19741">
        <ele>2104.2</ele>
        <time>2021-07-22T11:38:59.000Z</time>
      </trkpt>
      <trkpt lat="42.89299" lon="0.19739">
        <ele>2103.4</ele>
        <time>2021-07-22T11:39:03.000Z</time>
      </trkpt>
      <trkpt lat="42.89307" lon="0.19744">
        <ele>2100.7</ele>
        <time>2021-07-22T11:39:14.000Z</time>
      </trkpt>
      <trkpt lat="42.89307" lon="0.19744">
        <ele>2101.1</ele>
        <time>2021-07-22T11:39:18.000Z</time>
      </trkpt>
      <trkpt lat="42.89307" lon="0.19744">
        <ele>2100.9</ele>
        <time>2021-07-22T11:39:21.000Z</time>
      </trkpt>
      <trkpt lat="42.89308" lon="0.19744">
        <ele>2100.8</ele>
        <time>2021-07-22T11:39:25.000Z</time>
      </trkpt>
      <trkpt lat="42.89316" lon="0.19748">
        <ele>2099.3</ele>
        <time>2021-07-22T11:39:34.000Z</time>
      </trkpt>
      <trkpt lat="42.89326" lon="0.19749">
        <ele>2097.3</ele>
        <time>2021-07-22T11:39:41.000Z</time>
      </trkpt>
      <trkpt lat="42.89333" lon="0.19742">
        <ele>2094.4</ele>
        <time>2021-07-22T11:39:54.000Z</time>
      </trkpt>
      <trkpt lat="42.89343" lon="0.19741">
        <ele>2089.8</ele>
        <time>2021-07-22T11:40:16.000Z</time>
      </trkpt>
      <trkpt lat="42.89352" lon="0.19743">
        <ele>2089</ele>
        <time>2021-07-22T11:40:28.000Z</time>
      </trkpt>
      <trkpt lat="42.89361" lon="0.19738">
        <ele>2090.2</ele>
        <time>2021-07-22T11:40:39.000Z</time>
      </trkpt>
      <trkpt lat="42.89368" lon="0.19728">
        <ele>2088.8</ele>
        <time>2021-07-22T11:40:51.000Z</time>
      </trkpt>
      <trkpt lat="42.89378" lon="0.19728">
        <ele>2089.4</ele>
        <time>2021-07-22T11:40:58.000Z</time>
      </trkpt>
      <trkpt lat="42.89386" lon="0.19724">
        <ele>2089.1</ele>
        <time>2021-07-22T11:41:10.000Z</time>
      </trkpt>
      <trkpt lat="42.89392" lon="0.19722">
        <ele>2087.7</ele>
        <time>2021-07-22T11:41:19.000Z</time>
      </trkpt>
      <trkpt lat="42.89393" lon="0.19722">
        <ele>2087.4</ele>
        <time>2021-07-22T11:41:21.000Z</time>
      </trkpt>
      <trkpt lat="42.89397" lon="0.1971">
        <ele>2084.4</ele>
        <time>2021-07-22T11:41:42.000Z</time>
      </trkpt>
      <trkpt lat="42.894" lon="0.19708">
        <ele>2083.5</ele>
        <time>2021-07-22T11:41:44.000Z</time>
      </trkpt>
      <trkpt lat="42.894" lon="0.19708">
        <ele>2084.8</ele>
        <time>2021-07-22T11:41:48.000Z</time>
      </trkpt>
      <trkpt lat="42.894" lon="0.19708">
        <ele>2085.1</ele>
        <time>2021-07-22T11:41:49.000Z</time>
      </trkpt>
      <trkpt lat="42.894" lon="0.19708">
        <ele>2087</ele>
        <time>2021-07-22T11:41:54.000Z</time>
      </trkpt>
      <trkpt lat="42.89401" lon="0.19708">
        <ele>2087.1</ele>
        <time>2021-07-22T11:41:56.000Z</time>
      </trkpt>
      <trkpt lat="42.89401" lon="0.19708">
        <ele>2086.5</ele>
        <time>2021-07-22T11:41:59.000Z</time>
      </trkpt>
      <trkpt lat="42.8941" lon="0.19711">
        <ele>2083.6</ele>
        <time>2021-07-22T11:42:17.000Z</time>
      </trkpt>
      <trkpt lat="42.89416" lon="0.19721">
        <ele>2082</ele>
        <time>2021-07-22T11:42:30.000Z</time>
      </trkpt>
      <trkpt lat="42.89423" lon="0.19729">
        <ele>2080.2</ele>
        <time>2021-07-22T11:42:39.000Z</time>
      </trkpt>
      <trkpt lat="42.89432" lon="0.19733">
        <ele>2079.7</ele>
        <time>2021-07-22T11:42:49.000Z</time>
      </trkpt>
      <trkpt lat="42.89437" lon="0.19745">
        <ele>2079</ele>
        <time>2021-07-22T11:43:02.000Z</time>
      </trkpt>
      <trkpt lat="42.89443" lon="0.19755">
        <ele>2077.7</ele>
        <time>2021-07-22T11:43:11.000Z</time>
      </trkpt>
      <trkpt lat="42.89448" lon="0.19765">
        <ele>2075.9</ele>
        <time>2021-07-22T11:43:24.000Z</time>
      </trkpt>
      <trkpt lat="42.89455" lon="0.19775">
        <ele>2074.3</ele>
        <time>2021-07-22T11:43:36.000Z</time>
      </trkpt>
      <trkpt lat="42.89463" lon="0.1978">
        <ele>2074</ele>
        <time>2021-07-22T11:43:47.000Z</time>
      </trkpt>
      <trkpt lat="42.89471" lon="0.19787">
        <ele>2074.1</ele>
        <time>2021-07-22T11:43:57.000Z</time>
      </trkpt>
      <trkpt lat="42.89478" lon="0.19798">
        <ele>2074.4</ele>
        <time>2021-07-22T11:44:07.000Z</time>
      </trkpt>
      <trkpt lat="42.89486" lon="0.19806">
        <ele>2074.3</ele>
        <time>2021-07-22T11:44:16.000Z</time>
      </trkpt>
      <trkpt lat="42.89494" lon="0.19811">
        <ele>2075.2</ele>
        <time>2021-07-22T11:44:29.000Z</time>
      </trkpt>
      <trkpt lat="42.89503" lon="0.1981">
        <ele>2074</ele>
        <time>2021-07-22T11:44:41.000Z</time>
      </trkpt>
      <trkpt lat="42.89511" lon="0.1982">
        <ele>2074.1</ele>
        <time>2021-07-22T11:44:48.000Z</time>
      </trkpt>
      <trkpt lat="42.89519" lon="0.19826">
        <ele>2075</ele>
        <time>2021-07-22T11:44:57.000Z</time>
      </trkpt>
      <trkpt lat="42.89526" lon="0.19834">
        <ele>2073.1</ele>
        <time>2021-07-22T11:45:10.000Z</time>
      </trkpt>
      <trkpt lat="42.89535" lon="0.19835">
        <ele>2073.4</ele>
        <time>2021-07-22T11:45:22.000Z</time>
      </trkpt>
      <trkpt lat="42.89544" lon="0.19841">
        <ele>2074.4</ele>
        <time>2021-07-22T11:45:34.000Z</time>
      </trkpt>
      <trkpt lat="42.89553" lon="0.19846">
        <ele>2074.6</ele>
        <time>2021-07-22T11:45:46.000Z</time>
      </trkpt>
      <trkpt lat="42.89562" lon="0.19851">
        <ele>2074.6</ele>
        <time>2021-07-22T11:45:57.000Z</time>
      </trkpt>
      <trkpt lat="42.89571" lon="0.19851">
        <ele>2075</ele>
        <time>2021-07-22T11:46:07.000Z</time>
      </trkpt>
      <trkpt lat="42.8958" lon="0.19854">
        <ele>2075</ele>
        <time>2021-07-22T11:46:16.000Z</time>
      </trkpt>
      <trkpt lat="42.89589" lon="0.1986">
        <ele>2074.6</ele>
        <time>2021-07-22T11:46:27.000Z</time>
      </trkpt>
      <trkpt lat="42.89597" lon="0.19865">
        <ele>2074.1</ele>
        <time>2021-07-22T11:46:39.000Z</time>
      </trkpt>
      <trkpt lat="42.89605" lon="0.19874">
        <ele>2073.8</ele>
        <time>2021-07-22T11:46:46.000Z</time>
      </trkpt>
      <trkpt lat="42.89612" lon="0.19883">
        <ele>2074.2</ele>
        <time>2021-07-22T11:46:56.000Z</time>
      </trkpt>
      <trkpt lat="42.89617" lon="0.19894">
        <ele>2074.7</ele>
        <time>2021-07-22T11:47:06.000Z</time>
      </trkpt>
      <trkpt lat="42.89623" lon="0.19905">
        <ele>2074.8</ele>
        <time>2021-07-22T11:47:17.000Z</time>
      </trkpt>
      <trkpt lat="42.89626" lon="0.19918">
        <ele>2074.5</ele>
        <time>2021-07-22T11:47:29.000Z</time>
      </trkpt>
      <trkpt lat="42.89632" lon="0.19928">
        <ele>2074.9</ele>
        <time>2021-07-22T11:47:38.000Z</time>
      </trkpt>
      <trkpt lat="42.89638" lon="0.19937">
        <ele>2075.2</ele>
        <time>2021-07-22T11:47:46.000Z</time>
      </trkpt>
      <trkpt lat="42.89641" lon="0.19943">
        <ele>2075</ele>
        <time>2021-07-22T11:47:54.000Z</time>
      </trkpt>
      <trkpt lat="42.89641" lon="0.19945">
        <ele>2074.9</ele>
        <time>2021-07-22T11:47:55.000Z</time>
      </trkpt>
      <trkpt lat="42.89643" lon="0.19954">
        <ele>2074.3</ele>
        <time>2021-07-22T11:48:03.000Z</time>
      </trkpt>
      <trkpt lat="42.89643" lon="0.19954">
        <ele>2074.2</ele>
        <time>2021-07-22T11:48:04.000Z</time>
      </trkpt>
      <trkpt lat="42.89644" lon="0.19965">
        <ele>2073.4</ele>
        <time>2021-07-22T11:48:14.000Z</time>
      </trkpt>
      <trkpt lat="42.89644" lon="0.19966">
        <ele>2073.7</ele>
        <time>2021-07-22T11:48:27.000Z</time>
      </trkpt>
      <trkpt lat="42.89649" lon="0.19978">
        <ele>2073.1</ele>
        <time>2021-07-22T11:48:37.000Z</time>
      </trkpt>
      <trkpt lat="42.89654" lon="0.1999">
        <ele>2073.6</ele>
        <time>2021-07-22T11:48:46.000Z</time>
      </trkpt>
      <trkpt lat="42.89655" lon="0.20003">
        <ele>2072.4</ele>
        <time>2021-07-22T11:48:59.000Z</time>
      </trkpt>
      <trkpt lat="42.89654" lon="0.20015">
        <ele>2069.5</ele>
        <time>2021-07-22T11:49:08.000Z</time>
      </trkpt>
      <trkpt lat="42.89655" lon="0.20018">
        <ele>2068.6</ele>
        <time>2021-07-22T11:49:13.000Z</time>
      </trkpt>
      <trkpt lat="42.89655" lon="0.20019">
        <ele>2068.5</ele>
        <time>2021-07-22T11:49:15.000Z</time>
      </trkpt>
      <trkpt lat="42.89661" lon="0.2003">
        <ele>2067</ele>
        <time>2021-07-22T11:49:25.000Z</time>
      </trkpt>
      <trkpt lat="42.89665" lon="0.20041">
        <ele>2064.3</ele>
        <time>2021-07-22T11:49:37.000Z</time>
      </trkpt>
      <trkpt lat="42.89674" lon="0.20042">
        <ele>2062.7</ele>
        <time>2021-07-22T11:49:47.000Z</time>
      </trkpt>
      <trkpt lat="42.8968" lon="0.20032">
        <ele>2062</ele>
        <time>2021-07-22T11:49:55.000Z</time>
      </trkpt>
      <trkpt lat="42.89688" lon="0.20028">
        <ele>2061.1</ele>
        <time>2021-07-22T11:50:05.000Z</time>
      </trkpt>
      <trkpt lat="42.89697" lon="0.20022">
        <ele>2060.3</ele>
        <time>2021-07-22T11:50:15.000Z</time>
      </trkpt>
      <trkpt lat="42.89707" lon="0.2002">
        <ele>2059.3</ele>
        <time>2021-07-22T11:50:21.000Z</time>
      </trkpt>
      <trkpt lat="42.89717" lon="0.20018">
        <ele>2058.4</ele>
        <time>2021-07-22T11:50:28.000Z</time>
      </trkpt>
      <trkpt lat="42.89725" lon="0.20011">
        <ele>2057.3</ele>
        <time>2021-07-22T11:50:36.000Z</time>
      </trkpt>
      <trkpt lat="42.89736" lon="0.20009">
        <ele>2057.1</ele>
        <time>2021-07-22T11:50:43.000Z</time>
      </trkpt>
      <trkpt lat="42.89746" lon="0.20012">
        <ele>2056.6</ele>
        <time>2021-07-22T11:50:51.000Z</time>
      </trkpt>
      <trkpt lat="42.89754" lon="0.2002">
        <ele>2054.5</ele>
        <time>2021-07-22T11:51:03.000Z</time>
      </trkpt>
      <trkpt lat="42.89762" lon="0.20029">
        <ele>2050.5</ele>
        <time>2021-07-22T11:51:11.000Z</time>
      </trkpt>
      <trkpt lat="42.8977" lon="0.20034">
        <ele>2046.8</ele>
        <time>2021-07-22T11:51:20.000Z</time>
      </trkpt>
      <trkpt lat="42.89778" lon="0.20042">
        <ele>2044.1</ele>
        <time>2021-07-22T11:51:29.000Z</time>
      </trkpt>
      <trkpt lat="42.89786" lon="0.2005">
        <ele>2041.4</ele>
        <time>2021-07-22T11:51:37.000Z</time>
      </trkpt>
      <trkpt lat="42.89795" lon="0.20053">
        <ele>2039.9</ele>
        <time>2021-07-22T11:51:45.000Z</time>
      </trkpt>
      <trkpt lat="42.89804" lon="0.20055">
        <ele>2038.2</ele>
        <time>2021-07-22T11:51:52.000Z</time>
      </trkpt>
      <trkpt lat="42.89814" lon="0.20054">
        <ele>2037</ele>
        <time>2021-07-22T11:51:59.000Z</time>
      </trkpt>
      <trkpt lat="42.89824" lon="0.20054">
        <ele>2035.3</ele>
        <time>2021-07-22T11:52:07.000Z</time>
      </trkpt>
      <trkpt lat="42.89832" lon="0.2006">
        <ele>2032.2</ele>
        <time>2021-07-22T11:52:16.000Z</time>
      </trkpt>
      <trkpt lat="42.8984" lon="0.20065">
        <ele>2029.4</ele>
        <time>2021-07-22T11:52:24.000Z</time>
      </trkpt>
      <trkpt lat="42.8985" lon="0.20067">
        <ele>2027.3</ele>
        <time>2021-07-22T11:52:32.000Z</time>
      </trkpt>
      <trkpt lat="42.89859" lon="0.20068">
        <ele>2025.8</ele>
        <time>2021-07-22T11:52:41.000Z</time>
      </trkpt>
      <trkpt lat="42.89865" lon="0.20057">
        <ele>2027</ele>
        <time>2021-07-22T11:52:51.000Z</time>
      </trkpt>
      <trkpt lat="42.8987" lon="0.20045">
        <ele>2029.2</ele>
        <time>2021-07-22T11:53:01.000Z</time>
      </trkpt>
      <trkpt lat="42.89879" lon="0.2004">
        <ele>2028.9</ele>
        <time>2021-07-22T11:53:12.000Z</time>
      </trkpt>
      <trkpt lat="42.89885" lon="0.2005">
        <ele>2025.5</ele>
        <time>2021-07-22T11:53:26.000Z</time>
      </trkpt>
      <trkpt lat="42.89883" lon="0.20062">
        <ele>2022.5</ele>
        <time>2021-07-22T11:53:35.000Z</time>
      </trkpt>
      <trkpt lat="42.89881" lon="0.20072">
        <ele>2019.5</ele>
        <time>2021-07-22T11:53:45.000Z</time>
      </trkpt>
      <trkpt lat="42.89881" lon="0.20073">
        <ele>2019.2</ele>
        <time>2021-07-22T11:53:46.000Z</time>
      </trkpt>
      <trkpt lat="42.89876" lon="0.20084">
        <ele>2017</ele>
        <time>2021-07-22T11:53:55.000Z</time>
      </trkpt>
      <trkpt lat="42.89876" lon="0.20098">
        <ele>2014</ele>
        <time>2021-07-22T11:54:05.000Z</time>
      </trkpt>
      <trkpt lat="42.89872" lon="0.20111">
        <ele>2011.3</ele>
        <time>2021-07-22T11:54:14.000Z</time>
      </trkpt>
      <trkpt lat="42.89868" lon="0.20123">
        <ele>2008.8</ele>
        <time>2021-07-22T11:54:22.000Z</time>
      </trkpt>
      <trkpt lat="42.89864" lon="0.20135">
        <ele>2006</ele>
        <time>2021-07-22T11:54:32.000Z</time>
      </trkpt>
      <trkpt lat="42.89858" lon="0.20145">
        <ele>2003</ele>
        <time>2021-07-22T11:54:42.000Z</time>
      </trkpt>
      <trkpt lat="42.89857" lon="0.20157">
        <ele>2001.3</ele>
        <time>2021-07-22T11:54:51.000Z</time>
      </trkpt>
      <trkpt lat="42.8986" lon="0.20171">
        <ele>1999.2</ele>
        <time>2021-07-22T11:55:00.000Z</time>
      </trkpt>
      <trkpt lat="42.89862" lon="0.20183">
        <ele>1998</ele>
        <time>2021-07-22T11:55:07.000Z</time>
      </trkpt>
      <trkpt lat="42.89866" lon="0.20194">
        <ele>1997.7</ele>
        <time>2021-07-22T11:55:15.000Z</time>
      </trkpt>
      <trkpt lat="42.89872" lon="0.20204">
        <ele>1996.6</ele>
        <time>2021-07-22T11:55:27.000Z</time>
      </trkpt>
      <trkpt lat="42.8988" lon="0.2021">
        <ele>1995.3</ele>
        <time>2021-07-22T11:55:39.000Z</time>
      </trkpt>
      <trkpt lat="42.89886" lon="0.2022">
        <ele>1994.5</ele>
        <time>2021-07-22T11:55:49.000Z</time>
      </trkpt>
      <trkpt lat="42.89891" lon="0.2023">
        <ele>1993.8</ele>
        <time>2021-07-22T11:55:57.000Z</time>
      </trkpt>
      <trkpt lat="42.89899" lon="0.20237">
        <ele>1993.2</ele>
        <time>2021-07-22T11:56:05.000Z</time>
      </trkpt>
      <trkpt lat="42.89904" lon="0.20247">
        <ele>1993.6</ele>
        <time>2021-07-22T11:56:12.000Z</time>
      </trkpt>
      <trkpt lat="42.89912" lon="0.20257">
        <ele>1992.1</ele>
        <time>2021-07-22T11:56:20.000Z</time>
      </trkpt>
      <trkpt lat="42.8992" lon="0.20264">
        <ele>1990.9</ele>
        <time>2021-07-22T11:56:27.000Z</time>
      </trkpt>
      <trkpt lat="42.8993" lon="0.20268">
        <ele>1990.8</ele>
        <time>2021-07-22T11:56:35.000Z</time>
      </trkpt>
      <trkpt lat="42.89938" lon="0.20276">
        <ele>1991</ele>
        <time>2021-07-22T11:56:42.000Z</time>
      </trkpt>
      <trkpt lat="42.89944" lon="0.20286">
        <ele>1990</ele>
        <time>2021-07-22T11:56:49.000Z</time>
      </trkpt>
      <trkpt lat="42.89947" lon="0.20298">
        <ele>1988.6</ele>
        <time>2021-07-22T11:56:56.000Z</time>
      </trkpt>
      <trkpt lat="42.89948" lon="0.20312">
        <ele>1987.3</ele>
        <time>2021-07-22T11:57:03.000Z</time>
      </trkpt>
      <trkpt lat="42.89952" lon="0.20324">
        <ele>1985.5</ele>
        <time>2021-07-22T11:57:10.000Z</time>
      </trkpt>
      <trkpt lat="42.89954" lon="0.20338">
        <ele>1983.5</ele>
        <time>2021-07-22T11:57:19.000Z</time>
      </trkpt>
      <trkpt lat="42.89957" lon="0.20349">
        <ele>1981.8</ele>
        <time>2021-07-22T11:57:27.000Z</time>
      </trkpt>
      <trkpt lat="42.8996" lon="0.20362">
        <ele>1981.2</ele>
        <time>2021-07-22T11:57:35.000Z</time>
      </trkpt>
      <trkpt lat="42.89965" lon="0.20372">
        <ele>1979.4</ele>
        <time>2021-07-22T11:57:44.000Z</time>
      </trkpt>
      <trkpt lat="42.89967" lon="0.20385">
        <ele>1977.1</ele>
        <time>2021-07-22T11:57:52.000Z</time>
      </trkpt>
      <trkpt lat="42.89972" lon="0.20396">
        <ele>1974.5</ele>
        <time>2021-07-22T11:58:01.000Z</time>
      </trkpt>
      <trkpt lat="42.89976" lon="0.20407">
        <ele>1972.9</ele>
        <time>2021-07-22T11:58:09.000Z</time>
      </trkpt>
      <trkpt lat="42.89985" lon="0.20413">
        <ele>1970.9</ele>
        <time>2021-07-22T11:58:20.000Z</time>
      </trkpt>
      <trkpt lat="42.89991" lon="0.20423">
        <ele>1968.6</ele>
        <time>2021-07-22T11:58:27.000Z</time>
      </trkpt>
      <trkpt lat="42.89996" lon="0.20433">
        <ele>1967.2</ele>
        <time>2021-07-22T11:58:34.000Z</time>
      </trkpt>
      <trkpt lat="42.90005" lon="0.20437">
        <ele>1963.4</ele>
        <time>2021-07-22T11:58:46.000Z</time>
      </trkpt>
      <trkpt lat="42.90014" lon="0.20433">
        <ele>1961.7</ele>
        <time>2021-07-22T11:58:54.000Z</time>
      </trkpt>
      <trkpt lat="42.90024" lon="0.20433">
        <ele>1959.1</ele>
        <time>2021-07-22T11:59:01.000Z</time>
      </trkpt>
      <trkpt lat="42.90033" lon="0.2044">
        <ele>1955.5</ele>
        <time>2021-07-22T11:59:16.000Z</time>
      </trkpt>
      <trkpt lat="42.90039" lon="0.2045">
        <ele>1953.8</ele>
        <time>2021-07-22T11:59:24.000Z</time>
      </trkpt>
      <trkpt lat="42.90043" lon="0.20462">
        <ele>1951.9</ele>
        <time>2021-07-22T11:59:33.000Z</time>
      </trkpt>
      <trkpt lat="42.90051" lon="0.2047">
        <ele>1949.5</ele>
        <time>2021-07-22T11:59:41.000Z</time>
      </trkpt>
      <trkpt lat="42.90056" lon="0.20481">
        <ele>1947.3</ele>
        <time>2021-07-22T11:59:50.000Z</time>
      </trkpt>
      <trkpt lat="42.90061" lon="0.20492">
        <ele>1945.6</ele>
        <time>2021-07-22T12:00:01.000Z</time>
      </trkpt>
      <trkpt lat="42.9007" lon="0.20496">
        <ele>1942.8</ele>
        <time>2021-07-22T12:00:12.000Z</time>
      </trkpt>
      <trkpt lat="42.90074" lon="0.20508">
        <ele>1940.1</ele>
        <time>2021-07-22T12:00:20.000Z</time>
      </trkpt>
      <trkpt lat="42.90078" lon="0.2052">
        <ele>1937.7</ele>
        <time>2021-07-22T12:00:28.000Z</time>
      </trkpt>
      <trkpt lat="42.90085" lon="0.20529">
        <ele>1935.3</ele>
        <time>2021-07-22T12:00:36.000Z</time>
      </trkpt>
      <trkpt lat="42.9009" lon="0.20539">
        <ele>1933</ele>
        <time>2021-07-22T12:00:43.000Z</time>
      </trkpt>
      <trkpt lat="42.90096" lon="0.20551">
        <ele>1929.4</ele>
        <time>2021-07-22T12:00:51.000Z</time>
      </trkpt>
      <trkpt lat="42.901" lon="0.20561">
        <ele>1926.3</ele>
        <time>2021-07-22T12:00:59.000Z</time>
      </trkpt>
      <trkpt lat="42.90104" lon="0.20572">
        <ele>1923.7</ele>
        <time>2021-07-22T12:01:09.000Z</time>
      </trkpt>
      <trkpt lat="42.90108" lon="0.20584">
        <ele>1920.9</ele>
        <time>2021-07-22T12:01:18.000Z</time>
      </trkpt>
      <trkpt lat="42.90112" lon="0.20596">
        <ele>1918.2</ele>
        <time>2021-07-22T12:01:26.000Z</time>
      </trkpt>
      <trkpt lat="42.90116" lon="0.20608">
        <ele>1916.1</ele>
        <time>2021-07-22T12:01:34.000Z</time>
      </trkpt>
      <trkpt lat="42.9012" lon="0.2062">
        <ele>1913.1</ele>
        <time>2021-07-22T12:01:43.000Z</time>
      </trkpt>
      <trkpt lat="42.90126" lon="0.2063">
        <ele>1911</ele>
        <time>2021-07-22T12:01:51.000Z</time>
      </trkpt>
      <trkpt lat="42.90131" lon="0.20642">
        <ele>1909.1</ele>
        <time>2021-07-22T12:01:59.000Z</time>
      </trkpt>
      <trkpt lat="42.90134" lon="0.20654">
        <ele>1906.7</ele>
        <time>2021-07-22T12:02:07.000Z</time>
      </trkpt>
      <trkpt lat="42.90136" lon="0.20667">
        <ele>1904</ele>
        <time>2021-07-22T12:02:16.000Z</time>
      </trkpt>
      <trkpt lat="42.90142" lon="0.20676">
        <ele>1901.2</ele>
        <time>2021-07-22T12:02:28.000Z</time>
      </trkpt>
      <trkpt lat="42.90148" lon="0.20687">
        <ele>1898.2</ele>
        <time>2021-07-22T12:02:38.000Z</time>
      </trkpt>
      <trkpt lat="42.90151" lon="0.207">
        <ele>1896.1</ele>
        <time>2021-07-22T12:02:46.000Z</time>
      </trkpt>
      <trkpt lat="42.90157" lon="0.20711">
        <ele>1893.3</ele>
        <time>2021-07-22T12:02:54.000Z</time>
      </trkpt>
      <trkpt lat="42.90162" lon="0.20721">
        <ele>1891</ele>
        <time>2021-07-22T12:03:02.000Z</time>
      </trkpt>
      <trkpt lat="42.90165" lon="0.20734">
        <ele>1889</ele>
        <time>2021-07-22T12:03:12.000Z</time>
      </trkpt>
      <trkpt lat="42.90173" lon="0.20742">
        <ele>1885.6</ele>
        <time>2021-07-22T12:03:24.000Z</time>
      </trkpt>
      <trkpt lat="42.90182" lon="0.20743">
        <ele>1881.5</ele>
        <time>2021-07-22T12:03:37.000Z</time>
      </trkpt>
      <trkpt lat="42.90181" lon="0.20756">
        <ele>1878.3</ele>
        <time>2021-07-22T12:03:49.000Z</time>
      </trkpt>
      <trkpt lat="42.90173" lon="0.20762">
        <ele>1875.9</ele>
        <time>2021-07-22T12:03:57.000Z</time>
      </trkpt>
      <trkpt lat="42.90165" lon="0.20768">
        <ele>1873.8</ele>
        <time>2021-07-22T12:04:04.000Z</time>
      </trkpt>
      <trkpt lat="42.90158" lon="0.20776">
        <ele>1872.4</ele>
        <time>2021-07-22T12:04:11.000Z</time>
      </trkpt>
      <trkpt lat="42.9015" lon="0.20783">
        <ele>1870.7</ele>
        <time>2021-07-22T12:04:20.000Z</time>
      </trkpt>
      <trkpt lat="42.90155" lon="0.20794">
        <ele>1868.1</ele>
        <time>2021-07-22T12:04:32.000Z</time>
      </trkpt>
      <trkpt lat="42.90164" lon="0.20793">
        <ele>1865.4</ele>
        <time>2021-07-22T12:04:40.000Z</time>
      </trkpt>
      <trkpt lat="42.90174" lon="0.20792">
        <ele>1862.5</ele>
        <time>2021-07-22T12:04:50.000Z</time>
      </trkpt>
      <trkpt lat="42.90183" lon="0.20796">
        <ele>1859.1</ele>
        <time>2021-07-22T12:05:01.000Z</time>
      </trkpt>
      <trkpt lat="42.90192" lon="0.20802">
        <ele>1856.5</ele>
        <time>2021-07-22T12:05:10.000Z</time>
      </trkpt>
      <trkpt lat="42.90202" lon="0.20802">
        <ele>1853.6</ele>
        <time>2021-07-22T12:05:19.000Z</time>
      </trkpt>
      <trkpt lat="42.9021" lon="0.20809">
        <ele>1849.4</ele>
        <time>2021-07-22T12:05:31.000Z</time>
      </trkpt>
      <trkpt lat="42.90214" lon="0.20821">
        <ele>1846.3</ele>
        <time>2021-07-22T12:05:40.000Z</time>
      </trkpt>
      <trkpt lat="42.90216" lon="0.20833">
        <ele>1844.2</ele>
        <time>2021-07-22T12:05:47.000Z</time>
      </trkpt>
      <trkpt lat="42.90219" lon="0.20845">
        <ele>1841.1</ele>
        <time>2021-07-22T12:05:57.000Z</time>
      </trkpt>
      <trkpt lat="42.90228" lon="0.20843">
        <ele>1836.9</ele>
        <time>2021-07-22T12:06:08.000Z</time>
      </trkpt>
      <trkpt lat="42.90238" lon="0.20843">
        <ele>1833.6</ele>
        <time>2021-07-22T12:06:15.000Z</time>
      </trkpt>
      <trkpt lat="42.90244" lon="0.20842">
        <ele>1831.3</ele>
        <time>2021-07-22T12:06:22.000Z</time>
      </trkpt>
      <trkpt lat="42.90244" lon="0.20842">
        <ele>1831</ele>
        <time>2021-07-22T12:06:24.000Z</time>
      </trkpt>
      <trkpt lat="42.90252" lon="0.20836">
        <ele>1827.5</ele>
        <time>2021-07-22T12:06:39.000Z</time>
      </trkpt>
      <trkpt lat="42.90261" lon="0.2084">
        <ele>1824.7</ele>
        <time>2021-07-22T12:06:50.000Z</time>
      </trkpt>
      <trkpt lat="42.9027" lon="0.20844">
        <ele>1821.5</ele>
        <time>2021-07-22T12:07:04.000Z</time>
      </trkpt>
      <trkpt lat="42.90278" lon="0.2085">
        <ele>1816.5</ele>
        <time>2021-07-22T12:07:19.000Z</time>
      </trkpt>
      <trkpt lat="42.90283" lon="0.20861">
        <ele>1814.4</ele>
        <time>2021-07-22T12:07:26.000Z</time>
      </trkpt>
      <trkpt lat="42.90285" lon="0.20855">
        <ele>1811.4</ele>
        <time>2021-07-22T12:07:38.000Z</time>
      </trkpt>
      <trkpt lat="42.90285" lon="0.20854">
        <ele>1811.1</ele>
        <time>2021-07-22T12:07:39.000Z</time>
      </trkpt>
      <trkpt lat="42.90292" lon="0.20862">
        <ele>1805.7</ele>
        <time>2021-07-22T12:07:58.000Z</time>
      </trkpt>
      <trkpt lat="42.90301" lon="0.20864">
        <ele>1804.2</ele>
        <time>2021-07-22T12:08:06.000Z</time>
      </trkpt>
      <trkpt lat="42.90309" lon="0.20869">
        <ele>1803.9</ele>
        <time>2021-07-22T12:08:15.000Z</time>
      </trkpt>
      <trkpt lat="42.90317" lon="0.20877">
        <ele>1804.6</ele>
        <time>2021-07-22T12:08:24.000Z</time>
      </trkpt>
      <trkpt lat="42.90326" lon="0.20882">
        <ele>1804.7</ele>
        <time>2021-07-22T12:08:35.000Z</time>
      </trkpt>
      <trkpt lat="42.90335" lon="0.20884">
        <ele>1802.5</ele>
        <time>2021-07-22T12:08:49.000Z</time>
      </trkpt>
      <trkpt lat="42.90345" lon="0.20889">
        <ele>1799.4</ele>
        <time>2021-07-22T12:09:02.000Z</time>
      </trkpt>
      <trkpt lat="42.90353" lon="0.20896">
        <ele>1797.3</ele>
        <time>2021-07-22T12:09:13.000Z</time>
      </trkpt>
      <trkpt lat="42.9036" lon="0.20904">
        <ele>1795.7</ele>
        <time>2021-07-22T12:09:21.000Z</time>
      </trkpt>
      <trkpt lat="42.90367" lon="0.20912">
        <ele>1793</ele>
        <time>2021-07-22T12:09:31.000Z</time>
      </trkpt>
      <trkpt lat="42.90376" lon="0.20915">
        <ele>1790.6</ele>
        <time>2021-07-22T12:09:42.000Z</time>
      </trkpt>
      <trkpt lat="42.90384" lon="0.20925">
        <ele>1788.2</ele>
        <time>2021-07-22T12:09:53.000Z</time>
      </trkpt>
      <trkpt lat="42.90392" lon="0.20932">
        <ele>1784.8</ele>
        <time>2021-07-22T12:10:04.000Z</time>
      </trkpt>
      <trkpt lat="42.904" lon="0.20934">
        <ele>1782</ele>
        <time>2021-07-22T12:10:17.000Z</time>
      </trkpt>
      <trkpt lat="42.904" lon="0.20934">
        <ele>1781.7</ele>
        <time>2021-07-22T12:10:18.000Z</time>
      </trkpt>
      <trkpt lat="42.90402" lon="0.20933">
        <ele>1781.5</ele>
        <time>2021-07-22T12:10:24.000Z</time>
      </trkpt>
      <trkpt lat="42.90402" lon="0.20933">
        <ele>1781.2</ele>
        <time>2021-07-22T12:10:25.000Z</time>
      </trkpt>
      <trkpt lat="42.90406" lon="0.20935">
        <ele>1779.4</ele>
        <time>2021-07-22T12:10:32.000Z</time>
      </trkpt>
      <trkpt lat="42.90406" lon="0.20936">
        <ele>1779.5</ele>
        <time>2021-07-22T12:10:33.000Z</time>
      </trkpt>
      <trkpt lat="42.90414" lon="0.20943">
        <ele>1777.7</ele>
        <time>2021-07-22T12:10:48.000Z</time>
      </trkpt>
      <trkpt lat="42.90424" lon="0.20944">
        <ele>1773.4</ele>
        <time>2021-07-22T12:10:57.000Z</time>
      </trkpt>
      <trkpt lat="42.90433" lon="0.20948">
        <ele>1772.8</ele>
        <time>2021-07-22T12:11:05.000Z</time>
      </trkpt>
      <trkpt lat="42.90441" lon="0.20955">
        <ele>1771.9</ele>
        <time>2021-07-22T12:11:13.000Z</time>
      </trkpt>
      <trkpt lat="42.90442" lon="0.2096">
        <ele>1771.3</ele>
        <time>2021-07-22T12:11:19.000Z</time>
      </trkpt>
      <trkpt lat="42.90443" lon="0.20961">
        <ele>1771</ele>
        <time>2021-07-22T12:11:21.000Z</time>
      </trkpt>
      <trkpt lat="42.90441" lon="0.20965">
        <ele>1771.5</ele>
        <time>2021-07-22T12:11:31.000Z</time>
      </trkpt>
      <trkpt lat="42.90441" lon="0.20965">
        <ele>1771.4</ele>
        <time>2021-07-22T12:11:32.000Z</time>
      </trkpt>
      <trkpt lat="42.90442" lon="0.20965">
        <ele>1771.1</ele>
        <time>2021-07-22T12:11:35.000Z</time>
      </trkpt>
      <trkpt lat="42.90442" lon="0.20965">
        <ele>1770.7</ele>
        <time>2021-07-22T12:11:36.000Z</time>
      </trkpt>
      <trkpt lat="42.90452" lon="0.20963">
        <ele>1767.7</ele>
        <time>2021-07-22T12:11:47.000Z</time>
      </trkpt>
      <trkpt lat="42.90456" lon="0.20951">
        <ele>1765.2</ele>
        <time>2021-07-22T12:11:59.000Z</time>
      </trkpt>
      <trkpt lat="42.90464" lon="0.20944">
        <ele>1762.5</ele>
        <time>2021-07-22T12:12:09.000Z</time>
      </trkpt>
      <trkpt lat="42.90467" lon="0.20943">
        <ele>1761.1</ele>
        <time>2021-07-22T12:12:16.000Z</time>
      </trkpt>
      <trkpt lat="42.90467" lon="0.20943">
        <ele>1761</ele>
        <time>2021-07-22T12:12:17.000Z</time>
      </trkpt>
      <trkpt lat="42.90467" lon="0.20942">
        <ele>1760.7</ele>
        <time>2021-07-22T12:12:18.000Z</time>
      </trkpt>
      <trkpt lat="42.90467" lon="0.20943">
        <ele>1760.5</ele>
        <time>2021-07-22T12:12:19.000Z</time>
      </trkpt>
      <trkpt lat="42.90473" lon="0.20953">
        <ele>1754.4</ele>
        <time>2021-07-22T12:12:38.000Z</time>
      </trkpt>
      <trkpt lat="42.90482" lon="0.20957">
        <ele>1751.4</ele>
        <time>2021-07-22T12:12:47.000Z</time>
      </trkpt>
      <trkpt lat="42.90491" lon="0.20953">
        <ele>1748.5</ele>
        <time>2021-07-22T12:12:54.000Z</time>
      </trkpt>
      <trkpt lat="42.90498" lon="0.20945">
        <ele>1745.7</ele>
        <time>2021-07-22T12:13:01.000Z</time>
      </trkpt>
      <trkpt lat="42.90506" lon="0.20937">
        <ele>1743.6</ele>
        <time>2021-07-22T12:13:08.000Z</time>
      </trkpt>
      <trkpt lat="42.90514" lon="0.20929">
        <ele>1739.6</ele>
        <time>2021-07-22T12:13:21.000Z</time>
      </trkpt>
      <trkpt lat="42.9052" lon="0.20919">
        <ele>1737.3</ele>
        <time>2021-07-22T12:13:31.000Z</time>
      </trkpt>
      <trkpt lat="42.90529" lon="0.20914">
        <ele>1734.2</ele>
        <time>2021-07-22T12:13:39.000Z</time>
      </trkpt>
      <trkpt lat="42.90537" lon="0.2091">
        <ele>1727.3</ele>
        <time>2021-07-22T12:13:56.000Z</time>
      </trkpt>
      <trkpt lat="42.90542" lon="0.20908">
        <ele>1724</ele>
        <time>2021-07-22T12:14:06.000Z</time>
      </trkpt>
      <trkpt lat="42.90542" lon="0.20908">
        <ele>1723.5</ele>
        <time>2021-07-22T12:14:08.000Z</time>
      </trkpt>
      <trkpt lat="42.90549" lon="0.20907">
        <ele>1718.9</ele>
        <time>2021-07-22T12:14:21.000Z</time>
      </trkpt>
      <trkpt lat="42.90549" lon="0.20908">
        <ele>1718.7</ele>
        <time>2021-07-22T12:14:22.000Z</time>
      </trkpt>
      <trkpt lat="42.90558" lon="0.20913">
        <ele>1716.7</ele>
        <time>2021-07-22T12:14:31.000Z</time>
      </trkpt>
      <trkpt lat="42.90561" lon="0.20925">
        <ele>1712.9</ele>
        <time>2021-07-22T12:14:42.000Z</time>
      </trkpt>
      <trkpt lat="42.9056" lon="0.20938">
        <ele>1709.2</ele>
        <time>2021-07-22T12:14:53.000Z</time>
      </trkpt>
      <trkpt lat="42.90554" lon="0.20948">
        <ele>1706.5</ele>
        <time>2021-07-22T12:15:01.000Z</time>
      </trkpt>
      <trkpt lat="42.90547" lon="0.20956">
        <ele>1705.4</ele>
        <time>2021-07-22T12:15:08.000Z</time>
      </trkpt>
      <trkpt lat="42.90543" lon="0.20967">
        <ele>1703.2</ele>
        <time>2021-07-22T12:15:17.000Z</time>
      </trkpt>
      <trkpt lat="42.9054" lon="0.2098">
        <ele>1700.8</ele>
        <time>2021-07-22T12:15:25.000Z</time>
      </trkpt>
      <trkpt lat="42.90539" lon="0.20993">
        <ele>1698.2</ele>
        <time>2021-07-22T12:15:33.000Z</time>
      </trkpt>
      <trkpt lat="42.90536" lon="0.21005">
        <ele>1695.5</ele>
        <time>2021-07-22T12:15:42.000Z</time>
      </trkpt>
      <trkpt lat="42.90535" lon="0.21019">
        <ele>1693.5</ele>
        <time>2021-07-22T12:15:50.000Z</time>
      </trkpt>
      <trkpt lat="42.90533" lon="0.21031">
        <ele>1692.4</ele>
        <time>2021-07-22T12:15:58.000Z</time>
      </trkpt>
      <trkpt lat="42.90532" lon="0.21044">
        <ele>1688.9</ele>
        <time>2021-07-22T12:16:09.000Z</time>
      </trkpt>
      <trkpt lat="42.90532" lon="0.21056">
        <ele>1687.2</ele>
        <time>2021-07-22T12:16:20.000Z</time>
      </trkpt>
      <trkpt lat="42.90533" lon="0.21069">
        <ele>1684.5</ele>
        <time>2021-07-22T12:16:29.000Z</time>
      </trkpt>
      <trkpt lat="42.9053" lon="0.21082">
        <ele>1681.4</ele>
        <time>2021-07-22T12:16:41.000Z</time>
      </trkpt>
      <trkpt lat="42.90531" lon="0.21094">
        <ele>1678.5</ele>
        <time>2021-07-22T12:16:52.000Z</time>
      </trkpt>
      <trkpt lat="42.9054" lon="0.21089">
        <ele>1676.5</ele>
        <time>2021-07-22T12:17:00.000Z</time>
      </trkpt>
      <trkpt lat="42.90549" lon="0.21084">
        <ele>1674.5</ele>
        <time>2021-07-22T12:17:09.000Z</time>
      </trkpt>
      <trkpt lat="42.90557" lon="0.21079">
        <ele>1671.3</ele>
        <time>2021-07-22T12:17:17.000Z</time>
      </trkpt>
      <trkpt lat="42.90564" lon="0.21088">
        <ele>1670.7</ele>
        <time>2021-07-22T12:17:28.000Z</time>
      </trkpt>
      <trkpt lat="42.90564" lon="0.21089">
        <ele>1670.9</ele>
        <time>2021-07-22T12:17:33.000Z</time>
      </trkpt>
      <trkpt lat="42.90564" lon="0.2109">
        <ele>1670.1</ele>
        <time>2021-07-22T12:17:44.000Z</time>
      </trkpt>
      <trkpt lat="42.90564" lon="0.2109">
        <ele>1669.9</ele>
        <time>2021-07-22T12:17:45.000Z</time>
      </trkpt>
      <trkpt lat="42.90564" lon="0.2109">
        <ele>1669.5</ele>
        <time>2021-07-22T12:18:03.000Z</time>
      </trkpt>
      <trkpt lat="42.90565" lon="0.2109">
        <ele>1669.2</ele>
        <time>2021-07-22T12:18:06.000Z</time>
      </trkpt>
      <trkpt lat="42.90565" lon="0.2109">
        <ele>1669.1</ele>
        <time>2021-07-22T12:18:37.000Z</time>
      </trkpt>
      <trkpt lat="42.90564" lon="0.2109">
        <ele>1669.2</ele>
        <time>2021-07-22T12:18:40.000Z</time>
      </trkpt>
      <trkpt lat="42.90564" lon="0.21091">
        <ele>1668.6</ele>
        <time>2021-07-22T12:18:43.000Z</time>
      </trkpt>
      <trkpt lat="42.90573" lon="0.21095">
        <ele>1667.8</ele>
        <time>2021-07-22T12:18:54.000Z</time>
      </trkpt>
      <trkpt lat="42.90583" lon="0.21098">
        <ele>1665.6</ele>
        <time>2021-07-22T12:19:02.000Z</time>
      </trkpt>
      <trkpt lat="42.90592" lon="0.21102">
        <ele>1662.9</ele>
        <time>2021-07-22T12:19:10.000Z</time>
      </trkpt>
      <trkpt lat="42.90602" lon="0.21105">
        <ele>1659.9</ele>
        <time>2021-07-22T12:19:19.000Z</time>
      </trkpt>
      <trkpt lat="42.90609" lon="0.21113">
        <ele>1657.7</ele>
        <time>2021-07-22T12:19:29.000Z</time>
      </trkpt>
      <trkpt lat="42.90618" lon="0.21119">
        <ele>1656.3</ele>
        <time>2021-07-22T12:19:36.000Z</time>
      </trkpt>
      <trkpt lat="42.90627" lon="0.21123">
        <ele>1655.1</ele>
        <time>2021-07-22T12:19:44.000Z</time>
      </trkpt>
      <trkpt lat="42.90637" lon="0.21124">
        <ele>1654.2</ele>
        <time>2021-07-22T12:19:51.000Z</time>
      </trkpt>
      <trkpt lat="42.90647" lon="0.21122">
        <ele>1653.1</ele>
        <time>2021-07-22T12:19:58.000Z</time>
      </trkpt>
      <trkpt lat="42.90656" lon="0.21124">
        <ele>1651.5</ele>
        <time>2021-07-22T12:20:05.000Z</time>
      </trkpt>
      <trkpt lat="42.90666" lon="0.21126">
        <ele>1650.3</ele>
        <time>2021-07-22T12:20:12.000Z</time>
      </trkpt>
      <trkpt lat="42.90675" lon="0.21126">
        <ele>1648.9</ele>
        <time>2021-07-22T12:20:19.000Z</time>
      </trkpt>
      <trkpt lat="42.90684" lon="0.21122">
        <ele>1647.3</ele>
        <time>2021-07-22T12:20:25.000Z</time>
      </trkpt>
      <trkpt lat="42.90693" lon="0.21122">
        <ele>1646</ele>
        <time>2021-07-22T12:20:33.000Z</time>
      </trkpt>
      <trkpt lat="42.90699" lon="0.21131">
        <ele>1643.4</ele>
        <time>2021-07-22T12:20:44.000Z</time>
      </trkpt>
      <trkpt lat="42.90706" lon="0.21141">
        <ele>1641.3</ele>
        <time>2021-07-22T12:20:52.000Z</time>
      </trkpt>
      <trkpt lat="42.90709" lon="0.21153">
        <ele>1639.6</ele>
        <time>2021-07-22T12:20:59.000Z</time>
      </trkpt>
      <trkpt lat="42.90712" lon="0.21165">
        <ele>1637.1</ele>
        <time>2021-07-22T12:21:07.000Z</time>
      </trkpt>
      <trkpt lat="42.90718" lon="0.21174">
        <ele>1636</ele>
        <time>2021-07-22T12:21:16.000Z</time>
      </trkpt>
      <trkpt lat="42.9072" lon="0.21186">
        <ele>1635.9</ele>
        <time>2021-07-22T12:21:23.000Z</time>
      </trkpt>
      <trkpt lat="42.90726" lon="0.21196">
        <ele>1635.2</ele>
        <time>2021-07-22T12:21:30.000Z</time>
      </trkpt>
      <trkpt lat="42.90733" lon="0.21206">
        <ele>1634.8</ele>
        <time>2021-07-22T12:21:38.000Z</time>
      </trkpt>
      <trkpt lat="42.90742" lon="0.21215">
        <ele>1634.1</ele>
        <time>2021-07-22T12:21:46.000Z</time>
      </trkpt>
      <trkpt lat="42.90747" lon="0.21226">
        <ele>1633.4</ele>
        <time>2021-07-22T12:21:54.000Z</time>
      </trkpt>
      <trkpt lat="42.90751" lon="0.21239">
        <ele>1632.2</ele>
        <time>2021-07-22T12:22:02.000Z</time>
      </trkpt>
      <trkpt lat="42.90754" lon="0.21251">
        <ele>1631.7</ele>
        <time>2021-07-22T12:22:10.000Z</time>
      </trkpt>
      <trkpt lat="42.90757" lon="0.21263">
        <ele>1630.9</ele>
        <time>2021-07-22T12:22:19.000Z</time>
      </trkpt>
      <trkpt lat="42.90762" lon="0.21275">
        <ele>1630.6</ele>
        <time>2021-07-22T12:22:30.000Z</time>
      </trkpt>
      <trkpt lat="42.90769" lon="0.21283">
        <ele>1630.4</ele>
        <time>2021-07-22T12:22:40.000Z</time>
      </trkpt>
      <trkpt lat="42.90778" lon="0.21288">
        <ele>1629.1</ele>
        <time>2021-07-22T12:22:49.000Z</time>
      </trkpt>
      <trkpt lat="42.90786" lon="0.21294">
        <ele>1628.2</ele>
        <time>2021-07-22T12:22:57.000Z</time>
      </trkpt>
      <trkpt lat="42.90794" lon="0.21302">
        <ele>1628.4</ele>
        <time>2021-07-22T12:23:05.000Z</time>
      </trkpt>
      <trkpt lat="42.90803" lon="0.21305">
        <ele>1628.6</ele>
        <time>2021-07-22T12:23:13.000Z</time>
      </trkpt>
      <trkpt lat="42.9081" lon="0.21313">
        <ele>1628.7</ele>
        <time>2021-07-22T12:23:21.000Z</time>
      </trkpt>
      <trkpt lat="42.90818" lon="0.21319">
        <ele>1627.7</ele>
        <time>2021-07-22T12:23:29.000Z</time>
      </trkpt>
      <trkpt lat="42.9082" lon="0.21323">
        <ele>1627.5</ele>
        <time>2021-07-22T12:23:35.000Z</time>
      </trkpt>
      <trkpt lat="42.90821" lon="0.21324">
        <ele>1627.5</ele>
        <time>2021-07-22T12:23:36.000Z</time>
      </trkpt>
      <trkpt lat="42.90828" lon="0.21332">
        <ele>1627</ele>
        <time>2021-07-22T12:23:43.000Z</time>
      </trkpt>
      <trkpt lat="42.90834" lon="0.21341">
        <ele>1626.3</ele>
        <time>2021-07-22T12:23:51.000Z</time>
      </trkpt>
      <trkpt lat="42.90842" lon="0.21349">
        <ele>1625.1</ele>
        <time>2021-07-22T12:23:59.000Z</time>
      </trkpt>
      <trkpt lat="42.9085" lon="0.21357">
        <ele>1624</ele>
        <time>2021-07-22T12:24:07.000Z</time>
      </trkpt>
      <trkpt lat="42.90857" lon="0.21366">
        <ele>1623.3</ele>
        <time>2021-07-22T12:24:16.000Z</time>
      </trkpt>
      <trkpt lat="42.90863" lon="0.21378">
        <ele>1622.8</ele>
        <time>2021-07-22T12:24:26.000Z</time>
      </trkpt>
      <trkpt lat="42.9087" lon="0.21386">
        <ele>1622.4</ele>
        <time>2021-07-22T12:24:34.000Z</time>
      </trkpt>
      <trkpt lat="42.90879" lon="0.21389">
        <ele>1621.5</ele>
        <time>2021-07-22T12:24:42.000Z</time>
      </trkpt>
      <trkpt lat="42.90888" lon="0.21393">
        <ele>1620.8</ele>
        <time>2021-07-22T12:24:49.000Z</time>
      </trkpt>
      <trkpt lat="42.90894" lon="0.21403">
        <ele>1619.3</ele>
        <time>2021-07-22T12:24:58.000Z</time>
      </trkpt>
      <trkpt lat="42.90901" lon="0.21413">
        <ele>1618.8</ele>
        <time>2021-07-22T12:25:07.000Z</time>
      </trkpt>
      <trkpt lat="42.90908" lon="0.21422">
        <ele>1618.9</ele>
        <time>2021-07-22T12:25:17.000Z</time>
      </trkpt>
      <trkpt lat="42.90915" lon="0.21432">
        <ele>1618.6</ele>
        <time>2021-07-22T12:25:25.000Z</time>
      </trkpt>
      <trkpt lat="42.90924" lon="0.21435">
        <ele>1618.7</ele>
        <time>2021-07-22T12:25:33.000Z</time>
      </trkpt>
      <trkpt lat="42.90932" lon="0.21439">
        <ele>1618.2</ele>
        <time>2021-07-22T12:25:43.000Z</time>
      </trkpt>
      <trkpt lat="42.90941" lon="0.21445">
        <ele>1617.6</ele>
        <time>2021-07-22T12:25:51.000Z</time>
      </trkpt>
      <trkpt lat="42.9095" lon="0.21449">
        <ele>1615.9</ele>
        <time>2021-07-22T12:26:00.000Z</time>
      </trkpt>
      <trkpt lat="42.90957" lon="0.21456">
        <ele>1614.5</ele>
        <time>2021-07-22T12:26:07.000Z</time>
      </trkpt>
      <trkpt lat="42.90965" lon="0.21465">
        <ele>1613.5</ele>
        <time>2021-07-22T12:26:15.000Z</time>
      </trkpt>
      <trkpt lat="42.90973" lon="0.21472">
        <ele>1612.9</ele>
        <time>2021-07-22T12:26:23.000Z</time>
      </trkpt>
      <trkpt lat="42.90982" lon="0.21478">
        <ele>1611.3</ele>
        <time>2021-07-22T12:26:32.000Z</time>
      </trkpt>
      <trkpt lat="42.9099" lon="0.21484">
        <ele>1610.3</ele>
        <time>2021-07-22T12:26:39.000Z</time>
      </trkpt>
      <trkpt lat="42.90999" lon="0.21489">
        <ele>1610</ele>
        <time>2021-07-22T12:26:47.000Z</time>
      </trkpt>
      <trkpt lat="42.91006" lon="0.21498">
        <ele>1609.7</ele>
        <time>2021-07-22T12:26:55.000Z</time>
      </trkpt>
      <trkpt lat="42.91014" lon="0.21504">
        <ele>1608.3</ele>
        <time>2021-07-22T12:27:05.000Z</time>
      </trkpt>
      <trkpt lat="42.91023" lon="0.21511">
        <ele>1607.3</ele>
        <time>2021-07-22T12:27:14.000Z</time>
      </trkpt>
      <trkpt lat="42.91027" lon="0.21522">
        <ele>1605.9</ele>
        <time>2021-07-22T12:27:23.000Z</time>
      </trkpt>
      <trkpt lat="42.91037" lon="0.21524">
        <ele>1604.1</ele>
        <time>2021-07-22T12:27:32.000Z</time>
      </trkpt>
      <trkpt lat="42.91045" lon="0.2153">
        <ele>1603.6</ele>
        <time>2021-07-22T12:27:45.000Z</time>
      </trkpt>
      <trkpt lat="42.91054" lon="0.21531">
        <ele>1601.4</ele>
        <time>2021-07-22T12:27:56.000Z</time>
      </trkpt>
      <trkpt lat="42.91064" lon="0.21527">
        <ele>1600</ele>
        <time>2021-07-22T12:28:06.000Z</time>
      </trkpt>
      <trkpt lat="42.91073" lon="0.21529">
        <ele>1599.4</ele>
        <time>2021-07-22T12:28:12.000Z</time>
      </trkpt>
      <trkpt lat="42.91082" lon="0.21523">
        <ele>1599.1</ele>
        <time>2021-07-22T12:28:20.000Z</time>
      </trkpt>
      <trkpt lat="42.91088" lon="0.21513">
        <ele>1599.9</ele>
        <time>2021-07-22T12:28:30.000Z</time>
      </trkpt>
      <trkpt lat="42.9109" lon="0.21503">
        <ele>1602.8</ele>
        <time>2021-07-22T12:28:43.000Z</time>
      </trkpt>
      <trkpt lat="42.9109" lon="0.21503">
        <ele>1602.9</ele>
        <time>2021-07-22T12:28:44.000Z</time>
      </trkpt>
      <trkpt lat="42.91096" lon="0.21492">
        <ele>1605.3</ele>
        <time>2021-07-22T12:28:55.000Z</time>
      </trkpt>
      <trkpt lat="42.91104" lon="0.21486">
        <ele>1605.6</ele>
        <time>2021-07-22T12:29:03.000Z</time>
      </trkpt>
      <trkpt lat="42.91111" lon="0.21478">
        <ele>1605.8</ele>
        <time>2021-07-22T12:29:10.000Z</time>
      </trkpt>
      <trkpt lat="42.91119" lon="0.21474">
        <ele>1606.5</ele>
        <time>2021-07-22T12:29:19.000Z</time>
      </trkpt>
      <trkpt lat="42.91128" lon="0.21468">
        <ele>1607.1</ele>
        <time>2021-07-22T12:29:29.000Z</time>
      </trkpt>
      <trkpt lat="42.91135" lon="0.21476">
        <ele>1604.9</ele>
        <time>2021-07-22T12:29:41.000Z</time>
      </trkpt>
      <trkpt lat="42.91141" lon="0.21487">
        <ele>1602.5</ele>
        <time>2021-07-22T12:29:50.000Z</time>
      </trkpt>
      <trkpt lat="42.91148" lon="0.21497">
        <ele>1601.4</ele>
        <time>2021-07-22T12:29:58.000Z</time>
      </trkpt>
      <trkpt lat="42.91156" lon="0.21504">
        <ele>1601.3</ele>
        <time>2021-07-22T12:30:06.000Z</time>
      </trkpt>
      <trkpt lat="42.91164" lon="0.2151">
        <ele>1601.1</ele>
        <time>2021-07-22T12:30:13.000Z</time>
      </trkpt>
      <trkpt lat="42.91172" lon="0.21517">
        <ele>1601.4</ele>
        <time>2021-07-22T12:30:21.000Z</time>
      </trkpt>
      <trkpt lat="42.91175" lon="0.2153">
        <ele>1601.2</ele>
        <time>2021-07-22T12:30:31.000Z</time>
      </trkpt>
      <trkpt lat="42.91182" lon="0.21539">
        <ele>1600.8</ele>
        <time>2021-07-22T12:30:41.000Z</time>
      </trkpt>
      <trkpt lat="42.9119" lon="0.21547">
        <ele>1599.1</ele>
        <time>2021-07-22T12:30:48.000Z</time>
      </trkpt>
      <trkpt lat="42.91196" lon="0.21556">
        <ele>1598.3</ele>
        <time>2021-07-22T12:30:55.000Z</time>
      </trkpt>
      <trkpt lat="42.91203" lon="0.21565">
        <ele>1598.2</ele>
        <time>2021-07-22T12:31:02.000Z</time>
      </trkpt>
      <trkpt lat="42.91211" lon="0.21571">
        <ele>1597.7</ele>
        <time>2021-07-22T12:31:09.000Z</time>
      </trkpt>
      <trkpt lat="42.9122" lon="0.21577">
        <ele>1599.4</ele>
        <time>2021-07-22T12:31:17.000Z</time>
      </trkpt>
      <trkpt lat="42.91228" lon="0.21582">
        <ele>1598.9</ele>
        <time>2021-07-22T12:31:25.000Z</time>
      </trkpt>
      <trkpt lat="42.91237" lon="0.21586">
        <ele>1599.9</ele>
        <time>2021-07-22T12:31:33.000Z</time>
      </trkpt>
      <trkpt lat="42.91247" lon="0.21591">
        <ele>1600.4</ele>
        <time>2021-07-22T12:31:42.000Z</time>
      </trkpt>
      <trkpt lat="42.91256" lon="0.21597">
        <ele>1600.8</ele>
        <time>2021-07-22T12:31:51.000Z</time>
      </trkpt>
      <trkpt lat="42.91265" lon="0.21601">
        <ele>1601.9</ele>
        <time>2021-07-22T12:31:59.000Z</time>
      </trkpt>
      <trkpt lat="42.91274" lon="0.21606">
        <ele>1601.8</ele>
        <time>2021-07-22T12:32:06.000Z</time>
      </trkpt>
      <trkpt lat="42.91283" lon="0.21613">
        <ele>1602.1</ele>
        <time>2021-07-22T12:32:14.000Z</time>
      </trkpt>
      <trkpt lat="42.91291" lon="0.21618">
        <ele>1602.7</ele>
        <time>2021-07-22T12:32:22.000Z</time>
      </trkpt>
      <trkpt lat="42.91301" lon="0.21621">
        <ele>1602.9</ele>
        <time>2021-07-22T12:32:31.000Z</time>
      </trkpt>
      <trkpt lat="42.9131" lon="0.21623">
        <ele>1602.6</ele>
        <time>2021-07-22T12:32:37.000Z</time>
      </trkpt>
      <trkpt lat="42.91319" lon="0.21628">
        <ele>1602.6</ele>
        <time>2021-07-22T12:32:44.000Z</time>
      </trkpt>
      <trkpt lat="42.91328" lon="0.21635">
        <ele>1603</ele>
        <time>2021-07-22T12:32:52.000Z</time>
      </trkpt>
      <trkpt lat="42.91337" lon="0.21638">
        <ele>1603.5</ele>
        <time>2021-07-22T12:32:58.000Z</time>
      </trkpt>
      <trkpt lat="42.91345" lon="0.21644">
        <ele>1603.7</ele>
        <time>2021-07-22T12:33:05.000Z</time>
      </trkpt>
      <trkpt lat="42.91355" lon="0.21651">
        <ele>1604</ele>
        <time>2021-07-22T12:33:12.000Z</time>
      </trkpt>
      <trkpt lat="42.91363" lon="0.21655">
        <ele>1604.3</ele>
        <time>2021-07-22T12:33:18.000Z</time>
      </trkpt>
      <trkpt lat="42.91373" lon="0.2166">
        <ele>1603.8</ele>
        <time>2021-07-22T12:33:25.000Z</time>
      </trkpt>
      <trkpt lat="42.91382" lon="0.21666">
        <ele>1603.2</ele>
        <time>2021-07-22T12:33:33.000Z</time>
      </trkpt>
      <trkpt lat="42.91391" lon="0.21671">
        <ele>1602.5</ele>
        <time>2021-07-22T12:33:40.000Z</time>
      </trkpt>
      <trkpt lat="42.914" lon="0.21674">
        <ele>1602.3</ele>
        <time>2021-07-22T12:33:47.000Z</time>
      </trkpt>
      <trkpt lat="42.91409" lon="0.21676">
        <ele>1602</ele>
        <time>2021-07-22T12:33:55.000Z</time>
      </trkpt>
      <trkpt lat="42.91419" lon="0.21679">
        <ele>1601.8</ele>
        <time>2021-07-22T12:34:02.000Z</time>
      </trkpt>
      <trkpt lat="42.91428" lon="0.21679">
        <ele>1601.9</ele>
        <time>2021-07-22T12:34:09.000Z</time>
      </trkpt>
      <trkpt lat="42.91437" lon="0.21679">
        <ele>1601.6</ele>
        <time>2021-07-22T12:34:15.000Z</time>
      </trkpt>
      <trkpt lat="42.91447" lon="0.21677">
        <ele>1601.5</ele>
        <time>2021-07-22T12:34:22.000Z</time>
      </trkpt>
      <trkpt lat="42.91457" lon="0.21676">
        <ele>1601.5</ele>
        <time>2021-07-22T12:34:31.000Z</time>
      </trkpt>
      <trkpt lat="42.91465" lon="0.21671">
        <ele>1601.2</ele>
        <time>2021-07-22T12:34:38.000Z</time>
      </trkpt>
      <trkpt lat="42.91472" lon="0.21663">
        <ele>1601.1</ele>
        <time>2021-07-22T12:34:46.000Z</time>
      </trkpt>
      <trkpt lat="42.91482" lon="0.21663">
        <ele>1601</ele>
        <time>2021-07-22T12:34:53.000Z</time>
      </trkpt>
      <trkpt lat="42.91492" lon="0.21662">
        <ele>1599.5</ele>
        <time>2021-07-22T12:35:00.000Z</time>
      </trkpt>
      <trkpt lat="42.915" lon="0.21657">
        <ele>1598.7</ele>
        <time>2021-07-22T12:35:06.000Z</time>
      </trkpt>
      <trkpt lat="42.91509" lon="0.2165">
        <ele>1597.1</ele>
        <time>2021-07-22T12:35:14.000Z</time>
      </trkpt>
      <trkpt lat="42.91518" lon="0.21645">
        <ele>1595.9</ele>
        <time>2021-07-22T12:35:21.000Z</time>
      </trkpt>
      <trkpt lat="42.91527" lon="0.21647">
        <ele>1595.4</ele>
        <time>2021-07-22T12:35:27.000Z</time>
      </trkpt>
      <trkpt lat="42.91537" lon="0.2165">
        <ele>1594.4</ele>
        <time>2021-07-22T12:35:36.000Z</time>
      </trkpt>
      <trkpt lat="42.91546" lon="0.21651">
        <ele>1593.2</ele>
        <time>2021-07-22T12:35:45.000Z</time>
      </trkpt>
      <trkpt lat="42.91554" lon="0.21645">
        <ele>1590.8</ele>
        <time>2021-07-22T12:35:55.000Z</time>
      </trkpt>
      <trkpt lat="42.91546" lon="0.21648">
        <ele>1590.7</ele>
        <time>2021-07-22T12:36:13.000Z</time>
      </trkpt>
      <trkpt lat="42.91537" lon="0.21649">
        <ele>1592.7</ele>
        <time>2021-07-22T12:36:24.000Z</time>
      </trkpt>
      <trkpt lat="42.91531" lon="0.21639">
        <ele>1593.9</ele>
        <time>2021-07-22T12:36:32.000Z</time>
      </trkpt>
      <trkpt lat="42.91526" lon="0.21627">
        <ele>1595.2</ele>
        <time>2021-07-22T12:36:40.000Z</time>
      </trkpt>
      <trkpt lat="42.91522" lon="0.21615">
        <ele>1596.7</ele>
        <time>2021-07-22T12:36:49.000Z</time>
      </trkpt>
      <trkpt lat="42.91521" lon="0.21602">
        <ele>1598.3</ele>
        <time>2021-07-22T12:36:59.000Z</time>
      </trkpt>
      <trkpt lat="42.91525" lon="0.2159">
        <ele>1598.2</ele>
        <time>2021-07-22T12:37:07.000Z</time>
      </trkpt>
      <trkpt lat="42.9153" lon="0.21579">
        <ele>1599.1</ele>
        <time>2021-07-22T12:37:16.000Z</time>
      </trkpt>
      <trkpt lat="42.91534" lon="0.21568">
        <ele>1598.6</ele>
        <time>2021-07-22T12:37:24.000Z</time>
      </trkpt>
      <trkpt lat="42.91539" lon="0.21555">
        <ele>1598.6</ele>
        <time>2021-07-22T12:37:32.000Z</time>
      </trkpt>
      <trkpt lat="42.91543" lon="0.21542">
        <ele>1598.5</ele>
        <time>2021-07-22T12:37:39.000Z</time>
      </trkpt>
      <trkpt lat="42.91548" lon="0.21531">
        <ele>1597.4</ele>
        <time>2021-07-22T12:37:47.000Z</time>
      </trkpt>
      <trkpt lat="42.9155" lon="0.21517">
        <ele>1596.4</ele>
        <time>2021-07-22T12:37:55.000Z</time>
      </trkpt>
      <trkpt lat="42.91552" lon="0.21505">
        <ele>1595.3</ele>
        <time>2021-07-22T12:38:02.000Z</time>
      </trkpt>
      <trkpt lat="42.91558" lon="0.21494">
        <ele>1594.9</ele>
        <time>2021-07-22T12:38:08.000Z</time>
      </trkpt>
      <trkpt lat="42.91561" lon="0.21482">
        <ele>1594</ele>
        <time>2021-07-22T12:38:15.000Z</time>
      </trkpt>
      <trkpt lat="42.91564" lon="0.21469">
        <ele>1593.3</ele>
        <time>2021-07-22T12:38:23.000Z</time>
      </trkpt>
      <trkpt lat="42.91568" lon="0.21458">
        <ele>1593</ele>
        <time>2021-07-22T12:38:30.000Z</time>
      </trkpt>
      <trkpt lat="42.91573" lon="0.21447">
        <ele>1592.3</ele>
        <time>2021-07-22T12:38:40.000Z</time>
      </trkpt>
      <trkpt lat="42.91573" lon="0.21445">
        <ele>1591.7</ele>
        <time>2021-07-22T12:38:44.000Z</time>
      </trkpt>
      <trkpt lat="42.91574" lon="0.21444">
        <ele>1591.7</ele>
        <time>2021-07-22T12:38:52.000Z</time>
      </trkpt>
      <trkpt lat="42.91578" lon="0.21433">
        <ele>1589.9</ele>
        <time>2021-07-22T12:39:03.000Z</time>
      </trkpt>
      <trkpt lat="42.91583" lon="0.21423">
        <ele>1587.7</ele>
        <time>2021-07-22T12:39:14.000Z</time>
      </trkpt>
      <trkpt lat="42.91584" lon="0.21409">
        <ele>1586</ele>
        <time>2021-07-22T12:39:22.000Z</time>
      </trkpt>
      <trkpt lat="42.91589" lon="0.21397">
        <ele>1583.3</ele>
        <time>2021-07-22T12:39:34.000Z</time>
      </trkpt>
      <trkpt lat="42.91591" lon="0.21392">
        <ele>1581</ele>
        <time>2021-07-22T12:39:41.000Z</time>
      </trkpt>
      <trkpt lat="42.9159" lon="0.21391">
        <ele>1580.8</ele>
        <time>2021-07-22T12:39:42.000Z</time>
      </trkpt>
      <trkpt lat="42.91588" lon="0.21379">
        <ele>1577.6</ele>
        <time>2021-07-22T12:39:54.000Z</time>
      </trkpt>
      <trkpt lat="42.91588" lon="0.21379">
        <ele>1577.4</ele>
        <time>2021-07-22T12:39:55.000Z</time>
      </trkpt>
      <trkpt lat="42.91591" lon="0.21367">
        <ele>1574.3</ele>
        <time>2021-07-22T12:40:09.000Z</time>
      </trkpt>
      <trkpt lat="42.91588" lon="0.21355">
        <ele>1570.2</ele>
        <time>2021-07-22T12:40:25.000Z</time>
      </trkpt>
      <trkpt lat="42.91585" lon="0.21343">
        <ele>1567.3</ele>
        <time>2021-07-22T12:40:36.000Z</time>
      </trkpt>
      <trkpt lat="42.91591" lon="0.21333">
        <ele>1562.7</ele>
        <time>2021-07-22T12:40:53.000Z</time>
      </trkpt>
      <trkpt lat="42.91584" lon="0.21325">
        <ele>1557.2</ele>
        <time>2021-07-22T12:41:15.000Z</time>
      </trkpt>
      <trkpt lat="42.91582" lon="0.21312">
        <ele>1555.2</ele>
        <time>2021-07-22T12:41:23.000Z</time>
      </trkpt>
      <trkpt lat="42.91582" lon="0.213">
        <ele>1550.3</ele>
        <time>2021-07-22T12:41:42.000Z</time>
      </trkpt>
      <trkpt lat="42.91576" lon="0.2129">
        <ele>1546.9</ele>
        <time>2021-07-22T12:41:52.000Z</time>
      </trkpt>
      <trkpt lat="42.9157" lon="0.21278">
        <ele>1544.6</ele>
        <time>2021-07-22T12:42:03.000Z</time>
      </trkpt>
      <trkpt lat="42.91569" lon="0.21275">
        <ele>1543.3</ele>
        <time>2021-07-22T12:42:08.000Z</time>
      </trkpt>
      <trkpt lat="42.91569" lon="0.21274">
        <ele>1541.8</ele>
        <time>2021-07-22T12:42:14.000Z</time>
      </trkpt>
      <trkpt lat="42.91568" lon="0.21273">
        <ele>1540.4</ele>
        <time>2021-07-22T12:42:18.000Z</time>
      </trkpt>
      <trkpt lat="42.91568" lon="0.21272">
        <ele>1540.1</ele>
        <time>2021-07-22T12:42:19.000Z</time>
      </trkpt>
      <trkpt lat="42.91565" lon="0.21258">
        <ele>1537.6</ele>
        <time>2021-07-22T12:42:25.000Z</time>
      </trkpt>
      <trkpt lat="42.91559" lon="0.21249">
        <ele>1536.4</ele>
        <time>2021-07-22T12:42:33.000Z</time>
      </trkpt>
      <trkpt lat="42.91559" lon="0.21234">
        <ele>1534.7</ele>
        <time>2021-07-22T12:42:44.000Z</time>
      </trkpt>
      <trkpt lat="42.91567" lon="0.21228">
        <ele>1531.9</ele>
        <time>2021-07-22T12:43:03.000Z</time>
      </trkpt>
      <trkpt lat="42.91576" lon="0.21223">
        <ele>1529.5</ele>
        <time>2021-07-22T12:43:14.000Z</time>
      </trkpt>
      <trkpt lat="42.91573" lon="0.21211">
        <ele>1527.3</ele>
        <time>2021-07-22T12:43:23.000Z</time>
      </trkpt>
      <trkpt lat="42.9157" lon="0.21199">
        <ele>1523</ele>
        <time>2021-07-22T12:43:43.000Z</time>
      </trkpt>
      <trkpt lat="42.91573" lon="0.21188">
        <ele>1519.9</ele>
        <time>2021-07-22T12:43:55.000Z</time>
      </trkpt>
      <trkpt lat="42.91573" lon="0.21174">
        <ele>1516.6</ele>
        <time>2021-07-22T12:44:10.000Z</time>
      </trkpt>
      <trkpt lat="42.91566" lon="0.21165">
        <ele>1514.4</ele>
        <time>2021-07-22T12:44:20.000Z</time>
      </trkpt>
      <trkpt lat="42.91574" lon="0.21159">
        <ele>1512.2</ele>
        <time>2021-07-22T12:44:32.000Z</time>
      </trkpt>
      <trkpt lat="42.91583" lon="0.21165">
        <ele>1510.3</ele>
        <time>2021-07-22T12:44:39.000Z</time>
      </trkpt>
      <trkpt lat="42.91592" lon="0.21169">
        <ele>1508.1</ele>
        <time>2021-07-22T12:44:47.000Z</time>
      </trkpt>
      <trkpt lat="42.91596" lon="0.21157">
        <ele>1502</ele>
        <time>2021-07-22T12:45:10.000Z</time>
      </trkpt>
      <trkpt lat="42.91598" lon="0.21145">
        <ele>1499.3</ele>
        <time>2021-07-22T12:45:21.000Z</time>
      </trkpt>
      <trkpt lat="42.91596" lon="0.21131">
        <ele>1495.7</ele>
        <time>2021-07-22T12:45:36.000Z</time>
      </trkpt>
      <trkpt lat="42.91597" lon="0.21118">
        <ele>1491.7</ele>
        <time>2021-07-22T12:45:48.000Z</time>
      </trkpt>
      <trkpt lat="42.916" lon="0.21106">
        <ele>1490.3</ele>
        <time>2021-07-22T12:45:56.000Z</time>
      </trkpt>
      <trkpt lat="42.91605" lon="0.21094">
        <ele>1488.3</ele>
        <time>2021-07-22T12:46:06.000Z</time>
      </trkpt>
      <trkpt lat="42.91608" lon="0.21082">
        <ele>1486.8</ele>
        <time>2021-07-22T12:46:13.000Z</time>
      </trkpt>
      <trkpt lat="42.91607" lon="0.21069">
        <ele>1485.3</ele>
        <time>2021-07-22T12:46:21.000Z</time>
      </trkpt>
      <trkpt lat="42.91606" lon="0.21056">
        <ele>1483.7</ele>
        <time>2021-07-22T12:46:31.000Z</time>
      </trkpt>
      <trkpt lat="42.91607" lon="0.21044">
        <ele>1482</ele>
        <time>2021-07-22T12:46:39.000Z</time>
      </trkpt>
      <trkpt lat="42.91607" lon="0.21031">
        <ele>1480</ele>
        <time>2021-07-22T12:46:48.000Z</time>
      </trkpt>
      <trkpt lat="42.9161" lon="0.2102">
        <ele>1479.1</ele>
        <time>2021-07-22T12:46:55.000Z</time>
      </trkpt>
      <trkpt lat="42.91613" lon="0.21007">
        <ele>1477.9</ele>
        <time>2021-07-22T12:47:02.000Z</time>
      </trkpt>
      <trkpt lat="42.91615" lon="0.21003">
        <ele>1477.7</ele>
        <time>2021-07-22T12:47:11.000Z</time>
      </trkpt>
      <trkpt lat="42.91616" lon="0.21004">
        <ele>1477.9</ele>
        <time>2021-07-22T12:47:15.000Z</time>
      </trkpt>
      <trkpt lat="42.91616" lon="0.21004">
        <ele>1477.9</ele>
        <time>2021-07-22T12:47:16.000Z</time>
      </trkpt>
      <trkpt lat="42.91616" lon="0.21004">
        <ele>1477.3</ele>
        <time>2021-07-22T12:47:22.000Z</time>
      </trkpt>
      <trkpt lat="42.91624" lon="0.20999">
        <ele>1478.3</ele>
        <time>2021-07-22T12:47:33.000Z</time>
      </trkpt>
      <trkpt lat="42.91627" lon="0.20987">
        <ele>1477.9</ele>
        <time>2021-07-22T12:47:44.000Z</time>
      </trkpt>
      <trkpt lat="42.91637" lon="0.20985">
        <ele>1475.5</ele>
        <time>2021-07-22T12:47:58.000Z</time>
      </trkpt>
      <trkpt lat="42.91641" lon="0.20973">
        <ele>1473.5</ele>
        <time>2021-07-22T12:48:12.000Z</time>
      </trkpt>
      <trkpt lat="42.9164" lon="0.20959">
        <ele>1473.2</ele>
        <time>2021-07-22T12:48:23.000Z</time>
      </trkpt>
      <trkpt lat="42.91636" lon="0.20948">
        <ele>1473.2</ele>
        <time>2021-07-22T12:48:29.000Z</time>
      </trkpt>
      <trkpt lat="42.91631" lon="0.20937">
        <ele>1473.8</ele>
        <time>2021-07-22T12:48:38.000Z</time>
      </trkpt>
      <trkpt lat="42.91633" lon="0.20924">
        <ele>1474</ele>
        <time>2021-07-22T12:48:50.000Z</time>
      </trkpt>
      <trkpt lat="42.91642" lon="0.20927">
        <ele>1473.8</ele>
        <time>2021-07-22T12:49:10.000Z</time>
      </trkpt>
      <trkpt lat="42.91651" lon="0.20928">
        <ele>1473.1</ele>
        <time>2021-07-22T12:49:19.000Z</time>
      </trkpt>
      <trkpt lat="42.91659" lon="0.20921">
        <ele>1472.3</ele>
        <time>2021-07-22T12:49:33.000Z</time>
      </trkpt>
      <trkpt lat="42.91667" lon="0.20928">
        <ele>1477.5</ele>
        <time>2021-07-22T12:50:00.000Z</time>
      </trkpt>
      <trkpt lat="42.91667" lon="0.20928">
        <ele>1477.9</ele>
        <time>2021-07-22T12:50:02.000Z</time>
      </trkpt>
      <trkpt lat="42.91666" lon="0.20928">
        <ele>1478</ele>
        <time>2021-07-22T12:50:03.000Z</time>
      </trkpt>
      <trkpt lat="42.91673" lon="0.20938">
        <ele>1478.8</ele>
        <time>2021-07-22T12:50:13.000Z</time>
      </trkpt>
      <trkpt lat="42.91683" lon="0.2094">
        <ele>1478.4</ele>
        <time>2021-07-22T12:50:23.000Z</time>
      </trkpt>
      <trkpt lat="42.9169" lon="0.20945">
        <ele>1478.2</ele>
        <time>2021-07-22T12:50:34.000Z</time>
      </trkpt>
      <trkpt lat="42.9169" lon="0.20945">
        <ele>1478.2</ele>
        <time>2021-07-22T12:50:35.000Z</time>
      </trkpt>
      <trkpt lat="42.91691" lon="0.20944">
        <ele>1478</ele>
        <time>2021-07-22T12:50:40.000Z</time>
      </trkpt>
      <trkpt lat="42.91692" lon="0.20943">
        <ele>1478.1</ele>
        <time>2021-07-22T12:50:42.000Z</time>
      </trkpt>
      <trkpt lat="42.91692" lon="0.2093">
        <ele>1478.4</ele>
        <time>2021-07-22T12:50:55.000Z</time>
      </trkpt>
      <trkpt lat="42.91697" lon="0.20919">
        <ele>1478.9</ele>
        <time>2021-07-22T12:51:03.000Z</time>
      </trkpt>
      <trkpt lat="42.91706" lon="0.20914">
        <ele>1479.4</ele>
        <time>2021-07-22T12:51:15.000Z</time>
      </trkpt>
      <trkpt lat="42.91716" lon="0.20913">
        <ele>1479.9</ele>
        <time>2021-07-22T12:51:24.000Z</time>
      </trkpt>
      <trkpt lat="42.91721" lon="0.20909">
        <ele>1477.9</ele>
        <time>2021-07-22T12:51:34.000Z</time>
      </trkpt>
      <trkpt lat="42.9172" lon="0.20909">
        <ele>1478.4</ele>
        <time>2021-07-22T12:51:35.000Z</time>
      </trkpt>
      <trkpt lat="42.9172" lon="0.20909">
        <ele>1479.1</ele>
        <time>2021-07-22T12:51:38.000Z</time>
      </trkpt>
      <trkpt lat="42.9172" lon="0.20909">
        <ele>1480.3</ele>
        <time>2021-07-22T12:51:44.000Z</time>
      </trkpt>
      <trkpt lat="42.9172" lon="0.20909">
        <ele>1480.4</ele>
        <time>2021-07-22T12:51:45.000Z</time>
      </trkpt>
      <trkpt lat="42.9172" lon="0.20909">
        <ele>1479.8</ele>
        <time>2021-07-22T12:52:08.000Z</time>
      </trkpt>
      <trkpt lat="42.9172" lon="0.20909">
        <ele>1479.7</ele>
        <time>2021-07-22T12:52:09.000Z</time>
      </trkpt>
      <trkpt lat="42.9172" lon="0.20909">
        <ele>1479.7</ele>
        <time>2021-07-22T12:52:09.000Z</time>
      </trkpt>
    </trkseg>
  </trk>
</gpx>